<?xml version='1.0' encoding='UTF-8'?><gpx version="1.1" creator="JPX - https://github.com/jenetics/jpx" xmlns="http://www.topografix.com/GPX/1/1"><trk><trkseg><trkpt lat="45.15442422736986" lon="9.706958843095965"><ele>56.0</ele><time>2026-05-03T07:09:45.999Z</time></trkpt><trkpt lat="45.154524091792936" lon="9.706948169628824"><ele>55.99999999999999</ele><time>2026-05-03T07:09:47.999Z</time></trkpt><trkpt lat="45.15458165240316" lon="9.70685887334185"><ele>55.99999999999999</ele><time>2026-05-03T07:09:48.999Z</time></trkpt><trkpt lat="45.1546456017883" lon="9.706782428523118"><ele>56.0</ele><time>2026-05-03T07:09:49.999Z</time></trkpt><trkpt lat="45.154712349111634" lon="9.706696494287417"><ele>56.0</ele><time>2026-05-03T07:09:50.999Z</time></trkpt><trkpt lat="45.15481425564023" lon="9.70661653316113"><ele>56.66666666666667</ele><time>2026-05-03T07:09:51.999Z</time></trkpt><trkpt lat="45.154898172118756" lon="9.706492279361667"><ele>57.33333333333333</ele><time>2026-05-03T07:09:52.999Z</time></trkpt><trkpt lat="45.154994770181894" lon="9.7064036641311"><ele>58.0</ele><time>2026-05-03T07:09:53.999Z</time></trkpt><trkpt lat="45.15520166909694" lon="9.706163762453459"><ele>58.0</ele><time>2026-05-03T07:09:56.999Z</time></trkpt><trkpt lat="45.1552586109449" lon="9.706115335733037"><ele>58.0</ele><time>2026-05-03T07:09:57.999Z</time></trkpt><trkpt lat="45.15532358303476" lon="9.706089474545996"><ele>58.0</ele><time>2026-05-03T07:09:59.999Z</time></trkpt><trkpt lat="45.15534460364119" lon="9.705889437745736"><ele>58.0</ele><time>2026-05-03T07:10:17.999Z</time></trkpt><trkpt lat="45.15533221670812" lon="9.70574897511376"><ele>58.0</ele><time>2026-05-03T07:10:18.999Z</time></trkpt><trkpt lat="45.15530487562878" lon="9.70560005903715"><ele>58.25</ele><time>2026-05-03T07:10:19.999Z</time></trkpt><trkpt lat="45.15526614576835" lon="9.705436058659908"><ele>58.5</ele><time>2026-05-03T07:10:20.999Z</time></trkpt><trkpt lat="45.155226798743016" lon="9.705255291680773"><ele>58.75</ele><time>2026-05-03T07:10:21.999Z</time></trkpt><trkpt lat="45.15518708192066" lon="9.705070356203848"><ele>59.0</ele><time>2026-05-03T07:10:22.999Z</time></trkpt><trkpt lat="45.15516387295797" lon="9.704865804320862"><ele>59.25</ele><time>2026-05-03T07:10:23.999Z</time></trkpt><trkpt lat="45.15511002932271" lon="9.704674153868115"><ele>59.5</ele><time>2026-05-03T07:10:24.999Z</time></trkpt><trkpt lat="45.155074050726924" lon="9.704478824486626"><ele>59.75</ele><time>2026-05-03T07:10:25.999Z</time></trkpt><trkpt lat="45.15503657541431" lon="9.704307464374736"><ele>60.0</ele><time>2026-05-03T07:10:26.999Z</time></trkpt><trkpt lat="45.15500963987905" lon="9.704148612068687"><ele>60.0</ele><time>2026-05-03T07:10:27.999Z</time></trkpt><trkpt lat="45.15498991705085" lon="9.704019191765415"><ele>60.0</ele><time>2026-05-03T07:10:28.999Z</time></trkpt><trkpt lat="45.15496810139922" lon="9.703905300322342"><ele>60.0</ele><time>2026-05-03T07:10:29.999Z</time></trkpt><trkpt lat="45.15495357487535" lon="9.703802074620715"><ele>60.0</ele><time>2026-05-03T07:10:30.998Z</time></trkpt><trkpt lat="45.15493450642826" lon="9.703715922017246"><ele>60.0</ele><time>2026-05-03T07:10:31.998Z</time></trkpt><trkpt lat="45.15490696727686" lon="9.703630385852222"><ele>60.0</ele><time>2026-05-03T07:10:32.998Z</time></trkpt><trkpt lat="45.15483198338815" lon="9.703514305258762"><ele>60.0</ele><time>2026-05-03T07:10:34.998Z</time></trkpt><trkpt lat="45.15475116147264" lon="9.70351783213082"><ele>60.0</ele><time>2026-05-03T07:10:35.998Z</time></trkpt><trkpt lat="45.15468585192831" lon="9.703627258851206"><ele>60.0</ele><time>2026-05-03T07:10:36.998Z</time></trkpt><trkpt lat="45.154629265968104" lon="9.703754594431228"><ele>60.0</ele><time>2026-05-03T07:10:37.998Z</time></trkpt><trkpt lat="45.15455853275469" lon="9.703877894672013"><ele>60.0</ele><time>2026-05-03T07:10:38.998Z</time></trkpt><trkpt lat="45.154484558951054" lon="9.703999101043037"><ele>59.75</ele><time>2026-05-03T07:10:39.998Z</time></trkpt><trkpt lat="45.15440590717058" lon="9.704120392173664"><ele>59.5</ele><time>2026-05-03T07:10:40.998Z</time></trkpt><trkpt lat="45.1543187403306" lon="9.704234354952813"><ele>59.25</ele><time>2026-05-03T07:10:41.998Z</time></trkpt><trkpt lat="45.154209576439676" lon="9.704327636478839"><ele>59.0</ele><time>2026-05-03T07:10:42.998Z</time></trkpt><trkpt lat="45.154053498808764" lon="9.704406195968694"><ele>59.0</ele><time>2026-05-03T07:10:43.998Z</time></trkpt><trkpt lat="45.15392026083764" lon="9.704503356766201"><ele>59.0</ele><time>2026-05-03T07:10:44.998Z</time></trkpt><trkpt lat="45.15378809498026" lon="9.704600495320562"><ele>59.0</ele><time>2026-05-03T07:10:45.998Z</time></trkpt><trkpt lat="45.153652111398365" lon="9.704706523740747"><ele>59.0</ele><time>2026-05-03T07:10:46.998Z</time></trkpt><trkpt lat="45.153511368710355" lon="9.704826783739351"><ele>59.0</ele><time>2026-05-03T07:10:47.998Z</time></trkpt><trkpt lat="45.15336553493294" lon="9.704937484118224"><ele>59.0</ele><time>2026-05-03T07:10:48.998Z</time></trkpt><trkpt lat="45.15321562701252" lon="9.705042346080823"><ele>58.66666666666667</ele><time>2026-05-03T07:10:49.998Z</time></trkpt><trkpt lat="45.15306689357927" lon="9.705160022981751"><ele>58.33333333333333</ele><time>2026-05-03T07:10:50.998Z</time></trkpt><trkpt lat="45.152912031649166" lon="9.705287844722847"><ele>58.0</ele><time>2026-05-03T07:10:51.998Z</time></trkpt><trkpt lat="45.152759659992626" lon="9.705423815435076"><ele>58.0</ele><time>2026-05-03T07:10:52.998Z</time></trkpt><trkpt lat="45.152612418320366" lon="9.705543713159415"><ele>58.0</ele><time>2026-05-03T07:10:53.998Z</time></trkpt><trkpt lat="45.15246835236887" lon="9.70565631749909"><ele>58.0</ele><time>2026-05-03T07:10:54.998Z</time></trkpt><trkpt lat="45.15232173331983" lon="9.70574925351089"><ele>58.0</ele><time>2026-05-03T07:10:55.998Z</time></trkpt><trkpt lat="45.152175390530616" lon="9.705813913956005"><ele>58.0</ele><time>2026-05-03T07:10:56.998Z</time></trkpt><trkpt lat="45.15202864937234" lon="9.705827341145808"><ele>58.0</ele><time>2026-05-03T07:10:57.998Z</time></trkpt><trkpt lat="45.1518897530051" lon="9.705797995508041"><ele>58.0</ele><time>2026-05-03T07:10:58.998Z</time></trkpt><trkpt lat="45.15175164215019" lon="9.705719360615198"><ele>58.0</ele><time>2026-05-03T07:10:59.998Z</time></trkpt><trkpt lat="45.15164191057071" lon="9.705644053292021"><ele>58.0</ele><time>2026-05-03T07:11:00.998Z</time></trkpt><trkpt lat="45.15154809505943" lon="9.705555703521403"><ele>58.0</ele><time>2026-05-03T07:11:01.998Z</time></trkpt><trkpt lat="45.15145881511342" lon="9.705442137799286"><ele>58.0</ele><time>2026-05-03T07:11:02.998Z</time></trkpt><trkpt lat="45.15137584703555" lon="9.705317187630827"><ele>57.75</ele><time>2026-05-03T07:11:03.998Z</time></trkpt><trkpt lat="45.15131514724542" lon="9.705171560909768"><ele>57.5</ele><time>2026-05-03T07:11:04.998Z</time></trkpt><trkpt lat="45.15125475344283" lon="9.705011540063657"><ele>57.25</ele><time>2026-05-03T07:11:05.998Z</time></trkpt><trkpt lat="45.15118996398667" lon="9.704840975710233"><ele>57.0</ele><time>2026-05-03T07:11:06.998Z</time></trkpt><trkpt lat="45.15111583251927" lon="9.704645700929719"><ele>57.0</ele><time>2026-05-03T07:11:07.998Z</time></trkpt><trkpt lat="45.151051315177014" lon="9.70447439936856"><ele>57.0</ele><time>2026-05-03T07:11:08.998Z</time></trkpt><trkpt lat="45.15097245240048" lon="9.704315090291857"><ele>57.0</ele><time>2026-05-03T07:11:09.998Z</time></trkpt><trkpt lat="45.15093950942064" lon="9.704121832863734"><ele>57.0</ele><time>2026-05-03T07:11:10.998Z</time></trkpt><trkpt lat="45.15088145095454" lon="9.703923054520954"><ele>57.0</ele><time>2026-05-03T07:11:11.998Z</time></trkpt><trkpt lat="45.15081915973946" lon="9.70373647035427"><ele>57.0</ele><time>2026-05-03T07:11:12.998Z</time></trkpt><trkpt lat="45.15077726856603" lon="9.703543390940876"><ele>57.0</ele><time>2026-05-03T07:11:13.998Z</time></trkpt><trkpt lat="45.150751880029496" lon="9.70334025580335"><ele>57.0</ele><time>2026-05-03T07:11:14.998Z</time></trkpt><trkpt lat="45.1507218797448" lon="9.703145787876933"><ele>56.75</ele><time>2026-05-03T07:11:15.998Z</time></trkpt><trkpt lat="45.15068497937996" lon="9.702960444725816"><ele>56.5</ele><time>2026-05-03T07:11:16.998Z</time></trkpt><trkpt lat="45.15065320374637" lon="9.70278637712086"><ele>56.25</ele><time>2026-05-03T07:11:17.998Z</time></trkpt><trkpt lat="45.15061755231966" lon="9.70261193574907"><ele>56.0</ele><time>2026-05-03T07:11:18.998Z</time></trkpt><trkpt lat="45.15058357574589" lon="9.702434798931076"><ele>56.0</ele><time>2026-05-03T07:11:19.998Z</time></trkpt><trkpt lat="45.15054946636939" lon="9.702275622336257"><ele>55.99999999999999</ele><time>2026-05-03T07:11:20.998Z</time></trkpt><trkpt lat="45.150520353566755" lon="9.702129119129077"><ele>55.99999999999999</ele><time>2026-05-03T07:11:21.998Z</time></trkpt><trkpt lat="45.15049531815547" lon="9.701995943957444"><ele>56.0</ele><time>2026-05-03T07:11:22.998Z</time></trkpt><trkpt lat="45.15046870173867" lon="9.701861047491839"><ele>56.0</ele><time>2026-05-03T07:11:23.998Z</time></trkpt><trkpt lat="45.15045421968226" lon="9.70173487257603"><ele>55.833333333333336</ele><time>2026-05-03T07:11:24.998Z</time></trkpt><trkpt lat="45.15046673079419" lon="9.701615837733254"><ele>55.66666666666667</ele><time>2026-05-03T07:11:25.998Z</time></trkpt><trkpt lat="45.15049740316319" lon="9.701510617443336"><ele>55.5</ele><time>2026-05-03T07:11:26.998Z</time></trkpt><trkpt lat="45.15053607411164" lon="9.701411485883948"><ele>55.33333333333333</ele><time>2026-05-03T07:11:27.998Z</time></trkpt><trkpt lat="45.15055140039378" lon="9.701287543549828"><ele>55.166666666666664</ele><time>2026-05-03T07:11:28.998Z</time></trkpt><trkpt lat="45.150520771189434" lon="9.701167731593872"><ele>55.0</ele><time>2026-05-03T07:11:29.998Z</time></trkpt><trkpt lat="45.150449239855405" lon="9.701094946160598"><ele>54.8</ele><time>2026-05-03T07:11:30.998Z</time></trkpt><trkpt lat="45.150345617405804" lon="9.701053610366174"><ele>54.6</ele><time>2026-05-03T07:11:31.998Z</time></trkpt><trkpt lat="45.15024297559557" lon="9.701019608345915"><ele>54.400000000000006</ele><time>2026-05-03T07:11:32.998Z</time></trkpt><trkpt lat="45.150152160376166" lon="9.700956756498913"><ele>54.2</ele><time>2026-05-03T07:11:33.998Z</time></trkpt><trkpt lat="45.15006649287006" lon="9.700869539452123"><ele>54.0</ele><time>2026-05-03T07:11:34.998Z</time></trkpt><trkpt lat="45.14997834535252" lon="9.700758204223858"><ele>54.0</ele><time>2026-05-03T07:11:35.998Z</time></trkpt><trkpt lat="45.14989310560297" lon="9.700625508470194"><ele>54.0</ele><time>2026-05-03T07:11:36.998Z</time></trkpt><trkpt lat="45.1498139637327" lon="9.700487891188251"><ele>54.0</ele><time>2026-05-03T07:11:37.998Z</time></trkpt><trkpt lat="45.14974250117559" lon="9.700328327931372"><ele>54.0</ele><time>2026-05-03T07:11:38.998Z</time></trkpt><trkpt lat="45.14967108835636" lon="9.700163705783112"><ele>54.5</ele><time>2026-05-03T07:11:39.998Z</time></trkpt><trkpt lat="45.14958965010304" lon="9.70000453281949"><ele>55.0</ele><time>2026-05-03T07:11:40.998Z</time></trkpt><trkpt lat="45.14950977194017" lon="9.6998416074251"><ele>55.5</ele><time>2026-05-03T07:11:41.998Z</time></trkpt><trkpt lat="45.14942374163201" lon="9.699672964218353"><ele>56.0</ele><time>2026-05-03T07:11:42.998Z</time></trkpt><trkpt lat="45.14934395275189" lon="9.699513621827727"><ele>56.5</ele><time>2026-05-03T07:11:43.998Z</time></trkpt><trkpt lat="45.14926922579748" lon="9.699370271729116"><ele>57.0</ele><time>2026-05-03T07:11:44.998Z</time></trkpt><trkpt lat="45.14919549367384" lon="9.699235054028694"><ele>57.5</ele><time>2026-05-03T07:11:45.998Z</time></trkpt><trkpt lat="45.14912759384588" lon="9.699111193445564"><ele>58.0</ele><time>2026-05-03T07:11:46.998Z</time></trkpt><trkpt lat="45.149068641253365" lon="9.698998902957916"><ele>57.83333333333333</ele><time>2026-05-03T07:11:47.998Z</time></trkpt><trkpt lat="45.149027391647806" lon="9.698889778681941"><ele>57.666666666666664</ele><time>2026-05-03T07:11:48.998Z</time></trkpt><trkpt lat="45.14899929003405" lon="9.698762437419134"><ele>57.5</ele><time>2026-05-03T07:11:49.998Z</time></trkpt><trkpt lat="45.14899889378253" lon="9.698639227964822"><ele>57.33333333333333</ele><time>2026-05-03T07:11:50.998Z</time></trkpt><trkpt lat="45.14900635291869" lon="9.698539922690673"><ele>57.166666666666664</ele><time>2026-05-03T07:11:51.998Z</time></trkpt><trkpt lat="45.14896980592899" lon="9.69844088707289"><ele>57.0</ele><time>2026-05-03T07:11:52.998Z</time></trkpt><trkpt lat="45.14888842717238" lon="9.698376151035173"><ele>57.0</ele><time>2026-05-03T07:11:53.998Z</time></trkpt><trkpt lat="45.14878513702865" lon="9.69831290898767"><ele>57.0</ele><time>2026-05-03T07:11:54.998Z</time></trkpt><trkpt lat="45.14869806614941" lon="9.698208182959458"><ele>57.0</ele><time>2026-05-03T07:11:55.998Z</time></trkpt><trkpt lat="45.148607289994764" lon="9.698042582285337"><ele>57.0</ele><time>2026-05-03T07:11:56.998Z</time></trkpt><trkpt lat="45.1485177568701" lon="9.69783748646376"><ele>56.66666666666667</ele><time>2026-05-03T07:11:57.998Z</time></trkpt><trkpt lat="45.14842259826167" lon="9.697639398589963"><ele>56.333333333333336</ele><time>2026-05-03T07:11:58.998Z</time></trkpt><trkpt lat="45.14831821022414" lon="9.697439158355118"><ele>56.0</ele><time>2026-05-03T07:11:59.998Z</time></trkpt><trkpt lat="45.14820537325086" lon="9.697229108232264"><ele>55.66666666666667</ele><time>2026-05-03T07:12:00.998Z</time></trkpt><trkpt lat="45.148083648076835" lon="9.697004774392582"><ele>55.33333333333333</ele><time>2026-05-03T07:12:01.998Z</time></trkpt><trkpt lat="45.1479603296291" lon="9.696778305385587"><ele>55.0</ele><time>2026-05-03T07:12:02.998Z</time></trkpt><trkpt lat="45.14784732411735" lon="9.696556105686735"><ele>55.666666666666664</ele><time>2026-05-03T07:12:03.998Z</time></trkpt><trkpt lat="45.14773507283724" lon="9.696334824576999"><ele>56.33333333333333</ele><time>2026-05-03T07:12:04.998Z</time></trkpt><trkpt lat="45.147624608300355" lon="9.696109133509466"><ele>57.0</ele><time>2026-05-03T07:12:05.998Z</time></trkpt><trkpt lat="45.147510827884" lon="9.695878975101637"><ele>57.0</ele><time>2026-05-03T07:12:06.998Z</time></trkpt><trkpt lat="45.14739729018946" lon="9.69564982270455"><ele>57.0</ele><time>2026-05-03T07:12:07.998Z</time></trkpt><trkpt lat="45.1472795189246" lon="9.695424727620585"><ele>57.0</ele><time>2026-05-03T07:12:08.998Z</time></trkpt><trkpt lat="45.14716179487977" lon="9.69519469001706"><ele>57.66666666666667</ele><time>2026-05-03T07:12:09.998Z</time></trkpt><trkpt lat="45.14704073090751" lon="9.694966256095865"><ele>58.333333333333336</ele><time>2026-05-03T07:12:10.998Z</time></trkpt><trkpt lat="45.14691499491431" lon="9.6947395093735"><ele>59.0</ele><time>2026-05-03T07:12:11.998Z</time></trkpt><trkpt lat="45.14678559866742" lon="9.694521620398815"><ele>58.66666666666667</ele><time>2026-05-03T07:12:12.998Z</time></trkpt><trkpt lat="45.14664915163375" lon="9.694313951113863"><ele>58.33333333333333</ele><time>2026-05-03T07:12:13.998Z</time></trkpt><trkpt lat="45.14651667215649" lon="9.694116138752069"><ele>58.0</ele><time>2026-05-03T07:12:14.998Z</time></trkpt><trkpt lat="45.146385474848465" lon="9.693918129057819"><ele>57.666666666666664</ele><time>2026-05-03T07:12:15.998Z</time></trkpt><trkpt lat="45.14626118818044" lon="9.69372577218683"><ele>57.33333333333333</ele><time>2026-05-03T07:12:16.998Z</time></trkpt><trkpt lat="45.14613355554614" lon="9.693537493887584"><ele>57.0</ele><time>2026-05-03T07:12:17.998Z</time></trkpt><trkpt lat="45.146003738812055" lon="9.693355105202974"><ele>56.33333333333333</ele><time>2026-05-03T07:12:18.998Z</time></trkpt><trkpt lat="45.145884167526674" lon="9.6931748791857"><ele>55.666666666666664</ele><time>2026-05-03T07:12:19.998Z</time></trkpt><trkpt lat="45.14576915527237" lon="9.692996219841813"><ele>55.0</ele><time>2026-05-03T07:12:20.998Z</time></trkpt><trkpt lat="45.14565314392913" lon="9.692820209985097"><ele>55.33333333333333</ele><time>2026-05-03T07:12:21.998Z</time></trkpt><trkpt lat="45.14553842602162" lon="9.692655631018697"><ele>55.66666666666667</ele><time>2026-05-03T07:12:22.998Z</time></trkpt><trkpt lat="45.14543820658378" lon="9.69247505780075"><ele>56.0</ele><time>2026-05-03T07:12:23.998Z</time></trkpt><trkpt lat="45.14533120240083" lon="9.69231348260298"><ele>56.0</ele><time>2026-05-03T07:12:24.998Z</time></trkpt><trkpt lat="45.145227212129974" lon="9.69215586734024"><ele>56.0</ele><time>2026-05-03T07:12:25.998Z</time></trkpt><trkpt lat="45.145116168894106" lon="9.692020933464153"><ele>56.0</ele><time>2026-05-03T07:12:26.998Z</time></trkpt><trkpt lat="45.145024782488385" lon="9.691880913297185"><ele>56.0</ele><time>2026-05-03T07:12:27.997Z</time></trkpt><trkpt lat="45.1449381438648" lon="9.691746561725022"><ele>55.8</ele><time>2026-05-03T07:12:28.997Z</time></trkpt><trkpt lat="45.14488229377704" lon="9.69160828938959"><ele>55.599999999999994</ele><time>2026-05-03T07:12:29.997Z</time></trkpt><trkpt lat="45.14480753840631" lon="9.691497583513202"><ele>55.4</ele><time>2026-05-03T07:12:30.997Z</time></trkpt><trkpt lat="45.14473415548391" lon="9.691397143210862"><ele>55.2</ele><time>2026-05-03T07:12:31.997Z</time></trkpt><trkpt lat="45.14467029697592" lon="9.691300255873172"><ele>55.0</ele><time>2026-05-03T07:12:32.997Z</time></trkpt><trkpt lat="45.144627643275605" lon="9.691205816465734"><ele>54.99999999999999</ele><time>2026-05-03T07:12:33.997Z</time></trkpt><trkpt lat="45.14460157596774" lon="9.691099842152276"><ele>55.0</ele><time>2026-05-03T07:12:34.997Z</time></trkpt><trkpt lat="45.14458283701681" lon="9.690985666418456"><ele>55.0</ele><time>2026-05-03T07:12:35.997Z</time></trkpt><trkpt lat="45.14454364756371" lon="9.690896016659908"><ele>55.0</ele><time>2026-05-03T07:12:36.997Z</time></trkpt><trkpt lat="45.14448182685951" lon="9.690824880196118"><ele>54.99999999999999</ele><time>2026-05-03T07:12:37.997Z</time></trkpt><trkpt lat="45.14440581824456" lon="9.690785779362136"><ele>55.0</ele><time>2026-05-03T07:12:38.997Z</time></trkpt><trkpt lat="45.14434578288351" lon="9.690753629943046"><ele>54.83333333333333</ele><time>2026-05-03T07:12:39.997Z</time></trkpt><trkpt lat="45.144289245894626" lon="9.690708576290021"><ele>54.666666666666664</ele><time>2026-05-03T07:12:40.997Z</time></trkpt><trkpt lat="45.144235343050454" lon="9.690646042076253"><ele>54.5</ele><time>2026-05-03T07:12:41.997Z</time></trkpt><trkpt lat="45.14417902806687" lon="9.69056252411126"><ele>54.33333333333333</ele><time>2026-05-03T07:12:42.997Z</time></trkpt><trkpt lat="45.14410759538384" lon="9.690461688795931"><ele>54.166666666666664</ele><time>2026-05-03T07:12:43.997Z</time></trkpt><trkpt lat="45.144026279100395" lon="9.690340903329718"><ele>54.0</ele><time>2026-05-03T07:12:44.997Z</time></trkpt><trkpt lat="45.143944786001484" lon="9.690212501858673"><ele>54.0</ele><time>2026-05-03T07:12:45.997Z</time></trkpt><trkpt lat="45.14386673429805" lon="9.690078785039344"><ele>54.0</ele><time>2026-05-03T07:12:46.997Z</time></trkpt><trkpt lat="45.143783034194094" lon="9.689940111610426"><ele>54.0</ele><time>2026-05-03T07:12:47.997Z</time></trkpt><trkpt lat="45.143692271451336" lon="9.68980468778742"><ele>54.0</ele><time>2026-05-03T07:12:48.997Z</time></trkpt><trkpt lat="45.14360046208475" lon="9.689671216987938"><ele>54.0</ele><time>2026-05-03T07:12:49.997Z</time></trkpt><trkpt lat="45.14350457713881" lon="9.689530027399403"><ele>54.0</ele><time>2026-05-03T07:12:50.997Z</time></trkpt><trkpt lat="45.143405368119325" lon="9.689375893973068"><ele>54.0</ele><time>2026-05-03T07:12:51.997Z</time></trkpt><trkpt lat="45.14330171893663" lon="9.689217528755979"><ele>54.0</ele><time>2026-05-03T07:12:52.997Z</time></trkpt><trkpt lat="45.14319411117203" lon="9.689056512899462"><ele>54.0</ele><time>2026-05-03T07:12:53.997Z</time></trkpt><trkpt lat="45.14308433244021" lon="9.688888839404735"><ele>54.0</ele><time>2026-05-03T07:12:54.997Z</time></trkpt><trkpt lat="45.142971839999106" lon="9.688719708088025"><ele>54.0</ele><time>2026-05-03T07:12:55.997Z</time></trkpt><trkpt lat="45.142852238952614" lon="9.688551357062195"><ele>54.0</ele><time>2026-05-03T07:12:56.997Z</time></trkpt><trkpt lat="45.14272961136948" lon="9.688381971949498"><ele>54.0</ele><time>2026-05-03T07:12:57.997Z</time></trkpt><trkpt lat="45.14260085726823" lon="9.688221827762002"><ele>54.0</ele><time>2026-05-03T07:12:58.997Z</time></trkpt><trkpt lat="45.14247593412331" lon="9.688085008790727"><ele>54.0</ele><time>2026-05-03T07:12:59.997Z</time></trkpt><trkpt lat="45.14235782202973" lon="9.687971336928374"><ele>54.0</ele><time>2026-05-03T07:13:00.997Z</time></trkpt><trkpt lat="45.142226673640685" lon="9.687863745682735"><ele>54.0</ele><time>2026-05-03T07:13:01.997Z</time></trkpt><trkpt lat="45.142093267723624" lon="9.68776450498698"><ele>54.0</ele><time>2026-05-03T07:13:02.997Z</time></trkpt><trkpt lat="45.14195705165758" lon="9.687668499040086"><ele>53.33333333333333</ele><time>2026-05-03T07:13:03.997Z</time></trkpt><trkpt lat="45.14181965982329" lon="9.687571193632909"><ele>52.666666666666664</ele><time>2026-05-03T07:13:04.997Z</time></trkpt><trkpt lat="45.141678907006025" lon="9.687469100821433"><ele>52.0</ele><time>2026-05-03T07:13:05.997Z</time></trkpt><trkpt lat="45.14153431495843" lon="9.687360823094192"><ele>50.666666666666664</ele><time>2026-05-03T07:13:06.997Z</time></trkpt><trkpt lat="45.14139257911932" lon="9.687255364707807"><ele>49.33333333333333</ele><time>2026-05-03T07:13:07.997Z</time></trkpt><trkpt lat="45.14124379009578" lon="9.687145550611847"><ele>48.0</ele><time>2026-05-03T07:13:08.997Z</time></trkpt><trkpt lat="45.1410881217318" lon="9.687031294355123"><ele>49.33333333333333</ele><time>2026-05-03T07:13:09.997Z</time></trkpt><trkpt lat="45.14093156661393" lon="9.686916671927769"><ele>50.666666666666664</ele><time>2026-05-03T07:13:10.997Z</time></trkpt><trkpt lat="45.140772961069224" lon="9.686800851586128"><ele>52.0</ele><time>2026-05-03T07:13:11.997Z</time></trkpt><trkpt lat="45.14061518698199" lon="9.686684783720628"><ele>52.0</ele><time>2026-05-03T07:13:12.997Z</time></trkpt><trkpt lat="45.14046328701678" lon="9.686569004996649"><ele>52.0</ele><time>2026-05-03T07:13:13.997Z</time></trkpt><trkpt lat="45.14031606406181" lon="9.686455001388879"><ele>52.0</ele><time>2026-05-03T07:13:14.997Z</time></trkpt><trkpt lat="45.14017306654194" lon="9.686343889755214"><ele>52.0</ele><time>2026-05-03T07:13:15.997Z</time></trkpt><trkpt lat="45.14005481527521" lon="9.686244155413245"><ele>52.0</ele><time>2026-05-03T07:13:16.997Z</time></trkpt><trkpt lat="45.13993695343506" lon="9.686142043463258"><ele>52.0</ele><time>2026-05-03T07:13:17.997Z</time></trkpt><trkpt lat="45.139814237784876" lon="9.686049943086184"><ele>52.0</ele><time>2026-05-03T07:13:18.997Z</time></trkpt><trkpt lat="45.139700490830506" lon="9.685968071285767"><ele>52.5</ele><time>2026-05-03T07:13:19.997Z</time></trkpt><trkpt lat="45.13959371816338" lon="9.68589588815725"><ele>53.0</ele><time>2026-05-03T07:13:20.997Z</time></trkpt><trkpt lat="45.139491568931405" lon="9.68582861456983"><ele>53.5</ele><time>2026-05-03T07:13:21.997Z</time></trkpt><trkpt lat="45.13938067415371" lon="9.685755314682057"><ele>54.0</ele><time>2026-05-03T07:13:22.997Z</time></trkpt><trkpt lat="45.13928291145891" lon="9.685689486804524"><ele>54.0</ele><time>2026-05-03T07:13:23.997Z</time></trkpt><trkpt lat="45.13919836566685" lon="9.685639026340114"><ele>54.0</ele><time>2026-05-03T07:13:24.997Z</time></trkpt><trkpt lat="45.13911120381132" lon="9.68558025335066"><ele>54.0</ele><time>2026-05-03T07:13:25.997Z</time></trkpt><trkpt lat="45.13905464801975" lon="9.685500826232301"><ele>54.0</ele><time>2026-05-03T07:13:26.997Z</time></trkpt><trkpt lat="45.1390218106252" lon="9.6854151289095"><ele>54.0</ele><time>2026-05-03T07:13:27.997Z</time></trkpt><trkpt lat="45.13901625458512" lon="9.685324857837477"><ele>54.0</ele><time>2026-05-03T07:13:28.997Z</time></trkpt><trkpt lat="45.13901350347886" lon="9.6852333822705"><ele>54.14285714285714</ele><time>2026-05-03T07:13:29.997Z</time></trkpt><trkpt lat="45.13901642509796" lon="9.68513101341735"><ele>54.285714285714285</ele><time>2026-05-03T07:13:30.997Z</time></trkpt><trkpt lat="45.13901723334087" lon="9.685018318054748"><ele>54.42857142857143</ele><time>2026-05-03T07:13:31.997Z</time></trkpt><trkpt lat="45.139008036858655" lon="9.684903509538213"><ele>54.57142857142857</ele><time>2026-05-03T07:13:32.997Z</time></trkpt><trkpt lat="45.13900384428829" lon="9.684800518255614"><ele>54.714285714285715</ele><time>2026-05-03T07:13:33.997Z</time></trkpt><trkpt lat="45.1389910665896" lon="9.684710754692645"><ele>54.857142857142854</ele><time>2026-05-03T07:13:34.997Z</time></trkpt><trkpt lat="45.13897251431085" lon="9.68462057677425"><ele>55.0</ele><time>2026-05-03T07:13:35.997Z</time></trkpt><trkpt lat="45.13890357110352" lon="9.68457323501397"><ele>54.99999999999999</ele><time>2026-05-03T07:13:36.997Z</time></trkpt><trkpt lat="45.13883737752024" lon="9.684558514779182"><ele>55.0</ele><time>2026-05-03T07:13:37.997Z</time></trkpt><trkpt lat="45.138764392938015" lon="9.684586399068746"><ele>55.0</ele><time>2026-05-03T07:13:38.997Z</time></trkpt><trkpt lat="45.138687600184134" lon="9.684642593663213"><ele>55.0</ele><time>2026-05-03T07:13:39.997Z</time></trkpt><trkpt lat="45.1386081808506" lon="9.684705856209145"><ele>54.99999999999999</ele><time>2026-05-03T07:13:40.997Z</time></trkpt><trkpt lat="45.13851783698897" lon="9.684768324294948"><ele>55.0</ele><time>2026-05-03T07:13:41.997Z</time></trkpt><trkpt lat="45.1384187470509" lon="9.68482603028603"><ele>55.0</ele><time>2026-05-03T07:13:42.997Z</time></trkpt><trkpt lat="45.138336266668105" lon="9.684891986571422"><ele>55.0</ele><time>2026-05-03T07:13:43.997Z</time></trkpt><trkpt lat="45.13826102801075" lon="9.684978128053924"><ele>55.0</ele><time>2026-05-03T07:13:44.997Z</time></trkpt><trkpt lat="45.13814945137111" lon="9.684878873077029"><ele>55.0</ele><time>2026-05-03T07:13:45.997Z</time></trkpt><trkpt lat="45.13806612665005" lon="9.684861702127538"><ele>55.0</ele><time>2026-05-03T07:13:46.997Z</time></trkpt><trkpt lat="45.13796659181798" lon="9.684845123951382"><ele>55.2</ele><time>2026-05-03T07:13:47.997Z</time></trkpt><trkpt lat="45.13788278883155" lon="9.684831165944638"><ele>55.4</ele><time>2026-05-03T07:13:48.997Z</time></trkpt><trkpt lat="45.13778730891344" lon="9.684815263035409"><ele>55.599999999999994</ele><time>2026-05-03T07:13:49.997Z</time></trkpt><trkpt lat="45.137683831920924" lon="9.68479675388713"><ele>55.8</ele><time>2026-05-03T07:13:50.997Z</time></trkpt><trkpt lat="45.13756017112984" lon="9.684773488338843"><ele>56.0</ele><time>2026-05-03T07:13:51.997Z</time></trkpt><trkpt lat="45.137448718402204" lon="9.684748008060476"><ele>56.0</ele><time>2026-05-03T07:13:52.997Z</time></trkpt><trkpt lat="45.137337916624546" lon="9.684718694223612"><ele>55.99999999999999</ele><time>2026-05-03T07:13:53.997Z</time></trkpt><trkpt lat="45.137249461825256" lon="9.684693645875722"><ele>55.99999999999999</ele><time>2026-05-03T07:13:54.997Z</time></trkpt><trkpt lat="45.13711745558161" lon="9.684656047921047"><ele>56.0</ele><time>2026-05-03T07:13:56.997Z</time></trkpt><trkpt lat="45.13702926205572" lon="9.68462957785271"><ele>56.0</ele><time>2026-05-03T07:13:57.997Z</time></trkpt><trkpt lat="45.13692749905294" lon="9.684598326156717"><ele>56.0</ele><time>2026-05-03T07:13:58.997Z</time></trkpt><trkpt lat="45.13682418837424" lon="9.684566290388064"><ele>55.99999999999999</ele><time>2026-05-03T07:13:59.997Z</time></trkpt><trkpt lat="45.13670921404439" lon="9.684530637808031"><ele>55.99999999999999</ele><time>2026-05-03T07:14:00.997Z</time></trkpt><trkpt lat="45.136601824934935" lon="9.684497337321368"><ele>56.0</ele><time>2026-05-03T07:14:01.997Z</time></trkpt><trkpt lat="45.13650840394759" lon="9.684468368267218"><ele>56.0</ele><time>2026-05-03T07:14:02.997Z</time></trkpt><trkpt lat="45.13640608092159" lon="9.684436858020359"><ele>56.4</ele><time>2026-05-03T07:14:03.997Z</time></trkpt><trkpt lat="45.13629942104647" lon="9.684404274436739"><ele>56.8</ele><time>2026-05-03T07:14:04.997Z</time></trkpt><trkpt lat="45.13619384674151" lon="9.684372326293069"><ele>57.199999999999996</ele><time>2026-05-03T07:14:05.997Z</time></trkpt><trkpt lat="45.13609472888952" lon="9.684363131056337"><ele>57.599999999999994</ele><time>2026-05-03T07:14:06.997Z</time></trkpt><trkpt lat="45.13600955185147" lon="9.684328231221006"><ele>58.0</ele><time>2026-05-03T07:14:07.997Z</time></trkpt><trkpt lat="45.13593060029635" lon="9.68429866274114"><ele>58.0</ele><time>2026-05-03T07:14:08.997Z</time></trkpt><trkpt lat="45.13585791264631" lon="9.684268649872486"><ele>58.0</ele><time>2026-05-03T07:14:09.997Z</time></trkpt><trkpt lat="45.13577561182462" lon="9.684237470815814"><ele>58.0</ele><time>2026-05-03T07:14:10.997Z</time></trkpt><trkpt lat="45.13567725079827" lon="9.684223290634398"><ele>58.0</ele><time>2026-05-03T07:14:11.997Z</time></trkpt><trkpt lat="45.13556693896668" lon="9.684219974524739"><ele>58.0</ele><time>2026-05-03T07:14:12.997Z</time></trkpt><trkpt lat="45.13545381269506" lon="9.684222637088544"><ele>56.5</ele><time>2026-05-03T07:14:13.997Z</time></trkpt><trkpt lat="45.13534589405098" lon="9.684220475347695"><ele>55.0</ele><time>2026-05-03T07:14:14.997Z</time></trkpt><trkpt lat="45.13521328592607" lon="9.684249904779076"><ele>53.5</ele><time>2026-05-03T07:14:15.997Z</time></trkpt><trkpt lat="45.13504233207147" lon="9.68424580473115"><ele>52.0</ele><time>2026-05-03T07:14:16.997Z</time></trkpt><trkpt lat="45.13485301004166" lon="9.68425669814824"><ele>50.33333333333333</ele><time>2026-05-03T07:14:17.997Z</time></trkpt><trkpt lat="45.13464812301054" lon="9.68426812332673"><ele>48.666666666666664</ele><time>2026-05-03T07:14:18.997Z</time></trkpt><trkpt lat="45.134409537834664" lon="9.684281922207006"><ele>47.0</ele><time>2026-05-03T07:14:19.997Z</time></trkpt><trkpt lat="45.13416714471752" lon="9.684298686205292"><ele>46.0</ele><time>2026-05-03T07:14:20.997Z</time></trkpt><trkpt lat="45.13391430538382" lon="9.684342819081905"><ele>45.0</ele><time>2026-05-03T07:14:21.997Z</time></trkpt><trkpt lat="45.13365386081749" lon="9.684371953632832"><ele>45.0</ele><time>2026-05-03T07:14:22.997Z</time></trkpt><trkpt lat="45.13339618657093" lon="9.68441016143701"><ele>45.0</ele><time>2026-05-03T07:14:23.996Z</time></trkpt><trkpt lat="45.13313024156982" lon="9.684451715693026"><ele>44.0</ele><time>2026-05-03T07:14:24.996Z</time></trkpt><trkpt lat="45.132863004746795" lon="9.684488993212398"><ele>43.0</ele><time>2026-05-03T07:14:25.996Z</time></trkpt><trkpt lat="45.132598800903615" lon="9.684526236873337"><ele>44.0</ele><time>2026-05-03T07:14:26.996Z</time></trkpt><trkpt lat="45.132338719835" lon="9.684572940391895"><ele>45.0</ele><time>2026-05-03T07:14:27.996Z</time></trkpt><trkpt lat="45.13208059713259" lon="9.684615320775185"><ele>45.0</ele><time>2026-05-03T07:14:28.996Z</time></trkpt><trkpt lat="45.131828046915714" lon="9.684662636669177"><ele>45.0</ele><time>2026-05-03T07:14:29.996Z</time></trkpt><trkpt lat="45.1315811630152" lon="9.684705346606368"><ele>45.0</ele><time>2026-05-03T07:14:30.996Z</time></trkpt><trkpt lat="45.13134059822494" lon="9.684728543230017"><ele>45.0</ele><time>2026-05-03T07:14:31.996Z</time></trkpt><trkpt lat="45.131102173680155" lon="9.684771301601739"><ele>45.0</ele><time>2026-05-03T07:14:32.996Z</time></trkpt><trkpt lat="45.13086860635385" lon="9.684813236262737"><ele>45.0</ele><time>2026-05-03T07:14:33.996Z</time></trkpt><trkpt lat="45.130640358088264" lon="9.68487714370928"><ele>45.333333333333336</ele><time>2026-05-03T07:14:34.996Z</time></trkpt><trkpt lat="45.13042151682591" lon="9.684917149181334"><ele>45.66666666666667</ele><time>2026-05-03T07:14:35.996Z</time></trkpt><trkpt lat="45.13021879873895" lon="9.684949368725468"><ele>46.0</ele><time>2026-05-03T07:14:36.996Z</time></trkpt><trkpt lat="45.13002625146954" lon="9.68498316260989"><ele>46.0</ele><time>2026-05-03T07:14:37.996Z</time></trkpt><trkpt lat="45.12983484411135" lon="9.685014322703884"><ele>46.0</ele><time>2026-05-03T07:14:38.996Z</time></trkpt><trkpt lat="45.12964829081022" lon="9.685047920622871"><ele>46.0</ele><time>2026-05-03T07:14:39.996Z</time></trkpt><trkpt lat="45.1294703750784" lon="9.685075656289886"><ele>46.0</ele><time>2026-05-03T07:14:40.996Z</time></trkpt><trkpt lat="45.129299574757134" lon="9.685106110841994"><ele>46.0</ele><time>2026-05-03T07:14:41.996Z</time></trkpt><trkpt lat="45.129142682723796" lon="9.68513232082637"><ele>46.0</ele><time>2026-05-03T07:14:42.996Z</time></trkpt><trkpt lat="45.12899333858609" lon="9.685156962727511"><ele>46.0</ele><time>2026-05-03T07:14:43.996Z</time></trkpt><trkpt lat="45.12885187013678" lon="9.685155309760688"><ele>46.0</ele><time>2026-05-03T07:14:44.996Z</time></trkpt><trkpt lat="45.128707413367174" lon="9.685121434057525"><ele>46.0</ele><time>2026-05-03T07:14:45.996Z</time></trkpt><trkpt lat="45.12856423485506" lon="9.685040508112243"><ele>46.0</ele><time>2026-05-03T07:14:46.996Z</time></trkpt><trkpt lat="45.12841821968178" lon="9.68493002989088"><ele>46.0</ele><time>2026-05-03T07:14:47.996Z</time></trkpt><trkpt lat="45.12826597468792" lon="9.684834718499022"><ele>46.0</ele><time>2026-05-03T07:14:48.996Z</time></trkpt><trkpt lat="45.12811557759851" lon="9.68474839082623"><ele>46.0</ele><time>2026-05-03T07:14:49.996Z</time></trkpt><trkpt lat="45.12796399829782" lon="9.684654873412503"><ele>46.66666666666667</ele><time>2026-05-03T07:14:50.996Z</time></trkpt><trkpt lat="45.12781997168991" lon="9.684567384942783"><ele>47.333333333333336</ele><time>2026-05-03T07:14:51.996Z</time></trkpt><trkpt lat="45.127676020675466" lon="9.684476152148463"><ele>48.0</ele><time>2026-05-03T07:14:52.996Z</time></trkpt><trkpt lat="45.127528721108796" lon="9.68443304201061"><ele>47.666666666666664</ele><time>2026-05-03T07:14:53.996Z</time></trkpt><trkpt lat="45.12738962044891" lon="9.68443651376279"><ele>47.33333333333333</ele><time>2026-05-03T07:14:54.996Z</time></trkpt><trkpt lat="45.12725096583509" lon="9.684526971873657"><ele>47.0</ele><time>2026-05-03T07:14:55.996Z</time></trkpt><trkpt lat="45.12710390904071" lon="9.684672504230946"><ele>47.0</ele><time>2026-05-03T07:14:56.996Z</time></trkpt><trkpt lat="45.126953845077814" lon="9.684804996969039"><ele>47.0</ele><time>2026-05-03T07:14:57.996Z</time></trkpt><trkpt lat="45.126796703187665" lon="9.684926753689826"><ele>47.0</ele><time>2026-05-03T07:14:58.996Z</time></trkpt><trkpt lat="45.126645819789594" lon="9.685062440991555"><ele>46.33333333333333</ele><time>2026-05-03T07:14:59.996Z</time></trkpt><trkpt lat="45.126480649017694" lon="9.685183637114882"><ele>45.666666666666664</ele><time>2026-05-03T07:15:00.996Z</time></trkpt><trkpt lat="45.12629875297193" lon="9.685298047813603"><ele>45.0</ele><time>2026-05-03T07:15:01.996Z</time></trkpt><trkpt lat="45.12610989658115" lon="9.68539728843964"><ele>45.0</ele><time>2026-05-03T07:15:02.996Z</time></trkpt><trkpt lat="45.12591218525107" lon="9.685480171545493"><ele>45.0</ele><time>2026-05-03T07:15:03.996Z</time></trkpt><trkpt lat="45.12570850891712" lon="9.685560098135692"><ele>45.0</ele><time>2026-05-03T07:15:04.996Z</time></trkpt><trkpt lat="45.12550637131709" lon="9.685646062462327"><ele>45.333333333333336</ele><time>2026-05-03T07:15:05.996Z</time></trkpt><trkpt lat="45.12529729564196" lon="9.685729043122665"><ele>45.66666666666667</ele><time>2026-05-03T07:15:06.996Z</time></trkpt><trkpt lat="45.12508573256569" lon="9.685806187872565"><ele>46.0</ele><time>2026-05-03T07:15:07.996Z</time></trkpt><trkpt lat="45.12487253674829" lon="9.685878235056633"><ele>46.0</ele><time>2026-05-03T07:15:08.996Z</time></trkpt><trkpt lat="45.12465961485628" lon="9.685943438440603"><ele>46.0</ele><time>2026-05-03T07:15:09.996Z</time></trkpt><trkpt lat="45.12444600524213" lon="9.686007723973118"><ele>46.0</ele><time>2026-05-03T07:15:10.996Z</time></trkpt><trkpt lat="45.12422963567357" lon="9.686064826974134"><ele>46.0</ele><time>2026-05-03T07:15:11.996Z</time></trkpt><trkpt lat="45.12400632540671" lon="9.686114644519067"><ele>46.0</ele><time>2026-05-03T07:15:12.996Z</time></trkpt><trkpt lat="45.12378175897806" lon="9.686164186013956"><ele>46.0</ele><time>2026-05-03T07:15:13.996Z</time></trkpt><trkpt lat="45.12355438410014" lon="9.686214971695131"><ele>46.0</ele><time>2026-05-03T07:15:14.996Z</time></trkpt><trkpt lat="45.12332624305657" lon="9.686259018707057"><ele>45.5</ele><time>2026-05-03T07:15:15.996Z</time></trkpt><trkpt lat="45.12309602261171" lon="9.686294352858305"><ele>45.0</ele><time>2026-05-03T07:15:16.996Z</time></trkpt><trkpt lat="45.122861849963876" lon="9.68633479322025"><ele>45.0</ele><time>2026-05-03T07:15:17.996Z</time></trkpt><trkpt lat="45.122631908777976" lon="9.686379311100701"><ele>45.0</ele><time>2026-05-03T07:15:18.996Z</time></trkpt><trkpt lat="45.12240109162525" lon="9.68642714904208"><ele>44.5</ele><time>2026-05-03T07:15:19.996Z</time></trkpt><trkpt lat="45.12216999594895" lon="9.686473505152629"><ele>44.0</ele><time>2026-05-03T07:15:20.996Z</time></trkpt><trkpt lat="45.121938409741354" lon="9.68651606768973"><ele>44.0</ele><time>2026-05-03T07:15:21.996Z</time></trkpt><trkpt lat="45.12171022518608" lon="9.686557445743697"><ele>44.0</ele><time>2026-05-03T07:15:22.996Z</time></trkpt><trkpt lat="45.121477334131754" lon="9.686591688014287"><ele>44.0</ele><time>2026-05-03T07:15:23.996Z</time></trkpt><trkpt lat="45.12124658792841" lon="9.686632701595713"><ele>44.0</ele><time>2026-05-03T07:15:24.996Z</time></trkpt><trkpt lat="45.12101764330404" lon="9.686669743210803"><ele>44.0</ele><time>2026-05-03T07:15:25.996Z</time></trkpt><trkpt lat="45.12078191392989" lon="9.686708304849947"><ele>44.0</ele><time>2026-05-03T07:15:26.996Z</time></trkpt><trkpt lat="45.12055246252039" lon="9.686749548912944"><ele>42.5</ele><time>2026-05-03T07:15:27.996Z</time></trkpt><trkpt lat="45.1203244474192" lon="9.686790518600242"><ele>41.0</ele><time>2026-05-03T07:15:28.996Z</time></trkpt><trkpt lat="45.1200965290733" lon="9.686831322075982"><ele>42.5</ele><time>2026-05-03T07:15:29.996Z</time></trkpt><trkpt lat="45.1198682062769" lon="9.686868955708913"><ele>44.0</ele><time>2026-05-03T07:15:30.996Z</time></trkpt><trkpt lat="45.119643059568936" lon="9.686908976022846"><ele>45.0</ele><time>2026-05-03T07:15:31.996Z</time></trkpt><trkpt lat="45.11941633928624" lon="9.686948958195046"><ele>46.0</ele><time>2026-05-03T07:15:32.996Z</time></trkpt><trkpt lat="45.119187416462076" lon="9.68698937151194"><ele>46.0</ele><time>2026-05-03T07:15:33.996Z</time></trkpt><trkpt lat="45.11895703532695" lon="9.687028860852395"><ele>46.0</ele><time>2026-05-03T07:15:34.996Z</time></trkpt><trkpt lat="45.11872647726656" lon="9.687073600351786"><ele>46.0</ele><time>2026-05-03T07:15:35.996Z</time></trkpt><trkpt lat="45.118492025602414" lon="9.687121323715193"><ele>46.0</ele><time>2026-05-03T07:15:36.996Z</time></trkpt><trkpt lat="45.11826404828043" lon="9.687159238158925"><ele>45.5</ele><time>2026-05-03T07:15:37.996Z</time></trkpt><trkpt lat="45.11803272646053" lon="9.687194885033135"><ele>45.0</ele><time>2026-05-03T07:15:38.996Z</time></trkpt><trkpt lat="45.11779869632086" lon="9.687232131853632"><ele>45.0</ele><time>2026-05-03T07:15:39.996Z</time></trkpt><trkpt lat="45.117572769680606" lon="9.68727616403714"><ele>45.0</ele><time>2026-05-03T07:15:40.996Z</time></trkpt><trkpt lat="45.11734775732792" lon="9.687319250042005"><ele>44.5</ele><time>2026-05-03T07:15:41.996Z</time></trkpt><trkpt lat="45.11712100093901" lon="9.68735921409644"><ele>44.0</ele><time>2026-05-03T07:15:42.996Z</time></trkpt><trkpt lat="45.116894680898746" lon="9.687401047035518"><ele>44.0</ele><time>2026-05-03T07:15:43.996Z</time></trkpt><trkpt lat="45.11667018453191" lon="9.68744426781527"><ele>44.0</ele><time>2026-05-03T07:15:44.996Z</time></trkpt><trkpt lat="45.116445421282" lon="9.687487937711968"><ele>45.0</ele><time>2026-05-03T07:15:45.996Z</time></trkpt><trkpt lat="45.11621840219458" lon="9.687528683949749"><ele>46.0</ele><time>2026-05-03T07:15:46.996Z</time></trkpt><trkpt lat="45.115986448437184" lon="9.68756885903597"><ele>46.0</ele><time>2026-05-03T07:15:47.996Z</time></trkpt><trkpt lat="45.115749836192165" lon="9.687608567510901"><ele>46.0</ele><time>2026-05-03T07:15:48.996Z</time></trkpt><trkpt lat="45.11550845120988" lon="9.687642127752987"><ele>46.5</ele><time>2026-05-03T07:15:49.996Z</time></trkpt><trkpt lat="45.115265248207294" lon="9.687660338039121"><ele>47.0</ele><time>2026-05-03T07:15:50.996Z</time></trkpt><trkpt lat="45.115020779752584" lon="9.687666787534926"><ele>46.0</ele><time>2026-05-03T07:15:51.996Z</time></trkpt><trkpt lat="45.11477506636747" lon="9.687661392693174"><ele>45.0</ele><time>2026-05-03T07:15:52.996Z</time></trkpt><trkpt lat="45.114528228330116" lon="9.687647051905325"><ele>45.0</ele><time>2026-05-03T07:15:53.996Z</time></trkpt><trkpt lat="45.1142791363772" lon="9.687622584536458"><ele>45.0</ele><time>2026-05-03T07:15:54.996Z</time></trkpt><trkpt lat="45.11403058103795" lon="9.687586658456215"><ele>45.5</ele><time>2026-05-03T07:15:55.996Z</time></trkpt><trkpt lat="45.113783772911944" lon="9.687543455497934"><ele>46.0</ele><time>2026-05-03T07:15:56.996Z</time></trkpt><trkpt lat="45.11353768592231" lon="9.687486301474717"><ele>46.0</ele><time>2026-05-03T07:15:57.996Z</time></trkpt><trkpt lat="45.11329348871646" lon="9.687424148818645"><ele>46.0</ele><time>2026-05-03T07:15:58.996Z</time></trkpt><trkpt lat="45.11305478643549" lon="9.687354072936472"><ele>45.5</ele><time>2026-05-03T07:15:59.996Z</time></trkpt><trkpt lat="45.11281933313555" lon="9.687274538428476"><ele>45.0</ele><time>2026-05-03T07:16:00.996Z</time></trkpt><trkpt lat="45.11258635016126" lon="9.68718335281736"><ele>44.5</ele><time>2026-05-03T07:16:01.996Z</time></trkpt><trkpt lat="45.112359328646384" lon="9.687084885115318"><ele>44.0</ele><time>2026-05-03T07:16:02.996Z</time></trkpt><trkpt lat="45.11213200288492" lon="9.686978469847295"><ele>44.5</ele><time>2026-05-03T07:16:03.996Z</time></trkpt><trkpt lat="45.11190482626608" lon="9.686871423671743"><ele>45.0</ele><time>2026-05-03T07:16:04.996Z</time></trkpt><trkpt lat="45.111679602617244" lon="9.686764996837994"><ele>46.0</ele><time>2026-05-03T07:16:05.996Z</time></trkpt><trkpt lat="45.1114526824621" lon="9.686661504058637"><ele>47.0</ele><time>2026-05-03T07:16:06.996Z</time></trkpt><trkpt lat="45.11122480934959" lon="9.686558802476828"><ele>47.0</ele><time>2026-05-03T07:16:07.996Z</time></trkpt><trkpt lat="45.11099590310118" lon="9.686460111164935"><ele>47.0</ele><time>2026-05-03T07:16:08.996Z</time></trkpt><trkpt lat="45.110768181219285" lon="9.686358477087248"><ele>47.5</ele><time>2026-05-03T07:16:09.996Z</time></trkpt><trkpt lat="45.11053971793557" lon="9.686256975166803"><ele>48.0</ele><time>2026-05-03T07:16:10.996Z</time></trkpt><trkpt lat="45.11031093620767" lon="9.686156287199543"><ele>46.0</ele><time>2026-05-03T07:16:11.996Z</time></trkpt><trkpt lat="45.109853670263064" lon="9.685964206705552"><ele>46.0</ele><time>2026-05-03T07:16:13.996Z</time></trkpt><trkpt lat="45.10962290604947" lon="9.685867758026705"><ele>46.0</ele><time>2026-05-03T07:16:14.996Z</time></trkpt><trkpt lat="45.10939027140151" lon="9.68577141899153"><ele>46.0</ele><time>2026-05-03T07:16:15.996Z</time></trkpt><trkpt lat="45.10915728872454" lon="9.685672711959779"><ele>46.0</ele><time>2026-05-03T07:16:16.996Z</time></trkpt><trkpt lat="45.10892539096015" lon="9.685580061892054"><ele>45.0</ele><time>2026-05-03T07:16:17.996Z</time></trkpt><trkpt lat="45.1086917018235" lon="9.685487137589574"><ele>44.0</ele><time>2026-05-03T07:16:18.996Z</time></trkpt><trkpt lat="45.10846177369211" lon="9.685394073386805"><ele>44.666666666666664</ele><time>2026-05-03T07:16:19.995Z</time></trkpt><trkpt lat="45.108239760037094" lon="9.68530606034813"><ele>45.333333333333336</ele><time>2026-05-03T07:16:20.995Z</time></trkpt><trkpt lat="45.10803197046341" lon="9.685223835814416"><ele>46.0</ele><time>2026-05-03T07:16:21.995Z</time></trkpt><trkpt lat="45.10782972870522" lon="9.685148909343688"><ele>46.0</ele><time>2026-05-03T07:16:22.995Z</time></trkpt><trkpt lat="45.10764131488657" lon="9.685080266911834"><ele>46.0</ele><time>2026-05-03T07:16:23.995Z</time></trkpt><trkpt lat="45.107463035126955" lon="9.685016430009101"><ele>46.0</ele><time>2026-05-03T07:16:24.995Z</time></trkpt><trkpt lat="45.10729604520397" lon="9.684956425184447"><ele>45.75</ele><time>2026-05-03T07:16:25.995Z</time></trkpt><trkpt lat="45.10715052043362" lon="9.684911010289273"><ele>45.5</ele><time>2026-05-03T07:16:26.995Z</time></trkpt><trkpt lat="45.1070141126284" lon="9.684887116212957"><ele>45.25</ele><time>2026-05-03T07:16:27.995Z</time></trkpt><trkpt lat="45.106899949448085" lon="9.684874043163495"><ele>45.0</ele><time>2026-05-03T07:16:28.995Z</time></trkpt><trkpt lat="45.10679219812437" lon="9.684862570493989"><ele>45.0</ele><time>2026-05-03T07:16:29.995Z</time></trkpt><trkpt lat="45.10669759285729" lon="9.684848269567015"><ele>45.0</ele><time>2026-05-03T07:16:30.995Z</time></trkpt><trkpt lat="45.106616857439434" lon="9.68483258087794"><ele>45.0</ele><time>2026-05-03T07:16:31.995Z</time></trkpt><trkpt lat="45.10655157330019" lon="9.684818358709185"><ele>45.0</ele><time>2026-05-03T07:16:32.995Z</time></trkpt><trkpt lat="45.1064871120878" lon="9.684800855260443"><ele>45.0</ele><time>2026-05-03T07:16:33.995Z</time></trkpt><trkpt lat="45.10642386878977" lon="9.684784329970714"><ele>45.0</ele><time>2026-05-03T07:16:34.995Z</time></trkpt><trkpt lat="45.10635790413554" lon="9.684765006853812"><ele>45.0</ele><time>2026-05-03T07:16:35.995Z</time></trkpt><trkpt lat="45.10625363856207" lon="9.684739003329412"><ele>45.0</ele><time>2026-05-03T07:16:37.995Z</time></trkpt><trkpt lat="45.10616837837693" lon="9.684710122486186"><ele>45.0</ele><time>2026-05-03T07:16:40.995Z</time></trkpt><trkpt lat="45.106085660905826" lon="9.68466646849829"><ele>45.0</ele><time>2026-05-03T07:16:42.995Z</time></trkpt><trkpt lat="45.10602088161644" lon="9.684637485102861"><ele>45.0</ele><time>2026-05-03T07:16:43.995Z</time></trkpt><trkpt lat="45.10595278753121" lon="9.684583542933467"><ele>45.0</ele><time>2026-05-03T07:16:44.995Z</time></trkpt><trkpt lat="45.1058632497553" lon="9.684535392154745"><ele>45.0</ele><time>2026-05-03T07:16:45.995Z</time></trkpt><trkpt lat="45.10576539030741" lon="9.684509436137906"><ele>45.5</ele><time>2026-05-03T07:16:46.995Z</time></trkpt><trkpt lat="45.105645334828246" lon="9.684508044825094"><ele>46.0</ele><time>2026-05-03T07:16:47.995Z</time></trkpt><trkpt lat="45.10554080482432" lon="9.684528581031516"><ele>46.5</ele><time>2026-05-03T07:16:48.995Z</time></trkpt><trkpt lat="45.105434507406265" lon="9.684534639387417"><ele>47.0</ele><time>2026-05-03T07:16:49.995Z</time></trkpt><trkpt lat="45.1053128514041" lon="9.68453566697629"><ele>47.0</ele><time>2026-05-03T07:16:50.995Z</time></trkpt><trkpt lat="45.105181999813475" lon="9.684542180027282"><ele>47.0</ele><time>2026-05-03T07:16:51.995Z</time></trkpt><trkpt lat="45.105040038210454" lon="9.684557766683856"><ele>47.0</ele><time>2026-05-03T07:16:52.995Z</time></trkpt><trkpt lat="45.10489108369428" lon="9.684575354041815"><ele>47.0</ele><time>2026-05-03T07:16:53.995Z</time></trkpt><trkpt lat="45.10475357578154" lon="9.68460230829182"><ele>46.6</ele><time>2026-05-03T07:16:54.995Z</time></trkpt><trkpt lat="45.10463051719034" lon="9.684623564742582"><ele>46.2</ele><time>2026-05-03T07:16:55.995Z</time></trkpt><trkpt lat="45.104523712202386" lon="9.684642355256509"><ele>45.8</ele><time>2026-05-03T07:16:56.995Z</time></trkpt><trkpt lat="45.10442289653488" lon="9.684660773806659"><ele>45.4</ele><time>2026-05-03T07:16:57.995Z</time></trkpt><trkpt lat="45.10431630464027" lon="9.684675694629052"><ele>45.0</ele><time>2026-05-03T07:16:58.995Z</time></trkpt><trkpt lat="45.1042049978702" lon="9.68469471210807"><ele>45.0</ele><time>2026-05-03T07:16:59.995Z</time></trkpt><trkpt lat="45.10410770917853" lon="9.684707408973798"><ele>45.0</ele><time>2026-05-03T07:17:00.995Z</time></trkpt><trkpt lat="45.104019453135756" lon="9.684766155217263"><ele>45.0</ele><time>2026-05-03T07:17:01.995Z</time></trkpt><trkpt lat="45.103883943855685" lon="9.684734659994367"><ele>45.0</ele><time>2026-05-03T07:17:02.995Z</time></trkpt><trkpt lat="45.103755638514045" lon="9.68474924031961"><ele>45.25</ele><time>2026-05-03T07:17:03.995Z</time></trkpt><trkpt lat="45.10362215875465" lon="9.684766960678722"><ele>45.5</ele><time>2026-05-03T07:17:04.995Z</time></trkpt><trkpt lat="45.103495378744206" lon="9.684776437990992"><ele>45.75</ele><time>2026-05-03T07:17:05.995Z</time></trkpt><trkpt lat="45.103380938764495" lon="9.684784367159985"><ele>46.0</ele><time>2026-05-03T07:17:06.995Z</time></trkpt><trkpt lat="45.10326993136555" lon="9.684794681862812"><ele>46.199999999999996</ele><time>2026-05-03T07:17:07.995Z</time></trkpt><trkpt lat="45.103160298947934" lon="9.684803067193327"><ele>46.4</ele><time>2026-05-03T07:17:08.995Z</time></trkpt><trkpt lat="45.103065821706274" lon="9.684811801676966"><ele>46.6</ele><time>2026-05-03T07:17:09.995Z</time></trkpt><trkpt lat="45.10297256261756" lon="9.684817562829696"><ele>46.8</ele><time>2026-05-03T07:17:10.995Z</time></trkpt><trkpt lat="45.102876534133216" lon="9.68482568982322"><ele>47.0</ele><time>2026-05-03T07:17:11.995Z</time></trkpt><trkpt lat="45.10278973848349" lon="9.684829688588849"><ele>47.0</ele><time>2026-05-03T07:17:12.995Z</time></trkpt><trkpt lat="45.10270053259589" lon="9.684835334389872"><ele>47.0</ele><time>2026-05-03T07:17:13.995Z</time></trkpt><trkpt lat="45.10260553577302" lon="9.684842440803369"><ele>47.0</ele><time>2026-05-03T07:17:14.995Z</time></trkpt><trkpt lat="45.10250576149028" lon="9.684845313597828"><ele>47.0</ele><time>2026-05-03T07:17:15.995Z</time></trkpt><trkpt lat="45.10239906684225" lon="9.684848052475342"><ele>47.0</ele><time>2026-05-03T07:17:16.995Z</time></trkpt><trkpt lat="45.102294367752656" lon="9.684854940217651"><ele>46.5</ele><time>2026-05-03T07:17:17.995Z</time></trkpt><trkpt lat="45.102203416783674" lon="9.684866904115749"><ele>46.0</ele><time>2026-05-03T07:17:18.995Z</time></trkpt><trkpt lat="45.10212144049227" lon="9.684873648809013"><ele>45.5</ele><time>2026-05-03T07:17:19.995Z</time></trkpt><trkpt lat="45.10204546950951" lon="9.68487677992598"><ele>45.0</ele><time>2026-05-03T07:17:20.995Z</time></trkpt><trkpt lat="45.101976855711996" lon="9.68488287295057"><ele>44.5</ele><time>2026-05-03T07:17:21.995Z</time></trkpt><trkpt lat="45.10190956582414" lon="9.684888716646098"><ele>44.0</ele><time>2026-05-03T07:17:22.995Z</time></trkpt><trkpt lat="45.101840239210176" lon="9.684880123312853"><ele>44.0</ele><time>2026-05-03T07:17:23.995Z</time></trkpt><trkpt lat="45.101770626206836" lon="9.684869249155133"><ele>44.0</ele><time>2026-05-03T07:17:24.995Z</time></trkpt><trkpt lat="45.10169359102938" lon="9.684870278202697"><ele>44.0</ele><time>2026-05-03T07:17:25.995Z</time></trkpt><trkpt lat="45.10161663063342" lon="9.684877760922367"><ele>44.0</ele><time>2026-05-03T07:17:26.995Z</time></trkpt><trkpt lat="45.101547832135005" lon="9.684886665189458"><ele>44.0</ele><time>2026-05-03T07:17:27.995Z</time></trkpt><trkpt lat="45.101479447821475" lon="9.684889442379056"><ele>44.0</ele><time>2026-05-03T07:17:28.995Z</time></trkpt><trkpt lat="45.10140775258113" lon="9.684892695398528"><ele>44.0</ele><time>2026-05-03T07:17:29.995Z</time></trkpt><trkpt lat="45.101339325522396" lon="9.684877273910885"><ele>44.0</ele><time>2026-05-03T07:17:30.995Z</time></trkpt><trkpt lat="45.101269219495656" lon="9.684838450127481"><ele>44.0</ele><time>2026-05-03T07:17:31.995Z</time></trkpt><trkpt lat="45.10118933382503" lon="9.684803005080505"><ele>44.0</ele><time>2026-05-03T07:17:32.995Z</time></trkpt><trkpt lat="45.101094735704514" lon="9.684793682669563"><ele>44.0</ele><time>2026-05-03T07:17:33.995Z</time></trkpt><trkpt lat="45.100998813561596" lon="9.684842842091644"><ele>44.0</ele><time>2026-05-03T07:17:34.995Z</time></trkpt><trkpt lat="45.100901680856346" lon="9.684938190727602"><ele>44.0</ele><time>2026-05-03T07:17:35.995Z</time></trkpt><trkpt lat="45.10077008115384" lon="9.685057362736046"><ele>44.0</ele><time>2026-05-03T07:17:36.995Z</time></trkpt><trkpt lat="45.10059979145396" lon="9.685176138036498"><ele>44.0</ele><time>2026-05-03T07:17:37.995Z</time></trkpt><trkpt lat="45.10039602930184" lon="9.68532015356377"><ele>45.0</ele><time>2026-05-03T07:17:38.995Z</time></trkpt><trkpt lat="45.100183578496456" lon="9.685479903217692"><ele>46.0</ele><time>2026-05-03T07:17:39.995Z</time></trkpt><trkpt lat="45.099938398416015" lon="9.685656500360828"><ele>46.0</ele><time>2026-05-03T07:17:40.995Z</time></trkpt><trkpt lat="45.099686078140714" lon="9.685850873919064"><ele>46.0</ele><time>2026-05-03T07:17:41.995Z</time></trkpt><trkpt lat="45.0994204978165" lon="9.68604126046082"><ele>46.0</ele><time>2026-05-03T07:17:42.995Z</time></trkpt><trkpt lat="45.099146262901456" lon="9.686256406546798"><ele>46.0</ele><time>2026-05-03T07:17:43.995Z</time></trkpt><trkpt lat="45.098941667038645" lon="9.68641306456135"><ele>46.0</ele><time>2026-05-03T07:17:45.995Z</time></trkpt><trkpt lat="45.09872269027198" lon="9.686575676865257"><ele>46.0</ele><time>2026-05-03T07:17:46.995Z</time></trkpt><trkpt lat="45.09852299437931" lon="9.686730158233992"><ele>46.0</ele><time>2026-05-03T07:17:47.995Z</time></trkpt><trkpt lat="45.098334073861416" lon="9.686882183186366"><ele>46.0</ele><time>2026-05-03T07:17:48.995Z</time></trkpt><trkpt lat="45.098154194227114" lon="9.686997320358575"><ele>46.0</ele><time>2026-05-03T07:17:49.995Z</time></trkpt><trkpt lat="45.097987532740085" lon="9.687124043506723"><ele>45.25</ele><time>2026-05-03T07:17:50.995Z</time></trkpt><trkpt lat="45.097838484494986" lon="9.687237330223038"><ele>44.5</ele><time>2026-05-03T07:17:51.995Z</time></trkpt><trkpt lat="45.097716351855375" lon="9.687354776138596"><ele>43.75</ele><time>2026-05-03T07:17:52.995Z</time></trkpt><trkpt lat="45.09760670792058" lon="9.68742894883194"><ele>43.0</ele><time>2026-05-03T07:17:53.995Z</time></trkpt><trkpt lat="45.097503338095294" lon="9.68746489073294"><ele>43.4</ele><time>2026-05-03T07:17:54.995Z</time></trkpt><trkpt lat="45.09739836469293" lon="9.687433458573988"><ele>43.8</ele><time>2026-05-03T07:17:55.995Z</time></trkpt><trkpt lat="45.09730005711154" lon="9.687479270495093"><ele>44.2</ele><time>2026-05-03T07:17:56.995Z</time></trkpt><trkpt lat="45.097222775852885" lon="9.68756559246139"><ele>44.6</ele><time>2026-05-03T07:17:57.995Z</time></trkpt><trkpt lat="45.09714204216128" lon="9.687720694750196"><ele>45.0</ele><time>2026-05-03T07:17:58.995Z</time></trkpt><trkpt lat="45.097019501798385" lon="9.687865042042874"><ele>45.333333333333336</ele><time>2026-05-03T07:17:59.995Z</time></trkpt><trkpt lat="45.096857009034295" lon="9.687988199311764"><ele>45.66666666666667</ele><time>2026-05-03T07:18:00.995Z</time></trkpt><trkpt lat="45.0966876643031" lon="9.688142742674865"><ele>46.0</ele><time>2026-05-03T07:18:01.995Z</time></trkpt><trkpt lat="45.09648374254362" lon="9.688286945254665"><ele>47.5</ele><time>2026-05-03T07:18:02.995Z</time></trkpt><trkpt lat="45.09627862719392" lon="9.688426872010204"><ele>49.0</ele><time>2026-05-03T07:18:03.995Z</time></trkpt><trkpt lat="45.096055103309176" lon="9.688545568971186"><ele>48.0</ele><time>2026-05-03T07:18:04.995Z</time></trkpt><trkpt lat="45.09581191912514" lon="9.688615847502668"><ele>47.0</ele><time>2026-05-03T07:18:05.995Z</time></trkpt><trkpt lat="45.09556220546183" lon="9.688694565417093"><ele>47.0</ele><time>2026-05-03T07:18:06.995Z</time></trkpt><trkpt lat="45.09530658741728" lon="9.688743177511306"><ele>47.0</ele><time>2026-05-03T07:18:07.995Z</time></trkpt><trkpt lat="45.09505946191021" lon="9.688816149252734"><ele>47.0</ele><time>2026-05-03T07:18:08.995Z</time></trkpt><trkpt lat="45.094818332405126" lon="9.688898173884514"><ele>47.0</ele><time>2026-05-03T07:18:09.995Z</time></trkpt><trkpt lat="45.09457453055816" lon="9.688984721914311"><ele>47.0</ele><time>2026-05-03T07:18:10.995Z</time></trkpt><trkpt lat="45.09433167191253" lon="9.689059648858114"><ele>47.0</ele><time>2026-05-03T07:18:11.995Z</time></trkpt><trkpt lat="45.09409023816221" lon="9.689128519111565"><ele>46.0</ele><time>2026-05-03T07:18:12.995Z</time></trkpt><trkpt lat="45.093853272269186" lon="9.689188972067987"><ele>45.0</ele><time>2026-05-03T07:18:13.995Z</time></trkpt><trkpt lat="45.093633342387385" lon="9.689258716151162"><ele>45.0</ele><time>2026-05-03T07:18:14.995Z</time></trkpt><trkpt lat="45.09342670342124" lon="9.689330826701262"><ele>45.0</ele><time>2026-05-03T07:18:15.995Z</time></trkpt><trkpt lat="45.09322350097484" lon="9.689383370073518"><ele>45.0</ele><time>2026-05-03T07:18:16.994Z</time></trkpt><trkpt lat="45.093024372652145" lon="9.689438586309322"><ele>44.666666666666664</ele><time>2026-05-03T07:18:17.994Z</time></trkpt><trkpt lat="45.09283010100412" lon="9.689492612089229"><ele>44.33333333333333</ele><time>2026-05-03T07:18:18.994Z</time></trkpt><trkpt lat="45.09263772164487" lon="9.68955775419387"><ele>44.0</ele><time>2026-05-03T07:18:19.994Z</time></trkpt><trkpt lat="45.092446016870255" lon="9.689625244521826"><ele>44.33333333333333</ele><time>2026-05-03T07:18:20.994Z</time></trkpt><trkpt lat="45.09225370005724" lon="9.689690559024665"><ele>44.666666666666664</ele><time>2026-05-03T07:18:21.994Z</time></trkpt><trkpt lat="45.09206440862282" lon="9.689759559821615"><ele>45.0</ele><time>2026-05-03T07:18:22.994Z</time></trkpt><trkpt lat="45.09187792730506" lon="9.689825367466307"><ele>45.0</ele><time>2026-05-03T07:18:23.994Z</time></trkpt><trkpt lat="45.09168899532061" lon="9.689888142475144"><ele>45.0</ele><time>2026-05-03T07:18:24.994Z</time></trkpt><trkpt lat="45.09148734237096" lon="9.689912703471153"><ele>45.0</ele><time>2026-05-03T07:18:25.994Z</time></trkpt><trkpt lat="45.09129723843365" lon="9.6899770292517"><ele>45.0</ele><time>2026-05-03T07:18:26.994Z</time></trkpt><trkpt lat="45.091101476563836" lon="9.690027253874227"><ele>45.0</ele><time>2026-05-03T07:18:27.994Z</time></trkpt><trkpt lat="45.09090299402609" lon="9.690038042019008"><ele>45.0</ele><time>2026-05-03T07:18:28.994Z</time></trkpt><trkpt lat="45.090695551984574" lon="9.690002092221388"><ele>45.666666666666664</ele><time>2026-05-03T07:18:29.994Z</time></trkpt><trkpt lat="45.090484440496276" lon="9.689936462714728"><ele>46.33333333333333</ele><time>2026-05-03T07:18:30.994Z</time></trkpt><trkpt lat="45.09026731080668" lon="9.689870008884979"><ele>47.0</ele><time>2026-05-03T07:18:31.994Z</time></trkpt><trkpt lat="45.09004465830589" lon="9.689814086972904"><ele>47.0</ele><time>2026-05-03T07:18:32.994Z</time></trkpt><trkpt lat="45.08983369664438" lon="9.689762969353675"><ele>47.0</ele><time>2026-05-03T07:18:33.994Z</time></trkpt><trkpt lat="45.08963355367853" lon="9.68971717493816"><ele>47.0</ele><time>2026-05-03T07:18:34.994Z</time></trkpt><trkpt lat="45.089432644685424" lon="9.689664760732146"><ele>47.0</ele><time>2026-05-03T07:18:35.994Z</time></trkpt><trkpt lat="45.08922708185282" lon="9.689616383310504"><ele>47.0</ele><time>2026-05-03T07:18:36.994Z</time></trkpt><trkpt lat="45.089021493406825" lon="9.689580076448935"><ele>47.0</ele><time>2026-05-03T07:18:37.994Z</time></trkpt><trkpt lat="45.088813337597934" lon="9.68953509414074"><ele>46.666666666666664</ele><time>2026-05-03T07:18:38.994Z</time></trkpt><trkpt lat="45.08859922941911" lon="9.689481900850119"><ele>46.333333333333336</ele><time>2026-05-03T07:18:39.994Z</time></trkpt><trkpt lat="45.08838470092703" lon="9.689431880981488"><ele>46.0</ele><time>2026-05-03T07:18:40.994Z</time></trkpt><trkpt lat="45.088173366817735" lon="9.689384498782644"><ele>46.0</ele><time>2026-05-03T07:18:41.994Z</time></trkpt><trkpt lat="45.08795864179723" lon="9.689337400454423"><ele>46.0</ele><time>2026-05-03T07:18:42.994Z</time></trkpt><trkpt lat="45.08775468463482" lon="9.689287917618154"><ele>46.0</ele><time>2026-05-03T07:18:43.994Z</time></trkpt><trkpt lat="45.087565794153754" lon="9.689241478964536"><ele>45.66666666666667</ele><time>2026-05-03T07:18:44.994Z</time></trkpt><trkpt lat="45.087380512333084" lon="9.689199572911722"><ele>45.333333333333336</ele><time>2026-05-03T07:18:45.994Z</time></trkpt><trkpt lat="45.0871881158022" lon="9.689154857996359"><ele>45.0</ele><time>2026-05-03T07:18:46.994Z</time></trkpt><trkpt lat="45.08699417075333" lon="9.689125180277752"><ele>45.0</ele><time>2026-05-03T07:18:47.994Z</time></trkpt><trkpt lat="45.08679651640505" lon="9.689135013814791"><ele>45.0</ele><time>2026-05-03T07:18:48.994Z</time></trkpt><trkpt lat="45.08659963756625" lon="9.689184205321071"><ele>45.0</ele><time>2026-05-03T07:18:49.994Z</time></trkpt><trkpt lat="45.08640536299037" lon="9.689278712657691"><ele>45.0</ele><time>2026-05-03T07:18:50.994Z</time></trkpt><trkpt lat="45.08620989697194" lon="9.689399096872293"><ele>45.0</ele><time>2026-05-03T07:18:51.994Z</time></trkpt><trkpt lat="45.08601989232974" lon="9.689538618324665"><ele>45.0</ele><time>2026-05-03T07:18:52.994Z</time></trkpt><trkpt lat="45.08583267424258" lon="9.689679888391774"><ele>45.333333333333336</ele><time>2026-05-03T07:18:53.994Z</time></trkpt><trkpt lat="45.085648169195196" lon="9.689814069916064"><ele>45.66666666666667</ele><time>2026-05-03T07:18:54.994Z</time></trkpt><trkpt lat="45.0854662198446" lon="9.68994518070048"><ele>46.0</ele><time>2026-05-03T07:18:55.994Z</time></trkpt><trkpt lat="45.08528585645516" lon="9.69007725611039"><ele>46.0</ele><time>2026-05-03T07:18:56.994Z</time></trkpt><trkpt lat="45.08510062019687" lon="9.690207110143405"><ele>46.0</ele><time>2026-05-03T07:18:57.994Z</time></trkpt><trkpt lat="45.084916184495924" lon="9.69033506954035"><ele>46.0</ele><time>2026-05-03T07:18:58.994Z</time></trkpt><trkpt lat="45.08472997649576" lon="9.690461645737882"><ele>46.0</ele><time>2026-05-03T07:18:59.994Z</time></trkpt><trkpt lat="45.084547711403424" lon="9.690598128395315"><ele>46.0</ele><time>2026-05-03T07:19:00.994Z</time></trkpt><trkpt lat="45.08436126711058" lon="9.69073176109276"><ele>46.0</ele><time>2026-05-03T07:19:01.994Z</time></trkpt><trkpt lat="45.084174131970705" lon="9.690858402621563"><ele>46.66666666666667</ele><time>2026-05-03T07:19:02.994Z</time></trkpt><trkpt lat="45.08399010589982" lon="9.690979646200889"><ele>47.333333333333336</ele><time>2026-05-03T07:19:03.994Z</time></trkpt><trkpt lat="45.08380462887842" lon="9.691094569252007"><ele>48.0</ele><time>2026-05-03T07:19:04.994Z</time></trkpt><trkpt lat="45.08362281181709" lon="9.691204625818338"><ele>48.0</ele><time>2026-05-03T07:19:05.994Z</time></trkpt><trkpt lat="45.08344271701099" lon="9.691311979700084"><ele>48.0</ele><time>2026-05-03T07:19:06.994Z</time></trkpt><trkpt lat="45.083265774056336" lon="9.691421370061251"><ele>48.0</ele><time>2026-05-03T07:19:07.994Z</time></trkpt><trkpt lat="45.08308986222512" lon="9.691528024873508"><ele>48.0</ele><time>2026-05-03T07:19:08.994Z</time></trkpt><trkpt lat="45.08291595830482" lon="9.691634927008465"><ele>48.0</ele><time>2026-05-03T07:19:09.994Z</time></trkpt><trkpt lat="45.08274244911739" lon="9.691747117273732"><ele>48.0</ele><time>2026-05-03T07:19:10.994Z</time></trkpt><trkpt lat="45.082577879358354" lon="9.691854691287162"><ele>48.33333333333333</ele><time>2026-05-03T07:19:11.994Z</time></trkpt><trkpt lat="45.08241568531266" lon="9.691951951702773"><ele>48.666666666666664</ele><time>2026-05-03T07:19:12.994Z</time></trkpt><trkpt lat="45.08225205887504" lon="9.692048633254752"><ele>49.0</ele><time>2026-05-03T07:19:13.994Z</time></trkpt><trkpt lat="45.08208361938358" lon="9.692142870061762"><ele>49.0</ele><time>2026-05-03T07:19:14.994Z</time></trkpt><trkpt lat="45.08190544449685" lon="9.692217619731986"><ele>49.0</ele><time>2026-05-03T07:19:15.994Z</time></trkpt><trkpt lat="45.081714543686225" lon="9.692237502246224"><ele>49.0</ele><time>2026-05-03T07:19:16.994Z</time></trkpt><trkpt lat="45.08152505599645" lon="9.692254894311455"><ele>48.0</ele><time>2026-05-03T07:19:17.994Z</time></trkpt><trkpt lat="45.08134532284417" lon="9.692289573112147"><ele>47.0</ele><time>2026-05-03T07:19:18.994Z</time></trkpt><trkpt lat="45.08116869670049" lon="9.692300337612524"><ele>46.0</ele><time>2026-05-03T07:19:19.994Z</time></trkpt><trkpt lat="45.080996018680516" lon="9.692359329985356"><ele>46.0</ele><time>2026-05-03T07:19:20.994Z</time></trkpt><trkpt lat="45.080838015740575" lon="9.692470200643927"><ele>46.0</ele><time>2026-05-03T07:19:21.994Z</time></trkpt><trkpt lat="45.08070107685626" lon="9.69263360400346"><ele>46.0</ele><time>2026-05-03T07:19:22.994Z</time></trkpt><trkpt lat="45.080582524980784" lon="9.692829831951515"><ele>46.333333333333336</ele><time>2026-05-03T07:19:23.994Z</time></trkpt><trkpt lat="45.08050326477082" lon="9.693059401589252"><ele>46.666666666666664</ele><time>2026-05-03T07:19:24.994Z</time></trkpt><trkpt lat="45.0804308879552" lon="9.693298375218603"><ele>47.0</ele><time>2026-05-03T07:19:25.994Z</time></trkpt><trkpt lat="45.080362028285066" lon="9.693551296033272"><ele>46.666666666666664</ele><time>2026-05-03T07:19:26.994Z</time></trkpt><trkpt lat="45.08029726184502" lon="9.693821732329205"><ele>46.333333333333336</ele><time>2026-05-03T07:19:27.994Z</time></trkpt><trkpt lat="45.0802280823426" lon="9.694107419194847"><ele>46.0</ele><time>2026-05-03T07:19:28.994Z</time></trkpt><trkpt lat="45.08015411761842" lon="9.694388885606456"><ele>46.333333333333336</ele><time>2026-05-03T07:19:29.994Z</time></trkpt><trkpt lat="45.080075598549165" lon="9.694659491730874"><ele>46.666666666666664</ele><time>2026-05-03T07:19:30.994Z</time></trkpt><trkpt lat="45.07999847208362" lon="9.694923109145593"><ele>47.0</ele><time>2026-05-03T07:19:31.994Z</time></trkpt><trkpt lat="45.07992838789333" lon="9.69518972020117"><ele>46.0</ele><time>2026-05-03T07:19:32.994Z</time></trkpt><trkpt lat="45.079853764867735" lon="9.695458438259799"><ele>45.0</ele><time>2026-05-03T07:19:33.994Z</time></trkpt><trkpt lat="45.07977705194158" lon="9.695727741910522"><ele>44.0</ele><time>2026-05-03T07:19:34.994Z</time></trkpt><trkpt lat="45.07970653550687" lon="9.69599499225165"><ele>44.666666666666664</ele><time>2026-05-03T07:19:35.994Z</time></trkpt><trkpt lat="45.07963445763578" lon="9.696262437568718"><ele>45.333333333333336</ele><time>2026-05-03T07:19:36.994Z</time></trkpt><trkpt lat="45.07956175519736" lon="9.6965241405166"><ele>46.0</ele><time>2026-05-03T07:19:37.994Z</time></trkpt><trkpt lat="45.079490792897346" lon="9.696784149820008"><ele>46.66666666666667</ele><time>2026-05-03T07:19:38.994Z</time></trkpt><trkpt lat="45.0794201744162" lon="9.697040509168174"><ele>47.333333333333336</ele><time>2026-05-03T07:19:39.994Z</time></trkpt><trkpt lat="45.07935091156664" lon="9.697289145272904"><ele>48.0</ele><time>2026-05-03T07:19:40.994Z</time></trkpt><trkpt lat="45.07928135787387" lon="9.697535728142519"><ele>47.666666666666664</ele><time>2026-05-03T07:19:41.994Z</time></trkpt><trkpt lat="45.07921289505062" lon="9.697785050951923"><ele>47.33333333333333</ele><time>2026-05-03T07:19:42.994Z</time></trkpt><trkpt lat="45.079144358764296" lon="9.69803405189098"><ele>47.0</ele><time>2026-05-03T07:19:43.994Z</time></trkpt><trkpt lat="45.07907433872308" lon="9.698280816646543"><ele>46.33333333333333</ele><time>2026-05-03T07:19:44.994Z</time></trkpt><trkpt lat="45.07900552587441" lon="9.698525320694902"><ele>45.666666666666664</ele><time>2026-05-03T07:19:45.994Z</time></trkpt><trkpt lat="45.078938717119776" lon="9.698771491482036"><ele>45.0</ele><time>2026-05-03T07:19:46.994Z</time></trkpt><trkpt lat="45.07887123102282" lon="9.699014467883558"><ele>45.0</ele><time>2026-05-03T07:19:47.994Z</time></trkpt><trkpt lat="45.0788049700841" lon="9.69925834268274"><ele>45.0</ele><time>2026-05-03T07:19:48.994Z</time></trkpt><trkpt lat="45.07873707983241" lon="9.699500874235733"><ele>45.0</ele><time>2026-05-03T07:19:49.994Z</time></trkpt><trkpt lat="45.07866743430758" lon="9.699744283085478"><ele>45.0</ele><time>2026-05-03T07:19:50.994Z</time></trkpt><trkpt lat="45.07860101050819" lon="9.699987478848746"><ele>45.0</ele><time>2026-05-03T07:19:51.994Z</time></trkpt><trkpt lat="45.07853652238385" lon="9.700225203031032"><ele>45.0</ele><time>2026-05-03T07:19:52.994Z</time></trkpt><trkpt lat="45.07847312964973" lon="9.700463691877218"><ele>45.333333333333336</ele><time>2026-05-03T07:19:53.994Z</time></trkpt><trkpt lat="45.07840631144961" lon="9.70070550286768"><ele>45.66666666666667</ele><time>2026-05-03T07:19:54.994Z</time></trkpt><trkpt lat="45.078334320411024" lon="9.700944201816522"><ele>46.0</ele><time>2026-05-03T07:19:55.994Z</time></trkpt><trkpt lat="45.0782587919978" lon="9.701181053438496"><ele>46.0</ele><time>2026-05-03T07:19:56.994Z</time></trkpt><trkpt lat="45.07818137524616" lon="9.701416697397134"><ele>46.0</ele><time>2026-05-03T07:19:57.994Z</time></trkpt><trkpt lat="45.078103977519106" lon="9.701647692850788"><ele>46.0</ele><time>2026-05-03T07:19:58.994Z</time></trkpt><trkpt lat="45.0780290828318" lon="9.701866893986114"><ele>45.333333333333336</ele><time>2026-05-03T07:19:59.994Z</time></trkpt><trkpt lat="45.07795409747216" lon="9.702071164770237"><ele>44.666666666666664</ele><time>2026-05-03T07:20:00.994Z</time></trkpt><trkpt lat="45.07788194038237" lon="9.702261026710426"><ele>44.0</ele><time>2026-05-03T07:20:01.994Z</time></trkpt><trkpt lat="45.0778111643983" lon="9.702437598801747"><ele>44.0</ele><time>2026-05-03T07:20:02.994Z</time></trkpt><trkpt lat="45.077742304929494" lon="9.702606485135941"><ele>44.0</ele><time>2026-05-03T07:20:03.994Z</time></trkpt><trkpt lat="45.077673304929064" lon="9.70277154444651"><ele>44.0</ele><time>2026-05-03T07:20:04.994Z</time></trkpt><trkpt lat="45.07760903704703" lon="9.702927790991996"><ele>44.0</ele><time>2026-05-03T07:20:05.994Z</time></trkpt><trkpt lat="45.07753794131932" lon="9.703053426184606"><ele>44.0</ele><time>2026-05-03T07:20:06.994Z</time></trkpt><trkpt lat="45.077492849919665" lon="9.703193847671399"><ele>44.0</ele><time>2026-05-03T07:20:07.994Z</time></trkpt><trkpt lat="45.07744270284029" lon="9.703299017763806"><ele>44.0</ele><time>2026-05-03T07:20:08.994Z</time></trkpt><trkpt lat="45.07739264547144" lon="9.703399190286158"><ele>44.0</ele><time>2026-05-03T07:20:09.994Z</time></trkpt><trkpt lat="45.07734482861308" lon="9.70349364369396"><ele>44.0</ele><time>2026-05-03T07:20:10.994Z</time></trkpt><trkpt lat="45.07728957494263" lon="9.70359452431178"><ele>44.2</ele><time>2026-05-03T07:20:11.993Z</time></trkpt><trkpt lat="45.07721636719341" lon="9.703695371325969"><ele>44.400000000000006</ele><time>2026-05-03T07:20:12.993Z</time></trkpt><trkpt lat="45.077124151970814" lon="9.703775818471874"><ele>44.6</ele><time>2026-05-03T07:20:13.993Z</time></trkpt><trkpt lat="45.07704860813601" lon="9.703852050754907"><ele>44.8</ele><time>2026-05-03T07:20:14.993Z</time></trkpt><trkpt lat="45.077002003461104" lon="9.703973128615555"><ele>45.0</ele><time>2026-05-03T07:20:15.993Z</time></trkpt><trkpt lat="45.07698539005028" lon="9.704122561156895"><ele>45.0</ele><time>2026-05-03T07:20:16.993Z</time></trkpt><trkpt lat="45.07695146520903" lon="9.70424454772053"><ele>45.0</ele><time>2026-05-03T07:20:17.993Z</time></trkpt><trkpt lat="45.07686851165371" lon="9.704338407783709"><ele>45.0</ele><time>2026-05-03T07:20:18.993Z</time></trkpt><trkpt lat="45.0767690339704" lon="9.704432219516033"><ele>45.0</ele><time>2026-05-03T07:20:19.993Z</time></trkpt><trkpt lat="45.07665201150037" lon="9.704525996189439"><ele>46.0</ele><time>2026-05-03T07:20:20.993Z</time></trkpt><trkpt lat="45.07651669561663" lon="9.704631650526691"><ele>47.0</ele><time>2026-05-03T07:20:21.993Z</time></trkpt><trkpt lat="45.07638549014518" lon="9.704738258288863"><ele>48.0</ele><time>2026-05-03T07:20:22.993Z</time></trkpt><trkpt lat="45.07625651422083" lon="9.704844178954357"><ele>48.0</ele><time>2026-05-03T07:20:23.993Z</time></trkpt><trkpt lat="45.076122772839575" lon="9.704949871056408"><ele>48.0</ele><time>2026-05-03T07:20:24.993Z</time></trkpt><trkpt lat="45.075984399397214" lon="9.705063379826862"><ele>48.0</ele><time>2026-05-03T07:20:25.993Z</time></trkpt><trkpt lat="45.0758365467648" lon="9.705182674786547"><ele>48.0</ele><time>2026-05-03T07:20:26.993Z</time></trkpt><trkpt lat="45.075685035176534" lon="9.705302622584815"><ele>48.0</ele><time>2026-05-03T07:20:27.993Z</time></trkpt><trkpt lat="45.07553488800765" lon="9.705427307232377"><ele>48.0</ele><time>2026-05-03T07:20:28.993Z</time></trkpt><trkpt lat="45.075381088361574" lon="9.705549261138888"><ele>48.0</ele><time>2026-05-03T07:20:29.993Z</time></trkpt><trkpt lat="45.07522716355417" lon="9.705666808128385"><ele>48.0</ele><time>2026-05-03T07:20:30.993Z</time></trkpt><trkpt lat="45.075068180197285" lon="9.705791331968527"><ele>48.0</ele><time>2026-05-03T07:20:31.993Z</time></trkpt><trkpt lat="45.0749096305425" lon="9.705916948610804"><ele>47.666666666666664</ele><time>2026-05-03T07:20:32.993Z</time></trkpt><trkpt lat="45.074757070559016" lon="9.706044112012124"><ele>47.33333333333333</ele><time>2026-05-03T07:20:33.993Z</time></trkpt><trkpt lat="45.074598387377" lon="9.706169908535301"><ele>47.0</ele><time>2026-05-03T07:20:34.993Z</time></trkpt><trkpt lat="45.07444248784382" lon="9.706294236441451"><ele>47.0</ele><time>2026-05-03T07:20:35.993Z</time></trkpt><trkpt lat="45.07428596129061" lon="9.70642051495221"><ele>47.0</ele><time>2026-05-03T07:20:36.993Z</time></trkpt><trkpt lat="45.0741290226636" lon="9.706547991089813"><ele>47.0</ele><time>2026-05-03T07:20:37.993Z</time></trkpt><trkpt lat="45.07397289504763" lon="9.706672849306312"><ele>47.33333333333333</ele><time>2026-05-03T07:20:38.993Z</time></trkpt><trkpt lat="45.07381543914057" lon="9.706797085199408"><ele>47.666666666666664</ele><time>2026-05-03T07:20:39.993Z</time></trkpt><trkpt lat="45.07365975848644" lon="9.706926406850195"><ele>48.0</ele><time>2026-05-03T07:20:40.993Z</time></trkpt><trkpt lat="45.07350972001392" lon="9.707051529229863"><ele>48.0</ele><time>2026-05-03T07:20:41.993Z</time></trkpt><trkpt lat="45.07335617034485" lon="9.707170595168714"><ele>48.0</ele><time>2026-05-03T07:20:42.993Z</time></trkpt><trkpt lat="45.07319857860994" lon="9.707297212531344"><ele>48.0</ele><time>2026-05-03T07:20:43.993Z</time></trkpt><trkpt lat="45.07304024015013" lon="9.70742722411159"><ele>47.666666666666664</ele><time>2026-05-03T07:20:44.993Z</time></trkpt><trkpt lat="45.07288529810562" lon="9.707553531650056"><ele>47.33333333333333</ele><time>2026-05-03T07:20:45.993Z</time></trkpt><trkpt lat="45.072733434058875" lon="9.707681322306648"><ele>47.0</ele><time>2026-05-03T07:20:46.993Z</time></trkpt><trkpt lat="45.07258937870646" lon="9.707804422727678"><ele>47.0</ele><time>2026-05-03T07:20:47.993Z</time></trkpt><trkpt lat="45.0724527812702" lon="9.707909562542874"><ele>47.0</ele><time>2026-05-03T07:20:48.993Z</time></trkpt><trkpt lat="45.072312042408555" lon="9.708015540630157"><ele>47.0</ele><time>2026-05-03T07:20:49.993Z</time></trkpt><trkpt lat="45.07217028622954" lon="9.708124878270407"><ele>47.0</ele><time>2026-05-03T07:20:50.993Z</time></trkpt><trkpt lat="45.0720334851722" lon="9.70823935598194"><ele>47.0</ele><time>2026-05-03T07:20:51.993Z</time></trkpt><trkpt lat="45.0718912265373" lon="9.708355084888506"><ele>47.0</ele><time>2026-05-03T07:20:52.993Z</time></trkpt><trkpt lat="45.07175817452889" lon="9.708472280524143"><ele>47.0</ele><time>2026-05-03T07:20:53.993Z</time></trkpt><trkpt lat="45.07163495112643" lon="9.70857946852302"><ele>47.0</ele><time>2026-05-03T07:20:54.993Z</time></trkpt><trkpt lat="45.07150718957699" lon="9.70867420467242"><ele>47.0</ele><time>2026-05-03T07:20:55.993Z</time></trkpt><trkpt lat="45.07138042684864" lon="9.708775273746753"><ele>47.0</ele><time>2026-05-03T07:20:56.993Z</time></trkpt><trkpt lat="45.071247144416844" lon="9.708871279290099"><ele>47.666666666666664</ele><time>2026-05-03T07:20:57.993Z</time></trkpt><trkpt lat="45.0711071078002" lon="9.708977594768314"><ele>48.33333333333333</ele><time>2026-05-03T07:20:58.993Z</time></trkpt><trkpt lat="45.07096947168838" lon="9.709099034225819"><ele>49.0</ele><time>2026-05-03T07:20:59.993Z</time></trkpt><trkpt lat="45.07083546460615" lon="9.70921171960492"><ele>49.0</ele><time>2026-05-03T07:21:00.993Z</time></trkpt><trkpt lat="45.07069893163106" lon="9.70932231007147"><ele>49.0</ele><time>2026-05-03T07:21:01.993Z</time></trkpt><trkpt lat="45.07056048643149" lon="9.709433091980955"><ele>49.0</ele><time>2026-05-03T07:21:02.993Z</time></trkpt><trkpt lat="45.07042391260838" lon="9.709542968992201"><ele>49.0</ele><time>2026-05-03T07:21:03.993Z</time></trkpt><trkpt lat="45.070279164176256" lon="9.709626598541984"><ele>49.0</ele><time>2026-05-03T07:21:04.993Z</time></trkpt><trkpt lat="45.07011717827384" lon="9.709680153078448"><ele>49.0</ele><time>2026-05-03T07:21:05.993Z</time></trkpt><trkpt lat="45.069946544246314" lon="9.70968222291372"><ele>49.666666666666664</ele><time>2026-05-03T07:21:06.993Z</time></trkpt><trkpt lat="45.06974821576367" lon="9.709656034152857"><ele>50.33333333333333</ele><time>2026-05-03T07:21:07.993Z</time></trkpt><trkpt lat="45.069558225835806" lon="9.70960723725679"><ele>51.0</ele><time>2026-05-03T07:21:08.993Z</time></trkpt><trkpt lat="45.06936974163841" lon="9.709533797772663"><ele>51.0</ele><time>2026-05-03T07:21:09.993Z</time></trkpt><trkpt lat="45.06918522259518" lon="9.709421609378065"><ele>51.0</ele><time>2026-05-03T07:21:10.993Z</time></trkpt><trkpt lat="45.06901127723512" lon="9.709284051891938"><ele>51.0</ele><time>2026-05-03T07:21:11.993Z</time></trkpt><trkpt lat="45.06882886868618" lon="9.709147322192345"><ele>50.66666666666667</ele><time>2026-05-03T07:21:12.993Z</time></trkpt><trkpt lat="45.06863486278096" lon="9.70901049840743"><ele>50.333333333333336</ele><time>2026-05-03T07:21:13.993Z</time></trkpt><trkpt lat="45.068447610800575" lon="9.70887780891484"><ele>50.0</ele><time>2026-05-03T07:21:14.993Z</time></trkpt><trkpt lat="45.06826341963721" lon="9.708744051508573"><ele>50.66666666666667</ele><time>2026-05-03T07:21:15.993Z</time></trkpt><trkpt lat="45.068077147794185" lon="9.708606812226083"><ele>51.33333333333333</ele><time>2026-05-03T07:21:16.993Z</time></trkpt><trkpt lat="45.06789629080504" lon="9.708469320345325"><ele>52.0</ele><time>2026-05-03T07:21:17.993Z</time></trkpt><trkpt lat="45.067714586688545" lon="9.70832986902242"><ele>50.666666666666664</ele><time>2026-05-03T07:21:18.993Z</time></trkpt><trkpt lat="45.06755069821648" lon="9.708231315798093"><ele>49.33333333333333</ele><time>2026-05-03T07:21:19.993Z</time></trkpt><trkpt lat="45.067371819998684" lon="9.70807457750402"><ele>48.0</ele><time>2026-05-03T07:21:20.993Z</time></trkpt><trkpt lat="45.067177238591945" lon="9.707933262127979"><ele>48.0</ele><time>2026-05-03T07:21:21.993Z</time></trkpt><trkpt lat="45.066970512007344" lon="9.707783126294203"><ele>48.0</ele><time>2026-05-03T07:21:22.993Z</time></trkpt><trkpt lat="45.06674780543051" lon="9.70762034177791"><ele>47.0</ele><time>2026-05-03T07:21:23.993Z</time></trkpt><trkpt lat="45.06650522866241" lon="9.70744465043385"><ele>46.0</ele><time>2026-05-03T07:21:24.993Z</time></trkpt><trkpt lat="45.06624986062744" lon="9.707259503848206"><ele>46.0</ele><time>2026-05-03T07:21:25.993Z</time></trkpt><trkpt lat="45.06598631336161" lon="9.707067461250448"><ele>46.0</ele><time>2026-05-03T07:21:26.993Z</time></trkpt><trkpt lat="45.0657270555736" lon="9.706878260902318"><ele>45.5</ele><time>2026-05-03T07:21:27.993Z</time></trkpt><trkpt lat="45.06548027922301" lon="9.7067184478564"><ele>45.0</ele><time>2026-05-03T07:21:28.993Z</time></trkpt><trkpt lat="45.065233423422605" lon="9.706538588668648"><ele>45.0</ele><time>2026-05-03T07:21:29.993Z</time></trkpt><trkpt lat="45.064978849221006" lon="9.70635073082074"><ele>45.0</ele><time>2026-05-03T07:21:30.993Z</time></trkpt><trkpt lat="45.064719318094596" lon="9.706160733723975"><ele>47.0</ele><time>2026-05-03T07:21:31.993Z</time></trkpt><trkpt lat="45.06445911191156" lon="9.70597026955694"><ele>49.0</ele><time>2026-05-03T07:21:32.993Z</time></trkpt><trkpt lat="45.06419966101658" lon="9.70577744688088"><ele>47.5</ele><time>2026-05-03T07:21:33.993Z</time></trkpt><trkpt lat="45.06394917775035" lon="9.705586637654697"><ele>46.0</ele><time>2026-05-03T07:21:34.993Z</time></trkpt><trkpt lat="45.06370129628113" lon="9.705400427607941"><ele>46.0</ele><time>2026-05-03T07:21:35.993Z</time></trkpt><trkpt lat="45.06345508900507" lon="9.705216486915111"><ele>46.0</ele><time>2026-05-03T07:21:36.993Z</time></trkpt><trkpt lat="45.06322057585258" lon="9.705046442725214"><ele>48.0</ele><time>2026-05-03T07:21:37.993Z</time></trkpt><trkpt lat="45.06299132524588" lon="9.704880068755523"><ele>50.0</ele><time>2026-05-03T07:21:38.993Z</time></trkpt><trkpt lat="45.06276307368042" lon="9.70470921853813"><ele>50.0</ele><time>2026-05-03T07:21:39.993Z</time></trkpt><trkpt lat="45.06253923776083" lon="9.704540879831649"><ele>50.0</ele><time>2026-05-03T07:21:40.993Z</time></trkpt><trkpt lat="45.06231863050297" lon="9.70437707046273"><ele>48.5</ele><time>2026-05-03T07:21:41.993Z</time></trkpt><trkpt lat="45.062105173334764" lon="9.704217290072659"><ele>47.0</ele><time>2026-05-03T07:21:42.993Z</time></trkpt><trkpt lat="45.06189664753542" lon="9.704060580342587"><ele>47.0</ele><time>2026-05-03T07:21:43.993Z</time></trkpt><trkpt lat="45.0616878165651" lon="9.703903845814402"><ele>47.0</ele><time>2026-05-03T07:21:44.993Z</time></trkpt><trkpt lat="45.06148275922018" lon="9.703759104536125"><ele>45.33333333333333</ele><time>2026-05-03T07:21:45.993Z</time></trkpt><trkpt lat="45.06128328252766" lon="9.703613263417429"><ele>43.666666666666664</ele><time>2026-05-03T07:21:46.993Z</time></trkpt><trkpt lat="45.06108766939736" lon="9.70346894287265"><ele>42.0</ele><time>2026-05-03T07:21:47.993Z</time></trkpt><trkpt lat="45.060887002874175" lon="9.703326210050095"><ele>41.666666666666664</ele><time>2026-05-03T07:21:48.993Z</time></trkpt><trkpt lat="45.06069278895702" lon="9.703184091845142"><ele>41.33333333333333</ele><time>2026-05-03T07:21:49.993Z</time></trkpt><trkpt lat="45.060500100502836" lon="9.703036734929764"><ele>41.0</ele><time>2026-05-03T07:21:50.993Z</time></trkpt><trkpt lat="45.06030810819587" lon="9.70290019130892"><ele>41.0</ele><time>2026-05-03T07:21:51.993Z</time></trkpt><trkpt lat="45.060114717089505" lon="9.70276167141679"><ele>41.0</ele><time>2026-05-03T07:21:52.993Z</time></trkpt><trkpt lat="45.05991739848474" lon="9.70261978104029"><ele>41.0</ele><time>2026-05-03T07:21:53.993Z</time></trkpt><trkpt lat="45.059727172524646" lon="9.702480637251178"><ele>45.0</ele><time>2026-05-03T07:21:54.993Z</time></trkpt><trkpt lat="45.05953736529836" lon="9.702337694491238"><ele>49.0</ele><time>2026-05-03T07:21:55.993Z</time></trkpt><trkpt lat="45.05935374489313" lon="9.702187996501038"><ele>53.0</ele><time>2026-05-03T07:21:56.993Z</time></trkpt><trkpt lat="45.05917880471201" lon="9.702009947726587"><ele>52.333333333333336</ele><time>2026-05-03T07:21:57.993Z</time></trkpt><trkpt lat="45.05901898103009" lon="9.701811565149926"><ele>51.66666666666667</ele><time>2026-05-03T07:21:58.993Z</time></trkpt><trkpt lat="45.058872871319466" lon="9.70162176913442"><ele>51.0</ele><time>2026-05-03T07:21:59.993Z</time></trkpt><trkpt lat="45.0587361105548" lon="9.701429738320389"><ele>51.0</ele><time>2026-05-03T07:22:00.993Z</time></trkpt><trkpt lat="45.05859993129651" lon="9.701290612517832"><ele>51.0</ele><time>2026-05-03T07:22:01.993Z</time></trkpt><trkpt lat="45.05851022471682" lon="9.70115564794432"><ele>51.0</ele><time>2026-05-03T07:22:02.993Z</time></trkpt><trkpt lat="45.05841123042139" lon="9.701022538596686"><ele>51.0</ele><time>2026-05-03T07:22:03.993Z</time></trkpt><trkpt lat="45.05830220412462" lon="9.700894302761231"><ele>51.75</ele><time>2026-05-03T07:22:04.993Z</time></trkpt><trkpt lat="45.05820151460133" lon="9.700776921496773"><ele>52.5</ele><time>2026-05-03T07:22:05.993Z</time></trkpt><trkpt lat="45.05812162971964" lon="9.700647410020968"><ele>53.25</ele><time>2026-05-03T07:22:06.993Z</time></trkpt><trkpt lat="45.05803848725346" lon="9.70053286746504"><ele>54.0</ele><time>2026-05-03T07:22:07.993Z</time></trkpt><trkpt lat="45.0579608351066" lon="9.700431112784887"><ele>54.0</ele><time>2026-05-03T07:22:08.993Z</time></trkpt><trkpt lat="45.057893376843445" lon="9.700345329120742"><ele>54.0</ele><time>2026-05-03T07:22:09.993Z</time></trkpt><trkpt lat="45.05783207824552" lon="9.700267378469928"><ele>54.0</ele><time>2026-05-03T07:22:10.993Z</time></trkpt><trkpt lat="45.057772167350336" lon="9.700192677096748"><ele>54.0</ele><time>2026-05-03T07:22:11.993Z</time></trkpt><trkpt lat="45.05770513362579" lon="9.700140588536692"><ele>54.0</ele><time>2026-05-03T07:22:12.993Z</time></trkpt><trkpt lat="45.0576556520152" lon="9.700080793971042"><ele>54.0</ele><time>2026-05-03T07:22:13.993Z</time></trkpt><trkpt lat="45.057601303086535" lon="9.700028584207992"><ele>54.0</ele><time>2026-05-03T07:22:14.993Z</time></trkpt><trkpt lat="45.057524829770564" lon="9.699903021202704"><ele>54.00000000000001</ele><time>2026-05-03T07:22:16.992Z</time></trkpt><trkpt lat="45.057481864195104" lon="9.699752837227383"><ele>54.00000000000001</ele><time>2026-05-03T07:22:18.992Z</time></trkpt><trkpt lat="45.05741001668831" lon="9.699652827020602"><ele>54.0</ele><time>2026-05-03T07:22:20.992Z</time></trkpt><trkpt lat="45.05734347345238" lon="9.699639026688672"><ele>54.0</ele><time>2026-05-03T07:22:21.992Z</time></trkpt><trkpt lat="45.057283616746616" lon="9.699689418917574"><ele>54.0</ele><time>2026-05-03T07:22:22.992Z</time></trkpt><trkpt lat="45.05723752140419" lon="9.699780923086117"><ele>54.00000000000001</ele><time>2026-05-03T07:22:23.992Z</time></trkpt><trkpt lat="45.057220656367264" lon="9.699900658255864"><ele>54.00000000000001</ele><time>2026-05-03T07:22:24.992Z</time></trkpt><trkpt lat="45.05719897532355" lon="9.700025125341718"><ele>54.0</ele><time>2026-05-03T07:22:25.992Z</time></trkpt><trkpt lat="45.05716581777045" lon="9.70015219695441"><ele>54.0</ele><time>2026-05-03T07:22:26.992Z</time></trkpt><trkpt lat="45.05712314201182" lon="9.700285533832753"><ele>54.25</ele><time>2026-05-03T07:22:27.992Z</time></trkpt><trkpt lat="45.057083222891784" lon="9.700408878172905"><ele>54.5</ele><time>2026-05-03T07:22:28.992Z</time></trkpt><trkpt lat="45.05699628165302" lon="9.700661359623153"><ele>54.75</ele><time>2026-05-03T07:22:30.992Z</time></trkpt><trkpt lat="45.056941344363025" lon="9.700799506465735"><ele>55.0</ele><time>2026-05-03T07:22:31.992Z</time></trkpt><trkpt lat="45.056885415179764" lon="9.700908956782959"><ele>54.99999999999999</ele><time>2026-05-03T07:22:32.992Z</time></trkpt><trkpt lat="45.056850032061405" lon="9.701007600773442"><ele>55.0</ele><time>2026-05-03T07:22:33.992Z</time></trkpt><trkpt lat="45.0568050245828" lon="9.701116560567227"><ele>55.0</ele><time>2026-05-03T07:22:34.992Z</time></trkpt><trkpt lat="45.05676247500828" lon="9.701224602229804"><ele>55.0</ele><time>2026-05-03T07:22:35.992Z</time></trkpt><trkpt lat="45.05673353392625" lon="9.701315597579555"><ele>54.99999999999999</ele><time>2026-05-03T07:22:36.992Z</time></trkpt><trkpt lat="45.05669296005891" lon="9.701398733881298"><ele>55.0</ele><time>2026-05-03T07:22:37.992Z</time></trkpt><trkpt lat="45.05664866420054" lon="9.701509878040438"><ele>54.25</ele><time>2026-05-03T07:22:38.992Z</time></trkpt><trkpt lat="45.056568047953036" lon="9.701629369462456"><ele>53.5</ele><time>2026-05-03T07:22:39.992Z</time></trkpt><trkpt lat="45.05648332561376" lon="9.701782804947307"><ele>52.75</ele><time>2026-05-03T07:22:40.992Z</time></trkpt><trkpt lat="45.056393946270504" lon="9.70193167284167"><ele>52.0</ele><time>2026-05-03T07:22:41.992Z</time></trkpt><trkpt lat="45.05630247560947" lon="9.702069373731534"><ele>52.0</ele><time>2026-05-03T07:22:42.992Z</time></trkpt><trkpt lat="45.05621467214791" lon="9.702196428518219"><ele>52.0</ele><time>2026-05-03T07:22:43.992Z</time></trkpt><trkpt lat="45.05613134958062" lon="9.702324128018207"><ele>52.0</ele><time>2026-05-03T07:22:44.992Z</time></trkpt><trkpt lat="45.056044445621296" lon="9.702454110087688"><ele>52.0</ele><time>2026-05-03T07:22:45.992Z</time></trkpt><trkpt lat="45.05595262768261" lon="9.70256913450694"><ele>52.0</ele><time>2026-05-03T07:22:46.992Z</time></trkpt><trkpt lat="45.05584888157503" lon="9.70267350986719"><ele>52.0</ele><time>2026-05-03T07:22:47.992Z</time></trkpt><trkpt lat="45.05573421132834" lon="9.702768725680299"><ele>52.0</ele><time>2026-05-03T07:22:48.992Z</time></trkpt><trkpt lat="45.05558588751721" lon="9.70282839406008"><ele>52.0</ele><time>2026-05-03T07:22:49.992Z</time></trkpt><trkpt lat="45.05544125770789" lon="9.702891440313007"><ele>52.0</ele><time>2026-05-03T07:22:50.992Z</time></trkpt><trkpt lat="45.05531742336917" lon="9.702962481510276"><ele>52.0</ele><time>2026-05-03T07:22:51.992Z</time></trkpt><trkpt lat="45.05520022300144" lon="9.703032901075353"><ele>52.0</ele><time>2026-05-03T07:22:52.992Z</time></trkpt><trkpt lat="45.05507833766766" lon="9.703106185806226"><ele>52.0</ele><time>2026-05-03T07:22:53.992Z</time></trkpt><trkpt lat="45.05495406152123" lon="9.703191494973906"><ele>52.0</ele><time>2026-05-03T07:22:54.992Z</time></trkpt><trkpt lat="45.05484142703284" lon="9.703255526124536"><ele>52.0</ele><time>2026-05-03T07:22:55.992Z</time></trkpt><trkpt lat="45.054731929079225" lon="9.703299896675231"><ele>52.0</ele><time>2026-05-03T07:22:56.992Z</time></trkpt><trkpt lat="45.05462552643985" lon="9.70334461527411"><ele>52.0</ele><time>2026-05-03T07:22:57.992Z</time></trkpt><trkpt lat="45.05453230678665" lon="9.703390970742314"><ele>52.0</ele><time>2026-05-03T07:22:58.992Z</time></trkpt><trkpt lat="45.05444311742786" lon="9.703431831566151"><ele>51.99999999999999</ele><time>2026-05-03T07:22:59.992Z</time></trkpt><trkpt lat="45.05437261090608" lon="9.703512847561091"><ele>52.0</ele><time>2026-05-03T07:23:00.992Z</time></trkpt><trkpt lat="45.054304960595" lon="9.703535500119996"><ele>52.0</ele><time>2026-05-03T07:23:01.992Z</time></trkpt><trkpt lat="45.05422947439835" lon="9.703551329214692"><ele>52.0</ele><time>2026-05-03T07:23:02.992Z</time></trkpt><trkpt lat="45.05416647882114" lon="9.703612968954893"><ele>51.99999999999999</ele><time>2026-05-03T07:23:03.992Z</time></trkpt><trkpt lat="45.054083960864396" lon="9.703691616826456"><ele>52.0</ele><time>2026-05-03T07:23:04.992Z</time></trkpt><trkpt lat="45.053891651724705" lon="9.70379619918037"><ele>51.8</ele><time>2026-05-03T07:23:06.992Z</time></trkpt><trkpt lat="45.053794024394826" lon="9.703853789243693"><ele>51.6</ele><time>2026-05-03T07:23:07.992Z</time></trkpt><trkpt lat="45.0537079893478" lon="9.703909606957756"><ele>51.4</ele><time>2026-05-03T07:23:08.992Z</time></trkpt><trkpt lat="45.05362020543536" lon="9.703966786799509"><ele>51.199999999999996</ele><time>2026-05-03T07:23:09.992Z</time></trkpt><trkpt lat="45.05352231307326" lon="9.704028140404104"><ele>51.0</ele><time>2026-05-03T07:23:10.992Z</time></trkpt><trkpt lat="45.053426954007584" lon="9.704082611658157"><ele>51.0</ele><time>2026-05-03T07:23:11.992Z</time></trkpt><trkpt lat="45.053336146817664" lon="9.704136545981834"><ele>51.0</ele><time>2026-05-03T07:23:12.992Z</time></trkpt><trkpt lat="45.05324968633623" lon="9.70419346658558"><ele>51.0</ele><time>2026-05-03T07:23:13.992Z</time></trkpt><trkpt lat="45.05316619912358" lon="9.704237368029968"><ele>51.0</ele><time>2026-05-03T07:23:14.992Z</time></trkpt><trkpt lat="45.05307361529373" lon="9.704292430507289"><ele>51.0</ele><time>2026-05-03T07:23:15.992Z</time></trkpt><trkpt lat="45.0529906370439" lon="9.704338019735387"><ele>51.4</ele><time>2026-05-03T07:23:16.992Z</time></trkpt><trkpt lat="45.05289794305788" lon="9.704389273499029"><ele>51.8</ele><time>2026-05-03T07:23:17.992Z</time></trkpt><trkpt lat="45.05279186327594" lon="9.704453304911254"><ele>52.199999999999996</ele><time>2026-05-03T07:23:18.992Z</time></trkpt><trkpt lat="45.052696840165616" lon="9.704518401564421"><ele>52.599999999999994</ele><time>2026-05-03T07:23:19.992Z</time></trkpt><trkpt lat="45.05260808753941" lon="9.70456843407463"><ele>53.0</ele><time>2026-05-03T07:23:20.992Z</time></trkpt><trkpt lat="45.05251946229019" lon="9.704613454893778"><ele>52.833333333333336</ele><time>2026-05-03T07:23:21.992Z</time></trkpt><trkpt lat="45.0524442063748" lon="9.704661850039324"><ele>52.66666666666667</ele><time>2026-05-03T07:23:22.992Z</time></trkpt><trkpt lat="45.05236628020566" lon="9.704701637840913"><ele>52.5</ele><time>2026-05-03T07:23:23.992Z</time></trkpt><trkpt lat="45.052290117371136" lon="9.70473582100932"><ele>52.33333333333333</ele><time>2026-05-03T07:23:24.992Z</time></trkpt><trkpt lat="45.05222064569796" lon="9.704768446561136"><ele>52.166666666666664</ele><time>2026-05-03T07:23:25.992Z</time></trkpt><trkpt lat="45.052128497052884" lon="9.704788522631512"><ele>52.0</ele><time>2026-05-03T07:23:27.992Z</time></trkpt><trkpt lat="45.05203569999845" lon="9.704772368690548"><ele>51.99999999999999</ele><time>2026-05-03T07:23:31.992Z</time></trkpt><trkpt lat="45.051953108135365" lon="9.704775567942285"><ele>52.0</ele><time>2026-05-03T07:23:34.992Z</time></trkpt><trkpt lat="45.05188713458991" lon="9.704752523953784"><ele>52.0</ele><time>2026-05-03T07:23:38.992Z</time></trkpt><trkpt lat="45.05182281493112" lon="9.704780871906598"><ele>52.0</ele><time>2026-05-03T07:23:40.992Z</time></trkpt><trkpt lat="45.051721862730844" lon="9.704814580206667"><ele>51.99999999999999</ele><time>2026-05-03T07:23:43.992Z</time></trkpt><trkpt lat="45.05167633565444" lon="9.704907239955105"><ele>52.0</ele><time>2026-05-03T07:23:44.992Z</time></trkpt><trkpt lat="45.05165006384009" lon="9.705018588717937"><ele>52.8</ele><time>2026-05-03T07:23:45.992Z</time></trkpt><trkpt lat="45.05156643191254" lon="9.70508117030084"><ele>53.6</ele><time>2026-05-03T07:23:47.992Z</time></trkpt><trkpt lat="45.051500062815734" lon="9.70512882359236"><ele>54.39999999999999</ele><time>2026-05-03T07:23:49.992Z</time></trkpt><trkpt lat="45.05143729044062" lon="9.705162631713147"><ele>55.199999999999996</ele><time>2026-05-03T07:23:51.992Z</time></trkpt><trkpt lat="45.05135724450332" lon="9.705193118708282"><ele>56.0</ele><time>2026-05-03T07:23:53.992Z</time></trkpt><trkpt lat="45.05122730175281" lon="9.70517027228571"><ele>56.0</ele><time>2026-05-03T07:23:55.992Z</time></trkpt><trkpt lat="45.05115003683565" lon="9.705243238450734"><ele>56.0</ele><time>2026-05-03T07:23:56.992Z</time></trkpt><trkpt lat="45.05106753752337" lon="9.705350229117892"><ele>56.0</ele><time>2026-05-03T07:23:57.992Z</time></trkpt><trkpt lat="45.05096920022819" lon="9.70544881453931"><ele>56.0</ele><time>2026-05-03T07:23:58.992Z</time></trkpt><trkpt lat="45.05086079609099" lon="9.705537588695176"><ele>57.75</ele><time>2026-05-03T07:23:59.992Z</time></trkpt><trkpt lat="45.05074539840635" lon="9.705626944054329"><ele>59.5</ele><time>2026-05-03T07:24:00.992Z</time></trkpt><trkpt lat="45.05063414171858" lon="9.705699926729647"><ele>61.25</ele><time>2026-05-03T07:24:01.992Z</time></trkpt><trkpt lat="45.050530061334804" lon="9.705764971311325"><ele>63.0</ele><time>2026-05-03T07:24:02.992Z</time></trkpt><trkpt lat="45.05044303492908" lon="9.705833761767641"><ele>63.0</ele><time>2026-05-03T07:24:03.992Z</time></trkpt><trkpt lat="45.05036393362889" lon="9.705894869713937"><ele>63.0</ele><time>2026-05-03T07:24:04.992Z</time></trkpt><trkpt lat="45.05028648106159" lon="9.705943539237474"><ele>63.0</ele><time>2026-05-03T07:24:05.992Z</time></trkpt><trkpt lat="45.05021027399426" lon="9.7059923705678"><ele>63.0</ele><time>2026-05-03T07:24:06.992Z</time></trkpt><trkpt lat="45.050158938508986" lon="9.706045965957195"><ele>63.0</ele><time>2026-05-03T07:24:07.992Z</time></trkpt><trkpt lat="45.05006994179683" lon="9.70611432126739"><ele>63.0</ele><time>2026-05-03T07:24:09.992Z</time></trkpt><trkpt lat="45.04998887062521" lon="9.706116175128967"><ele>62.166666666666664</ele><time>2026-05-03T07:24:11.992Z</time></trkpt><trkpt lat="45.04993787739178" lon="9.706044284115569"><ele>61.33333333333333</ele><time>2026-05-03T07:24:12.991Z</time></trkpt><trkpt lat="45.04986306173681" lon="9.706035297234425"><ele>60.5</ele><time>2026-05-03T07:24:13.991Z</time></trkpt><trkpt lat="45.04980232070746" lon="9.70600834522069"><ele>59.666666666666664</ele><time>2026-05-03T07:24:14.991Z</time></trkpt><trkpt lat="45.04972606376563" lon="9.706038567589502"><ele>58.83333333333333</ele><time>2026-05-03T07:24:15.991Z</time></trkpt><trkpt lat="45.049652686361995" lon="9.70608375036971"><ele>58.0</ele><time>2026-05-03T07:24:16.991Z</time></trkpt><trkpt lat="45.04957320801155" lon="9.70613411923318"><ele>57.8</ele><time>2026-05-03T07:24:17.991Z</time></trkpt><trkpt lat="45.04946970377896" lon="9.706187070570316"><ele>57.599999999999994</ele><time>2026-05-03T07:24:18.991Z</time></trkpt><trkpt lat="45.0493739429148" lon="9.706233509039302"><ele>57.400000000000006</ele><time>2026-05-03T07:24:19.991Z</time></trkpt><trkpt lat="45.0492755378483" lon="9.706282087743107"><ele>57.2</ele><time>2026-05-03T07:24:20.991Z</time></trkpt><trkpt lat="45.04917413413995" lon="9.706359926245868"><ele>57.0</ele><time>2026-05-03T07:24:21.991Z</time></trkpt><trkpt lat="45.049067272632406" lon="9.706457416367243"><ele>56.8</ele><time>2026-05-03T07:24:22.991Z</time></trkpt><trkpt lat="45.04895644931306" lon="9.70653220054513"><ele>56.6</ele><time>2026-05-03T07:24:23.991Z</time></trkpt><trkpt lat="45.048850838138236" lon="9.706598265733794"><ele>56.39999999999999</ele><time>2026-05-03T07:24:24.991Z</time></trkpt><trkpt lat="45.04876058296827" lon="9.706659416564266"><ele>56.199999999999996</ele><time>2026-05-03T07:24:25.991Z</time></trkpt><trkpt lat="45.04867810711407" lon="9.706700699119622"><ele>56.0</ele><time>2026-05-03T07:24:26.991Z</time></trkpt><trkpt lat="45.048592574461395" lon="9.706701232611946"><ele>56.0</ele><time>2026-05-03T07:24:27.991Z</time></trkpt><trkpt lat="45.048521814509705" lon="9.706646881622552"><ele>55.99999999999999</ele><time>2026-05-03T07:24:28.991Z</time></trkpt><trkpt lat="45.04843905161384" lon="9.706605323861856"><ele>55.99999999999999</ele><time>2026-05-03T07:24:29.991Z</time></trkpt><trkpt lat="45.0483554881182" lon="9.706566016183498"><ele>56.0</ele><time>2026-05-03T07:24:30.991Z</time></trkpt><trkpt lat="45.04826175498997" lon="9.706462996368701"><ele>56.0</ele><time>2026-05-03T07:24:31.991Z</time></trkpt><trkpt lat="45.048161518644996" lon="9.706341554810678"><ele>55.75</ele><time>2026-05-03T07:24:32.991Z</time></trkpt><trkpt lat="45.048053390030354" lon="9.706209682946577"><ele>55.5</ele><time>2026-05-03T07:24:33.991Z</time></trkpt><trkpt lat="45.04793737218296" lon="9.706090424287797"><ele>55.25</ele><time>2026-05-03T07:24:34.991Z</time></trkpt><trkpt lat="45.04784792955663" lon="9.705981382712148"><ele>55.0</ele><time>2026-05-03T07:24:35.991Z</time></trkpt><trkpt lat="45.047773223932424" lon="9.705897812242942"><ele>55.42857142857142</ele><time>2026-05-03T07:24:36.991Z</time></trkpt><trkpt lat="45.04772117842562" lon="9.705807847089348"><ele>55.85714285714286</ele><time>2026-05-03T07:24:37.991Z</time></trkpt><trkpt lat="45.0476781364338" lon="9.70573751266093"><ele>56.28571428571429</ele><time>2026-05-03T07:24:38.991Z</time></trkpt><trkpt lat="45.047651693162415" lon="9.705647843079332"><ele>56.714285714285715</ele><time>2026-05-03T07:24:39.991Z</time></trkpt><trkpt lat="45.047639515270525" lon="9.705556771805806"><ele>57.142857142857146</ele><time>2026-05-03T07:24:40.991Z</time></trkpt><trkpt lat="45.04762325249618" lon="9.705465007953073"><ele>57.57142857142858</ele><time>2026-05-03T07:24:41.991Z</time></trkpt><trkpt lat="45.04754723260919" lon="9.705372972116578"><ele>58.00000000000001</ele><time>2026-05-03T07:24:43.991Z</time></trkpt><trkpt lat="45.047419070039005" lon="9.70536462165613"><ele>58.0</ele><time>2026-05-03T07:24:45.991Z</time></trkpt><trkpt lat="45.04732483302125" lon="9.705469249932088"><ele>58.0</ele><time>2026-05-03T07:24:47.991Z</time></trkpt><trkpt lat="45.04728957669887" lon="9.705549376597805"><ele>58.0</ele><time>2026-05-03T07:24:48.991Z</time></trkpt><trkpt lat="45.0472067762592" lon="9.705687671659499"><ele>58.0</ele><time>2026-05-03T07:24:50.991Z</time></trkpt><trkpt lat="45.047153223370714" lon="9.705743839678783"><ele>58.0</ele><time>2026-05-03T07:24:51.991Z</time></trkpt><trkpt lat="45.047048689629165" lon="9.705795249160754"><ele>58.0</ele><time>2026-05-03T07:24:53.991Z</time></trkpt><trkpt lat="45.04693453289309" lon="9.705751716966091"><ele>58.0</ele><time>2026-05-03T07:24:55.991Z</time></trkpt><trkpt lat="45.046840414162915" lon="9.705641469175447"><ele>58.0</ele><time>2026-05-03T07:24:57.991Z</time></trkpt><trkpt lat="45.046800595712476" lon="9.705567625756325"><ele>58.0</ele><time>2026-05-03T07:24:58.991Z</time></trkpt><trkpt lat="45.046733113694565" lon="9.705532784123756"><ele>58.0</ele><time>2026-05-03T07:24:59.991Z</time></trkpt><trkpt lat="45.046671321682666" lon="9.705454820496254"><ele>57.75</ele><time>2026-05-03T07:25:00.991Z</time></trkpt><trkpt lat="45.04660467884553" lon="9.705366673198645"><ele>57.5</ele><time>2026-05-03T07:25:01.991Z</time></trkpt><trkpt lat="45.04651835773111" lon="9.705261970396545"><ele>57.25</ele><time>2026-05-03T07:25:02.991Z</time></trkpt><trkpt lat="45.0464330483282" lon="9.705134038973942"><ele>57.0</ele><time>2026-05-03T07:25:03.991Z</time></trkpt><trkpt lat="45.0463516894694" lon="9.70500272613614"><ele>57.0</ele><time>2026-05-03T07:25:04.991Z</time></trkpt><trkpt lat="45.0462413344018" lon="9.704891077826279"><ele>57.0</ele><time>2026-05-03T07:25:05.991Z</time></trkpt><trkpt lat="45.04615163071361" lon="9.704755942057437"><ele>57.0</ele><time>2026-05-03T07:25:06.991Z</time></trkpt><trkpt lat="45.04607946149246" lon="9.704630643500726"><ele>57.0</ele><time>2026-05-03T07:25:07.991Z</time></trkpt><trkpt lat="45.04601378624579" lon="9.70452104709589"><ele>57.0</ele><time>2026-05-03T07:25:08.991Z</time></trkpt><trkpt lat="45.04592374681327" lon="9.704469248164596"><ele>57.0</ele><time>2026-05-03T07:25:09.991Z</time></trkpt><trkpt lat="45.04586262028894" lon="9.704389128423937"><ele>57.0</ele><time>2026-05-03T07:25:10.991Z</time></trkpt><trkpt lat="45.04580313942565" lon="9.704303679696476"><ele>57.0</ele><time>2026-05-03T07:25:11.991Z</time></trkpt><trkpt lat="45.04573992851905" lon="9.70416152167111"><ele>57.0</ele><time>2026-05-03T07:25:13.991Z</time></trkpt><trkpt lat="45.045704678377234" lon="9.704056540288697"><ele>57.0</ele><time>2026-05-03T07:25:14.991Z</time></trkpt><trkpt lat="45.04566651471572" lon="9.703949471160223"><ele>57.0</ele><time>2026-05-03T07:25:15.991Z</time></trkpt><trkpt lat="45.045563234926284" lon="9.703918813065723"><ele>57.0</ele><time>2026-05-03T07:25:16.991Z</time></trkpt><trkpt lat="45.04537367804403" lon="9.703737505354605"><ele>57.0</ele><time>2026-05-03T07:25:18.991Z</time></trkpt><trkpt lat="45.04528902479227" lon="9.703641322075732"><ele>57.0</ele><time>2026-05-03T07:25:19.991Z</time></trkpt><trkpt lat="45.04521427567852" lon="9.703546136479416"><ele>57.0</ele><time>2026-05-03T07:25:20.991Z</time></trkpt><trkpt lat="45.04513684318979" lon="9.703457578140297"><ele>57.0</ele><time>2026-05-03T07:25:21.991Z</time></trkpt><trkpt lat="45.04506107164527" lon="9.703371824341378"><ele>57.0</ele><time>2026-05-03T07:25:22.991Z</time></trkpt><trkpt lat="45.044996900312256" lon="9.703263638756397"><ele>57.0</ele><time>2026-05-03T07:25:23.991Z</time></trkpt><trkpt lat="45.0449175852856" lon="9.70315743838181"><ele>56.8</ele><time>2026-05-03T07:25:24.991Z</time></trkpt><trkpt lat="45.04483215689248" lon="9.703060612051885"><ele>56.6</ele><time>2026-05-03T07:25:25.991Z</time></trkpt><trkpt lat="45.044763642124494" lon="9.702952420157875"><ele>56.39999999999999</ele><time>2026-05-03T07:25:26.991Z</time></trkpt><trkpt lat="45.04469015602024" lon="9.702873975307757"><ele>56.199999999999996</ele><time>2026-05-03T07:25:27.991Z</time></trkpt><trkpt lat="45.04462256335217" lon="9.702795544163873"><ele>56.0</ele><time>2026-05-03T07:25:28.991Z</time></trkpt><trkpt lat="45.044565198413316" lon="9.70268899360824"><ele>56.4</ele><time>2026-05-03T07:25:29.991Z</time></trkpt><trkpt lat="45.044494655065535" lon="9.702592823144592"><ele>56.8</ele><time>2026-05-03T07:25:30.991Z</time></trkpt><trkpt lat="45.04442350772311" lon="9.702490746452419"><ele>57.199999999999996</ele><time>2026-05-03T07:25:31.991Z</time></trkpt><trkpt lat="45.04434739904198" lon="9.702386421594081"><ele>57.599999999999994</ele><time>2026-05-03T07:25:32.991Z</time></trkpt><trkpt lat="45.04426989568651" lon="9.702276952059451"><ele>58.0</ele><time>2026-05-03T07:25:33.991Z</time></trkpt><trkpt lat="45.04418925745162" lon="9.70216162510908"><ele>58.0</ele><time>2026-05-03T07:25:34.991Z</time></trkpt><trkpt lat="45.044106673124496" lon="9.702042531391104"><ele>58.0</ele><time>2026-05-03T07:25:35.991Z</time></trkpt><trkpt lat="45.044026404102084" lon="9.701936228933116"><ele>58.0</ele><time>2026-05-03T07:25:36.991Z</time></trkpt><trkpt lat="45.04395521182019" lon="9.701832528004196"><ele>58.0</ele><time>2026-05-03T07:25:37.991Z</time></trkpt><trkpt lat="45.04388039034063" lon="9.701730138274995"><ele>58.0</ele><time>2026-05-03T07:25:38.991Z</time></trkpt><trkpt lat="45.043811605238915" lon="9.701632340879913"><ele>57.99999999999999</ele><time>2026-05-03T07:25:39.991Z</time></trkpt><trkpt lat="45.043738238473985" lon="9.701548300749582"><ele>58.0</ele><time>2026-05-03T07:25:40.991Z</time></trkpt><trkpt lat="45.04367840855085" lon="9.70145011554626"><ele>58.0</ele><time>2026-05-03T07:25:41.991Z</time></trkpt><trkpt lat="45.04364437850337" lon="9.701345606227457"><ele>58.0</ele><time>2026-05-03T07:25:42.991Z</time></trkpt><trkpt lat="45.04360763918951" lon="9.701246826979256"><ele>57.99999999999999</ele><time>2026-05-03T07:25:43.991Z</time></trkpt><trkpt lat="45.04359986426402" lon="9.701134022006018"><ele>58.0</ele><time>2026-05-03T07:25:44.991Z</time></trkpt><trkpt lat="45.04354945661672" lon="9.7010583335609"><ele>57.666666666666664</ele><time>2026-05-03T07:25:45.991Z</time></trkpt><trkpt lat="45.04346509949655" lon="9.701029164582371"><ele>57.33333333333333</ele><time>2026-05-03T07:25:46.991Z</time></trkpt><trkpt lat="45.043368297447195" lon="9.70102391285627"><ele>57.0</ele><time>2026-05-03T07:25:47.991Z</time></trkpt><trkpt lat="45.04328717680468" lon="9.700972440482989"><ele>56.66666666666667</ele><time>2026-05-03T07:25:48.991Z</time></trkpt><trkpt lat="45.043223623848284" lon="9.700886349573079"><ele>56.333333333333336</ele><time>2026-05-03T07:25:49.991Z</time></trkpt><trkpt lat="45.04316300474386" lon="9.700808309612016"><ele>56.0</ele><time>2026-05-03T07:25:50.991Z</time></trkpt><trkpt lat="45.04310297975225" lon="9.700732010866062"><ele>56.00000000000001</ele><time>2026-05-03T07:25:51.991Z</time></trkpt><trkpt lat="45.04304428675717" lon="9.700654519110147"><ele>56.0</ele><time>2026-05-03T07:25:52.991Z</time></trkpt><trkpt lat="45.04297966734803" lon="9.700569202295364"><ele>56.0</ele><time>2026-05-03T07:25:53.991Z</time></trkpt><trkpt lat="45.04291440148325" lon="9.700478516717364"><ele>56.0</ele><time>2026-05-03T07:25:54.991Z</time></trkpt><trkpt lat="45.04285636950497" lon="9.700399459597406"><ele>56.00000000000001</ele><time>2026-05-03T07:25:55.991Z</time></trkpt><trkpt lat="45.04281429330844" lon="9.700317206173366"><ele>56.0</ele><time>2026-05-03T07:25:56.991Z</time></trkpt><trkpt lat="45.042769787680285" lon="9.700252252820345"><ele>56.00000000000001</ele><time>2026-05-03T07:25:57.991Z</time></trkpt><trkpt lat="45.04268026581514" lon="9.70016476728084"><ele>56.0</ele><time>2026-05-03T07:26:00.991Z</time></trkpt><trkpt lat="45.04261670937125" lon="9.700079313516826"><ele>56.0</ele><time>2026-05-03T07:26:03.991Z</time></trkpt><trkpt lat="45.04257295013298" lon="9.700014096395698"><ele>56.0</ele><time>2026-05-03T07:26:04.991Z</time></trkpt><trkpt lat="45.0425231058696" lon="9.69994836764042"><ele>56.00000000000001</ele><time>2026-05-03T07:26:05.991Z</time></trkpt><trkpt lat="45.04243223530257" lon="9.699836089454841"><ele>56.0</ele><time>2026-05-03T07:26:07.991Z</time></trkpt><trkpt lat="45.04240691995295" lon="9.699652981773"><ele>56.16666666666667</ele><time>2026-05-03T07:26:09.99Z</time></trkpt><trkpt lat="45.0424017246537" lon="9.699548415839638"><ele>56.333333333333336</ele><time>2026-05-03T07:26:10.99Z</time></trkpt><trkpt lat="45.0424072022281" lon="9.699429258976688"><ele>56.5</ele><time>2026-05-03T07:26:11.99Z</time></trkpt><trkpt lat="45.042403122942694" lon="9.699310197058496"><ele>56.66666666666667</ele><time>2026-05-03T07:26:12.99Z</time></trkpt><trkpt lat="45.04240314497582" lon="9.699201340245374"><ele>56.833333333333336</ele><time>2026-05-03T07:26:13.99Z</time></trkpt><trkpt lat="45.042403590631906" lon="9.699079626867224"><ele>57.0</ele><time>2026-05-03T07:26:14.99Z</time></trkpt><trkpt lat="45.04240303032475" lon="9.698956953039126"><ele>57.0</ele><time>2026-05-03T07:26:15.99Z</time></trkpt><trkpt lat="45.04240298581838" lon="9.69883498921873"><ele>57.0</ele><time>2026-05-03T07:26:16.99Z</time></trkpt><trkpt lat="45.04240005726732" lon="9.698710015649517"><ele>57.0</ele><time>2026-05-03T07:26:17.99Z</time></trkpt><trkpt lat="45.04240357999116" lon="9.698539620182418"><ele>57.0</ele><time>2026-05-03T07:26:19.99Z</time></trkpt><trkpt lat="45.0423956932575" lon="9.698400080472181"><ele>57.0</ele><time>2026-05-03T07:26:21.99Z</time></trkpt><trkpt lat="45.04239569325916" lon="9.698255051924727"><ele>57.2</ele><time>2026-05-03T07:26:23.99Z</time></trkpt><trkpt lat="45.04239569325766" lon="9.698066930779001"><ele>57.400000000000006</ele><time>2026-05-03T07:26:25.99Z</time></trkpt><trkpt lat="45.04239569325699" lon="9.697954701649195"><ele>57.599999999999994</ele><time>2026-05-03T07:26:26.99Z</time></trkpt><trkpt lat="45.04239569325484" lon="9.697844710385823"><ele>57.8</ele><time>2026-05-03T07:26:27.99Z</time></trkpt><trkpt lat="45.0423956932541" lon="9.697730487998337"><ele>58.0</ele><time>2026-05-03T07:26:28.99Z</time></trkpt><trkpt lat="45.0423956932521" lon="9.697613414226257"><ele>58.166666666666664</ele><time>2026-05-03T07:26:29.99Z</time></trkpt><trkpt lat="45.04239569325254" lon="9.697503416145667"><ele>58.33333333333333</ele><time>2026-05-03T07:26:30.99Z</time></trkpt><trkpt lat="45.04239520391043" lon="9.697390154364413"><ele>58.5</ele><time>2026-05-03T07:26:31.99Z</time></trkpt><trkpt lat="45.04239492418457" lon="9.697280937400778"><ele>58.66666666666667</ele><time>2026-05-03T07:26:32.99Z</time></trkpt><trkpt lat="45.0423946622576" lon="9.69717517047898"><ele>58.833333333333336</ele><time>2026-05-03T07:26:33.99Z</time></trkpt><trkpt lat="45.04239440405393" lon="9.697067447910044"><ele>59.0</ele><time>2026-05-03T07:26:34.99Z</time></trkpt><trkpt lat="45.042394140778015" lon="9.696957609506097"><ele>59.333333333333336</ele><time>2026-05-03T07:26:35.99Z</time></trkpt><trkpt lat="45.04239390630886" lon="9.696859789267394"><ele>59.66666666666667</ele><time>2026-05-03T07:26:36.99Z</time></trkpt><trkpt lat="45.04239361495423" lon="9.696738239764128"><ele>60.0</ele><time>2026-05-03T07:26:37.99Z</time></trkpt><trkpt lat="45.042394026972666" lon="9.696612108163677"><ele>60.33333333333333</ele><time>2026-05-03T07:26:38.99Z</time></trkpt><trkpt lat="45.042394182607225" lon="9.696478511368912"><ele>60.666666666666664</ele><time>2026-05-03T07:26:39.99Z</time></trkpt><trkpt lat="45.04239435834334" lon="9.696327661234072"><ele>61.0</ele><time>2026-05-03T07:26:40.99Z</time></trkpt><trkpt lat="45.04238435606053" lon="9.696175091699605"><ele>61.0</ele><time>2026-05-03T07:26:41.99Z</time></trkpt><trkpt lat="45.042384846795905" lon="9.6960059385001"><ele>61.0</ele><time>2026-05-03T07:26:42.99Z</time></trkpt><trkpt lat="45.042381233701185" lon="9.695824572907272"><ele>61.0</ele><time>2026-05-03T07:26:43.99Z</time></trkpt><trkpt lat="45.04237275450243" lon="9.695658850395391"><ele>61.0</ele><time>2026-05-03T07:26:44.99Z</time></trkpt><trkpt lat="45.042371342737326" lon="9.69549784755722"><ele>61.0</ele><time>2026-05-03T07:26:45.99Z</time></trkpt><trkpt lat="45.04236860100303" lon="9.695345312872693"><ele>60.99999999999999</ele><time>2026-05-03T07:26:46.99Z</time></trkpt><trkpt lat="45.04237228346325" lon="9.695200988148816"><ele>60.99999999999999</ele><time>2026-05-03T07:26:47.99Z</time></trkpt><trkpt lat="45.042375844033735" lon="9.695060566191287"><ele>61.0</ele><time>2026-05-03T07:26:48.99Z</time></trkpt><trkpt lat="45.04237996287638" lon="9.694914843435694"><ele>61.0</ele><time>2026-05-03T07:26:49.99Z</time></trkpt><trkpt lat="45.04238072476424" lon="9.69476643427017"><ele>61.0</ele><time>2026-05-03T07:26:50.99Z</time></trkpt><trkpt lat="45.04237217679503" lon="9.69461927593432"><ele>60.99999999999999</ele><time>2026-05-03T07:26:51.99Z</time></trkpt><trkpt lat="45.04237423017307" lon="9.694479394953976"><ele>60.99999999999999</ele><time>2026-05-03T07:26:52.99Z</time></trkpt><trkpt lat="45.04238034003747" lon="9.694335547790228"><ele>61.0</ele><time>2026-05-03T07:26:53.99Z</time></trkpt><trkpt lat="45.04238564737269" lon="9.694199936073408"><ele>61.0</ele><time>2026-05-03T07:26:54.99Z</time></trkpt><trkpt lat="45.042390176759696" lon="9.694064018013377"><ele>61.0</ele><time>2026-05-03T07:26:55.99Z</time></trkpt><trkpt lat="45.042394018151576" lon="9.693938016199896"><ele>60.99999999999999</ele><time>2026-05-03T07:26:56.99Z</time></trkpt><trkpt lat="45.04238798237299" lon="9.69381577226739"><ele>60.99999999999999</ele><time>2026-05-03T07:26:57.99Z</time></trkpt><trkpt lat="45.04238432785118" lon="9.693670462031957"><ele>61.0</ele><time>2026-05-03T07:26:58.99Z</time></trkpt><trkpt lat="45.04239580024418" lon="9.693509143792395"><ele>61.0</ele><time>2026-05-03T07:26:59.997Z</time></trkpt><trkpt lat="45.04239669841182" lon="9.693330128601538"><ele>61.5</ele><time>2026-05-03T07:27:00.997Z</time></trkpt><trkpt lat="45.04239770319408" lon="9.693157714165132"><ele>62.0</ele><time>2026-05-03T07:27:01.997Z</time></trkpt><trkpt lat="45.04239536093607" lon="9.692979509858667"><ele>62.5</ele><time>2026-05-03T07:27:02.997Z</time></trkpt><trkpt lat="45.042397815536994" lon="9.692786713849474"><ele>63.0</ele><time>2026-05-03T07:27:03.997Z</time></trkpt><trkpt lat="45.042399424343486" lon="9.692601624762679"><ele>63.2</ele><time>2026-05-03T07:27:04.997Z</time></trkpt><trkpt lat="45.042397058708076" lon="9.692430232542677"><ele>63.4</ele><time>2026-05-03T07:27:05.997Z</time></trkpt><trkpt lat="45.04239427245818" lon="9.692270942439086"><ele>63.60000000000001</ele><time>2026-05-03T07:27:06.997Z</time></trkpt><trkpt lat="45.04239469794254" lon="9.692129271203887"><ele>63.800000000000004</ele><time>2026-05-03T07:27:07.997Z</time></trkpt><trkpt lat="45.0423907362378" lon="9.692004920139825"><ele>64.0</ele><time>2026-05-03T07:27:08.997Z</time></trkpt><trkpt lat="45.04239872982106" lon="9.691890098161203"><ele>64.16666666666666</ele><time>2026-05-03T07:27:09.997Z</time></trkpt><trkpt lat="45.04239007105919" lon="9.691733861675694"><ele>64.33333333333333</ele><time>2026-05-03T07:27:12.997Z</time></trkpt><trkpt lat="45.0423836154617" lon="9.691616583781041"><ele>64.5</ele><time>2026-05-03T07:27:38.997Z</time></trkpt><trkpt lat="45.042392537876964" lon="9.691511882670454"><ele>64.66666666666667</ele><time>2026-05-03T07:27:39.997Z</time></trkpt><trkpt lat="45.042401031414876" lon="9.6913994714176"><ele>64.83333333333334</ele><time>2026-05-03T07:27:40.997Z</time></trkpt><trkpt lat="45.042409638941315" lon="9.691269767591038"><ele>65.0</ele><time>2026-05-03T07:27:41.997Z</time></trkpt><trkpt lat="45.04240006852563" lon="9.69111595917693"><ele>64.75</ele><time>2026-05-03T07:27:42.997Z</time></trkpt><trkpt lat="45.04239731959651" lon="9.690955624971615"><ele>64.5</ele><time>2026-05-03T07:27:43.997Z</time></trkpt><trkpt lat="45.042396719452285" lon="9.690777956383835"><ele>64.25</ele><time>2026-05-03T07:27:44.997Z</time></trkpt><trkpt lat="45.04238249264145" lon="9.690580957025688"><ele>64.0</ele><time>2026-05-03T07:27:45.997Z</time></trkpt><trkpt lat="45.04236827303719" lon="9.690364272491987"><ele>63.33333333333333</ele><time>2026-05-03T07:27:46.997Z</time></trkpt><trkpt lat="45.042365321966805" lon="9.690143636195119"><ele>62.66666666666667</ele><time>2026-05-03T07:27:47.997Z</time></trkpt><trkpt lat="45.04238671916384" lon="9.689904375428291"><ele>62.0</ele><time>2026-05-03T07:27:48.997Z</time></trkpt><trkpt lat="45.0423849380219" lon="9.689675716097721"><ele>62.0</ele><time>2026-05-03T07:27:49.997Z</time></trkpt><trkpt lat="45.04237994086958" lon="9.689458740964067"><ele>62.0</ele><time>2026-05-03T07:27:50.997Z</time></trkpt><trkpt lat="45.04237815387866" lon="9.689250924104737"><ele>62.0</ele><time>2026-05-03T07:27:51.997Z</time></trkpt><trkpt lat="45.04238422372093" lon="9.68903454389495"><ele>61.66666666666667</ele><time>2026-05-03T07:27:52.997Z</time></trkpt><trkpt lat="45.042386642316984" lon="9.688817932030487"><ele>61.33333333333333</ele><time>2026-05-03T07:27:53.996Z</time></trkpt><trkpt lat="45.042384242105065" lon="9.688598358343913"><ele>61.0</ele><time>2026-05-03T07:27:54.997Z</time></trkpt><trkpt lat="45.042375590758894" lon="9.68837899789231"><ele>61.5</ele><time>2026-05-03T07:27:55.997Z</time></trkpt><trkpt lat="45.04237771190285" lon="9.688181998651219"><ele>62.0</ele><time>2026-05-03T07:27:56.997Z</time></trkpt><trkpt lat="45.04237746324812" lon="9.687996973432321"><ele>62.5</ele><time>2026-05-03T07:27:57.997Z</time></trkpt><trkpt lat="45.042384770899055" lon="9.687835263378012"><ele>63.0</ele><time>2026-05-03T07:27:58.997Z</time></trkpt><trkpt lat="45.04239308478189" lon="9.687689944124484"><ele>63.0</ele><time>2026-05-03T07:27:59.997Z</time></trkpt><trkpt lat="45.04240677555647" lon="9.687560540459184"><ele>63.0</ele><time>2026-05-03T07:28:00.997Z</time></trkpt><trkpt lat="45.042428851105576" lon="9.687426417071972"><ele>63.0</ele><time>2026-05-03T07:28:01.997Z</time></trkpt><trkpt lat="45.0424592151447" lon="9.687294292457898"><ele>63.0</ele><time>2026-05-03T07:28:02.997Z</time></trkpt><trkpt lat="45.04247094673247" lon="9.687176162038437"><ele>63.0</ele><time>2026-05-03T07:28:03.997Z</time></trkpt><trkpt lat="45.04241716496844" lon="9.687048223357516"><ele>63.0</ele><time>2026-05-03T07:28:04.997Z</time></trkpt><trkpt lat="45.042412969134865" lon="9.686949932767911"><ele>63.0</ele><time>2026-05-03T07:28:05.997Z</time></trkpt><trkpt lat="45.04239917926692" lon="9.686861664693387"><ele>63.0</ele><time>2026-05-03T07:28:06.997Z</time></trkpt><trkpt lat="45.042397470774524" lon="9.686650473447454"><ele>63.0</ele><time>2026-05-03T07:28:08.997Z</time></trkpt><trkpt lat="45.04239734552903" lon="9.686530317229469"><ele>63.0</ele><time>2026-05-03T07:28:09.997Z</time></trkpt><trkpt lat="45.04239720794849" lon="9.686398327849808"><ele>63.0</ele><time>2026-05-03T07:28:10.996Z</time></trkpt><trkpt lat="45.04239706152399" lon="9.686257854088128"><ele>63.0</ele><time>2026-05-03T07:28:11.996Z</time></trkpt><trkpt lat="45.04239693473262" lon="9.686136213828798"><ele>63.0</ele><time>2026-05-03T07:28:12.996Z</time></trkpt><trkpt lat="45.042396825177114" lon="9.686031109017552"><ele>63.0</ele><time>2026-05-03T07:28:13.996Z</time></trkpt><trkpt lat="45.04239671741419" lon="9.685927724319265"><ele>63.0</ele><time>2026-05-03T07:28:14.996Z</time></trkpt><trkpt lat="45.04239658820115" lon="9.685803760731718"><ele>63.0</ele><time>2026-05-03T07:28:15.996Z</time></trkpt><trkpt lat="45.042396443194285" lon="9.685664644851531"><ele>63.0</ele><time>2026-05-03T07:28:16.996Z</time></trkpt><trkpt lat="45.04239629578301" lon="9.685523221777311"><ele>63.0</ele><time>2026-05-03T07:28:17.996Z</time></trkpt><trkpt lat="45.0423961507455" lon="9.68538407636992"><ele>63.0</ele><time>2026-05-03T07:28:18.996Z</time></trkpt><trkpt lat="45.04238056536362" lon="9.685216272704299"><ele>63.0</ele><time>2026-05-03T07:28:19.996Z</time></trkpt><trkpt lat="45.042370072480566" lon="9.685057335459032"><ele>63.0</ele><time>2026-05-03T07:28:20.996Z</time></trkpt><trkpt lat="45.04236360632497" lon="9.684902418357423"><ele>63.2</ele><time>2026-05-03T07:28:21.996Z</time></trkpt><trkpt lat="45.042379046623196" lon="9.684741638180586"><ele>63.4</ele><time>2026-05-03T07:28:22.996Z</time></trkpt><trkpt lat="45.042377518940874" lon="9.684582198201172"><ele>63.60000000000001</ele><time>2026-05-03T07:28:23.996Z</time></trkpt><trkpt lat="45.0423792911212" lon="9.684427700329168"><ele>63.800000000000004</ele><time>2026-05-03T07:28:24.996Z</time></trkpt><trkpt lat="45.042382026325015" lon="9.684300402411607"><ele>64.0</ele><time>2026-05-03T07:28:25.996Z</time></trkpt><trkpt lat="45.04238392873348" lon="9.684181865747735"><ele>64.0</ele><time>2026-05-03T07:28:26.996Z</time></trkpt><trkpt lat="45.04238556883126" lon="9.684079120500401"><ele>64.0</ele><time>2026-05-03T07:28:27.996Z</time></trkpt><trkpt lat="45.042383909008045" lon="9.683948607272024"><ele>64.0</ele><time>2026-05-03T07:28:29.996Z</time></trkpt><trkpt lat="45.04238077741662" lon="9.68382858431778"><ele>64.0</ele><time>2026-05-03T07:29:02.996Z</time></trkpt><trkpt lat="45.04223582260409" lon="9.683691888771174"><ele>64.0</ele><time>2026-05-03T07:29:05.996Z</time></trkpt><trkpt lat="45.04210143038244" lon="9.683708117818448"><ele>64.0</ele><time>2026-05-03T07:29:07.996Z</time></trkpt><trkpt lat="45.04201230094173" lon="9.683718282400964"><ele>64.0</ele><time>2026-05-03T07:29:08.996Z</time></trkpt><trkpt lat="45.04192673173107" lon="9.683748313189708"><ele>64.0</ele><time>2026-05-03T07:29:09.996Z</time></trkpt><trkpt lat="45.04183751604124" lon="9.683742593693125"><ele>64.0</ele><time>2026-05-03T07:29:10.996Z</time></trkpt><trkpt lat="45.04173895105933" lon="9.683740066192282"><ele>64.0</ele><time>2026-05-03T07:29:11.996Z</time></trkpt><trkpt lat="45.04163779061445" lon="9.683734129415061"><ele>64.2</ele><time>2026-05-03T07:29:12.996Z</time></trkpt><trkpt lat="45.04154311110442" lon="9.683734867039272"><ele>64.4</ele><time>2026-05-03T07:29:13.996Z</time></trkpt><trkpt lat="45.04146049423973" lon="9.683739688674484"><ele>64.6</ele><time>2026-05-03T07:29:14.996Z</time></trkpt><trkpt lat="45.04136675817126" lon="9.683741069586832"><ele>64.8</ele><time>2026-05-03T07:29:15.996Z</time></trkpt><trkpt lat="45.0412686077973" lon="9.68373911788144"><ele>65.0</ele><time>2026-05-03T07:29:16.996Z</time></trkpt><trkpt lat="45.041186501242386" lon="9.683749971813858"><ele>65.0</ele><time>2026-05-03T07:29:17.996Z</time></trkpt><trkpt lat="45.04110747897549" lon="9.68375952181354"><ele>65.0</ele><time>2026-05-03T07:29:18.996Z</time></trkpt><trkpt lat="45.041027887728085" lon="9.683764020132818"><ele>65.0</ele><time>2026-05-03T07:29:19.996Z</time></trkpt><trkpt lat="45.04094631981095" lon="9.683773705537234"><ele>65.0</ele><time>2026-05-03T07:29:20.996Z</time></trkpt><trkpt lat="45.04084352391975" lon="9.683791586614946"><ele>65.0</ele><time>2026-05-03T07:29:21.996Z</time></trkpt><trkpt lat="45.04073671183618" lon="9.683808844568343"><ele>64.75</ele><time>2026-05-03T07:29:22.996Z</time></trkpt><trkpt lat="45.04061873098563" lon="9.683818508446238"><ele>64.5</ele><time>2026-05-03T07:29:23.996Z</time></trkpt><trkpt lat="45.04049128291233" lon="9.683808679666202"><ele>64.25</ele><time>2026-05-03T07:29:24.996Z</time></trkpt><trkpt lat="45.040357560239826" lon="9.683802716170705"><ele>64.0</ele><time>2026-05-03T07:29:25.996Z</time></trkpt><trkpt lat="45.04022237404704" lon="9.683797229095783"><ele>64.0</ele><time>2026-05-03T07:29:26.996Z</time></trkpt><trkpt lat="45.04010363594831" lon="9.68380365619773"><ele>64.0</ele><time>2026-05-03T07:29:27.996Z</time></trkpt><trkpt lat="45.0399980016642" lon="9.68381864323808"><ele>64.0</ele><time>2026-05-03T07:29:28.996Z</time></trkpt><trkpt lat="45.03989882172255" lon="9.683831825869001"><ele>64.0</ele><time>2026-05-03T07:29:29.996Z</time></trkpt><trkpt lat="45.039805250119954" lon="9.683862612013668"><ele>64.0</ele><time>2026-05-03T07:29:30.996Z</time></trkpt><trkpt lat="45.03970458604505" lon="9.683874569380965"><ele>63.5</ele><time>2026-05-03T07:29:31.996Z</time></trkpt><trkpt lat="45.039594346445185" lon="9.683820640616263"><ele>63.0</ele><time>2026-05-03T07:29:32.996Z</time></trkpt><trkpt lat="45.039482203270666" lon="9.683818206991473"><ele>62.5</ele><time>2026-05-03T07:29:33.996Z</time></trkpt><trkpt lat="45.039371685207236" lon="9.683907041577417"><ele>62.0</ele><time>2026-05-03T07:29:34.996Z</time></trkpt><trkpt lat="45.03924602694133" lon="9.683913994875137"><ele>62.5</ele><time>2026-05-03T07:29:35.996Z</time></trkpt><trkpt lat="45.03912965430696" lon="9.68395214089377"><ele>63.0</ele><time>2026-05-03T07:29:36.996Z</time></trkpt><trkpt lat="45.03901003641047" lon="9.683976225028657"><ele>63.5</ele><time>2026-05-03T07:29:37.996Z</time></trkpt><trkpt lat="45.038881855093315" lon="9.68398597205058"><ele>64.0</ele><time>2026-05-03T07:29:38.996Z</time></trkpt><trkpt lat="45.03875431004045" lon="9.683995578423964"><ele>64.0</ele><time>2026-05-03T07:29:39.996Z</time></trkpt><trkpt lat="45.03864160587167" lon="9.683996992637333"><ele>64.0</ele><time>2026-05-03T07:29:40.996Z</time></trkpt><trkpt lat="45.03853484880117" lon="9.684006983911154"><ele>64.0</ele><time>2026-05-03T07:29:41.996Z</time></trkpt><trkpt lat="45.0384402311193" lon="9.684023550842461"><ele>64.0</ele><time>2026-05-03T07:29:42.996Z</time></trkpt><trkpt lat="45.038352163401754" lon="9.68403825549264"><ele>64.0</ele><time>2026-05-03T07:29:43.996Z</time></trkpt><trkpt lat="45.03826040379411" lon="9.684045524823247"><ele>64.0</ele><time>2026-05-03T07:29:44.996Z</time></trkpt><trkpt lat="45.03816850400085" lon="9.684050396877064"><ele>64.0</ele><time>2026-05-03T07:29:45.996Z</time></trkpt><trkpt lat="45.03807386175623" lon="9.684061567217407"><ele>64.0</ele><time>2026-05-03T07:29:46.996Z</time></trkpt><trkpt lat="45.03797846641397" lon="9.68407404887672"><ele>64.0</ele><time>2026-05-03T07:29:47.996Z</time></trkpt><trkpt lat="45.03789475898263" lon="9.684085552618715"><ele>64.0</ele><time>2026-05-03T07:29:48.996Z</time></trkpt><trkpt lat="45.03781052129761" lon="9.684089553752623"><ele>64.0</ele><time>2026-05-03T07:29:49.996Z</time></trkpt><trkpt lat="45.0377156569383" lon="9.68410062712945"><ele>64.0</ele><time>2026-05-03T07:29:50.997Z</time></trkpt><trkpt lat="45.037620202803296" lon="9.684111608962523"><ele>64.0</ele><time>2026-05-03T07:29:51.997Z</time></trkpt><trkpt lat="45.03752906507465" lon="9.684124974671109"><ele>64.0</ele><time>2026-05-03T07:29:52.997Z</time></trkpt><trkpt lat="45.03744174244904" lon="9.684136092375097"><ele>64.0</ele><time>2026-05-03T07:29:53.997Z</time></trkpt><trkpt lat="45.037360116177325" lon="9.684142874155969"><ele>63.857142857142854</ele><time>2026-05-03T07:29:54.996Z</time></trkpt><trkpt lat="45.03728078074899" lon="9.68415069198342"><ele>63.71428571428571</ele><time>2026-05-03T07:29:55.996Z</time></trkpt><trkpt lat="45.03719811881092" lon="9.684160694297857"><ele>63.57142857142857</ele><time>2026-05-03T07:29:56.996Z</time></trkpt><trkpt lat="45.03711715014594" lon="9.684173572502603"><ele>63.42857142857143</ele><time>2026-05-03T07:29:57.996Z</time></trkpt><trkpt lat="45.03704758426871" lon="9.684181073895623"><ele>63.285714285714285</ele><time>2026-05-03T07:29:58.996Z</time></trkpt><trkpt lat="45.03698296825796" lon="9.684192857945574"><ele>63.14285714285714</ele><time>2026-05-03T07:29:59.996Z</time></trkpt><trkpt lat="45.0369163691122" lon="9.684198928742394"><ele>63.0</ele><time>2026-05-03T07:30:00.997Z</time></trkpt><trkpt lat="45.03684393663449" lon="9.684209061393705"><ele>63.0</ele><time>2026-05-03T07:30:01.997Z</time></trkpt><trkpt lat="45.03676614592876" lon="9.684216449605778"><ele>63.0</ele><time>2026-05-03T07:30:02.997Z</time></trkpt><trkpt lat="45.036679330208585" lon="9.684222265756128"><ele>63.0</ele><time>2026-05-03T07:30:03.996Z</time></trkpt><trkpt lat="45.0365973994108" lon="9.684236106605804"><ele>63.0</ele><time>2026-05-03T07:30:04.996Z</time></trkpt><trkpt lat="45.03652010144932" lon="9.684251873056352"><ele>63.0</ele><time>2026-05-03T07:30:05.996Z</time></trkpt><trkpt lat="45.0364412205346" lon="9.684263896485767"><ele>63.0</ele><time>2026-05-03T07:30:06.996Z</time></trkpt><trkpt lat="45.03635895658906" lon="9.684273382015332"><ele>63.4</ele><time>2026-05-03T07:30:07.996Z</time></trkpt><trkpt lat="45.03628458555694" lon="9.684288602639517"><ele>63.8</ele><time>2026-05-03T07:30:08.996Z</time></trkpt><trkpt lat="45.03621834342011" lon="9.684304021024804"><ele>64.2</ele><time>2026-05-03T07:30:09.996Z</time></trkpt><trkpt lat="45.03609490525166" lon="9.684335009228821"><ele>64.6</ele><time>2026-05-03T07:30:11.996Z</time></trkpt><trkpt lat="45.03596365029437" lon="9.68434563000784"><ele>65.0</ele><time>2026-05-03T07:30:13.996Z</time></trkpt><trkpt lat="45.03589147452448" lon="9.684350454327735"><ele>65.0</ele><time>2026-05-03T07:30:14.996Z</time></trkpt><trkpt lat="45.03581062516882" lon="9.684354632097827"><ele>65.0</ele><time>2026-05-03T07:30:15.996Z</time></trkpt><trkpt lat="45.035729514276625" lon="9.684355012653624"><ele>65.0</ele><time>2026-05-03T07:30:16.996Z</time></trkpt><trkpt lat="45.03565322600269" lon="9.684361636698359"><ele>65.0</ele><time>2026-05-03T07:30:17.996Z</time></trkpt><trkpt lat="45.03557363565859" lon="9.684368656359311"><ele>65.0</ele><time>2026-05-03T07:30:18.996Z</time></trkpt><trkpt lat="45.03548743614753" lon="9.684360850912682"><ele>65.0</ele><time>2026-05-03T07:30:19.996Z</time></trkpt><trkpt lat="45.035401403545265" lon="9.684368982534911"><ele>65.0</ele><time>2026-05-03T07:30:20.996Z</time></trkpt><trkpt lat="45.03531384395406" lon="9.684376747599178"><ele>65.0</ele><time>2026-05-03T07:30:21.996Z</time></trkpt><trkpt lat="45.035228668015094" lon="9.684394900710798"><ele>65.0</ele><time>2026-05-03T07:30:22.996Z</time></trkpt><trkpt lat="45.035133812100064" lon="9.684422240605116"><ele>65.0</ele><time>2026-05-03T07:30:23.996Z</time></trkpt><trkpt lat="45.03503753452516" lon="9.684439097248687"><ele>65.0</ele><time>2026-05-03T07:30:24.996Z</time></trkpt><trkpt lat="45.03493954317913" lon="9.684451508231167"><ele>65.2</ele><time>2026-05-03T07:30:25.996Z</time></trkpt><trkpt lat="45.03484862398306" lon="9.684460569326175"><ele>65.4</ele><time>2026-05-03T07:30:26.996Z</time></trkpt><trkpt lat="45.034753399952855" lon="9.684451320858216"><ele>65.6</ele><time>2026-05-03T07:30:27.996Z</time></trkpt><trkpt lat="45.03466585666027" lon="9.684480772350485"><ele>65.8</ele><time>2026-05-03T07:30:28.996Z</time></trkpt><trkpt lat="45.034570141554696" lon="9.684497566803632"><ele>66.0</ele><time>2026-05-03T07:30:29.996Z</time></trkpt><trkpt lat="45.03447259855554" lon="9.684516848983707"><ele>66.0</ele><time>2026-05-03T07:30:30.996Z</time></trkpt><trkpt lat="45.034370649339124" lon="9.68453871694361"><ele>66.0</ele><time>2026-05-03T07:30:31.996Z</time></trkpt><trkpt lat="45.034261049286535" lon="9.684574516763087"><ele>66.0</ele><time>2026-05-03T07:30:32.996Z</time></trkpt><trkpt lat="45.03415053907946" lon="9.684597801136038"><ele>66.0</ele><time>2026-05-03T07:30:33.996Z</time></trkpt><trkpt lat="45.034049741118096" lon="9.68462048663374"><ele>66.0</ele><time>2026-05-03T07:30:34.996Z</time></trkpt><trkpt lat="45.03394867094799" lon="9.68464564351958"><ele>66.39999999999999</ele><time>2026-05-03T07:30:35.996Z</time></trkpt><trkpt lat="45.03384582716552" lon="9.68466131812097"><ele>66.8</ele><time>2026-05-03T07:30:36.996Z</time></trkpt><trkpt lat="45.03374597215694" lon="9.684705168085955"><ele>67.19999999999999</ele><time>2026-05-03T07:30:37.996Z</time></trkpt><trkpt lat="45.033647829115054" lon="9.68475125115682"><ele>67.6</ele><time>2026-05-03T07:30:38.996Z</time></trkpt><trkpt lat="45.03355581519452" lon="9.684781318391886"><ele>68.0</ele><time>2026-05-03T07:30:39.996Z</time></trkpt><trkpt lat="45.033454445935206" lon="9.684818817191143"><ele>68.0</ele><time>2026-05-03T07:30:40.996Z</time></trkpt><trkpt lat="45.033349934901466" lon="9.684855127247587"><ele>68.0</ele><time>2026-05-03T07:30:41.996Z</time></trkpt><trkpt lat="45.03323985981018" lon="9.684889152589818"><ele>68.0</ele><time>2026-05-03T07:30:42.996Z</time></trkpt><trkpt lat="45.03313371771926" lon="9.684929539039821"><ele>68.0</ele><time>2026-05-03T07:30:43.996Z</time></trkpt><trkpt lat="45.03303318055471" lon="9.68494665689033"><ele>68.0</ele><time>2026-05-03T07:30:44.996Z</time></trkpt><trkpt lat="45.03293385160788" lon="9.684978906285966"><ele>67.4</ele><time>2026-05-03T07:30:45.996Z</time></trkpt><trkpt lat="45.03284439955748" lon="9.68501251762297"><ele>66.8</ele><time>2026-05-03T07:30:46.996Z</time></trkpt><trkpt lat="45.03275627246296" lon="9.685030201213866"><ele>66.2</ele><time>2026-05-03T07:30:47.996Z</time></trkpt><trkpt lat="45.03267529124111" lon="9.685065684271878"><ele>65.6</ele><time>2026-05-03T07:30:48.996Z</time></trkpt><trkpt lat="45.0325820634495" lon="9.685096718052092"><ele>65.0</ele><time>2026-05-03T07:30:49.996Z</time></trkpt><trkpt lat="45.03248490365302" lon="9.685122601989876"><ele>64.83333333333334</ele><time>2026-05-03T07:30:50.996Z</time></trkpt><trkpt lat="45.03239252479457" lon="9.685157378818413"><ele>64.66666666666667</ele><time>2026-05-03T07:30:51.996Z</time></trkpt><trkpt lat="45.032307038677395" lon="9.68518005531962"><ele>64.5</ele><time>2026-05-03T07:30:52.996Z</time></trkpt><trkpt lat="45.032193523990095" lon="9.685214510216113"><ele>64.33333333333333</ele><time>2026-05-03T07:30:53.996Z</time></trkpt><trkpt lat="45.032121118151906" lon="9.685260528312329"><ele>64.16666666666666</ele><time>2026-05-03T07:30:54.996Z</time></trkpt><trkpt lat="45.03205305931149" lon="9.685290120072494"><ele>64.0</ele><time>2026-05-03T07:30:55.996Z</time></trkpt><trkpt lat="45.03199164341483" lon="9.685314866818958"><ele>63.99999999999999</ele><time>2026-05-03T07:30:56.996Z</time></trkpt><trkpt lat="45.031891002015826" lon="9.685355848813161"><ele>64.0</ele><time>2026-05-03T07:30:58.996Z</time></trkpt><trkpt lat="45.03182227837266" lon="9.685382552736023"><ele>64.0</ele><time>2026-05-03T07:31:00.996Z</time></trkpt><trkpt lat="45.03175265195362" lon="9.685423346145768"><ele>64.0</ele><time>2026-05-03T07:31:03.996Z</time></trkpt><trkpt lat="45.031661616180756" lon="9.685462491766348"><ele>63.99999999999999</ele><time>2026-05-03T07:31:05.996Z</time></trkpt><trkpt lat="45.03159528334192" lon="9.685490457417739"><ele>64.0</ele><time>2026-05-03T07:31:06.996Z</time></trkpt><trkpt lat="45.031524665479914" lon="9.685519381794762"><ele>64.33333333333333</ele><time>2026-05-03T07:31:07.995Z</time></trkpt><trkpt lat="45.03145167675539" lon="9.68554883530383"><ele>64.66666666666666</ele><time>2026-05-03T07:31:08.995Z</time></trkpt><trkpt lat="45.03135833131487" lon="9.685589397720383"><ele>65.0</ele><time>2026-05-03T07:31:09.995Z</time></trkpt><trkpt lat="45.03127213043914" lon="9.685619456749208"><ele>65.33333333333333</ele><time>2026-05-03T07:31:10.995Z</time></trkpt><trkpt lat="45.03119090916126" lon="9.68564050179895"><ele>65.66666666666667</ele><time>2026-05-03T07:31:11.995Z</time></trkpt><trkpt lat="45.031105169490075" lon="9.685668681421692"><ele>66.0</ele><time>2026-05-03T07:31:12.995Z</time></trkpt><trkpt lat="45.03102699185291" lon="9.685696522976757"><ele>66.0</ele><time>2026-05-03T07:31:13.995Z</time></trkpt><trkpt lat="45.0309605212711" lon="9.685723874163134"><ele>66.0</ele><time>2026-05-03T07:31:14.995Z</time></trkpt><trkpt lat="45.03086599153762" lon="9.68575882187989"><ele>66.0</ele><time>2026-05-03T07:31:16.995Z</time></trkpt><trkpt lat="45.030801731266735" lon="9.685745109065776"><ele>66.0</ele><time>2026-05-03T07:31:19.995Z</time></trkpt><trkpt lat="45.03070995353178" lon="9.68570208461724"><ele>66.0</ele><time>2026-05-03T07:31:21.995Z</time></trkpt><trkpt lat="45.03065002601712" lon="9.685630449349098"><ele>66.0</ele><time>2026-05-03T07:31:22.995Z</time></trkpt><trkpt lat="45.03060069492124" lon="9.685544795548799"><ele>66.0</ele><time>2026-05-03T07:31:23.995Z</time></trkpt><trkpt lat="45.0305566025242" lon="9.685440433500226"><ele>66.0</ele><time>2026-05-03T07:31:24.995Z</time></trkpt><trkpt lat="45.030512884664596" lon="9.685326761265449"><ele>66.0</ele><time>2026-05-03T07:31:25.995Z</time></trkpt><trkpt lat="45.03046339769013" lon="9.685211894546208"><ele>66.0</ele><time>2026-05-03T07:31:26.995Z</time></trkpt><trkpt lat="45.03040906445568" lon="9.685094172494829"><ele>66.0</ele><time>2026-05-03T07:31:27.995Z</time></trkpt><trkpt lat="45.030347554755224" lon="9.684963867852067"><ele>66.0</ele><time>2026-05-03T07:31:28.995Z</time></trkpt><trkpt lat="45.0302832848696" lon="9.684824022721983"><ele>66.0</ele><time>2026-05-03T07:31:29.995Z</time></trkpt><trkpt lat="45.03021435112208" lon="9.684675921583459"><ele>66.0</ele><time>2026-05-03T07:31:30.995Z</time></trkpt><trkpt lat="45.03014418455711" lon="9.684518604324843"><ele>66.0</ele><time>2026-05-03T07:31:31.995Z</time></trkpt><trkpt lat="45.03007659142425" lon="9.684363938757087"><ele>66.0</ele><time>2026-05-03T07:31:32.995Z</time></trkpt><trkpt lat="45.03000249581265" lon="9.684219184011758"><ele>66.0</ele><time>2026-05-03T07:31:33.995Z</time></trkpt><trkpt lat="45.02993650603967" lon="9.684071115078686"><ele>66.0</ele><time>2026-05-03T07:31:34.995Z</time></trkpt><trkpt lat="45.02987418323929" lon="9.683934074101417"><ele>66.0</ele><time>2026-05-03T07:31:35.995Z</time></trkpt><trkpt lat="45.029815531018386" lon="9.683804922201983"><ele>65.6</ele><time>2026-05-03T07:31:36.995Z</time></trkpt><trkpt lat="45.029753322513685" lon="9.683681231059003"><ele>65.19999999999999</ele><time>2026-05-03T07:31:37.995Z</time></trkpt><trkpt lat="45.02968526705623" lon="9.68356408310897"><ele>64.80000000000001</ele><time>2026-05-03T07:31:38.995Z</time></trkpt><trkpt lat="45.02961234179157" lon="9.683450795215709"><ele>64.4</ele><time>2026-05-03T07:31:39.995Z</time></trkpt><trkpt lat="45.029527055171165" lon="9.68334748570619"><ele>64.0</ele><time>2026-05-03T07:31:40.995Z</time></trkpt><trkpt lat="45.029447571565896" lon="9.683257361016466"><ele>63.99999999999999</ele><time>2026-05-03T07:31:41.995Z</time></trkpt><trkpt lat="45.02936961033339" lon="9.683178479833245"><ele>64.0</ele><time>2026-05-03T07:31:42.995Z</time></trkpt><trkpt lat="45.029303063673225" lon="9.68310821178836"><ele>64.0</ele><time>2026-05-03T07:31:43.995Z</time></trkpt><trkpt lat="45.02924896328185" lon="9.683045907082992"><ele>64.0</ele><time>2026-05-03T07:31:44.995Z</time></trkpt><trkpt lat="45.02917783982215" lon="9.682967958326904"><ele>63.99999999999999</ele><time>2026-05-03T07:31:46.995Z</time></trkpt><trkpt lat="45.029125858829154" lon="9.682904924359812"><ele>64.0</ele><time>2026-05-03T07:31:48.995Z</time></trkpt><trkpt lat="45.029062382424385" lon="9.682784143886094"><ele>64.60000000000001</ele><time>2026-05-03T07:31:50.995Z</time></trkpt><trkpt lat="45.02903775765336" lon="9.682687553910574"><ele>65.2</ele><time>2026-05-03T07:31:51.995Z</time></trkpt><trkpt lat="45.029024226269264" lon="9.682562041951641"><ele>65.80000000000001</ele><time>2026-05-03T07:31:52.995Z</time></trkpt><trkpt lat="45.02901020765864" lon="9.682401848856296"><ele>66.4</ele><time>2026-05-03T07:31:53.995Z</time></trkpt><trkpt lat="45.02895830474461" lon="9.682244874931882"><ele>67.0</ele><time>2026-05-03T07:31:54.995Z</time></trkpt><trkpt lat="45.028875915531835" lon="9.68208650836176"><ele>66.66666666666666</ele><time>2026-05-03T07:31:55.995Z</time></trkpt><trkpt lat="45.028763690972845" lon="9.681923201290674"><ele>66.33333333333333</ele><time>2026-05-03T07:31:56.996Z</time></trkpt><trkpt lat="45.02863462166084" lon="9.68178611264692"><ele>66.0</ele><time>2026-05-03T07:31:57.996Z</time></trkpt><trkpt lat="45.02849190715792" lon="9.681664468276072"><ele>66.0</ele><time>2026-05-03T07:31:58.996Z</time></trkpt><trkpt lat="45.02835084450773" lon="9.681593043999074"><ele>66.0</ele><time>2026-05-03T07:31:59.996Z</time></trkpt><trkpt lat="45.02821194171598" lon="9.681599375171302"><ele>66.0</ele><time>2026-05-03T07:32:00.996Z</time></trkpt><trkpt lat="45.028079827555835" lon="9.681628819811868"><ele>66.0</ele><time>2026-05-03T07:32:01.996Z</time></trkpt><trkpt lat="45.027970108374326" lon="9.68168594873933"><ele>66.0</ele><time>2026-05-03T07:32:02.996Z</time></trkpt><trkpt lat="45.02783182077797" lon="9.681787921391532"><ele>66.0</ele><time>2026-05-03T07:32:03.997Z</time></trkpt><trkpt lat="45.02770385683014" lon="9.681811738931255"><ele>66.0</ele><time>2026-05-03T07:32:04.997Z</time></trkpt><trkpt lat="45.02755435592197" lon="9.68180516145397"><ele>66.0</ele><time>2026-05-03T07:32:05.996Z</time></trkpt><trkpt lat="45.027403295357" lon="9.681733781111598"><ele>65.66666666666667</ele><time>2026-05-03T07:32:06.996Z</time></trkpt><trkpt lat="45.02726478695807" lon="9.681632576909232"><ele>65.33333333333334</ele><time>2026-05-03T07:32:07.996Z</time></trkpt><trkpt lat="45.02714105404065" lon="9.681567176108464"><ele>65.0</ele><time>2026-05-03T07:32:08.996Z</time></trkpt><trkpt lat="45.02726902860259" lon="9.68171223733489"><ele>65.0</ele><time>2026-05-03T07:32:09.996Z</time></trkpt><trkpt lat="45.02720842099387" lon="9.681559701360857"><ele>65.0</ele><time>2026-05-03T07:32:10.996Z</time></trkpt><trkpt lat="45.02712507348044" lon="9.681402749009237"><ele>65.0</ele><time>2026-05-03T07:32:11.996Z</time></trkpt><trkpt lat="45.0270301736554" lon="9.6812486338698"><ele>65.0</ele><time>2026-05-03T07:32:12.996Z</time></trkpt><trkpt lat="45.02693373909608" lon="9.68109323056651"><ele>65.33333333333334</ele><time>2026-05-03T07:32:13.996Z</time></trkpt><trkpt lat="45.02681658871077" lon="9.680953512372696"><ele>65.66666666666667</ele><time>2026-05-03T07:32:14.996Z</time></trkpt><trkpt lat="45.02668386450306" lon="9.680827183121268"><ele>66.0</ele><time>2026-05-03T07:32:15.996Z</time></trkpt><trkpt lat="45.026544214741186" lon="9.680722501824134"><ele>66.33333333333333</ele><time>2026-05-03T07:32:16.996Z</time></trkpt><trkpt lat="45.02640178784062" lon="9.680640190344079"><ele>66.66666666666666</ele><time>2026-05-03T07:32:17.996Z</time></trkpt><trkpt lat="45.026251370075" lon="9.680569921755104"><ele>67.0</ele><time>2026-05-03T07:32:18.996Z</time></trkpt><trkpt lat="45.026101079715474" lon="9.680501214766476"><ele>67.0</ele><time>2026-05-03T07:32:19.996Z</time></trkpt><trkpt lat="45.02595077085393" lon="9.680431224324222"><ele>67.0</ele><time>2026-05-03T07:32:20.996Z</time></trkpt><trkpt lat="45.02580024003945" lon="9.680361581037333"><ele>67.0</ele><time>2026-05-03T07:32:21.996Z</time></trkpt><trkpt lat="45.02564473752294" lon="9.680288312574937"><ele>67.66666666666666</ele><time>2026-05-03T07:32:22.996Z</time></trkpt><trkpt lat="45.02549250372187" lon="9.680212688359255"><ele>68.33333333333333</ele><time>2026-05-03T07:32:23.996Z</time></trkpt><trkpt lat="45.02534482971274" lon="9.680144792289486"><ele>69.0</ele><time>2026-05-03T07:32:24.996Z</time></trkpt><trkpt lat="45.025199242136935" lon="9.680077467393028"><ele>69.0</ele><time>2026-05-03T07:32:25.996Z</time></trkpt><trkpt lat="45.02505504269753" lon="9.68001039881455"><ele>69.0</ele><time>2026-05-03T07:32:26.996Z</time></trkpt><trkpt lat="45.024913080163635" lon="9.679945716597242"><ele>69.0</ele><time>2026-05-03T07:32:27.996Z</time></trkpt><trkpt lat="45.02477874696188" lon="9.679883268338056"><ele>69.0</ele><time>2026-05-03T07:32:28.996Z</time></trkpt><trkpt lat="45.02464812958608" lon="9.679823551047203"><ele>68.75</ele><time>2026-05-03T07:32:29.996Z</time></trkpt><trkpt lat="45.02452212232282" lon="9.679767630533588"><ele>68.5</ele><time>2026-05-03T07:32:30.996Z</time></trkpt><trkpt lat="45.02439716609683" lon="9.679708015282625"><ele>68.25</ele><time>2026-05-03T07:32:31.996Z</time></trkpt><trkpt lat="45.02428060751266" lon="9.6796595723726"><ele>68.0</ele><time>2026-05-03T07:32:32.996Z</time></trkpt><trkpt lat="45.02416578761775" lon="9.67960556635846"><ele>68.2</ele><time>2026-05-03T07:32:33.996Z</time></trkpt><trkpt lat="45.0240580320894" lon="9.679555831217819"><ele>68.4</ele><time>2026-05-03T07:32:34.996Z</time></trkpt><trkpt lat="45.02395765921862" lon="9.67950152382697"><ele>68.60000000000001</ele><time>2026-05-03T07:32:35.996Z</time></trkpt><trkpt lat="45.023862315103386" lon="9.679443282429999"><ele>68.8</ele><time>2026-05-03T07:32:36.996Z</time></trkpt><trkpt lat="45.023763456249384" lon="9.679387477826907"><ele>69.0</ele><time>2026-05-03T07:32:37.996Z</time></trkpt><trkpt lat="45.02365299337024" lon="9.67932907356039"><ele>69.0</ele><time>2026-05-03T07:32:38.996Z</time></trkpt><trkpt lat="45.02353068535272" lon="9.67927563097753"><ele>69.0</ele><time>2026-05-03T07:32:39.996Z</time></trkpt><trkpt lat="45.02340474772172" lon="9.679224433481576"><ele>69.0</ele><time>2026-05-03T07:32:40.996Z</time></trkpt><trkpt lat="45.02326870808097" lon="9.679180022975045"><ele>69.0</ele><time>2026-05-03T07:32:41.996Z</time></trkpt><trkpt lat="45.02313089969743" lon="9.679142336217652"><ele>69.5</ele><time>2026-05-03T07:32:42.996Z</time></trkpt><trkpt lat="45.022994568574205" lon="9.679106788803761"><ele>70.0</ele><time>2026-05-03T07:32:43.996Z</time></trkpt><trkpt lat="45.022859154235476" lon="9.679064770783377"><ele>70.5</ele><time>2026-05-03T07:32:44.996Z</time></trkpt><trkpt lat="45.0227225883812" lon="9.679019501220926"><ele>71.0</ele><time>2026-05-03T07:32:45.996Z</time></trkpt><trkpt lat="45.02258388471591" lon="9.67897045787728"><ele>71.0</ele><time>2026-05-03T07:32:46.996Z</time></trkpt><trkpt lat="45.022437806081946" lon="9.67893089367805"><ele>71.0</ele><time>2026-05-03T07:32:47.996Z</time></trkpt><trkpt lat="45.022291049512816" lon="9.678883250343938"><ele>71.0</ele><time>2026-05-03T07:32:48.996Z</time></trkpt><trkpt lat="45.02214959545797" lon="9.67882068157066"><ele>71.0</ele><time>2026-05-03T07:32:49.996Z</time></trkpt><trkpt lat="45.02201252699979" lon="9.678754442095617"><ele>71.0</ele><time>2026-05-03T07:32:50.996Z</time></trkpt><trkpt lat="45.02188636984158" lon="9.678690318956138"><ele>71.0</ele><time>2026-05-03T07:32:51.996Z</time></trkpt><trkpt lat="45.0217745219358" lon="9.678628026808584"><ele>71.0</ele><time>2026-05-03T07:32:52.996Z</time></trkpt><trkpt lat="45.0216766687951" lon="9.678569741845207"><ele>71.0</ele><time>2026-05-03T07:32:53.996Z</time></trkpt><trkpt lat="45.0215861071549" lon="9.678506527616696"><ele>71.25</ele><time>2026-05-03T07:32:54.996Z</time></trkpt><trkpt lat="45.02148762484691" lon="9.678458486260663"><ele>71.5</ele><time>2026-05-03T07:32:55.996Z</time></trkpt><trkpt lat="45.0213806723956" lon="9.678402630171774"><ele>71.75</ele><time>2026-05-03T07:32:56.996Z</time></trkpt><trkpt lat="45.02126710466754" lon="9.678338684906144"><ele>72.0</ele><time>2026-05-03T07:32:57.996Z</time></trkpt><trkpt lat="45.02114949555258" lon="9.67827634410436"><ele>72.0</ele><time>2026-05-03T07:32:58.995Z</time></trkpt><trkpt lat="45.02103743272544" lon="9.678213337765218"><ele>72.0</ele><time>2026-05-03T07:32:59.995Z</time></trkpt><trkpt lat="45.02092701061367" lon="9.678150609122435"><ele>72.0</ele><time>2026-05-03T07:33:00.995Z</time></trkpt><trkpt lat="45.020812596368586" lon="9.678090257902394"><ele>72.0</ele><time>2026-05-03T07:33:01.995Z</time></trkpt><trkpt lat="45.02069833346511" lon="9.678028791207046"><ele>72.0</ele><time>2026-05-03T07:33:02.995Z</time></trkpt><trkpt lat="45.02059452286121" lon="9.677965260147126"><ele>72.0</ele><time>2026-05-03T07:33:03.995Z</time></trkpt><trkpt lat="45.0204948683052" lon="9.677906091200384"><ele>72.0</ele><time>2026-05-03T07:33:04.995Z</time></trkpt><trkpt lat="45.02038953756425" lon="9.677853917318508"><ele>72.0</ele><time>2026-05-03T07:33:05.995Z</time></trkpt><trkpt lat="45.02027562528104" lon="9.67779535662322"><ele>72.25</ele><time>2026-05-03T07:33:06.995Z</time></trkpt><trkpt lat="45.02015852727066" lon="9.67773024930851"><ele>72.5</ele><time>2026-05-03T07:33:07.995Z</time></trkpt><trkpt lat="45.020045291869806" lon="9.677667223775915"><ele>72.75</ele><time>2026-05-03T07:33:08.995Z</time></trkpt><trkpt lat="45.019939026506364" lon="9.67760336283948"><ele>73.0</ele><time>2026-05-03T07:33:09.995Z</time></trkpt><trkpt lat="45.0198311299127" lon="9.677540072128544"><ele>73.0</ele><time>2026-05-03T07:33:10.995Z</time></trkpt><trkpt lat="45.01971971212612" lon="9.677474479271115"><ele>73.0</ele><time>2026-05-03T07:33:11.995Z</time></trkpt><trkpt lat="45.0196067266183" lon="9.677412073443332"><ele>73.0</ele><time>2026-05-03T07:33:12.995Z</time></trkpt><trkpt lat="45.01949867164307" lon="9.677356443520278"><ele>73.0</ele><time>2026-05-03T07:33:13.995Z</time></trkpt><trkpt lat="45.019387859951934" lon="9.677301707176175"><ele>73.0</ele><time>2026-05-03T07:33:14.995Z</time></trkpt><trkpt lat="45.01927788477838" lon="9.677241202035082"><ele>73.0</ele><time>2026-05-03T07:33:15.995Z</time></trkpt><trkpt lat="45.01917012234452" lon="9.677183007099936"><ele>73.0</ele><time>2026-05-03T07:33:16.995Z</time></trkpt><trkpt lat="45.01906504620955" lon="9.677123919767514"><ele>73.0</ele><time>2026-05-03T07:33:17.995Z</time></trkpt><trkpt lat="45.01895546775604" lon="9.677062302007423"><ele>73.0</ele><time>2026-05-03T07:33:18.995Z</time></trkpt><trkpt lat="45.01884368719627" lon="9.676999799937184"><ele>73.0</ele><time>2026-05-03T07:33:19.995Z</time></trkpt><trkpt lat="45.01872533541776" lon="9.676935184831514"><ele>73.0</ele><time>2026-05-03T07:33:20.995Z</time></trkpt><trkpt lat="45.01859871213682" lon="9.676867299591061"><ele>73.0</ele><time>2026-05-03T07:33:21.995Z</time></trkpt><trkpt lat="45.01846947123962" lon="9.67679645310949"><ele>73.0</ele><time>2026-05-03T07:33:22.995Z</time></trkpt><trkpt lat="45.01834373098658" lon="9.676727065124979"><ele>73.0</ele><time>2026-05-03T07:33:23.995Z</time></trkpt><trkpt lat="45.01821840078973" lon="9.676658234613967"><ele>73.0</ele><time>2026-05-03T07:33:24.995Z</time></trkpt><trkpt lat="45.0180916973644" lon="9.67658508176697"><ele>73.0</ele><time>2026-05-03T07:33:25.995Z</time></trkpt><trkpt lat="45.01796033464648" lon="9.676513521328651"><ele>73.0</ele><time>2026-05-03T07:33:26.995Z</time></trkpt><trkpt lat="45.0178178929504" lon="9.676406086112928"><ele>73.0</ele><time>2026-05-03T07:33:27.995Z</time></trkpt><trkpt lat="45.01765541742277" lon="9.676326201568383"><ele>73.0</ele><time>2026-05-03T07:33:28.995Z</time></trkpt><trkpt lat="45.01748292521541" lon="9.676238626781183"><ele>73.0</ele><time>2026-05-03T07:33:29.995Z</time></trkpt><trkpt lat="45.017305008232256" lon="9.676138563239165"><ele>73.0</ele><time>2026-05-03T07:33:30.995Z</time></trkpt><trkpt lat="45.01712517155666" lon="9.676032193582298"><ele>73.0</ele><time>2026-05-03T07:33:31.995Z</time></trkpt><trkpt lat="45.01694782316444" lon="9.67593300393271"><ele>73.0</ele><time>2026-05-03T07:33:32.995Z</time></trkpt><trkpt lat="45.016762284753554" lon="9.675843398926252"><ele>73.0</ele><time>2026-05-03T07:33:33.995Z</time></trkpt><trkpt lat="45.016568433437264" lon="9.675762036434799"><ele>73.0</ele><time>2026-05-03T07:33:34.995Z</time></trkpt><trkpt lat="45.01637171234904" lon="9.675682602350145"><ele>73.33333333333333</ele><time>2026-05-03T07:33:35.995Z</time></trkpt><trkpt lat="45.01617562803625" lon="9.67559396443199"><ele>73.66666666666667</ele><time>2026-05-03T07:33:36.995Z</time></trkpt><trkpt lat="45.01598007844498" lon="9.675503504180533"><ele>74.0</ele><time>2026-05-03T07:33:37.995Z</time></trkpt><trkpt lat="45.01578652407715" lon="9.675419636765424"><ele>73.0</ele><time>2026-05-03T07:33:38.995Z</time></trkpt><trkpt lat="45.01559629296042" lon="9.67533308928336"><ele>72.0</ele><time>2026-05-03T07:33:39.995Z</time></trkpt><trkpt lat="45.015408383570914" lon="9.675246906556007"><ele>71.0</ele><time>2026-05-03T07:33:40.995Z</time></trkpt><trkpt lat="45.01522286391303" lon="9.67516176309247"><ele>71.0</ele><time>2026-05-03T07:33:41.995Z</time></trkpt><trkpt lat="45.0150383265658" lon="9.675075863700114"><ele>71.0</ele><time>2026-05-03T07:33:42.995Z</time></trkpt><trkpt lat="45.0148567853773" lon="9.674992367953443"><ele>71.0</ele><time>2026-05-03T07:33:43.995Z</time></trkpt><trkpt lat="45.014675105352445" lon="9.67490781468134"><ele>71.66666666666667</ele><time>2026-05-03T07:33:44.995Z</time></trkpt><trkpt lat="45.01449524049066" lon="9.674818267150195"><ele>72.33333333333333</ele><time>2026-05-03T07:33:45.995Z</time></trkpt><trkpt lat="45.014315246268154" lon="9.674729327021007"><ele>73.0</ele><time>2026-05-03T07:33:46.995Z</time></trkpt><trkpt lat="45.01413667578044" lon="9.674645798078467"><ele>73.33333333333333</ele><time>2026-05-03T07:33:47.995Z</time></trkpt><trkpt lat="45.01395783789018" lon="9.674564380119257"><ele>73.66666666666667</ele><time>2026-05-03T07:33:48.995Z</time></trkpt><trkpt lat="45.01377985375658" lon="9.674484125938466"><ele>74.0</ele><time>2026-05-03T07:33:49.995Z</time></trkpt><trkpt lat="45.01360299238889" lon="9.674400096138054"><ele>74.0</ele><time>2026-05-03T07:33:50.995Z</time></trkpt><trkpt lat="45.013429920476405" lon="9.674312416840404"><ele>74.0</ele><time>2026-05-03T07:33:51.995Z</time></trkpt><trkpt lat="45.01325423398869" lon="9.674229524941541"><ele>74.0</ele><time>2026-05-03T07:33:52.995Z</time></trkpt><trkpt lat="45.013077641727484" lon="9.674149373603496"><ele>73.66666666666667</ele><time>2026-05-03T07:33:53.995Z</time></trkpt><trkpt lat="45.01289940456598" lon="9.67406570022323"><ele>73.33333333333333</ele><time>2026-05-03T07:33:54.995Z</time></trkpt><trkpt lat="45.01272310748531" lon="9.673978045355865"><ele>73.0</ele><time>2026-05-03T07:33:55.995Z</time></trkpt><trkpt lat="45.01254574660655" lon="9.67388364167256"><ele>73.33333333333333</ele><time>2026-05-03T07:33:56.995Z</time></trkpt><trkpt lat="45.012368867999626" lon="9.673789810682084"><ele>73.66666666666667</ele><time>2026-05-03T07:33:57.995Z</time></trkpt><trkpt lat="45.012188812821904" lon="9.673701267104883"><ele>74.0</ele><time>2026-05-03T07:33:58.995Z</time></trkpt><trkpt lat="45.01200766145845" lon="9.673610297570375"><ele>74.33333333333334</ele><time>2026-05-03T07:33:59.995Z</time></trkpt><trkpt lat="45.01182142177645" lon="9.67352555106582"><ele>74.66666666666667</ele><time>2026-05-03T07:34:00.995Z</time></trkpt><trkpt lat="45.01164199930933" lon="9.673429828418932"><ele>75.0</ele><time>2026-05-03T07:34:01.995Z</time></trkpt><trkpt lat="45.011470475602785" lon="9.673340276191805"><ele>75.33333333333333</ele><time>2026-05-03T07:34:02.995Z</time></trkpt><trkpt lat="45.011309323655254" lon="9.67325914259334"><ele>75.66666666666666</ele><time>2026-05-03T07:34:03.996Z</time></trkpt><trkpt lat="45.0111576416626" lon="9.673183972101725"><ele>76.0</ele><time>2026-05-03T07:34:04.996Z</time></trkpt><trkpt lat="45.011017482691905" lon="9.67311725204171"><ele>76.0</ele><time>2026-05-03T07:34:05.996Z</time></trkpt><trkpt lat="45.010889365355865" lon="9.673061794480637"><ele>76.0</ele><time>2026-05-03T07:34:06.996Z</time></trkpt><trkpt lat="45.0107753753447" lon="9.673022769787211"><ele>76.0</ele><time>2026-05-03T07:34:07.996Z</time></trkpt><trkpt lat="45.0106908174232" lon="9.672984986880339"><ele>76.0</ele><time>2026-05-03T07:34:08.996Z</time></trkpt><trkpt lat="45.01062751624725" lon="9.672971550389079"><ele>76.0</ele><time>2026-05-03T07:34:10.995Z</time></trkpt><trkpt lat="45.01057367878885" lon="9.672910814625565"><ele>75.66666666666666</ele><time>2026-05-03T07:34:13.996Z</time></trkpt><trkpt lat="45.01048903902538" lon="9.67283772535328"><ele>75.33333333333333</ele><time>2026-05-03T07:34:15.996Z</time></trkpt><trkpt lat="45.01042151077738" lon="9.672817726230498"><ele>75.0</ele><time>2026-05-03T07:34:16.996Z</time></trkpt><trkpt lat="45.010343732707575" lon="9.672817366764253"><ele>74.66666666666667</ele><time>2026-05-03T07:34:17.996Z</time></trkpt><trkpt lat="45.010263821806795" lon="9.67281097610253"><ele>74.33333333333334</ele><time>2026-05-03T07:34:18.996Z</time></trkpt><trkpt lat="45.010179204147185" lon="9.672779418568542"><ele>74.0</ele><time>2026-05-03T07:34:19.996Z</time></trkpt><trkpt lat="45.010100895497246" lon="9.672723031093764"><ele>74.0</ele><time>2026-05-03T07:34:20.996Z</time></trkpt><trkpt lat="45.010019160221184" lon="9.67265008772326"><ele>74.0</ele><time>2026-05-03T07:34:21.996Z</time></trkpt><trkpt lat="45.00992783241488" lon="9.672578800066313"><ele>74.0</ele><time>2026-05-03T07:34:22.996Z</time></trkpt><trkpt lat="45.009828660676355" lon="9.67251854837871"><ele>74.0</ele><time>2026-05-03T07:34:23.996Z</time></trkpt><trkpt lat="45.00973247051864" lon="9.672462218202693"><ele>74.0</ele><time>2026-05-03T07:34:24.996Z</time></trkpt><trkpt lat="45.00963233056464" lon="9.672413868359074"><ele>74.0</ele><time>2026-05-03T07:34:25.996Z</time></trkpt><trkpt lat="45.009520079484986" lon="9.672356469966758"><ele>74.0</ele><time>2026-05-03T07:34:26.996Z</time></trkpt><trkpt lat="45.009392728402176" lon="9.672294213552586"><ele>74.0</ele><time>2026-05-03T07:34:27.996Z</time></trkpt><trkpt lat="45.009256080980684" lon="9.67222695449187"><ele>74.0</ele><time>2026-05-03T07:34:28.996Z</time></trkpt><trkpt lat="45.00912413708484" lon="9.672158159247624"><ele>74.5</ele><time>2026-05-03T07:34:29.996Z</time></trkpt><trkpt lat="45.00898898691477" lon="9.67208810032574"><ele>75.0</ele><time>2026-05-03T07:34:30.996Z</time></trkpt><trkpt lat="45.008850068704035" lon="9.672015240429218"><ele>75.5</ele><time>2026-05-03T07:34:31.996Z</time></trkpt><trkpt lat="45.00872115047617" lon="9.671945676303007"><ele>76.0</ele><time>2026-05-03T07:34:32.996Z</time></trkpt><trkpt lat="45.008592213862464" lon="9.671880202692883"><ele>76.0</ele><time>2026-05-03T07:34:33.996Z</time></trkpt><trkpt lat="45.00845637788546" lon="9.671817068178763"><ele>76.0</ele><time>2026-05-03T07:34:34.996Z</time></trkpt><trkpt lat="45.00830382429866" lon="9.67175643039563"><ele>76.0</ele><time>2026-05-03T07:34:35.996Z</time></trkpt><trkpt lat="45.00814179248073" lon="9.671653042085008"><ele>76.33333333333333</ele><time>2026-05-03T07:34:36.996Z</time></trkpt><trkpt lat="45.007950916542285" lon="9.671560520034935"><ele>76.66666666666667</ele><time>2026-05-03T07:34:37.996Z</time></trkpt><trkpt lat="45.00774861341409" lon="9.671466222838173"><ele>77.0</ele><time>2026-05-03T07:34:38.996Z</time></trkpt><trkpt lat="45.00753319600053" lon="9.671384152733443"><ele>77.0</ele><time>2026-05-03T07:34:39.996Z</time></trkpt><trkpt lat="45.007317091465104" lon="9.671271928711294"><ele>77.0</ele><time>2026-05-03T07:34:40.996Z</time></trkpt><trkpt lat="45.007099570071745" lon="9.671168319006506"><ele>77.0</ele><time>2026-05-03T07:34:41.996Z</time></trkpt><trkpt lat="45.00687482281912" lon="9.67107385933331"><ele>77.0</ele><time>2026-05-03T07:34:42.996Z</time></trkpt><trkpt lat="45.00665406739936" lon="9.670976231784405"><ele>77.0</ele><time>2026-05-03T07:34:43.996Z</time></trkpt><trkpt lat="45.00643104991921" lon="9.670877532867967"><ele>77.0</ele><time>2026-05-03T07:34:44.996Z</time></trkpt><trkpt lat="45.006211484934816" lon="9.670775528875176"><ele>77.0</ele><time>2026-05-03T07:34:45.996Z</time></trkpt><trkpt lat="45.00599075104062" lon="9.67067723661167"><ele>77.0</ele><time>2026-05-03T07:34:46.996Z</time></trkpt><trkpt lat="45.005768993835254" lon="9.670574388746871"><ele>77.0</ele><time>2026-05-03T07:34:47.996Z</time></trkpt><trkpt lat="45.00554442722318" lon="9.670473719056089"><ele>77.0</ele><time>2026-05-03T07:34:48.996Z</time></trkpt><trkpt lat="45.00532431764224" lon="9.670376507092103"><ele>77.0</ele><time>2026-05-03T07:34:49.996Z</time></trkpt><trkpt lat="45.00510851305426" lon="9.670274810338347"><ele>77.0</ele><time>2026-05-03T07:34:50.996Z</time></trkpt><trkpt lat="45.00489429305486" lon="9.670168188541131"><ele>77.66666666666667</ele><time>2026-05-03T07:34:51.996Z</time></trkpt><trkpt lat="45.00468474377295" lon="9.67006406377682"><ele>78.33333333333333</ele><time>2026-05-03T07:34:52.996Z</time></trkpt><trkpt lat="45.00448061190691" lon="9.669959712304939"><ele>79.0</ele><time>2026-05-03T07:34:53.996Z</time></trkpt><trkpt lat="45.00428629039949" lon="9.669858770974948"><ele>79.0</ele><time>2026-05-03T07:34:54.996Z</time></trkpt><trkpt lat="45.004103456167584" lon="9.66976972250104"><ele>79.0</ele><time>2026-05-03T07:34:55.996Z</time></trkpt><trkpt lat="45.00392080265634" lon="9.669681413385476"><ele>79.0</ele><time>2026-05-03T07:34:56.996Z</time></trkpt><trkpt lat="45.00373870827614" lon="9.669596854981037"><ele>79.0</ele><time>2026-05-03T07:34:57.996Z</time></trkpt><trkpt lat="45.00356135321931" lon="9.669513599237389"><ele>79.0</ele><time>2026-05-03T07:34:58.996Z</time></trkpt><trkpt lat="45.0033828784107" lon="9.669429477611772"><ele>79.0</ele><time>2026-05-03T07:34:59.996Z</time></trkpt><trkpt lat="45.00320852254903" lon="9.669339240754011"><ele>79.33333333333333</ele><time>2026-05-03T07:35:00.996Z</time></trkpt><trkpt lat="45.00303292168175" lon="9.669248361534779"><ele>79.66666666666667</ele><time>2026-05-03T07:35:01.996Z</time></trkpt><trkpt lat="45.002861562496676" lon="9.669166174227577"><ele>80.0</ele><time>2026-05-03T07:35:02.996Z</time></trkpt><trkpt lat="45.0026940013135" lon="9.669083873384455"><ele>80.0</ele><time>2026-05-03T07:35:03.996Z</time></trkpt><trkpt lat="45.002526665210745" lon="9.668999150728075"><ele>80.0</ele><time>2026-05-03T07:35:04.996Z</time></trkpt><trkpt lat="45.00235987411745" lon="9.668915649172506"><ele>80.0</ele><time>2026-05-03T07:35:05.996Z</time></trkpt><trkpt lat="45.00218799467747" lon="9.668843185676238"><ele>80.33333333333334</ele><time>2026-05-03T07:35:06.996Z</time></trkpt><trkpt lat="45.00202117504241" lon="9.668765828102373"><ele>80.66666666666667</ele><time>2026-05-03T07:35:07.996Z</time></trkpt><trkpt lat="45.00185504775632" lon="9.668684729386401"><ele>81.0</ele><time>2026-05-03T07:35:08.996Z</time></trkpt><trkpt lat="45.001686171105966" lon="9.668605425073329"><ele>80.66666666666667</ele><time>2026-05-03T07:35:09.995Z</time></trkpt><trkpt lat="45.001516857015815" lon="9.668525524171478"><ele>80.33333333333334</ele><time>2026-05-03T07:35:10.995Z</time></trkpt><trkpt lat="45.00134669630958" lon="9.66844159161162"><ele>80.0</ele><time>2026-05-03T07:35:11.995Z</time></trkpt><trkpt lat="45.00117688558842" lon="9.66835613107165"><ele>80.0</ele><time>2026-05-03T07:35:12.995Z</time></trkpt><trkpt lat="45.00100627940395" lon="9.668274048489373"><ele>80.0</ele><time>2026-05-03T07:35:13.995Z</time></trkpt><trkpt lat="45.00083417218414" lon="9.66819533728887"><ele>80.0</ele><time>2026-05-03T07:35:14.995Z</time></trkpt><trkpt lat="45.000659329162666" lon="9.668114142925866"><ele>80.0</ele><time>2026-05-03T07:35:15.995Z</time></trkpt><trkpt lat="45.00048681721175" lon="9.668032621339561"><ele>80.0</ele><time>2026-05-03T07:35:16.995Z</time></trkpt><trkpt lat="45.00031344326405" lon="9.66795391436934"><ele>80.0</ele><time>2026-05-03T07:35:17.995Z</time></trkpt><trkpt lat="45.00014158694279" lon="9.667875592374207"><ele>80.0</ele><time>2026-05-03T07:35:18.995Z</time></trkpt><trkpt lat="44.99996832815487" lon="9.667797389418489"><ele>80.0</ele><time>2026-05-03T07:35:19.995Z</time></trkpt><trkpt lat="44.999804135031376" lon="9.667720160829058"><ele>80.0</ele><time>2026-05-03T07:35:20.995Z</time></trkpt><trkpt lat="44.99964903347559" lon="9.667647463569422"><ele>79.66666666666667</ele><time>2026-05-03T07:35:21.995Z</time></trkpt><trkpt lat="44.9995048610224" lon="9.667577692607555"><ele>79.33333333333333</ele><time>2026-05-03T07:35:22.995Z</time></trkpt><trkpt lat="44.999364067174945" lon="9.667506870027031"><ele>79.0</ele><time>2026-05-03T07:35:23.995Z</time></trkpt><trkpt lat="44.999223541548815" lon="9.667435384569973"><ele>79.33333333333333</ele><time>2026-05-03T07:35:24.995Z</time></trkpt><trkpt lat="44.999078911193436" lon="9.667364068749347"><ele>79.66666666666667</ele><time>2026-05-03T07:35:25.995Z</time></trkpt><trkpt lat="44.99893614303748" lon="9.667290099701695"><ele>80.0</ele><time>2026-05-03T07:35:26.995Z</time></trkpt><trkpt lat="44.99879019955436" lon="9.667218263551902"><ele>80.0</ele><time>2026-05-03T07:35:27.995Z</time></trkpt><trkpt lat="44.99864753254632" lon="9.6671458865969"><ele>80.0</ele><time>2026-05-03T07:35:28.995Z</time></trkpt><trkpt lat="44.998510304886274" lon="9.667076869232464"><ele>80.0</ele><time>2026-05-03T07:35:29.995Z</time></trkpt><trkpt lat="44.99838617696714" lon="9.666975450400178"><ele>80.0</ele><time>2026-05-03T07:35:30.995Z</time></trkpt><trkpt lat="44.9982566280259" lon="9.66690535491941"><ele>80.25</ele><time>2026-05-03T07:35:31.995Z</time></trkpt><trkpt lat="44.998127001196" lon="9.666831051031235"><ele>80.5</ele><time>2026-05-03T07:35:32.995Z</time></trkpt><trkpt lat="44.997996641510355" lon="9.66675787776697"><ele>80.75</ele><time>2026-05-03T07:35:33.995Z</time></trkpt><trkpt lat="44.99786160968877" lon="9.666685837065444"><ele>81.0</ele><time>2026-05-03T07:35:34.995Z</time></trkpt><trkpt lat="44.99772298593609" lon="9.666607582840136"><ele>81.0</ele><time>2026-05-03T07:35:35.995Z</time></trkpt><trkpt lat="44.99758421684667" lon="9.666528539322188"><ele>81.0</ele><time>2026-05-03T07:35:36.995Z</time></trkpt><trkpt lat="44.9974447884541" lon="9.666442598948773"><ele>81.0</ele><time>2026-05-03T07:35:37.995Z</time></trkpt><trkpt lat="44.997302844182876" lon="9.666358202606773"><ele>81.66666666666667</ele><time>2026-05-03T07:35:38.995Z</time></trkpt><trkpt lat="44.9971595504155" lon="9.666265846776161"><ele>82.33333333333334</ele><time>2026-05-03T07:35:39.995Z</time></trkpt><trkpt lat="44.99702324622444" lon="9.666172849297174"><ele>83.0</ele><time>2026-05-03T07:35:40.995Z</time></trkpt><trkpt lat="44.99689339235134" lon="9.66608273758845"><ele>83.0</ele><time>2026-05-03T07:35:41.995Z</time></trkpt><trkpt lat="44.99677653067634" lon="9.666003309899502"><ele>83.0</ele><time>2026-05-03T07:35:42.995Z</time></trkpt><trkpt lat="44.996691837931884" lon="9.665944106286107"><ele>83.0</ele><time>2026-05-03T07:35:43.995Z</time></trkpt><trkpt lat="44.99660291566987" lon="9.665878021292256"><ele>83.0</ele><time>2026-05-03T07:35:45.995Z</time></trkpt><trkpt lat="44.99652357996422" lon="9.665844843231095"><ele>83.0</ele><time>2026-05-03T07:35:47.995Z</time></trkpt><trkpt lat="44.996461336699724" lon="9.665827024829678"><ele>83.4</ele><time>2026-05-03T07:35:48.995Z</time></trkpt><trkpt lat="44.99638792063455" lon="9.665798623832297"><ele>83.80000000000001</ele><time>2026-05-03T07:35:49.995Z</time></trkpt><trkpt lat="44.996295321667134" lon="9.66575394536019"><ele>84.2</ele><time>2026-05-03T07:35:50.995Z</time></trkpt><trkpt lat="44.99618129026243" lon="9.665714810746353"><ele>84.6</ele><time>2026-05-03T07:35:51.995Z</time></trkpt><trkpt lat="44.996051389973154" lon="9.665673944099744"><ele>85.0</ele><time>2026-05-03T07:35:52.995Z</time></trkpt><trkpt lat="44.995910509041515" lon="9.665625400328166"><ele>84.66666666666666</ele><time>2026-05-03T07:35:53.995Z</time></trkpt><trkpt lat="44.995764165468735" lon="9.665580575738037"><ele>84.33333333333333</ele><time>2026-05-03T07:35:54.995Z</time></trkpt><trkpt lat="44.99560883932622" lon="9.665529896972243"><ele>84.0</ele><time>2026-05-03T07:35:55.995Z</time></trkpt><trkpt lat="44.99544887288681" lon="9.665468473051197"><ele>84.0</ele><time>2026-05-03T07:35:56.995Z</time></trkpt><trkpt lat="44.99528637830506" lon="9.665400493699632"><ele>84.0</ele><time>2026-05-03T07:35:57.995Z</time></trkpt><trkpt lat="44.99511606750914" lon="9.665329181204104"><ele>84.0</ele><time>2026-05-03T07:35:58.995Z</time></trkpt><trkpt lat="44.994941641772314" lon="9.665237919547518"><ele>84.33333333333333</ele><time>2026-05-03T07:35:59.995Z</time></trkpt><trkpt lat="44.99475466732629" lon="9.665146027315272"><ele>84.66666666666666</ele><time>2026-05-03T07:36:00.995Z</time></trkpt><trkpt lat="44.99456261009092" lon="9.66505613591748"><ele>85.0</ele><time>2026-05-03T07:36:01.995Z</time></trkpt><trkpt lat="44.99437332838132" lon="9.66497036597328"><ele>85.0</ele><time>2026-05-03T07:36:02.995Z</time></trkpt><trkpt lat="44.99418432819383" lon="9.664883383846295"><ele>85.0</ele><time>2026-05-03T07:36:03.995Z</time></trkpt><trkpt lat="44.99399451750915" lon="9.664795308422946"><ele>85.0</ele><time>2026-05-03T07:36:04.995Z</time></trkpt><trkpt lat="44.99380246664179" lon="9.664709164853871"><ele>85.0</ele><time>2026-05-03T07:36:05.995Z</time></trkpt><trkpt lat="44.99360776560423" lon="9.664624599801337"><ele>85.0</ele><time>2026-05-03T07:36:06.995Z</time></trkpt><trkpt lat="44.99341167594803" lon="9.664544649228395"><ele>85.0</ele><time>2026-05-03T07:36:07.995Z</time></trkpt><trkpt lat="44.99321432441777" lon="9.664465897203273"><ele>85.0</ele><time>2026-05-03T07:36:08.995Z</time></trkpt><trkpt lat="44.99301898618867" lon="9.664385981210739"><ele>85.0</ele><time>2026-05-03T07:36:09.996Z</time></trkpt><trkpt lat="44.99282079525598" lon="9.664312259308224"><ele>85.0</ele><time>2026-05-03T07:36:10.996Z</time></trkpt><trkpt lat="44.99262053225242" lon="9.664233039545245"><ele>85.0</ele><time>2026-05-03T07:36:11.996Z</time></trkpt><trkpt lat="44.99242112645481" lon="9.664153024634341"><ele>85.0</ele><time>2026-05-03T07:36:12.996Z</time></trkpt><trkpt lat="44.99221944725748" lon="9.664077314853971"><ele>85.0</ele><time>2026-05-03T07:36:13.996Z</time></trkpt><trkpt lat="44.99201674253426" lon="9.663998351694966"><ele>85.0</ele><time>2026-05-03T07:36:14.995Z</time></trkpt><trkpt lat="44.99181346090368" lon="9.663925177206272"><ele>85.0</ele><time>2026-05-03T07:36:15.996Z</time></trkpt><trkpt lat="44.991612286450824" lon="9.663853789169695"><ele>85.0</ele><time>2026-05-03T07:36:16.996Z</time></trkpt><trkpt lat="44.9914102201106" lon="9.66377938752399"><ele>85.0</ele><time>2026-05-03T07:36:17.996Z</time></trkpt><trkpt lat="44.99120498898176" lon="9.66370913718403"><ele>85.0</ele><time>2026-05-03T07:36:18.996Z</time></trkpt><trkpt lat="44.99100202041346" lon="9.663635677093994"><ele>85.0</ele><time>2026-05-03T07:36:19.996Z</time></trkpt><trkpt lat="44.99079608565317" lon="9.663568007653167"><ele>84.0</ele><time>2026-05-03T07:36:20.995Z</time></trkpt><trkpt lat="44.99059272567833" lon="9.663495726858871"><ele>83.0</ele><time>2026-05-03T07:36:21.995Z</time></trkpt><trkpt lat="44.99038785521755" lon="9.663422639892174"><ele>82.0</ele><time>2026-05-03T07:36:22.995Z</time></trkpt><trkpt lat="44.99018493546447" lon="9.663349026909568"><ele>82.0</ele><time>2026-05-03T07:36:23.995Z</time></trkpt><trkpt lat="44.98998217369576" lon="9.663270065519894"><ele>82.0</ele><time>2026-05-03T07:36:24.995Z</time></trkpt><trkpt lat="44.989777613716974" lon="9.6631923607121"><ele>82.0</ele><time>2026-05-03T07:36:25.995Z</time></trkpt><trkpt lat="44.989572939521985" lon="9.663119625270221"><ele>82.0</ele><time>2026-05-03T07:36:26.995Z</time></trkpt><trkpt lat="44.98936756574465" lon="9.663043708567836"><ele>82.0</ele><time>2026-05-03T07:36:27.995Z</time></trkpt><trkpt lat="44.98916277518663" lon="9.6629621247572"><ele>82.0</ele><time>2026-05-03T07:36:28.995Z</time></trkpt><trkpt lat="44.98895685715376" lon="9.66287473327598"><ele>82.66666666666666</ele><time>2026-05-03T07:36:29.995Z</time></trkpt><trkpt lat="44.988754888225834" lon="9.662778918997166"><ele>83.33333333333333</ele><time>2026-05-03T07:36:30.995Z</time></trkpt><trkpt lat="44.98855980656119" lon="9.662679970920312"><ele>84.0</ele><time>2026-05-03T07:36:31.995Z</time></trkpt><trkpt lat="44.988362376582664" lon="9.662578771316577"><ele>84.33333333333333</ele><time>2026-05-03T07:36:32.995Z</time></trkpt><trkpt lat="44.98816397814186" lon="9.662470853399888"><ele>84.66666666666666</ele><time>2026-05-03T07:36:33.995Z</time></trkpt><trkpt lat="44.987967498338875" lon="9.662364079264169"><ele>85.0</ele><time>2026-05-03T07:36:34.995Z</time></trkpt><trkpt lat="44.987770554085095" lon="9.662261971458639"><ele>85.0</ele><time>2026-05-03T07:36:35.995Z</time></trkpt><trkpt lat="44.9875735672373" lon="9.662161546573593"><ele>85.0</ele><time>2026-05-03T07:36:36.995Z</time></trkpt><trkpt lat="44.9873825603835" lon="9.662053840065003"><ele>85.0</ele><time>2026-05-03T07:36:37.995Z</time></trkpt><trkpt lat="44.987191155612706" lon="9.661949555489743"><ele>85.33333333333333</ele><time>2026-05-03T07:36:38.995Z</time></trkpt><trkpt lat="44.986999631165155" lon="9.661845780741052"><ele>85.66666666666667</ele><time>2026-05-03T07:36:39.995Z</time></trkpt><trkpt lat="44.98680801751005" lon="9.661745280324778"><ele>86.0</ele><time>2026-05-03T07:36:40.995Z</time></trkpt><trkpt lat="44.98661627943126" lon="9.661640248316818"><ele>86.33333333333334</ele><time>2026-05-03T07:36:41.995Z</time></trkpt><trkpt lat="44.98642659339863" lon="9.661536664092575"><ele>86.66666666666667</ele><time>2026-05-03T07:36:42.995Z</time></trkpt><trkpt lat="44.98623595807484" lon="9.661440117146658"><ele>87.0</ele><time>2026-05-03T07:36:43.995Z</time></trkpt><trkpt lat="44.98604211231957" lon="9.661349486214526"><ele>87.0</ele><time>2026-05-03T07:36:44.995Z</time></trkpt><trkpt lat="44.985850109486364" lon="9.661272476180724"><ele>87.0</ele><time>2026-05-03T07:36:45.995Z</time></trkpt><trkpt lat="44.9856556017168" lon="9.661203719464805"><ele>87.0</ele><time>2026-05-03T07:36:46.995Z</time></trkpt><trkpt lat="44.98545959204041" lon="9.66114513277213"><ele>87.33333333333333</ele><time>2026-05-03T07:36:47.995Z</time></trkpt><trkpt lat="44.98526178713878" lon="9.6610914821663"><ele>87.66666666666666</ele><time>2026-05-03T07:36:48.995Z</time></trkpt><trkpt lat="44.985066215607915" lon="9.661035198224745"><ele>88.0</ele><time>2026-05-03T07:36:49.995Z</time></trkpt><trkpt lat="44.984872461698515" lon="9.660977210162752"><ele>88.0</ele><time>2026-05-03T07:36:50.995Z</time></trkpt><trkpt lat="44.98467797141898" lon="9.660918397945583"><ele>88.0</ele><time>2026-05-03T07:36:51.995Z</time></trkpt><trkpt lat="44.98448397195461" lon="9.660861825812514"><ele>88.0</ele><time>2026-05-03T07:36:52.995Z</time></trkpt><trkpt lat="44.9842889743168" lon="9.660808480369802"><ele>87.66666666666666</ele><time>2026-05-03T07:36:53.995Z</time></trkpt><trkpt lat="44.98409179843428" lon="9.660753458837938"><ele>87.33333333333333</ele><time>2026-05-03T07:36:54.995Z</time></trkpt><trkpt lat="44.98389452327302" lon="9.66070135136814"><ele>87.0</ele><time>2026-05-03T07:36:55.995Z</time></trkpt><trkpt lat="44.98369684175172" lon="9.660647866412319"><ele>87.0</ele><time>2026-05-03T07:36:56.995Z</time></trkpt><trkpt lat="44.98350198799501" lon="9.660591306884003"><ele>87.0</ele><time>2026-05-03T07:36:57.995Z</time></trkpt><trkpt lat="44.983306410444975" lon="9.660533908118577"><ele>87.0</ele><time>2026-05-03T07:36:58.995Z</time></trkpt><trkpt lat="44.98311195225556" lon="9.660477503886574"><ele>87.66666666666667</ele><time>2026-05-03T07:36:59.995Z</time></trkpt><trkpt lat="44.98291634857606" lon="9.660426267645665"><ele>88.33333333333334</ele><time>2026-05-03T07:37:00.995Z</time></trkpt><trkpt lat="44.98271917030963" lon="9.660373275645147"><ele>89.0</ele><time>2026-05-03T07:37:01.995Z</time></trkpt><trkpt lat="44.98252643021361" lon="9.6603171602091"><ele>89.0</ele><time>2026-05-03T07:37:02.995Z</time></trkpt><trkpt lat="44.98233305128881" lon="9.660263774203406"><ele>89.0</ele><time>2026-05-03T07:37:03.995Z</time></trkpt><trkpt lat="44.98213667201533" lon="9.660213225683203"><ele>89.0</ele><time>2026-05-03T07:37:04.995Z</time></trkpt><trkpt lat="44.98194009463195" lon="9.660160789954693"><ele>89.0</ele><time>2026-05-03T07:37:05.995Z</time></trkpt><trkpt lat="44.98174339266319" lon="9.660107371925816"><ele>89.0</ele><time>2026-05-03T07:37:06.995Z</time></trkpt><trkpt lat="44.981545625457734" lon="9.660055526658192"><ele>89.0</ele><time>2026-05-03T07:37:07.995Z</time></trkpt><trkpt lat="44.981347294553764" lon="9.660002557876174"><ele>89.0</ele><time>2026-05-03T07:37:08.995Z</time></trkpt><trkpt lat="44.9811515934072" lon="9.659948030001532"><ele>89.0</ele><time>2026-05-03T07:37:09.995Z</time></trkpt><trkpt lat="44.98095641573914" lon="9.65989055175165"><ele>89.0</ele><time>2026-05-03T07:37:10.995Z</time></trkpt><trkpt lat="44.980761649116694" lon="9.659834599528924"><ele>89.0</ele><time>2026-05-03T07:37:11.995Z</time></trkpt><trkpt lat="44.98056747084236" lon="9.659783054511193"><ele>89.0</ele><time>2026-05-03T07:37:12.995Z</time></trkpt><trkpt lat="44.98037010988053" lon="9.659727329084081"><ele>89.0</ele><time>2026-05-03T07:37:13.995Z</time></trkpt><trkpt lat="44.980171779609606" lon="9.659674847307302"><ele>89.0</ele><time>2026-05-03T07:37:14.995Z</time></trkpt><trkpt lat="44.979975798610404" lon="9.65961918857153"><ele>89.0</ele><time>2026-05-03T07:37:15.995Z</time></trkpt><trkpt lat="44.97977522552493" lon="9.659566605288079"><ele>89.0</ele><time>2026-05-03T07:37:16.995Z</time></trkpt><trkpt lat="44.979574475822474" lon="9.659512137530387"><ele>89.0</ele><time>2026-05-03T07:37:17.995Z</time></trkpt><trkpt lat="44.97937381998115" lon="9.659456709934698"><ele>89.0</ele><time>2026-05-03T07:37:18.995Z</time></trkpt><trkpt lat="44.979175433856746" lon="9.659403617719018"><ele>89.0</ele><time>2026-05-03T07:37:19.995Z</time></trkpt><trkpt lat="44.97897718500329" lon="9.65934439619977"><ele>90.0</ele><time>2026-05-03T07:37:20.995Z</time></trkpt><trkpt lat="44.978776576054436" lon="9.659287197831357"><ele>91.0</ele><time>2026-05-03T07:37:21.995Z</time></trkpt><trkpt lat="44.97857614241679" lon="9.65923126763521"><ele>92.0</ele><time>2026-05-03T07:37:22.995Z</time></trkpt><trkpt lat="44.978374507143144" lon="9.65917453770562"><ele>91.33333333333334</ele><time>2026-05-03T07:37:23.995Z</time></trkpt><trkpt lat="44.97817521958058" lon="9.65911962022171"><ele>90.66666666666667</ele><time>2026-05-03T07:37:24.995Z</time></trkpt><trkpt lat="44.977975319620775" lon="9.659067760838116"><ele>90.0</ele><time>2026-05-03T07:37:25.995Z</time></trkpt><trkpt lat="44.97777341523249" lon="9.659015506931908"><ele>90.0</ele><time>2026-05-03T07:37:26.995Z</time></trkpt><trkpt lat="44.97756913424646" lon="9.658963952723619"><ele>90.0</ele><time>2026-05-03T07:37:27.995Z</time></trkpt><trkpt lat="44.97736465805629" lon="9.658909423097949"><ele>90.0</ele><time>2026-05-03T07:37:28.995Z</time></trkpt><trkpt lat="44.977162072198645" lon="9.658856335147876"><ele>90.33333333333333</ele><time>2026-05-03T07:37:29.995Z</time></trkpt><trkpt lat="44.97695847505791" lon="9.65880602678834"><ele>90.66666666666666</ele><time>2026-05-03T07:37:30.995Z</time></trkpt><trkpt lat="44.97675514883735" lon="9.658747794794358"><ele>91.0</ele><time>2026-05-03T07:37:31.995Z</time></trkpt><trkpt lat="44.976547314247185" lon="9.658687720369903"><ele>91.33333333333333</ele><time>2026-05-03T07:37:32.995Z</time></trkpt><trkpt lat="44.97633885655906" lon="9.658626367066104"><ele>91.66666666666667</ele><time>2026-05-03T07:37:33.995Z</time></trkpt><trkpt lat="44.97613602348705" lon="9.65856800133221"><ele>92.0</ele><time>2026-05-03T07:37:34.995Z</time></trkpt><trkpt lat="44.97593519320124" lon="9.658503887674772"><ele>92.33333333333334</ele><time>2026-05-03T07:37:35.995Z</time></trkpt><trkpt lat="44.97573468735467" lon="9.65843237138737"><ele>92.66666666666667</ele><time>2026-05-03T07:37:36.995Z</time></trkpt><trkpt lat="44.97554688455063" lon="9.658356047618973"><ele>93.0</ele><time>2026-05-03T07:37:37.995Z</time></trkpt><trkpt lat="44.97536212689816" lon="9.658283731995287"><ele>93.0</ele><time>2026-05-03T07:37:38.995Z</time></trkpt><trkpt lat="44.975181085792045" lon="9.658203230002627"><ele>93.0</ele><time>2026-05-03T07:37:39.995Z</time></trkpt><trkpt lat="44.97500640682264" lon="9.65811004697894"><ele>93.0</ele><time>2026-05-03T07:37:40.995Z</time></trkpt><trkpt lat="44.97483499973884" lon="9.65802021568815"><ele>93.33333333333333</ele><time>2026-05-03T07:37:41.995Z</time></trkpt><trkpt lat="44.974663177589676" lon="9.657931008078188"><ele>93.66666666666666</ele><time>2026-05-03T07:37:42.995Z</time></trkpt><trkpt lat="44.974486753417175" lon="9.657839238733846"><ele>94.0</ele><time>2026-05-03T07:37:43.995Z</time></trkpt><trkpt lat="44.97431328698056" lon="9.657744192976022"><ele>93.66666666666666</ele><time>2026-05-03T07:37:44.995Z</time></trkpt><trkpt lat="44.974141206353536" lon="9.65765361436726"><ele>93.33333333333333</ele><time>2026-05-03T07:37:45.995Z</time></trkpt><trkpt lat="44.97397019266064" lon="9.657565039549487"><ele>93.0</ele><time>2026-05-03T07:37:46.995Z</time></trkpt><trkpt lat="44.973801919515" lon="9.657477883692156"><ele>93.0</ele><time>2026-05-03T07:37:47.995Z</time></trkpt><trkpt lat="44.97363320221634" lon="9.65738871640843"><ele>93.0</ele><time>2026-05-03T07:37:48.995Z</time></trkpt><trkpt lat="44.973464807000035" lon="9.657301168015906"><ele>93.0</ele><time>2026-05-03T07:37:49.995Z</time></trkpt><trkpt lat="44.973300939085114" lon="9.657212124987918"><ele>93.66666666666667</ele><time>2026-05-03T07:37:50.995Z</time></trkpt><trkpt lat="44.97313379560669" lon="9.657123939811989"><ele>94.33333333333334</ele><time>2026-05-03T07:37:51.995Z</time></trkpt><trkpt lat="44.972965348630986" lon="9.657034515506409"><ele>95.0</ele><time>2026-05-03T07:37:52.995Z</time></trkpt><trkpt lat="44.97279671209337" lon="9.656944992596008"><ele>95.0</ele><time>2026-05-03T07:37:53.995Z</time></trkpt><trkpt lat="44.97262828282436" lon="9.656854649598289"><ele>95.0</ele><time>2026-05-03T07:37:54.995Z</time></trkpt><trkpt lat="44.97245881524126" lon="9.656768066448036"><ele>95.0</ele><time>2026-05-03T07:37:55.995Z</time></trkpt><trkpt lat="44.97228755115908" lon="9.656678205882924"><ele>95.33333333333334</ele><time>2026-05-03T07:37:56.995Z</time></trkpt><trkpt lat="44.972116878776475" lon="9.656588130412338"><ele>95.66666666666667</ele><time>2026-05-03T07:37:57.995Z</time></trkpt><trkpt lat="44.97194441361441" lon="9.656497264848886"><ele>96.0</ele><time>2026-05-03T07:37:58.995Z</time></trkpt><trkpt lat="44.971768255620674" lon="9.656405172474948"><ele>96.33333333333334</ele><time>2026-05-03T07:37:59.995Z</time></trkpt><trkpt lat="44.97159157524964" lon="9.656308025466952"><ele>96.66666666666667</ele><time>2026-05-03T07:38:00.995Z</time></trkpt><trkpt lat="44.971414259647524" lon="9.656214736818287"><ele>97.0</ele><time>2026-05-03T07:38:01.995Z</time></trkpt><trkpt lat="44.9712363739539" lon="9.656121117970514"><ele>96.66666666666667</ele><time>2026-05-03T07:38:02.995Z</time></trkpt><trkpt lat="44.97105213759501" lon="9.656030172510254"><ele>96.33333333333334</ele><time>2026-05-03T07:38:03.995Z</time></trkpt><trkpt lat="44.97086507311592" lon="9.655938962499892"><ele>96.0</ele><time>2026-05-03T07:38:04.995Z</time></trkpt><trkpt lat="44.970679018332476" lon="9.655845779753854"><ele>96.0</ele><time>2026-05-03T07:38:05.995Z</time></trkpt><trkpt lat="44.970490861756865" lon="9.655749171644445"><ele>96.0</ele><time>2026-05-03T07:38:06.995Z</time></trkpt><trkpt lat="44.97030342427352" lon="9.65565466631587"><ele>96.0</ele><time>2026-05-03T07:38:07.995Z</time></trkpt><trkpt lat="44.97011658803862" lon="9.655558286038183"><ele>96.0</ele><time>2026-05-03T07:38:08.995Z</time></trkpt><trkpt lat="44.96992479936202" lon="9.655460639351173"><ele>96.0</ele><time>2026-05-03T07:38:09.995Z</time></trkpt><trkpt lat="44.96973383320073" lon="9.655360050772293"><ele>96.0</ele><time>2026-05-03T07:38:10.995Z</time></trkpt><trkpt lat="44.96954180842669" lon="9.655255180528059"><ele>96.0</ele><time>2026-05-03T07:38:11.994Z</time></trkpt><trkpt lat="44.9693539373123" lon="9.655154856153834"><ele>96.0</ele><time>2026-05-03T07:38:12.994Z</time></trkpt><trkpt lat="44.96916081891664" lon="9.655057226347212"><ele>96.0</ele><time>2026-05-03T07:38:13.994Z</time></trkpt><trkpt lat="44.96896886100335" lon="9.65495333630761"><ele>96.33333333333334</ele><time>2026-05-03T07:38:14.995Z</time></trkpt><trkpt lat="44.96877561420403" lon="9.654853170125723"><ele>96.66666666666667</ele><time>2026-05-03T07:38:15.995Z</time></trkpt><trkpt lat="44.968578887466336" lon="9.654755965891502"><ele>97.0</ele><time>2026-05-03T07:38:16.995Z</time></trkpt><trkpt lat="44.96838302260628" lon="9.654658881426656"><ele>97.0</ele><time>2026-05-03T07:38:17.995Z</time></trkpt><trkpt lat="44.968188801849706" lon="9.654559258118725"><ele>97.0</ele><time>2026-05-03T07:38:18.995Z</time></trkpt><trkpt lat="44.967992157888" lon="9.65445906683017"><ele>97.0</ele><time>2026-05-03T07:38:19.995Z</time></trkpt><trkpt lat="44.9677950078419" lon="9.654356059623534"><ele>97.33333333333334</ele><time>2026-05-03T07:38:20.996Z</time></trkpt><trkpt lat="44.96760004202638" lon="9.654253166077437"><ele>97.66666666666666</ele><time>2026-05-03T07:38:21.995Z</time></trkpt><trkpt lat="44.96740599613096" lon="9.65415371106616"><ele>98.0</ele><time>2026-05-03T07:38:22.995Z</time></trkpt><trkpt lat="44.96720916448834" lon="9.654052184563728"><ele>98.33333333333333</ele><time>2026-05-03T07:38:23.995Z</time></trkpt><trkpt lat="44.96701191537716" lon="9.653954048458901"><ele>98.66666666666666</ele><time>2026-05-03T07:38:24.995Z</time></trkpt><trkpt lat="44.966813038707606" lon="9.653856623795985"><ele>99.0</ele><time>2026-05-03T07:38:25.995Z</time></trkpt><trkpt lat="44.966615697804095" lon="9.653759496747181"><ele>99.0</ele><time>2026-05-03T07:38:26.996Z</time></trkpt><trkpt lat="44.966418006915625" lon="9.653659792081287"><ele>99.0</ele><time>2026-05-03T07:38:27.995Z</time></trkpt><trkpt lat="44.96621909126754" lon="9.653560411968606"><ele>99.0</ele><time>2026-05-03T07:38:28.995Z</time></trkpt><trkpt lat="44.96601820161194" lon="9.653459566376416"><ele>99.33333333333334</ele><time>2026-05-03T07:38:29.995Z</time></trkpt><trkpt lat="44.96581956938125" lon="9.653358431570126"><ele>99.66666666666667</ele><time>2026-05-03T07:38:30.995Z</time></trkpt><trkpt lat="44.96562001810133" lon="9.653259333870704"><ele>100.0</ele><time>2026-05-03T07:38:31.995Z</time></trkpt><trkpt lat="44.96542275688729" lon="9.65315529546703"><ele>100.0</ele><time>2026-05-03T07:38:32.995Z</time></trkpt><trkpt lat="44.96522675496747" lon="9.653046470046782"><ele>100.0</ele><time>2026-05-03T07:38:33.995Z</time></trkpt><trkpt lat="44.965035771633026" lon="9.6529351500231"><ele>100.0</ele><time>2026-05-03T07:38:34.995Z</time></trkpt><trkpt lat="44.964841945729916" lon="9.652823388095145"><ele>100.33333333333334</ele><time>2026-05-03T07:38:35.995Z</time></trkpt><trkpt lat="44.96464680722412" lon="9.652702680270998"><ele>100.66666666666666</ele><time>2026-05-03T07:38:36.995Z</time></trkpt><trkpt lat="44.96445382817521" lon="9.65257478202942"><ele>101.0</ele><time>2026-05-03T07:38:37.995Z</time></trkpt><trkpt lat="44.96426513756826" lon="9.652441470576454"><ele>101.33333333333333</ele><time>2026-05-03T07:38:38.995Z</time></trkpt><trkpt lat="44.96408168473884" lon="9.652305642936291"><ele>101.66666666666666</ele><time>2026-05-03T07:38:39.995Z</time></trkpt><trkpt lat="44.96390128794108" lon="9.652168225561656"><ele>102.0</ele><time>2026-05-03T07:38:40.995Z</time></trkpt><trkpt lat="44.96372170008485" lon="9.652026545073884"><ele>101.66666666666666</ele><time>2026-05-03T07:38:41.995Z</time></trkpt><trkpt lat="44.963539880744655" lon="9.6518802100344"><ele>101.33333333333333</ele><time>2026-05-03T07:38:42.995Z</time></trkpt><trkpt lat="44.96336151330449" lon="9.651739058522212"><ele>101.0</ele><time>2026-05-03T07:38:43.995Z</time></trkpt><trkpt lat="44.96318054291748" lon="9.651595359257708"><ele>101.0</ele><time>2026-05-03T07:38:44.995Z</time></trkpt><trkpt lat="44.96300276071782" lon="9.651451136832856"><ele>101.0</ele><time>2026-05-03T07:38:45.995Z</time></trkpt><trkpt lat="44.9628264222223" lon="9.651307141922812"><ele>101.0</ele><time>2026-05-03T07:38:46.995Z</time></trkpt><trkpt lat="44.96265105525512" lon="9.651163401244963"><ele>101.33333333333333</ele><time>2026-05-03T07:38:47.995Z</time></trkpt><trkpt lat="44.962480648624485" lon="9.651021901517996"><ele>101.66666666666666</ele><time>2026-05-03T07:38:48.995Z</time></trkpt><trkpt lat="44.96230688842656" lon="9.650882727268336"><ele>102.0</ele><time>2026-05-03T07:38:49.995Z</time></trkpt><trkpt lat="44.962130623766264" lon="9.650745447013534"><ele>102.0</ele><time>2026-05-03T07:38:50.995Z</time></trkpt><trkpt lat="44.96195867054167" lon="9.650609192119514"><ele>102.0</ele><time>2026-05-03T07:38:51.995Z</time></trkpt><trkpt lat="44.96178663863114" lon="9.650471269978892"><ele>102.0</ele><time>2026-05-03T07:38:52.995Z</time></trkpt><trkpt lat="44.96161074395621" lon="9.650332248724114"><ele>101.66666666666666</ele><time>2026-05-03T07:38:53.995Z</time></trkpt><trkpt lat="44.96143310667321" lon="9.65019489601745"><ele>101.33333333333333</ele><time>2026-05-03T07:38:54.995Z</time></trkpt><trkpt lat="44.96125583012057" lon="9.650060843254007"><ele>101.0</ele><time>2026-05-03T07:38:55.995Z</time></trkpt><trkpt lat="44.961080432990215" lon="9.649922779012218"><ele>101.0</ele><time>2026-05-03T07:38:56.995Z</time></trkpt><trkpt lat="44.960905445301435" lon="9.649789464722119"><ele>101.0</ele><time>2026-05-03T07:38:57.995Z</time></trkpt><trkpt lat="44.960729971016946" lon="9.64965375670849"><ele>101.0</ele><time>2026-05-03T07:38:58.995Z</time></trkpt><trkpt lat="44.96055414083258" lon="9.649515354632577"><ele>101.33333333333333</ele><time>2026-05-03T07:38:59.995Z</time></trkpt><trkpt lat="44.960377647784576" lon="9.649376615723863"><ele>101.66666666666666</ele><time>2026-05-03T07:39:00.995Z</time></trkpt><trkpt lat="44.96020031797984" lon="9.649237170817093"><ele>102.0</ele><time>2026-05-03T07:39:01.995Z</time></trkpt><trkpt lat="44.96002218831625" lon="9.649091132921187"><ele>102.66666666666666</ele><time>2026-05-03T07:39:02.995Z</time></trkpt><trkpt lat="44.95984671338423" lon="9.64894377136649"><ele>103.33333333333333</ele><time>2026-05-03T07:39:03.995Z</time></trkpt><trkpt lat="44.95966994698396" lon="9.648796022888952"><ele>104.0</ele><time>2026-05-03T07:39:04.995Z</time></trkpt><trkpt lat="44.95949139912109" lon="9.648651540082943"><ele>104.0</ele><time>2026-05-03T07:39:05.995Z</time></trkpt><trkpt lat="44.95930887366012" lon="9.648509024084847"><ele>104.0</ele><time>2026-05-03T07:39:06.995Z</time></trkpt><trkpt lat="44.95912499450938" lon="9.648366589512646"><ele>104.0</ele><time>2026-05-03T07:39:07.995Z</time></trkpt><trkpt lat="44.95893934090388" lon="9.648220996526842"><ele>104.33333333333333</ele><time>2026-05-03T07:39:08.995Z</time></trkpt><trkpt lat="44.958755433368786" lon="9.648072692467142"><ele>104.66666666666666</ele><time>2026-05-03T07:39:09.995Z</time></trkpt><trkpt lat="44.95857024966224" lon="9.64792918055477"><ele>105.0</ele><time>2026-05-03T07:39:10.995Z</time></trkpt><trkpt lat="44.95838594493157" lon="9.647782457424032"><ele>105.0</ele><time>2026-05-03T07:39:11.995Z</time></trkpt><trkpt lat="44.95820678619052" lon="9.64763743402983"><ele>105.0</ele><time>2026-05-03T07:39:12.995Z</time></trkpt><trkpt lat="44.95802768722021" lon="9.647495402086232"><ele>105.0</ele><time>2026-05-03T07:39:13.995Z</time></trkpt><trkpt lat="44.957849227929124" lon="9.647354742315791"><ele>105.0</ele><time>2026-05-03T07:39:14.995Z</time></trkpt><trkpt lat="44.957670213832216" lon="9.647213260848138"><ele>105.0</ele><time>2026-05-03T07:39:15.995Z</time></trkpt><trkpt lat="44.9574912194049" lon="9.64707222464096"><ele>105.0</ele><time>2026-05-03T07:39:16.995Z</time></trkpt><trkpt lat="44.95731167974108" lon="9.646934859039114"><ele>105.66666666666666</ele><time>2026-05-03T07:39:17.995Z</time></trkpt><trkpt lat="44.957134964113436" lon="9.646799869719008"><ele>106.33333333333333</ele><time>2026-05-03T07:39:18.995Z</time></trkpt><trkpt lat="44.956955810483166" lon="9.646657192386009"><ele>107.0</ele><time>2026-05-03T07:39:19.995Z</time></trkpt><trkpt lat="44.956784973849686" lon="9.646510341923769"><ele>107.0</ele><time>2026-05-03T07:39:20.995Z</time></trkpt><trkpt lat="44.95661386350818" lon="9.64636079603996"><ele>107.0</ele><time>2026-05-03T07:39:21.995Z</time></trkpt><trkpt lat="44.95644612715191" lon="9.646202426658053"><ele>107.0</ele><time>2026-05-03T07:39:22.995Z</time></trkpt><trkpt lat="44.956280379769176" lon="9.64604283422682"><ele>107.0</ele><time>2026-05-03T07:39:23.995Z</time></trkpt><trkpt lat="44.95611691934397" lon="9.645874964031853"><ele>107.0</ele><time>2026-05-03T07:39:24.995Z</time></trkpt><trkpt lat="44.95595454416824" lon="9.645698670166889"><ele>107.0</ele><time>2026-05-03T07:39:25.995Z</time></trkpt><trkpt lat="44.95579673036544" lon="9.645519613442055"><ele>107.66666666666666</ele><time>2026-05-03T07:39:26.995Z</time></trkpt><trkpt lat="44.95564400759363" lon="9.645343222689466"><ele>108.33333333333334</ele><time>2026-05-03T07:39:27.995Z</time></trkpt><trkpt lat="44.955491796066255" lon="9.645153452781823"><ele>109.0</ele><time>2026-05-03T07:39:28.995Z</time></trkpt><trkpt lat="44.95534021100905" lon="9.644959210226968"><ele>109.33333333333334</ele><time>2026-05-03T07:39:29.995Z</time></trkpt><trkpt lat="44.95518969128962" lon="9.644761001271139"><ele>109.66666666666666</ele><time>2026-05-03T07:39:30.995Z</time></trkpt><trkpt lat="44.955039098929575" lon="9.644563344346464"><ele>110.0</ele><time>2026-05-03T07:39:31.995Z</time></trkpt><trkpt lat="44.95489032047624" lon="9.64436481723324"><ele>110.0</ele><time>2026-05-03T07:39:32.995Z</time></trkpt><trkpt lat="44.954737846845745" lon="9.644167064085691"><ele>110.0</ele><time>2026-05-03T07:39:33.995Z</time></trkpt><trkpt lat="44.95458400955729" lon="9.643968669567544"><ele>110.0</ele><time>2026-05-03T07:39:34.995Z</time></trkpt><trkpt lat="44.95443209289781" lon="9.643773516464629"><ele>110.0</ele><time>2026-05-03T07:39:35.995Z</time></trkpt><trkpt lat="44.9542798531178" lon="9.64357274390881"><ele>110.0</ele><time>2026-05-03T07:39:36.995Z</time></trkpt><trkpt lat="44.95412470304697" lon="9.643377351005345"><ele>110.0</ele><time>2026-05-03T07:39:37.995Z</time></trkpt><trkpt lat="44.95397182067606" lon="9.643176316561783"><ele>111.0</ele><time>2026-05-03T07:39:38.995Z</time></trkpt><trkpt lat="44.95381741643235" lon="9.642971508234618"><ele>112.0</ele><time>2026-05-03T07:39:39.995Z</time></trkpt><trkpt lat="44.953664172970015" lon="9.642770056554388"><ele>113.0</ele><time>2026-05-03T07:39:40.995Z</time></trkpt><trkpt lat="44.95350778469913" lon="9.642567958278825"><ele>113.33333333333333</ele><time>2026-05-03T07:39:41.995Z</time></trkpt><trkpt lat="44.95335250083793" lon="9.64237102026907"><ele>113.66666666666666</ele><time>2026-05-03T07:39:42.995Z</time></trkpt><trkpt lat="44.9531949179196" lon="9.642177574785526"><ele>114.0</ele><time>2026-05-03T07:39:43.995Z</time></trkpt><trkpt lat="44.95303264350798" lon="9.641984798449645"><ele>113.66666666666666</ele><time>2026-05-03T07:39:44.995Z</time></trkpt><trkpt lat="44.95286902852383" lon="9.641791194756243"><ele>113.33333333333333</ele><time>2026-05-03T07:39:45.995Z</time></trkpt><trkpt lat="44.952705752192905" lon="9.641603147379735"><ele>113.0</ele><time>2026-05-03T07:39:46.995Z</time></trkpt><trkpt lat="44.95254791662298" lon="9.64142460350691"><ele>113.33333333333333</ele><time>2026-05-03T07:39:47.995Z</time></trkpt><trkpt lat="44.95239561576381" lon="9.641252120593396"><ele>113.66666666666666</ele><time>2026-05-03T07:39:48.995Z</time></trkpt><trkpt lat="44.952242337494496" lon="9.641082668350492"><ele>114.0</ele><time>2026-05-03T07:39:49.995Z</time></trkpt><trkpt lat="44.95208787716214" lon="9.640923364016912"><ele>114.0</ele><time>2026-05-03T07:39:50.995Z</time></trkpt><trkpt lat="44.95194521304915" lon="9.640771668947512"><ele>114.0</ele><time>2026-05-03T07:39:51.995Z</time></trkpt><trkpt lat="44.95180807061247" lon="9.640633043454361"><ele>114.0</ele><time>2026-05-03T07:39:52.995Z</time></trkpt><trkpt lat="44.951678296209415" lon="9.640501612472423"><ele>114.0</ele><time>2026-05-03T07:39:53.995Z</time></trkpt><trkpt lat="44.951549327578036" lon="9.640381746646428"><ele>114.0</ele><time>2026-05-03T07:39:54.995Z</time></trkpt><trkpt lat="44.95141827538094" lon="9.640266709285232"><ele>114.0</ele><time>2026-05-03T07:39:55.995Z</time></trkpt><trkpt lat="44.951289859008774" lon="9.640149189219219"><ele>114.0</ele><time>2026-05-03T07:39:56.995Z</time></trkpt><trkpt lat="44.951159855501736" lon="9.640031548549477"><ele>114.0</ele><time>2026-05-03T07:39:57.995Z</time></trkpt><trkpt lat="44.95103033206647" lon="9.639912810610731"><ele>114.0</ele><time>2026-05-03T07:39:58.995Z</time></trkpt><trkpt lat="44.950894914336324" lon="9.63979429889178"><ele>114.66666666666666</ele><time>2026-05-03T07:39:59.995Z</time></trkpt><trkpt lat="44.95076241449371" lon="9.639680650136489"><ele>115.33333333333333</ele><time>2026-05-03T07:40:00.995Z</time></trkpt><trkpt lat="44.950626893652945" lon="9.639568507112813"><ele>116.0</ele><time>2026-05-03T07:40:01.995Z</time></trkpt><trkpt lat="44.95048719864204" lon="9.639453637151961"><ele>116.33333333333333</ele><time>2026-05-03T07:40:02.995Z</time></trkpt><trkpt lat="44.95033893062836" lon="9.639344619913986"><ele>116.66666666666666</ele><time>2026-05-03T07:40:03.995Z</time></trkpt><trkpt lat="44.950193470097574" lon="9.639226317071342"><ele>117.0</ele><time>2026-05-03T07:40:04.995Z</time></trkpt><trkpt lat="44.95004866967056" lon="9.639109608730227"><ele>117.33333333333334</ele><time>2026-05-03T07:40:05.995Z</time></trkpt><trkpt lat="44.94990092048109" lon="9.638996477823257"><ele>117.66666666666667</ele><time>2026-05-03T07:40:06.995Z</time></trkpt><trkpt lat="44.949757900905034" lon="9.638891841818507"><ele>118.0</ele><time>2026-05-03T07:40:07.995Z</time></trkpt><trkpt lat="44.94961986392143" lon="9.638790546697853"><ele>118.0</ele><time>2026-05-03T07:40:08.995Z</time></trkpt><trkpt lat="44.94949213134412" lon="9.638693170001725"><ele>118.0</ele><time>2026-05-03T07:40:09.995Z</time></trkpt><trkpt lat="44.949370576397136" lon="9.6386057564807"><ele>118.0</ele><time>2026-05-03T07:40:10.995Z</time></trkpt><trkpt lat="44.94925682157903" lon="9.638524051346964"><ele>118.0</ele><time>2026-05-03T07:40:11.995Z</time></trkpt><trkpt lat="44.94914074747266" lon="9.638441408407836"><ele>118.25</ele><time>2026-05-03T07:40:12.995Z</time></trkpt><trkpt lat="44.94903268892738" lon="9.638359776477394"><ele>118.5</ele><time>2026-05-03T07:40:13.995Z</time></trkpt><trkpt lat="44.94892891946658" lon="9.638283827974957"><ele>118.75</ele><time>2026-05-03T07:40:14.995Z</time></trkpt><trkpt lat="44.94883125251315" lon="9.638211808401959"><ele>119.0</ele><time>2026-05-03T07:40:15.995Z</time></trkpt><trkpt lat="44.94874140649693" lon="9.638148176265801"><ele>119.0</ele><time>2026-05-03T07:40:16.995Z</time></trkpt><trkpt lat="44.948658178453904" lon="9.638088389914046"><ele>119.0</ele><time>2026-05-03T07:40:17.994Z</time></trkpt><trkpt lat="44.94857685330649" lon="9.63802916918639"><ele>119.0</ele><time>2026-05-03T07:40:18.994Z</time></trkpt><trkpt lat="44.94848782761686" lon="9.637966525843332"><ele>119.0</ele><time>2026-05-03T07:40:19.994Z</time></trkpt><trkpt lat="44.94839026268597" lon="9.637903223236554"><ele>119.0</ele><time>2026-05-03T07:40:20.996Z</time></trkpt><trkpt lat="44.94829304522355" lon="9.637834870526534"><ele>119.0</ele><time>2026-05-03T07:40:21.995Z</time></trkpt><trkpt lat="44.94819382529271" lon="9.637765451570827"><ele>119.0</ele><time>2026-05-03T07:40:22.995Z</time></trkpt><trkpt lat="44.94809167729672" lon="9.637693512748609"><ele>119.0</ele><time>2026-05-03T07:40:23.995Z</time></trkpt><trkpt lat="44.94799002699086" lon="9.637623995333387"><ele>119.0</ele><time>2026-05-03T07:40:24.995Z</time></trkpt><trkpt lat="44.94788826936204" lon="9.63755278127219"><ele>119.0</ele><time>2026-05-03T07:40:25.995Z</time></trkpt><trkpt lat="44.94778820195653" lon="9.63747986296984"><ele>119.0</ele><time>2026-05-03T07:40:26.995Z</time></trkpt><trkpt lat="44.947685306288555" lon="9.637403294674078"><ele>119.0</ele><time>2026-05-03T07:40:27.995Z</time></trkpt><trkpt lat="44.94757699107514" lon="9.637321175441771"><ele>119.0</ele><time>2026-05-03T07:40:28.995Z</time></trkpt><trkpt lat="44.94747018443383" lon="9.63724252341961"><ele>119.0</ele><time>2026-05-03T07:40:29.995Z</time></trkpt><trkpt lat="44.94736857024854" lon="9.637169850981625"><ele>119.0</ele><time>2026-05-03T07:40:30.995Z</time></trkpt><trkpt lat="44.94726674711968" lon="9.637099240510754"><ele>119.0</ele><time>2026-05-03T07:40:31.995Z</time></trkpt><trkpt lat="44.94715947004445" lon="9.637026034773811"><ele>119.0</ele><time>2026-05-03T07:40:32.996Z</time></trkpt><trkpt lat="44.94704889004" lon="9.63694601030785"><ele>119.0</ele><time>2026-05-03T07:40:33.995Z</time></trkpt><trkpt lat="44.94692952810081" lon="9.636864557818134"><ele>119.0</ele><time>2026-05-03T07:40:34.995Z</time></trkpt><trkpt lat="44.94680461445207" lon="9.63677790303064"><ele>119.0</ele><time>2026-05-03T07:40:35.995Z</time></trkpt><trkpt lat="44.94667427324745" lon="9.636687130259729"><ele>119.0</ele><time>2026-05-03T07:40:36.995Z</time></trkpt><trkpt lat="44.946538046451835" lon="9.636589809656767"><ele>120.0</ele><time>2026-05-03T07:40:37.995Z</time></trkpt><trkpt lat="44.946400917008134" lon="9.6364924798686"><ele>121.0</ele><time>2026-05-03T07:40:38.995Z</time></trkpt><trkpt lat="44.946261260220076" lon="9.636394737641764"><ele>122.0</ele><time>2026-05-03T07:40:39.995Z</time></trkpt><trkpt lat="44.94611829317118" lon="9.636296289803324"><ele>122.0</ele><time>2026-05-03T07:40:40.995Z</time></trkpt><trkpt lat="44.945975557616386" lon="9.636198104565239"><ele>122.0</ele><time>2026-05-03T07:40:41.995Z</time></trkpt><trkpt lat="44.94583424818199" lon="9.636098062102787"><ele>122.0</ele><time>2026-05-03T07:40:42.995Z</time></trkpt><trkpt lat="44.94569008594017" lon="9.635998382936082"><ele>121.75</ele><time>2026-05-03T07:40:43.995Z</time></trkpt><trkpt lat="44.945550243093116" lon="9.635900961724332"><ele>121.5</ele><time>2026-05-03T07:40:44.995Z</time></trkpt><trkpt lat="44.94541668466361" lon="9.63580740985669"><ele>121.25</ele><time>2026-05-03T07:40:45.995Z</time></trkpt><trkpt lat="44.945289845942135" lon="9.635715731628993"><ele>121.0</ele><time>2026-05-03T07:40:46.995Z</time></trkpt><trkpt lat="44.945164832847475" lon="9.635626122133006"><ele>121.0</ele><time>2026-05-03T07:40:47.995Z</time></trkpt><trkpt lat="44.94503539499467" lon="9.635535447092044"><ele>121.0</ele><time>2026-05-03T07:40:48.995Z</time></trkpt><trkpt lat="44.94490128052424" lon="9.635444891657135"><ele>121.0</ele><time>2026-05-03T07:40:49.995Z</time></trkpt><trkpt lat="44.94477059938934" lon="9.635353351281852"><ele>121.0</ele><time>2026-05-03T07:40:50.995Z</time></trkpt><trkpt lat="44.9446447389269" lon="9.63526426366895"><ele>121.0</ele><time>2026-05-03T07:40:51.995Z</time></trkpt><trkpt lat="44.94452263545445" lon="9.63517872789554"><ele>121.0</ele><time>2026-05-03T07:40:52.995Z</time></trkpt><trkpt lat="44.94440640973005" lon="9.635094663628559"><ele>121.0</ele><time>2026-05-03T07:40:53.995Z</time></trkpt><trkpt lat="44.944296814467485" lon="9.635013363966312"><ele>121.0</ele><time>2026-05-03T07:40:54.995Z</time></trkpt><trkpt lat="44.94418489257793" lon="9.634935694943234"><ele>120.75</ele><time>2026-05-03T07:40:55.995Z</time></trkpt><trkpt lat="44.944070751015325" lon="9.634856813288385"><ele>120.5</ele><time>2026-05-03T07:40:56.995Z</time></trkpt><trkpt lat="44.94395381809221" lon="9.634773325424469"><ele>120.25</ele><time>2026-05-03T07:40:57.995Z</time></trkpt><trkpt lat="44.94384060774935" lon="9.634693186308247"><ele>120.0</ele><time>2026-05-03T07:40:58.995Z</time></trkpt><trkpt lat="44.943727074711916" lon="9.63461091128265"><ele>120.0</ele><time>2026-05-03T07:40:59.995Z</time></trkpt><trkpt lat="44.943615400972355" lon="9.63452923733671"><ele>120.0</ele><time>2026-05-03T07:41:00.995Z</time></trkpt><trkpt lat="44.943511931511736" lon="9.634451885745255"><ele>120.0</ele><time>2026-05-03T07:41:01.995Z</time></trkpt><trkpt lat="44.94341389062169" lon="9.634379245329256"><ele>120.0</ele><time>2026-05-03T07:41:02.995Z</time></trkpt><trkpt lat="44.94331863963629" lon="9.634301766664656"><ele>120.2</ele><time>2026-05-03T07:41:03.995Z</time></trkpt><trkpt lat="44.943224199840856" lon="9.634219121889792"><ele>120.4</ele><time>2026-05-03T07:41:04.995Z</time></trkpt><trkpt lat="44.94313288932715" lon="9.63413810623198"><ele>120.6</ele><time>2026-05-03T07:41:05.995Z</time></trkpt><trkpt lat="44.94303904173676" lon="9.634046090487292"><ele>120.8</ele><time>2026-05-03T07:41:06.995Z</time></trkpt><trkpt lat="44.94294882861446" lon="9.633957567548478"><ele>121.0</ele><time>2026-05-03T07:41:07.995Z</time></trkpt><trkpt lat="44.94286544209871" lon="9.633876815583863"><ele>121.0</ele><time>2026-05-03T07:41:08.995Z</time></trkpt><trkpt lat="44.942789412684846" lon="9.63380492050472"><ele>121.0</ele><time>2026-05-03T07:41:09.995Z</time></trkpt><trkpt lat="44.94271840112718" lon="9.633735142348717"><ele>121.0</ele><time>2026-05-03T07:41:10.995Z</time></trkpt><trkpt lat="44.942644838038966" lon="9.63366558491002"><ele>121.0</ele><time>2026-05-03T07:41:11.995Z</time></trkpt><trkpt lat="44.942565986062526" lon="9.633588124115668"><ele>121.0</ele><time>2026-05-03T07:41:12.995Z</time></trkpt><trkpt lat="44.94248299670903" lon="9.633497919630873"><ele>121.4</ele><time>2026-05-03T07:41:13.995Z</time></trkpt><trkpt lat="44.94239381037718" lon="9.633405805584118"><ele>121.8</ele><time>2026-05-03T07:41:14.995Z</time></trkpt><trkpt lat="44.942306486496285" lon="9.633314539239402"><ele>122.20000000000002</ele><time>2026-05-03T07:41:15.995Z</time></trkpt><trkpt lat="44.94221512275914" lon="9.63322377460218"><ele>122.60000000000001</ele><time>2026-05-03T07:41:16.995Z</time></trkpt><trkpt lat="44.9421264669506" lon="9.633135376634904"><ele>123.0</ele><time>2026-05-03T07:41:17.995Z</time></trkpt><trkpt lat="44.94204288511148" lon="9.633051729977796"><ele>123.0</ele><time>2026-05-03T07:41:18.995Z</time></trkpt><trkpt lat="44.94195620286566" lon="9.632965191777796"><ele>123.0</ele><time>2026-05-03T07:41:19.995Z</time></trkpt><trkpt lat="44.941867004700875" lon="9.632875091884248"><ele>123.0</ele><time>2026-05-03T07:41:20.994Z</time></trkpt><trkpt lat="44.941772969910296" lon="9.632778246239377"><ele>123.0</ele><time>2026-05-03T07:41:21.994Z</time></trkpt><trkpt lat="44.9416703119127" lon="9.63267286912551"><ele>123.75</ele><time>2026-05-03T07:41:22.994Z</time></trkpt><trkpt lat="44.94156521805207" lon="9.632566065629403"><ele>124.5</ele><time>2026-05-03T07:41:23.994Z</time></trkpt><trkpt lat="44.94145664251756" lon="9.63246072700725"><ele>125.25</ele><time>2026-05-03T07:41:24.994Z</time></trkpt><trkpt lat="44.94135196610306" lon="9.632357094907428"><ele>126.0</ele><time>2026-05-03T07:41:25.994Z</time></trkpt><trkpt lat="44.94124518906051" lon="9.632252429561927"><ele>126.0</ele><time>2026-05-03T07:41:26.994Z</time></trkpt><trkpt lat="44.941135529867246" lon="9.632146327768716"><ele>126.0</ele><time>2026-05-03T07:41:27.994Z</time></trkpt><trkpt lat="44.94102642809469" lon="9.632039201729683"><ele>126.0</ele><time>2026-05-03T07:41:28.994Z</time></trkpt><trkpt lat="44.94091286754543" lon="9.631922781063569"><ele>126.0</ele><time>2026-05-03T07:41:29.994Z</time></trkpt><trkpt lat="44.9407917065977" lon="9.631795202108458"><ele>126.0</ele><time>2026-05-03T07:41:30.994Z</time></trkpt><trkpt lat="44.94066816299741" lon="9.631654728130856"><ele>126.0</ele><time>2026-05-03T07:41:31.994Z</time></trkpt><trkpt lat="44.94054074198464" lon="9.63150751933355"><ele>126.0</ele><time>2026-05-03T07:41:32.994Z</time></trkpt><trkpt lat="44.940401609051136" lon="9.631334082684658"><ele>126.0</ele><time>2026-05-03T07:41:33.994Z</time></trkpt><trkpt lat="44.94026053277421" lon="9.631155301866354"><ele>126.0</ele><time>2026-05-03T07:41:34.994Z</time></trkpt><trkpt lat="44.940126079385685" lon="9.630975374539796"><ele>126.0</ele><time>2026-05-03T07:41:35.994Z</time></trkpt><trkpt lat="44.94000211231806" lon="9.630797714820913"><ele>127.33333333333334</ele><time>2026-05-03T07:41:36.994Z</time></trkpt><trkpt lat="44.93988882727512" lon="9.63063034776172"><ele>128.66666666666669</ele><time>2026-05-03T07:41:37.994Z</time></trkpt><trkpt lat="44.93977550816077" lon="9.630463254368609"><ele>130.0</ele><time>2026-05-03T07:41:38.994Z</time></trkpt><trkpt lat="44.939660788892716" lon="9.630296339984998"><ele>130.0</ele><time>2026-05-03T07:41:39.994Z</time></trkpt><trkpt lat="44.939551993240194" lon="9.630125491596429"><ele>130.0</ele><time>2026-05-03T07:41:40.994Z</time></trkpt><trkpt lat="44.93944262387387" lon="9.62995017500448"><ele>130.0</ele><time>2026-05-03T07:41:41.994Z</time></trkpt><trkpt lat="44.939329067630986" lon="9.629765212357487"><ele>130.33333333333334</ele><time>2026-05-03T07:41:42.994Z</time></trkpt><trkpt lat="44.93921057726229" lon="9.629570303134134"><ele>130.66666666666666</ele><time>2026-05-03T07:41:43.994Z</time></trkpt><trkpt lat="44.939082639439846" lon="9.629368632979345"><ele>131.0</ele><time>2026-05-03T07:41:44.994Z</time></trkpt><trkpt lat="44.93895827829891" lon="9.629165763374708"><ele>131.0</ele><time>2026-05-03T07:41:45.994Z</time></trkpt><trkpt lat="44.93882679827335" lon="9.628952325741444"><ele>131.0</ele><time>2026-05-03T07:41:46.994Z</time></trkpt><trkpt lat="44.93867824475028" lon="9.628736958404806"><ele>131.0</ele><time>2026-05-03T07:41:47.994Z</time></trkpt><trkpt lat="44.938516879295484" lon="9.628529334677792"><ele>131.33333333333331</ele><time>2026-05-03T07:41:48.994Z</time></trkpt><trkpt lat="44.93835418382467" lon="9.62833011733914"><ele>131.66666666666666</ele><time>2026-05-03T07:41:49.994Z</time></trkpt><trkpt lat="44.93818781409273" lon="9.628137259496258"><ele>132.0</ele><time>2026-05-03T07:41:50.994Z</time></trkpt><trkpt lat="44.9380188095923" lon="9.627952111594746"><ele>132.0</ele><time>2026-05-03T07:41:51.994Z</time></trkpt><trkpt lat="44.93784915341453" lon="9.627770806514674"><ele>132.0</ele><time>2026-05-03T07:41:52.994Z</time></trkpt><trkpt lat="44.93770251714919" lon="9.627569006039213"><ele>132.0</ele><time>2026-05-03T07:41:53.994Z</time></trkpt><trkpt lat="44.93753019541118" lon="9.627388593972821"><ele>132.0</ele><time>2026-05-03T07:41:54.994Z</time></trkpt><trkpt lat="44.93735865938291" lon="9.62720657206615"><ele>132.0</ele><time>2026-05-03T07:41:55.994Z</time></trkpt><trkpt lat="44.93718940489393" lon="9.627019448483372"><ele>132.0</ele><time>2026-05-03T07:41:56.994Z</time></trkpt><trkpt lat="44.9370176585236" lon="9.626849903461459"><ele>132.0</ele><time>2026-05-03T07:41:57.994Z</time></trkpt><trkpt lat="44.93686381554237" lon="9.62668772015793"><ele>132.0</ele><time>2026-05-03T07:41:58.994Z</time></trkpt><trkpt lat="44.936713950713916" lon="9.626530584139038"><ele>132.0</ele><time>2026-05-03T07:41:59.994Z</time></trkpt><trkpt lat="44.93657181145348" lon="9.62638367885257"><ele>133.0</ele><time>2026-05-03T07:42:00.994Z</time></trkpt><trkpt lat="44.93642961991158" lon="9.626238652294916"><ele>134.0</ele><time>2026-05-03T07:42:01.994Z</time></trkpt><trkpt lat="44.9362942398323" lon="9.626098335483787"><ele>135.0</ele><time>2026-05-03T07:42:02.994Z</time></trkpt><trkpt lat="44.93616602705781" lon="9.625963762709004"><ele>135.0</ele><time>2026-05-03T07:42:03.994Z</time></trkpt><trkpt lat="44.936037643602205" lon="9.62583265399357"><ele>135.0</ele><time>2026-05-03T07:42:04.994Z</time></trkpt><trkpt lat="44.935907436946394" lon="9.625704846351947"><ele>135.0</ele><time>2026-05-03T07:42:05.994Z</time></trkpt><trkpt lat="44.93578179792321" lon="9.62557721618283"><ele>134.75</ele><time>2026-05-03T07:42:06.994Z</time></trkpt><trkpt lat="44.93567148265225" lon="9.625451620709821"><ele>134.5</ele><time>2026-05-03T07:42:07.994Z</time></trkpt><trkpt lat="44.93556691435571" lon="9.62533794256878"><ele>134.25</ele><time>2026-05-03T07:42:08.994Z</time></trkpt><trkpt lat="44.93546102892937" lon="9.625220651378635"><ele>134.0</ele><time>2026-05-03T07:42:09.994Z</time></trkpt><trkpt lat="44.93534330888604" lon="9.6251010927364"><ele>134.0</ele><time>2026-05-03T07:42:10.994Z</time></trkpt><trkpt lat="44.93522471605562" lon="9.624976360039815"><ele>134.0</ele><time>2026-05-03T07:42:11.994Z</time></trkpt><trkpt lat="44.93510025341331" lon="9.624846184855732"><ele>134.0</ele><time>2026-05-03T07:42:12.994Z</time></trkpt><trkpt lat="44.93496655186807" lon="9.62470569936333"><ele>133.66666666666666</ele><time>2026-05-03T07:42:13.994Z</time></trkpt><trkpt lat="44.93482030526078" lon="9.624555021514153"><ele>133.33333333333334</ele><time>2026-05-03T07:42:14.994Z</time></trkpt><trkpt lat="44.93466076242977" lon="9.6243805582134"><ele>133.0</ele><time>2026-05-03T07:42:15.994Z</time></trkpt><trkpt lat="44.93448168714852" lon="9.624191319433624"><ele>133.5</ele><time>2026-05-03T07:42:16.994Z</time></trkpt><trkpt lat="44.93430992144583" lon="9.623974216806065"><ele>134.0</ele><time>2026-05-03T07:42:17.994Z</time></trkpt><trkpt lat="44.934126261928455" lon="9.623767044447279"><ele>133.0</ele><time>2026-05-03T07:42:18.994Z</time></trkpt><trkpt lat="44.93393243829097" lon="9.623549053682812"><ele>132.0</ele><time>2026-05-03T07:42:19.994Z</time></trkpt><trkpt lat="44.9337407987056" lon="9.623333790206072"><ele>132.0</ele><time>2026-05-03T07:42:20.994Z</time></trkpt><trkpt lat="44.93354933542735" lon="9.623120316706819"><ele>132.0</ele><time>2026-05-03T07:42:21.994Z</time></trkpt><trkpt lat="44.93335423814242" lon="9.622900006481638"><ele>133.5</ele><time>2026-05-03T07:42:22.994Z</time></trkpt><trkpt lat="44.933159416644415" lon="9.622680093422645"><ele>135.0</ele><time>2026-05-03T07:42:23.994Z</time></trkpt><trkpt lat="44.93295510271775" lon="9.62247467864015"><ele>135.0</ele><time>2026-05-03T07:42:24.994Z</time></trkpt><trkpt lat="44.93276725540405" lon="9.622250076749413"><ele>135.0</ele><time>2026-05-03T07:42:25.994Z</time></trkpt><trkpt lat="44.93257975355806" lon="9.622028768764611"><ele>135.0</ele><time>2026-05-03T07:42:26.995Z</time></trkpt><trkpt lat="44.93238898633627" lon="9.621814471120521"><ele>135.0</ele><time>2026-05-03T07:42:27.995Z</time></trkpt><trkpt lat="44.93219756830035" lon="9.621602517133914"><ele>135.0</ele><time>2026-05-03T07:42:28.995Z</time></trkpt><trkpt lat="44.932010935751315" lon="9.621393838500563"><ele>135.0</ele><time>2026-05-03T07:42:29.995Z</time></trkpt><trkpt lat="44.93182258896853" lon="9.621184981562926"><ele>134.5</ele><time>2026-05-03T07:42:30.996Z</time></trkpt><trkpt lat="44.931637868925634" lon="9.620973984475437"><ele>134.0</ele><time>2026-05-03T07:42:31.996Z</time></trkpt><trkpt lat="44.9314488541683" lon="9.620759201221944"><ele>134.0</ele><time>2026-05-03T07:42:32.995Z</time></trkpt><trkpt lat="44.93126299935828" lon="9.620540866600017"><ele>134.0</ele><time>2026-05-03T07:42:33.995Z</time></trkpt><trkpt lat="44.93107270227984" lon="9.620326873190683"><ele>135.0</ele><time>2026-05-03T07:42:34.995Z</time></trkpt><trkpt lat="44.93088366087359" lon="9.620120854922206"><ele>136.0</ele><time>2026-05-03T07:42:35.995Z</time></trkpt><trkpt lat="44.93069500862811" lon="9.619919465553348"><ele>136.0</ele><time>2026-05-03T07:42:36.995Z</time></trkpt><trkpt lat="44.930506476781076" lon="9.619723100838103"><ele>136.0</ele><time>2026-05-03T07:42:37.995Z</time></trkpt><trkpt lat="44.93032193826118" lon="9.619539958728105"><ele>135.33333333333334</ele><time>2026-05-03T07:42:38.996Z</time></trkpt><trkpt lat="44.930139082565006" lon="9.619372076232588"><ele>134.66666666666666</ele><time>2026-05-03T07:42:39.995Z</time></trkpt><trkpt lat="44.92996231469726" lon="9.619206030730995"><ele>134.0</ele><time>2026-05-03T07:42:40.995Z</time></trkpt><trkpt lat="44.929800031330835" lon="9.61904140252897"><ele>134.0</ele><time>2026-05-03T07:42:41.995Z</time></trkpt><trkpt lat="44.92966479096654" lon="9.618860078552196"><ele>134.0</ele><time>2026-05-03T07:42:42.995Z</time></trkpt><trkpt lat="44.929508483866435" lon="9.618703765438712"><ele>134.0</ele><time>2026-05-03T07:42:43.995Z</time></trkpt><trkpt lat="44.92935652471582" lon="9.618542491320252"><ele>134.66666666666666</ele><time>2026-05-03T07:42:44.995Z</time></trkpt><trkpt lat="44.92920265434672" lon="9.61837483214819"><ele>135.33333333333334</ele><time>2026-05-03T07:42:45.995Z</time></trkpt><trkpt lat="44.92904300003144" lon="9.618209713199018"><ele>136.0</ele><time>2026-05-03T07:42:46.995Z</time></trkpt><trkpt lat="44.92888059230778" lon="9.61804566839483"><ele>136.0</ele><time>2026-05-03T07:42:47.995Z</time></trkpt><trkpt lat="44.92871788459233" lon="9.617882519315545"><ele>136.0</ele><time>2026-05-03T07:42:48.995Z</time></trkpt><trkpt lat="44.92855324134845" lon="9.617714721468204"><ele>136.0</ele><time>2026-05-03T07:42:49.995Z</time></trkpt><trkpt lat="44.9283919371012" lon="9.617534557232078"><ele>136.0</ele><time>2026-05-03T07:42:50.995Z</time></trkpt><trkpt lat="44.928251697913936" lon="9.617341154898247"><ele>136.0</ele><time>2026-05-03T07:42:51.995Z</time></trkpt><trkpt lat="44.92811634404575" lon="9.617135096073369"><ele>136.0</ele><time>2026-05-03T07:42:52.995Z</time></trkpt><trkpt lat="44.92798502763441" lon="9.616919997364683"><ele>135.33333333333334</ele><time>2026-05-03T07:42:53.995Z</time></trkpt><trkpt lat="44.92785647889151" lon="9.616705392400295"><ele>134.66666666666666</ele><time>2026-05-03T07:42:54.995Z</time></trkpt><trkpt lat="44.92772468444387" lon="9.61649223151152"><ele>134.0</ele><time>2026-05-03T07:42:55.995Z</time></trkpt><trkpt lat="44.9275997478289" lon="9.61629299801006"><ele>134.0</ele><time>2026-05-03T07:42:56.995Z</time></trkpt><trkpt lat="44.927475933383654" lon="9.616103118308827"><ele>134.0</ele><time>2026-05-03T07:42:57.995Z</time></trkpt><trkpt lat="44.927353942400565" lon="9.615909284611215"><ele>134.0</ele><time>2026-05-03T07:42:58.995Z</time></trkpt><trkpt lat="44.92723174447399" lon="9.615712960440952"><ele>134.0</ele><time>2026-05-03T07:42:59.995Z</time></trkpt><trkpt lat="44.927103056844146" lon="9.615515870427826"><ele>134.0</ele><time>2026-05-03T07:43:00.995Z</time></trkpt><trkpt lat="44.926969850940274" lon="9.61533173055779"><ele>134.0</ele><time>2026-05-03T07:43:01.995Z</time></trkpt><trkpt lat="44.92683751536799" lon="9.615163446449646"><ele>134.0</ele><time>2026-05-03T07:43:02.995Z</time></trkpt><trkpt lat="44.92669702043283" lon="9.615001223652937"><ele>134.0</ele><time>2026-05-03T07:43:03.995Z</time></trkpt><trkpt lat="44.92655300663272" lon="9.614843005947192"><ele>134.0</ele><time>2026-05-03T07:43:04.995Z</time></trkpt><trkpt lat="44.92640332144915" lon="9.614686765417817"><ele>134.0</ele><time>2026-05-03T07:43:05.995Z</time></trkpt><trkpt lat="44.9262476958057" lon="9.614534608531383"><ele>134.0</ele><time>2026-05-03T07:43:06.995Z</time></trkpt><trkpt lat="44.92608961298088" lon="9.614387143866617"><ele>134.0</ele><time>2026-05-03T07:43:07.995Z</time></trkpt><trkpt lat="44.925930973394756" lon="9.614248581122638"><ele>134.0</ele><time>2026-05-03T07:43:08.995Z</time></trkpt><trkpt lat="44.92577000314339" lon="9.61410939753759"><ele>134.0</ele><time>2026-05-03T07:43:09.995Z</time></trkpt><trkpt lat="44.92560559931246" lon="9.61396391922696"><ele>134.0</ele><time>2026-05-03T07:43:10.995Z</time></trkpt><trkpt lat="44.925443722511744" lon="9.613817696227319"><ele>134.0</ele><time>2026-05-03T07:43:11.995Z</time></trkpt><trkpt lat="44.925287104613254" lon="9.61367908392229"><ele>134.0</ele><time>2026-05-03T07:43:12.995Z</time></trkpt><trkpt lat="44.92513454506195" lon="9.613544299182767"><ele>134.0</ele><time>2026-05-03T07:43:13.995Z</time></trkpt><trkpt lat="44.924983904082325" lon="9.613412313025295"><ele>133.66666666666666</ele><time>2026-05-03T07:43:14.995Z</time></trkpt><trkpt lat="44.924837220892314" lon="9.613282549172565"><ele>133.33333333333334</ele><time>2026-05-03T07:43:15.995Z</time></trkpt><trkpt lat="44.924698915510554" lon="9.613158715013089"><ele>133.0</ele><time>2026-05-03T07:43:16.995Z</time></trkpt><trkpt lat="44.924556487659174" lon="9.61303447449463"><ele>133.0</ele><time>2026-05-03T07:43:17.995Z</time></trkpt><trkpt lat="44.92441946381661" lon="9.612913964663006"><ele>133.0</ele><time>2026-05-03T07:43:18.995Z</time></trkpt><trkpt lat="44.92428548734315" lon="9.61279745619796"><ele>133.0</ele><time>2026-05-03T07:43:19.995Z</time></trkpt><trkpt lat="44.92415966591396" lon="9.612685485782787"><ele>132.5</ele><time>2026-05-03T07:43:20.995Z</time></trkpt><trkpt lat="44.9240385648277" lon="9.612578062862736"><ele>132.0</ele><time>2026-05-03T07:43:21.995Z</time></trkpt><trkpt lat="44.9239231829955" lon="9.612474224830022"><ele>131.5</ele><time>2026-05-03T07:43:22.995Z</time></trkpt><trkpt lat="44.923811410325214" lon="9.61237512312696"><ele>131.0</ele><time>2026-05-03T07:43:23.995Z</time></trkpt><trkpt lat="44.92369649396232" lon="9.612277368019454"><ele>131.0</ele><time>2026-05-03T07:43:24.995Z</time></trkpt><trkpt lat="44.92357717854604" lon="9.612177306082609"><ele>131.0</ele><time>2026-05-03T07:43:25.995Z</time></trkpt><trkpt lat="44.92345196299837" lon="9.612068552192614"><ele>131.0</ele><time>2026-05-03T07:43:26.995Z</time></trkpt><trkpt lat="44.923321937705715" lon="9.611952185691901"><ele>131.0</ele><time>2026-05-03T07:43:27.995Z</time></trkpt><trkpt lat="44.92318902485996" lon="9.611829337838127"><ele>131.5</ele><time>2026-05-03T07:43:28.995Z</time></trkpt><trkpt lat="44.92306186623092" lon="9.611702509748957"><ele>132.0</ele><time>2026-05-03T07:43:29.995Z</time></trkpt><trkpt lat="44.92294319663592" lon="9.611578627198744"><ele>132.5</ele><time>2026-05-03T07:43:30.995Z</time></trkpt><trkpt lat="44.922828232027484" lon="9.611459582523173"><ele>133.0</ele><time>2026-05-03T07:43:31.995Z</time></trkpt><trkpt lat="44.92272509440529" lon="9.6113176771336"><ele>133.0</ele><time>2026-05-03T07:43:32.995Z</time></trkpt><trkpt lat="44.92261189868471" lon="9.611192392895596"><ele>133.0</ele><time>2026-05-03T07:43:33.995Z</time></trkpt><trkpt lat="44.922494408975744" lon="9.611062356087643"><ele>133.0</ele><time>2026-05-03T07:43:34.995Z</time></trkpt><trkpt lat="44.92237501423758" lon="9.610930210849709"><ele>133.0</ele><time>2026-05-03T07:43:35.995Z</time></trkpt><trkpt lat="44.92225853675047" lon="9.610801294382245"><ele>132.5</ele><time>2026-05-03T07:43:36.995Z</time></trkpt><trkpt lat="44.92214743679027" lon="9.61067832970437"><ele>132.0</ele><time>2026-05-03T07:43:37.995Z</time></trkpt><trkpt lat="44.92204254864818" lon="9.610562240261974"><ele>131.5</ele><time>2026-05-03T07:43:38.995Z</time></trkpt><trkpt lat="44.92192914978695" lon="9.61046194642752"><ele>131.0</ele><time>2026-05-03T07:43:39.995Z</time></trkpt><trkpt lat="44.921839123707855" lon="9.610319963499538"><ele>131.25</ele><time>2026-05-03T07:43:40.995Z</time></trkpt><trkpt lat="44.92173141869818" lon="9.610192872102257"><ele>131.5</ele><time>2026-05-03T07:43:41.995Z</time></trkpt><trkpt lat="44.92161741054389" lon="9.610066356239649"><ele>131.75</ele><time>2026-05-03T07:43:42.995Z</time></trkpt><trkpt lat="44.92150071849124" lon="9.609942821099372"><ele>132.0</ele><time>2026-05-03T07:43:43.995Z</time></trkpt><trkpt lat="44.921374733029374" lon="9.609812609731907"><ele>132.0</ele><time>2026-05-03T07:43:44.995Z</time></trkpt><trkpt lat="44.921244982446225" lon="9.609673700363109"><ele>132.0</ele><time>2026-05-03T07:43:45.995Z</time></trkpt><trkpt lat="44.92110919899851" lon="9.609526602579573"><ele>132.0</ele><time>2026-05-03T07:43:46.995Z</time></trkpt><trkpt lat="44.920972251151845" lon="9.609375038449949"><ele>132.66666666666666</ele><time>2026-05-03T07:43:47.995Z</time></trkpt><trkpt lat="44.920832038980116" lon="9.609223126081837"><ele>133.33333333333331</ele><time>2026-05-03T07:43:48.995Z</time></trkpt><trkpt lat="44.92068953123167" lon="9.609068234542182"><ele>134.0</ele><time>2026-05-03T07:43:49.995Z</time></trkpt><trkpt lat="44.92054940775108" lon="9.608919093330659"><ele>134.0</ele><time>2026-05-03T07:43:50.995Z</time></trkpt><trkpt lat="44.9204161884542" lon="9.608775352376924"><ele>134.0</ele><time>2026-05-03T07:43:51.995Z</time></trkpt><trkpt lat="44.92028286757413" lon="9.608651904114943"><ele>134.0</ele><time>2026-05-03T07:43:52.995Z</time></trkpt><trkpt lat="44.9201611769919" lon="9.608532930734501"><ele>134.25</ele><time>2026-05-03T07:43:53.995Z</time></trkpt><trkpt lat="44.92004322366872" lon="9.608422973250773"><ele>134.5</ele><time>2026-05-03T07:43:54.995Z</time></trkpt><trkpt lat="44.91992853505046" lon="9.608329187052536"><ele>134.75</ele><time>2026-05-03T07:43:55.995Z</time></trkpt><trkpt lat="44.91981270961" lon="9.608242857120999"><ele>135.0</ele><time>2026-05-03T07:43:56.995Z</time></trkpt><trkpt lat="44.91968995560034" lon="9.608161212286731"><ele>135.0</ele><time>2026-05-03T07:43:57.995Z</time></trkpt><trkpt lat="44.91956118500757" lon="9.60807506745622"><ele>135.0</ele><time>2026-05-03T07:43:58.995Z</time></trkpt><trkpt lat="44.919432717286554" lon="9.607983968450242"><ele>135.0</ele><time>2026-05-03T07:43:59.995Z</time></trkpt><trkpt lat="44.91930220278166" lon="9.607898084788369"><ele>135.0</ele><time>2026-05-03T07:44:00.995Z</time></trkpt><trkpt lat="44.91918176801938" lon="9.607813083802796"><ele>135.25</ele><time>2026-05-03T07:44:01.995Z</time></trkpt><trkpt lat="44.91906385415866" lon="9.607735639136658"><ele>135.5</ele><time>2026-05-03T07:44:02.995Z</time></trkpt><trkpt lat="44.91894779706647" lon="9.607658681460581"><ele>135.75</ele><time>2026-05-03T07:44:03.995Z</time></trkpt><trkpt lat="44.918832690941436" lon="9.607579349037215"><ele>136.0</ele><time>2026-05-03T07:44:04.995Z</time></trkpt><trkpt lat="44.91871835941148" lon="9.607500564795266"><ele>136.0</ele><time>2026-05-03T07:44:05.995Z</time></trkpt><trkpt lat="44.91860251243138" lon="9.607423049979081"><ele>136.0</ele><time>2026-05-03T07:44:06.995Z</time></trkpt><trkpt lat="44.918482758445855" lon="9.607342493994821"><ele>136.0</ele><time>2026-05-03T07:44:07.995Z</time></trkpt><trkpt lat="44.918361834482354" lon="9.60726551687185"><ele>136.0</ele><time>2026-05-03T07:44:08.995Z</time></trkpt><trkpt lat="44.91824452669292" lon="9.607187946541162"><ele>136.5</ele><time>2026-05-03T07:44:09.995Z</time></trkpt><trkpt lat="44.91812764045342" lon="9.607108464785007"><ele>137.0</ele><time>2026-05-03T07:44:10.995Z</time></trkpt><trkpt lat="44.9180060447367" lon="9.607023495505995"><ele>137.5</ele><time>2026-05-03T07:44:11.995Z</time></trkpt><trkpt lat="44.917882021865395" lon="9.606933974003955"><ele>138.0</ele><time>2026-05-03T07:44:12.995Z</time></trkpt><trkpt lat="44.91775924329353" lon="9.606840373868469"><ele>138.0</ele><time>2026-05-03T07:44:13.995Z</time></trkpt><trkpt lat="44.917640273175614" lon="9.606739821769953"><ele>138.0</ele><time>2026-05-03T07:44:14.995Z</time></trkpt><trkpt lat="44.917520110941105" lon="9.606630402314483"><ele>138.0</ele><time>2026-05-03T07:44:15.995Z</time></trkpt><trkpt lat="44.9173990282267" lon="9.606511291766541"><ele>138.0</ele><time>2026-05-03T07:44:16.995Z</time></trkpt><trkpt lat="44.91728057993777" lon="9.606385472207773"><ele>138.0</ele><time>2026-05-03T07:44:17.995Z</time></trkpt><trkpt lat="44.917163713944426" lon="9.606260441745412"><ele>138.0</ele><time>2026-05-03T07:44:18.995Z</time></trkpt><trkpt lat="44.91705233240356" lon="9.606137130266003"><ele>138.0</ele><time>2026-05-03T07:44:19.995Z</time></trkpt><trkpt lat="44.91693828380842" lon="9.606019173810125"><ele>138.0</ele><time>2026-05-03T07:44:20.995Z</time></trkpt><trkpt lat="44.916821366012435" lon="9.605904190203137"><ele>138.75</ele><time>2026-05-03T07:44:21.995Z</time></trkpt><trkpt lat="44.916708163261696" lon="9.605787640503205"><ele>139.5</ele><time>2026-05-03T07:44:22.995Z</time></trkpt><trkpt lat="44.916601722193555" lon="9.605668669310257"><ele>140.25</ele><time>2026-05-03T07:44:23.995Z</time></trkpt><trkpt lat="44.91650339221649" lon="9.6055471764449"><ele>141.0</ele><time>2026-05-03T07:44:24.995Z</time></trkpt><trkpt lat="44.91640986606088" lon="9.605425201283692"><ele>141.0</ele><time>2026-05-03T07:44:25.995Z</time></trkpt><trkpt lat="44.91631978809529" lon="9.605298503415549"><ele>141.0</ele><time>2026-05-03T07:44:26.995Z</time></trkpt><trkpt lat="44.916227082410906" lon="9.605170251822072"><ele>141.0</ele><time>2026-05-03T07:44:27.995Z</time></trkpt><trkpt lat="44.91614025304718" lon="9.605033282913105"><ele>141.0</ele><time>2026-05-03T07:44:28.995Z</time></trkpt><trkpt lat="44.916064703178286" lon="9.604900178959518"><ele>141.0</ele><time>2026-05-03T07:44:29.995Z</time></trkpt><trkpt lat="44.91599785614952" lon="9.604769702079619"><ele>141.0</ele><time>2026-05-03T07:44:30.995Z</time></trkpt><trkpt lat="44.91594195030369" lon="9.604645222604397"><ele>141.0</ele><time>2026-05-03T07:44:31.995Z</time></trkpt><trkpt lat="44.91589242398476" lon="9.604523269371928"><ele>141.0</ele><time>2026-05-03T07:44:32.995Z</time></trkpt><trkpt lat="44.915846896266075" lon="9.6044073835451"><ele>141.0</ele><time>2026-05-03T07:44:33.995Z</time></trkpt><trkpt lat="44.91579168929489" lon="9.604286802076137"><ele>141.5</ele><time>2026-05-03T07:44:34.995Z</time></trkpt><trkpt lat="44.91573205711608" lon="9.604157448855927"><ele>142.0</ele><time>2026-05-03T07:44:35.995Z</time></trkpt><trkpt lat="44.91567242881665" lon="9.604016547284987"><ele>142.5</ele><time>2026-05-03T07:44:36.995Z</time></trkpt><trkpt lat="44.91561113272949" lon="9.603863477431709"><ele>143.0</ele><time>2026-05-03T07:44:37.995Z</time></trkpt><trkpt lat="44.91554018445596" lon="9.603703120543381"><ele>142.33333333333331</ele><time>2026-05-03T07:44:38.995Z</time></trkpt><trkpt lat="44.915460849776316" lon="9.603517244206317"><ele>141.66666666666666</ele><time>2026-05-03T07:44:39.995Z</time></trkpt><trkpt lat="44.91538102231092" lon="9.603306733708699"><ele>141.0</ele><time>2026-05-03T07:44:40.995Z</time></trkpt><trkpt lat="44.91529311208685" lon="9.603070500861318"><ele>139.66666666666666</ele><time>2026-05-03T07:44:41.995Z</time></trkpt><trkpt lat="44.91519469308483" lon="9.602806546148058"><ele>138.33333333333331</ele><time>2026-05-03T07:44:42.995Z</time></trkpt><trkpt lat="44.91508717169983" lon="9.602531740242686"><ele>137.0</ele><time>2026-05-03T07:44:43.995Z</time></trkpt><trkpt lat="44.91497402506059" lon="9.602241952839096"><ele>136.0</ele><time>2026-05-03T07:44:44.994Z</time></trkpt><trkpt lat="44.914851950414494" lon="9.601920279932553"><ele>135.0</ele><time>2026-05-03T07:44:45.995Z</time></trkpt><trkpt lat="44.914735047129646" lon="9.60160930159774"><ele>135.0</ele><time>2026-05-03T07:44:46.995Z</time></trkpt><trkpt lat="44.914610251960056" lon="9.60129009870912"><ele>135.0</ele><time>2026-05-03T07:44:47.995Z</time></trkpt><trkpt lat="44.91447690063773" lon="9.600962866186764"><ele>134.5</ele><time>2026-05-03T07:44:48.995Z</time></trkpt><trkpt lat="44.91435102415922" lon="9.600650350725347"><ele>134.0</ele><time>2026-05-03T07:44:49.995Z</time></trkpt><trkpt lat="44.914237251630205" lon="9.600338109339226"><ele>135.0</ele><time>2026-05-03T07:44:50.995Z</time></trkpt><trkpt lat="44.9141258302826" lon="9.6000251986796"><ele>136.0</ele><time>2026-05-03T07:44:51.995Z</time></trkpt><trkpt lat="44.91400783486406" lon="9.599719861512318"><ele>136.5</ele><time>2026-05-03T07:44:52.995Z</time></trkpt><trkpt lat="44.91388113529559" lon="9.59941636277287"><ele>137.0</ele><time>2026-05-03T07:44:53.995Z</time></trkpt><trkpt lat="44.91375435651284" lon="9.599114721362293"><ele>137.0</ele><time>2026-05-03T07:44:54.995Z</time></trkpt><trkpt lat="44.91362846233462" lon="9.598822416025104"><ele>137.0</ele><time>2026-05-03T07:44:55.995Z</time></trkpt><trkpt lat="44.9135154275654" lon="9.598549987913083"><ele>137.0</ele><time>2026-05-03T07:44:56.995Z</time></trkpt><trkpt lat="44.913413302292376" lon="9.598291857117035"><ele>137.0</ele><time>2026-05-03T07:44:57.995Z</time></trkpt><trkpt lat="44.91332062993435" lon="9.59805548592304"><ele>137.0</ele><time>2026-05-03T07:44:58.995Z</time></trkpt><trkpt lat="44.91323115972731" lon="9.597823795327969"><ele>137.0</ele><time>2026-05-03T07:44:59.995Z</time></trkpt><trkpt lat="44.9131410501705" lon="9.597597233872108"><ele>137.0</ele><time>2026-05-03T07:45:00.995Z</time></trkpt><trkpt lat="44.913045414690224" lon="9.597387571478977"><ele>137.0</ele><time>2026-05-03T07:45:01.995Z</time></trkpt><trkpt lat="44.91292723733862" lon="9.597175934329815"><ele>137.33333333333331</ele><time>2026-05-03T07:45:02.995Z</time></trkpt><trkpt lat="44.91279395177452" lon="9.596992093668065"><ele>137.66666666666666</ele><time>2026-05-03T07:45:03.995Z</time></trkpt><trkpt lat="44.91264800408243" lon="9.596823389638748"><ele>138.0</ele><time>2026-05-03T07:45:04.995Z</time></trkpt><trkpt lat="44.91249799503664" lon="9.596672893333622"><ele>138.33333333333334</ele><time>2026-05-03T07:45:05.995Z</time></trkpt><trkpt lat="44.91235090943048" lon="9.59654337970237"><ele>138.66666666666669</ele><time>2026-05-03T07:45:06.995Z</time></trkpt><trkpt lat="44.91220265341995" lon="9.596438835193743"><ele>139.0</ele><time>2026-05-03T07:45:07.995Z</time></trkpt><trkpt lat="44.91205704526401" lon="9.596348691521456"><ele>139.0</ele><time>2026-05-03T07:45:08.995Z</time></trkpt><trkpt lat="44.91191967075625" lon="9.596274234815537"><ele>139.0</ele><time>2026-05-03T07:45:09.995Z</time></trkpt><trkpt lat="44.91178470474194" lon="9.596197359936257"><ele>139.0</ele><time>2026-05-03T07:45:10.995Z</time></trkpt><trkpt lat="44.91165689378789" lon="9.596122431096646"><ele>139.0</ele><time>2026-05-03T07:45:11.995Z</time></trkpt><trkpt lat="44.91153749722999" lon="9.596058512462022"><ele>137.25</ele><time>2026-05-03T07:45:12.995Z</time></trkpt><trkpt lat="44.91141723840436" lon="9.595994557600818"><ele>135.5</ele><time>2026-05-03T07:45:13.995Z</time></trkpt><trkpt lat="44.911296384257284" lon="9.595931717650135"><ele>133.75</ele><time>2026-05-03T07:45:14.995Z</time></trkpt><trkpt lat="44.91118172365722" lon="9.595871418838321"><ele>132.0</ele><time>2026-05-03T07:45:15.995Z</time></trkpt><trkpt lat="44.91106127075187" lon="9.59581041131309"><ele>132.0</ele><time>2026-05-03T07:45:16.995Z</time></trkpt><trkpt lat="44.91095011531585" lon="9.595748862699534"><ele>132.0</ele><time>2026-05-03T07:45:17.995Z</time></trkpt><trkpt lat="44.91083564462119" lon="9.59568781414068"><ele>132.0</ele><time>2026-05-03T07:45:18.995Z</time></trkpt><trkpt lat="44.91071704971554" lon="9.59562982981576"><ele>132.0</ele><time>2026-05-03T07:45:19.995Z</time></trkpt><trkpt lat="44.91059480867455" lon="9.595570957358769"><ele>131.75</ele><time>2026-05-03T07:45:20.995Z</time></trkpt><trkpt lat="44.91047691840242" lon="9.59550085773296"><ele>131.5</ele><time>2026-05-03T07:45:21.995Z</time></trkpt><trkpt lat="44.910363148900444" lon="9.59542137410265"><ele>131.25</ele><time>2026-05-03T07:45:22.995Z</time></trkpt><trkpt lat="44.910251690276475" lon="9.595331254473107"><ele>131.0</ele><time>2026-05-03T07:45:23.995Z</time></trkpt><trkpt lat="44.910149475017185" lon="9.59524089122781"><ele>131.25</ele><time>2026-05-03T07:45:24.995Z</time></trkpt><trkpt lat="44.91006570197805" lon="9.595124708522427"><ele>131.5</ele><time>2026-05-03T07:45:25.995Z</time></trkpt><trkpt lat="44.90997689385233" lon="9.59501999541587"><ele>131.75</ele><time>2026-05-03T07:45:26.995Z</time></trkpt><trkpt lat="44.90989184038961" lon="9.594916116570143"><ele>132.0</ele><time>2026-05-03T07:45:27.995Z</time></trkpt><trkpt lat="44.90980660959169" lon="9.594797947307553"><ele>132.0</ele><time>2026-05-03T07:45:28.995Z</time></trkpt><trkpt lat="44.909727114308446" lon="9.594685425860876"><ele>132.0</ele><time>2026-05-03T07:45:29.995Z</time></trkpt><trkpt lat="44.909653606564355" lon="9.594580017707132"><ele>132.0</ele><time>2026-05-03T07:45:30.995Z</time></trkpt><trkpt lat="44.90959638712954" lon="9.594497835499402"><ele>132.0</ele><time>2026-05-03T07:45:31.995Z</time></trkpt><trkpt lat="44.90953757579522" lon="9.594368275944634"><ele>132.0</ele><time>2026-05-03T07:45:33.995Z</time></trkpt><trkpt lat="44.909482036060474" lon="9.59428456028378"><ele>131.83333333333334</ele><time>2026-05-03T07:45:35.995Z</time></trkpt><trkpt lat="44.90943210496226" lon="9.594206706872734"><ele>131.66666666666666</ele><time>2026-05-03T07:45:37.995Z</time></trkpt><trkpt lat="44.90937835987437" lon="9.594126593249168"><ele>131.5</ele><time>2026-05-03T07:45:39.995Z</time></trkpt><trkpt lat="44.909316068885545" lon="9.594027175298137"><ele>131.33333333333331</ele><time>2026-05-03T07:45:41.995Z</time></trkpt><trkpt lat="44.909268338806115" lon="9.593939645657382"><ele>131.16666666666666</ele><time>2026-05-03T07:45:43.995Z</time></trkpt><trkpt lat="44.90920191558292" lon="9.593834500767588"><ele>131.0</ele><time>2026-05-03T07:45:45.995Z</time></trkpt><trkpt lat="44.90912922836944" lon="9.59371866086443"><ele>131.6</ele><time>2026-05-03T07:45:47.995Z</time></trkpt><trkpt lat="44.90905213826793" lon="9.593606009252607"><ele>132.2</ele><time>2026-05-03T07:45:49.995Z</time></trkpt><trkpt lat="44.90896639974608" lon="9.593470413059796"><ele>132.8</ele><time>2026-05-03T07:45:51.995Z</time></trkpt><trkpt lat="44.90888626956521" lon="9.59334871379253"><ele>133.4</ele><time>2026-05-03T07:45:53.995Z</time></trkpt><trkpt lat="44.908839377240824" lon="9.593273374935366"><ele>134.0</ele><time>2026-05-03T07:45:54.995Z</time></trkpt><trkpt lat="44.908785085542085" lon="9.593188911216243"><ele>134.0</ele><time>2026-05-03T07:45:55.995Z</time></trkpt><trkpt lat="44.90873402530001" lon="9.593109145409223"><ele>134.0</ele><time>2026-05-03T07:45:56.994Z</time></trkpt><trkpt lat="44.908681771510054" lon="9.593028359616241"><ele>134.0</ele><time>2026-05-03T07:45:57.994Z</time></trkpt><trkpt lat="44.90862297637016" lon="9.592947071567147"><ele>134.0</ele><time>2026-05-03T07:45:58.994Z</time></trkpt><trkpt lat="44.90856955273995" lon="9.592867094992663"><ele>134.0</ele><time>2026-05-03T07:45:59.994Z</time></trkpt><trkpt lat="44.90851541867357" lon="9.592784648891293"><ele>134.0</ele><time>2026-05-03T07:46:00.994Z</time></trkpt><trkpt lat="44.90845669148856" lon="9.592700949274013"><ele>134.0</ele><time>2026-05-03T07:46:01.994Z</time></trkpt><trkpt lat="44.90839376677238" lon="9.592622313232479"><ele>134.0</ele><time>2026-05-03T07:46:02.994Z</time></trkpt><trkpt lat="44.90832672804992" lon="9.59254812806985"><ele>134.0</ele><time>2026-05-03T07:46:03.994Z</time></trkpt><trkpt lat="44.908249697020665" lon="9.592476530852064"><ele>134.0</ele><time>2026-05-03T07:46:04.994Z</time></trkpt><trkpt lat="44.90817184128325" lon="9.592404850720614"><ele>134.0</ele><time>2026-05-03T07:46:05.994Z</time></trkpt><trkpt lat="44.908071313064404" lon="9.592322479809747"><ele>134.0</ele><time>2026-05-03T07:46:06.994Z</time></trkpt><trkpt lat="44.90794516137568" lon="9.59219991925262"><ele>134.0</ele><time>2026-05-03T07:46:07.994Z</time></trkpt><trkpt lat="44.907787483311395" lon="9.592070900862549"><ele>134.0</ele><time>2026-05-03T07:46:08.994Z</time></trkpt><trkpt lat="44.90759933065249" lon="9.591916946959032"><ele>134.5</ele><time>2026-05-03T07:46:09.994Z</time></trkpt><trkpt lat="44.907412875679086" lon="9.591764382186009"><ele>135.0</ele><time>2026-05-03T07:46:10.994Z</time></trkpt><trkpt lat="44.90719143479869" lon="9.59158142011248"><ele>135.0</ele><time>2026-05-03T07:46:11.994Z</time></trkpt><trkpt lat="44.90695062707321" lon="9.591382443483761"><ele>135.0</ele><time>2026-05-03T07:46:12.994Z</time></trkpt><trkpt lat="44.906689066838204" lon="9.59116827724412"><ele>137.5</ele><time>2026-05-03T07:46:13.994Z</time></trkpt><trkpt lat="44.90641623746609" lon="9.590943057125616"><ele>140.0</ele><time>2026-05-03T07:46:14.994Z</time></trkpt><trkpt lat="44.90614399641471" lon="9.590735485967285"><ele>140.0</ele><time>2026-05-03T07:46:15.994Z</time></trkpt><trkpt lat="44.90586958840593" lon="9.590503199792504"><ele>140.0</ele><time>2026-05-03T07:46:16.994Z</time></trkpt><trkpt lat="44.905594371667945" lon="9.590273482288538"><ele>140.0</ele><time>2026-05-03T07:46:17.994Z</time></trkpt><trkpt lat="44.905332930257515" lon="9.590053875493888"><ele>140.0</ele><time>2026-05-03T07:46:18.994Z</time></trkpt><trkpt lat="44.90509494832432" lon="9.589862088575872"><ele>140.5</ele><time>2026-05-03T07:46:19.994Z</time></trkpt><trkpt lat="44.90486611465508" lon="9.58968072653666"><ele>141.0</ele><time>2026-05-03T07:46:20.994Z</time></trkpt><trkpt lat="44.90464049454897" lon="9.589499054130448"><ele>141.0</ele><time>2026-05-03T07:46:21.994Z</time></trkpt><trkpt lat="44.90442242004596" lon="9.589309993451165"><ele>141.0</ele><time>2026-05-03T07:46:22.994Z</time></trkpt><trkpt lat="44.904211453964265" lon="9.589125242051207"><ele>146.5</ele><time>2026-05-03T07:46:23.994Z</time></trkpt><trkpt lat="44.90399947420212" lon="9.588952398785322"><ele>152.0</ele><time>2026-05-03T07:46:24.994Z</time></trkpt><trkpt lat="44.90378461112685" lon="9.588776212831112"><ele>152.0</ele><time>2026-05-03T07:46:25.994Z</time></trkpt><trkpt lat="44.90356919425508" lon="9.588600965564467"><ele>152.0</ele><time>2026-05-03T07:46:26.994Z</time></trkpt><trkpt lat="44.9033569561607" lon="9.58843873078589"><ele>152.0</ele><time>2026-05-03T07:46:27.994Z</time></trkpt><trkpt lat="44.90315810289469" lon="9.588281984128578"><ele>152.0</ele><time>2026-05-03T07:46:28.994Z</time></trkpt><trkpt lat="44.90298898319777" lon="9.588148709304901"><ele>152.0</ele><time>2026-05-03T07:46:29.994Z</time></trkpt><trkpt lat="44.902831045335276" lon="9.588020149240169"><ele>152.0</ele><time>2026-05-03T07:46:30.994Z</time></trkpt><trkpt lat="44.90267156491059" lon="9.5878816939411"><ele>152.0</ele><time>2026-05-03T07:46:31.994Z</time></trkpt><trkpt lat="44.902510152565085" lon="9.587735081888598"><ele>152.0</ele><time>2026-05-03T07:46:32.994Z</time></trkpt><trkpt lat="44.90233900133219" lon="9.587583607721973"><ele>154.33333333333331</ele><time>2026-05-03T07:46:33.994Z</time></trkpt><trkpt lat="44.902159962865056" lon="9.58742397545603"><ele>156.66666666666666</ele><time>2026-05-03T07:46:34.994Z</time></trkpt><trkpt lat="44.90197543823957" lon="9.587260407226655"><ele>159.0</ele><time>2026-05-03T07:46:35.994Z</time></trkpt><trkpt lat="44.901784918777324" lon="9.587097837791827"><ele>159.0</ele><time>2026-05-03T07:46:36.994Z</time></trkpt><trkpt lat="44.90158649082801" lon="9.586933818566052"><ele>159.0</ele><time>2026-05-03T07:46:37.994Z</time></trkpt><trkpt lat="44.901389660175276" lon="9.586779131824265"><ele>159.0</ele><time>2026-05-03T07:46:38.994Z</time></trkpt><trkpt lat="44.90119885881035" lon="9.586632366381249"><ele>159.0</ele><time>2026-05-03T07:46:39.994Z</time></trkpt><trkpt lat="44.90100966742866" lon="9.586492355055865"><ele>159.0</ele><time>2026-05-03T07:46:40.994Z</time></trkpt><trkpt lat="44.900825297166115" lon="9.586368386237785"><ele>157.66666666666666</ele><time>2026-05-03T07:46:41.995Z</time></trkpt><trkpt lat="44.900645763785114" lon="9.586265832045017"><ele>156.33333333333331</ele><time>2026-05-03T07:46:42.994Z</time></trkpt><trkpt lat="44.90045875597227" lon="9.58617718045211"><ele>155.0</ele><time>2026-05-03T07:46:43.994Z</time></trkpt><trkpt lat="44.90026604748144" lon="9.586104792036986"><ele>157.66666666666666</ele><time>2026-05-03T07:46:44.994Z</time></trkpt><trkpt lat="44.90006292195783" lon="9.58603091449769"><ele>160.33333333333334</ele><time>2026-05-03T07:46:45.995Z</time></trkpt><trkpt lat="44.8998561996496" lon="9.585964495595777"><ele>163.0</ele><time>2026-05-03T07:46:46.995Z</time></trkpt><trkpt lat="44.89964834567358" lon="9.585858522368282"><ele>163.0</ele><time>2026-05-03T07:46:47.995Z</time></trkpt><trkpt lat="44.89943394708104" lon="9.585803890576363"><ele>163.0</ele><time>2026-05-03T07:46:48.995Z</time></trkpt><trkpt lat="44.89923785646064" lon="9.585747990308782"><ele>163.0</ele><time>2026-05-03T07:46:49.995Z</time></trkpt><trkpt lat="44.89905002730191" lon="9.585687141068862"><ele>165.0</ele><time>2026-05-03T07:46:50.995Z</time></trkpt><trkpt lat="44.89887005242264" lon="9.58562762784774"><ele>167.0</ele><time>2026-05-03T07:46:51.994Z</time></trkpt><trkpt lat="44.89870199659236" lon="9.58557828439549"><ele>169.0</ele><time>2026-05-03T07:46:52.994Z</time></trkpt><trkpt lat="44.898548263494334" lon="9.585556411087193"><ele>170.66666666666669</ele><time>2026-05-03T07:46:53.994Z</time></trkpt><trkpt lat="44.8983811451672" lon="9.585579011062446"><ele>172.33333333333334</ele><time>2026-05-03T07:46:54.994Z</time></trkpt><trkpt lat="44.89822527090637" lon="9.58564866032666"><ele>174.0</ele><time>2026-05-03T07:46:55.994Z</time></trkpt><trkpt lat="44.89808964640761" lon="9.585755037124137"><ele>174.0</ele><time>2026-05-03T07:46:56.994Z</time></trkpt><trkpt lat="44.8979301550863" lon="9.58585207909857"><ele>174.0</ele><time>2026-05-03T07:46:57.994Z</time></trkpt><trkpt lat="44.89776255294667" lon="9.58591415166994"><ele>174.0</ele><time>2026-05-03T07:46:58.994Z</time></trkpt><trkpt lat="44.897615697491034" lon="9.585997385147659"><ele>175.66666666666666</ele><time>2026-05-03T07:46:59.994Z</time></trkpt><trkpt lat="44.89743119537711" lon="9.585882870688877"><ele>177.33333333333331</ele><time>2026-05-03T07:47:00.994Z</time></trkpt><trkpt lat="44.89726592139924" lon="9.585783431308736"><ele>179.0</ele><time>2026-05-03T07:47:01.994Z</time></trkpt><trkpt lat="44.897089351062085" lon="9.585656531168786"><ele>179.0</ele><time>2026-05-03T07:47:02.994Z</time></trkpt><trkpt lat="44.89692289737073" lon="9.5855213644949"><ele>179.0</ele><time>2026-05-03T07:47:03.994Z</time></trkpt><trkpt lat="44.89673364276771" lon="9.585387649062884"><ele>179.0</ele><time>2026-05-03T07:47:04.994Z</time></trkpt><trkpt lat="44.896558385205616" lon="9.58526181927924"><ele>177.0</ele><time>2026-05-03T07:47:05.994Z</time></trkpt><trkpt lat="44.89639263920448" lon="9.585156317203003"><ele>175.0</ele><time>2026-05-03T07:47:06.994Z</time></trkpt><trkpt lat="44.89621361681933" lon="9.585068375675329"><ele>173.0</ele><time>2026-05-03T07:47:07.994Z</time></trkpt><trkpt lat="44.89603182353973" lon="9.58501396320053"><ele>175.33333333333331</ele><time>2026-05-03T07:47:08.994Z</time></trkpt><trkpt lat="44.89586338477113" lon="9.58497845418779"><ele>177.66666666666666</ele><time>2026-05-03T07:47:09.994Z</time></trkpt><trkpt lat="44.89570164166345" lon="9.58496646804682"><ele>180.0</ele><time>2026-05-03T07:47:10.994Z</time></trkpt><trkpt lat="44.89553201981463" lon="9.584978841756334"><ele>180.0</ele><time>2026-05-03T07:47:11.994Z</time></trkpt><trkpt lat="44.89535210786084" lon="9.585040877745302"><ele>180.0</ele><time>2026-05-03T07:47:12.994Z</time></trkpt><trkpt lat="44.89515868791317" lon="9.585113200377132"><ele>180.0</ele><time>2026-05-03T07:47:13.994Z</time></trkpt><trkpt lat="44.89495360782969" lon="9.585168209221887"><ele>181.0</ele><time>2026-05-03T07:47:14.994Z</time></trkpt><trkpt lat="44.89473866830215" lon="9.58521451688909"><ele>182.0</ele><time>2026-05-03T07:47:15.994Z</time></trkpt><trkpt lat="44.894515412314654" lon="9.585247968303706"><ele>183.0</ele><time>2026-05-03T07:47:16.994Z</time></trkpt><trkpt lat="44.89428436210269" lon="9.585255988928232"><ele>183.0</ele><time>2026-05-03T07:47:17.994Z</time></trkpt><trkpt lat="44.89404406330971" lon="9.585255052203896"><ele>183.0</ele><time>2026-05-03T07:47:18.994Z</time></trkpt><trkpt lat="44.89379717939222" lon="9.585252407139953"><ele>183.0</ele><time>2026-05-03T07:47:19.994Z</time></trkpt><trkpt lat="44.893547979419104" lon="9.585259970659637"><ele>183.0</ele><time>2026-05-03T07:47:20.994Z</time></trkpt><trkpt lat="44.893294758929116" lon="9.585262906550017"><ele>184.0</ele><time>2026-05-03T07:47:21.994Z</time></trkpt><trkpt lat="44.893055985761826" lon="9.585282681532622"><ele>185.0</ele><time>2026-05-03T07:47:22.994Z</time></trkpt><trkpt lat="44.89282831047758" lon="9.585287693763375"><ele>185.0</ele><time>2026-05-03T07:47:23.994Z</time></trkpt><trkpt lat="44.89261790297912" lon="9.585294207691671"><ele>185.0</ele><time>2026-05-03T07:47:24.994Z</time></trkpt><trkpt lat="44.892412689370246" lon="9.585302461920206"><ele>185.0</ele><time>2026-05-03T07:47:25.994Z</time></trkpt><trkpt lat="44.892229467028265" lon="9.585305023806924"><ele>186.25</ele><time>2026-05-03T07:47:26.994Z</time></trkpt><trkpt lat="44.8920724695796" lon="9.5853033425936"><ele>187.5</ele><time>2026-05-03T07:47:27.994Z</time></trkpt><trkpt lat="44.891926514121025" lon="9.58529798459114"><ele>188.75</ele><time>2026-05-03T07:47:28.994Z</time></trkpt><trkpt lat="44.89178225304602" lon="9.585296990437813"><ele>190.0</ele><time>2026-05-03T07:47:29.994Z</time></trkpt><trkpt lat="44.89162493809052" lon="9.585304628110785"><ele>190.0</ele><time>2026-05-03T07:47:30.994Z</time></trkpt><trkpt lat="44.89145192575186" lon="9.585324060171995"><ele>190.0</ele><time>2026-05-03T07:47:31.994Z</time></trkpt><trkpt lat="44.89126858433956" lon="9.58533214566727"><ele>190.0</ele><time>2026-05-03T07:47:32.994Z</time></trkpt><trkpt lat="44.891066178802575" lon="9.585340372566321"><ele>190.33333333333334</ele><time>2026-05-03T07:47:33.994Z</time></trkpt><trkpt lat="44.8908687882392" lon="9.585353726373038"><ele>190.66666666666666</ele><time>2026-05-03T07:47:34.994Z</time></trkpt><trkpt lat="44.890682448653415" lon="9.585363487033138"><ele>191.0</ele><time>2026-05-03T07:47:35.994Z</time></trkpt><trkpt lat="44.890513675898575" lon="9.585386216572875"><ele>191.0</ele><time>2026-05-03T07:47:36.994Z</time></trkpt><trkpt lat="44.8903424515387" lon="9.585415960093124"><ele>191.0</ele><time>2026-05-03T07:47:37.994Z</time></trkpt><trkpt lat="44.89017706658767" lon="9.585476482617501"><ele>191.0</ele><time>2026-05-03T07:47:38.994Z</time></trkpt><trkpt lat="44.89001484792549" lon="9.585524254972851"><ele>191.66666666666666</ele><time>2026-05-03T07:47:39.994Z</time></trkpt><trkpt lat="44.88985632258671" lon="9.585548113393832"><ele>192.33333333333331</ele><time>2026-05-03T07:47:40.994Z</time></trkpt><trkpt lat="44.889702493912175" lon="9.585523208053958"><ele>193.0</ele><time>2026-05-03T07:47:41.994Z</time></trkpt><trkpt lat="44.88954741768775" lon="9.585436949088386"><ele>191.66666666666666</ele><time>2026-05-03T07:47:42.994Z</time></trkpt><trkpt lat="44.8894244820828" lon="9.585303571696196"><ele>190.33333333333331</ele><time>2026-05-03T07:47:43.994Z</time></trkpt><trkpt lat="44.88929976409313" lon="9.585122830964982"><ele>189.0</ele><time>2026-05-03T07:47:44.994Z</time></trkpt><trkpt lat="44.88916954181528" lon="9.584921399541832"><ele>189.0</ele><time>2026-05-03T07:47:45.994Z</time></trkpt><trkpt lat="44.88906366774255" lon="9.58471590949243"><ele>189.0</ele><time>2026-05-03T07:47:46.994Z</time></trkpt><trkpt lat="44.88897328189691" lon="9.584521712196517"><ele>189.0</ele><time>2026-05-03T07:47:47.994Z</time></trkpt><trkpt lat="44.88884812722942" lon="9.584340869666269"><ele>187.75</ele><time>2026-05-03T07:47:48.994Z</time></trkpt><trkpt lat="44.88874843787724" lon="9.584221381727495"><ele>186.5</ele><time>2026-05-03T07:47:49.994Z</time></trkpt><trkpt lat="44.88863934480235" lon="9.584143791693307"><ele>185.25</ele><time>2026-05-03T07:47:50.994Z</time></trkpt><trkpt lat="44.88849681197265" lon="9.58410908172463"><ele>184.0</ele><time>2026-05-03T07:47:51.994Z</time></trkpt><trkpt lat="44.88830290394238" lon="9.584105408622344"><ele>184.0</ele><time>2026-05-03T07:47:52.994Z</time></trkpt><trkpt lat="44.888149777384015" lon="9.58414770121854"><ele>184.0</ele><time>2026-05-03T07:47:53.994Z</time></trkpt><trkpt lat="44.88801666825116" lon="9.584188397391761"><ele>184.0</ele><time>2026-05-03T07:47:54.994Z</time></trkpt><trkpt lat="44.8878965728563" lon="9.584190709763057"><ele>184.0</ele><time>2026-05-03T07:47:55.994Z</time></trkpt><trkpt lat="44.887801558359506" lon="9.584142665912712"><ele>184.0</ele><time>2026-05-03T07:47:56.994Z</time></trkpt><trkpt lat="44.887733098313156" lon="9.584041796616672"><ele>184.0</ele><time>2026-05-03T07:47:57.994Z</time></trkpt><trkpt lat="44.887687186739974" lon="9.58387817289674"><ele>184.0</ele><time>2026-05-03T07:47:58.994Z</time></trkpt><trkpt lat="44.88763646937623" lon="9.583705616024224"><ele>184.0</ele><time>2026-05-03T07:47:59.994Z</time></trkpt><trkpt lat="44.88754119599212" lon="9.583529134161601"><ele>182.66666666666669</ele><time>2026-05-03T07:48:00.994Z</time></trkpt><trkpt lat="44.88741956857973" lon="9.583469881331895"><ele>181.33333333333334</ele><time>2026-05-03T07:48:01.994Z</time></trkpt><trkpt lat="44.88728071095507" lon="9.583359453117733"><ele>180.0</ele><time>2026-05-03T07:48:02.994Z</time></trkpt><trkpt lat="44.886959042974446" lon="9.5833211568808"><ele>179.66666666666666</ele><time>2026-05-03T07:48:03.994Z</time></trkpt><trkpt lat="44.88675999876979" lon="9.583347389317085"><ele>179.33333333333331</ele><time>2026-05-03T07:48:04.994Z</time></trkpt><trkpt lat="44.886606949437784" lon="9.583383942529846"><ele>179.0</ele><time>2026-05-03T07:48:05.994Z</time></trkpt><trkpt lat="44.886493824584974" lon="9.583395183218176"><ele>179.0</ele><time>2026-05-03T07:48:06.994Z</time></trkpt><trkpt lat="44.886372163462426" lon="9.583399416555988"><ele>179.0</ele><time>2026-05-03T07:48:07.994Z</time></trkpt><trkpt lat="44.88626219063839" lon="9.583283345057149"><ele>179.0</ele><time>2026-05-03T07:48:08.994Z</time></trkpt><trkpt lat="44.88616816675991" lon="9.583106159720487"><ele>179.0</ele><time>2026-05-03T07:48:09.994Z</time></trkpt><trkpt lat="44.886071091459876" lon="9.582861334807186"><ele>179.33333333333331</ele><time>2026-05-03T07:48:10.994Z</time></trkpt><trkpt lat="44.88595321972854" lon="9.582601434044133"><ele>179.66666666666666</ele><time>2026-05-03T07:48:11.994Z</time></trkpt><trkpt lat="44.885837399283965" lon="9.582387874617616"><ele>180.0</ele><time>2026-05-03T07:48:12.994Z</time></trkpt><trkpt lat="44.88572215816422" lon="9.582170547992268"><ele>178.0</ele><time>2026-05-03T07:48:13.994Z</time></trkpt><trkpt lat="44.885638437576695" lon="9.5819384378215"><ele>176.0</ele><time>2026-05-03T07:48:14.994Z</time></trkpt><trkpt lat="44.88558153060094" lon="9.581691822867155"><ele>174.0</ele><time>2026-05-03T07:48:15.994Z</time></trkpt><trkpt lat="44.885555554890146" lon="9.581445445995959"><ele>174.0</ele><time>2026-05-03T07:48:16.994Z</time></trkpt><trkpt lat="44.8855312448046" lon="9.581186538788897"><ele>174.0</ele><time>2026-05-03T07:48:17.994Z</time></trkpt><trkpt lat="44.8854939678865" lon="9.580930794185498"><ele>174.0</ele><time>2026-05-03T07:48:18.994Z</time></trkpt><trkpt lat="44.885427078674525" lon="9.580672101464263"><ele>173.33333333333334</ele><time>2026-05-03T07:48:19.994Z</time></trkpt><trkpt lat="44.885340303392894" lon="9.580416689883881"><ele>172.66666666666669</ele><time>2026-05-03T07:48:20.994Z</time></trkpt><trkpt lat="44.88523518982117" lon="9.580182019640345"><ele>172.0</ele><time>2026-05-03T07:48:21.994Z</time></trkpt><trkpt lat="44.88514101709528" lon="9.579936366121089"><ele>174.33333333333334</ele><time>2026-05-03T07:48:22.994Z</time></trkpt><trkpt lat="44.88506204374493" lon="9.579674840214997"><ele>176.66666666666666</ele><time>2026-05-03T07:48:23.994Z</time></trkpt><trkpt lat="44.88500702771618" lon="9.57940018914098"><ele>179.0</ele><time>2026-05-03T07:48:24.994Z</time></trkpt><trkpt lat="44.88495471074242" lon="9.579111945842264"><ele>179.0</ele><time>2026-05-03T07:48:25.994Z</time></trkpt><trkpt lat="44.884896567048315" lon="9.57882348478064"><ele>179.0</ele><time>2026-05-03T07:48:26.994Z</time></trkpt><trkpt lat="44.88484478929664" lon="9.578544846269821"><ele>179.0</ele><time>2026-05-03T07:48:27.994Z</time></trkpt><trkpt lat="44.884793163074015" lon="9.578275427673052"><ele>178.33333333333331</ele><time>2026-05-03T07:48:28.994Z</time></trkpt><trkpt lat="44.88474818869334" lon="9.578011456938048"><ele>177.66666666666666</ele><time>2026-05-03T07:48:29.994Z</time></trkpt><trkpt lat="44.88470848968701" lon="9.577760912958377"><ele>177.0</ele><time>2026-05-03T07:48:30.994Z</time></trkpt><trkpt lat="44.88469182100868" lon="9.577519399803869"><ele>174.66666666666666</ele><time>2026-05-03T07:48:31.994Z</time></trkpt><trkpt lat="44.88469163851097" lon="9.577295177514758"><ele>172.33333333333331</ele><time>2026-05-03T07:48:32.994Z</time></trkpt><trkpt lat="44.884693142882966" lon="9.577077078587156"><ele>170.0</ele><time>2026-05-03T07:48:33.994Z</time></trkpt><trkpt lat="44.88469413654554" lon="9.576859934419138"><ele>168.75</ele><time>2026-05-03T07:48:34.994Z</time></trkpt><trkpt lat="44.88468012943516" lon="9.576647784717816"><ele>167.5</ele><time>2026-05-03T07:48:35.993Z</time></trkpt><trkpt lat="44.88464167407001" lon="9.576464646320325"><ele>166.25</ele><time>2026-05-03T07:48:36.993Z</time></trkpt><trkpt lat="44.884566690139586" lon="9.57631468372122"><ele>165.0</ele><time>2026-05-03T07:48:37.993Z</time></trkpt><trkpt lat="44.884454090521565" lon="9.576195808815964"><ele>163.33333333333334</ele><time>2026-05-03T07:48:38.993Z</time></trkpt><trkpt lat="44.88431441402172" lon="9.57608569001976"><ele>161.66666666666669</ele><time>2026-05-03T07:48:39.993Z</time></trkpt><trkpt lat="44.88417540685745" lon="9.57598798801624"><ele>160.0</ele><time>2026-05-03T07:48:40.993Z</time></trkpt><trkpt lat="44.88404752886681" lon="9.575877177721924"><ele>161.75</ele><time>2026-05-03T07:48:41.993Z</time></trkpt><trkpt lat="44.88394593437814" lon="9.575738585147404"><ele>163.5</ele><time>2026-05-03T07:48:42.993Z</time></trkpt><trkpt lat="44.88386701454649" lon="9.575574425190222"><ele>165.25</ele><time>2026-05-03T07:48:43.993Z</time></trkpt><trkpt lat="44.883854241829134" lon="9.575372428422494"><ele>167.0</ele><time>2026-05-03T07:48:44.995Z</time></trkpt><trkpt lat="44.883831192919565" lon="9.575144263457203"><ele>167.0</ele><time>2026-05-03T07:48:45.995Z</time></trkpt><trkpt lat="44.88383823342948" lon="9.574882736806382"><ele>167.0</ele><time>2026-05-03T07:48:46.995Z</time></trkpt><trkpt lat="44.8838548807" lon="9.57461910622204"><ele>167.0</ele><time>2026-05-03T07:48:47.995Z</time></trkpt><trkpt lat="44.883892221104304" lon="9.574376178951841"><ele>167.33333333333331</ele><time>2026-05-03T07:48:48.995Z</time></trkpt><trkpt lat="44.88392688257692" lon="9.57414840681293"><ele>167.66666666666666</ele><time>2026-05-03T07:48:49.995Z</time></trkpt><trkpt lat="44.88396701940603" lon="9.573927594023779"><ele>168.0</ele><time>2026-05-03T07:48:50.995Z</time></trkpt><trkpt lat="44.88394248306512" lon="9.573694184566893"><ele>168.0</ele><time>2026-05-03T07:48:51.995Z</time></trkpt><trkpt lat="44.88388207266506" lon="9.573451211592069"><ele>168.0</ele><time>2026-05-03T07:48:52.995Z</time></trkpt><trkpt lat="44.88379266524261" lon="9.573194883043616"><ele>168.0</ele><time>2026-05-03T07:48:53.994Z</time></trkpt><trkpt lat="44.88369082721342" lon="9.572917411589899"><ele>167.0</ele><time>2026-05-03T07:48:54.994Z</time></trkpt><trkpt lat="44.883586150385035" lon="9.57263565531306"><ele>166.0</ele><time>2026-05-03T07:48:55.994Z</time></trkpt><trkpt lat="44.88349107779825" lon="9.572376051419901"><ele>165.0</ele><time>2026-05-03T07:48:56.994Z</time></trkpt><trkpt lat="44.883406923281264" lon="9.572125911691625"><ele>166.33333333333334</ele><time>2026-05-03T07:48:57.995Z</time></trkpt><trkpt lat="44.88331125604374" lon="9.571859649347083"><ele>167.66666666666669</ele><time>2026-05-03T07:48:58.995Z</time></trkpt><trkpt lat="44.8832311360059" lon="9.571604149916668"><ele>169.0</ele><time>2026-05-03T07:48:59.995Z</time></trkpt><trkpt lat="44.88313617718818" lon="9.571342308166775"><ele>167.66666666666669</ele><time>2026-05-03T07:49:00.995Z</time></trkpt><trkpt lat="44.88304366761296" lon="9.571081155599744"><ele>166.33333333333334</ele><time>2026-05-03T07:49:01.995Z</time></trkpt><trkpt lat="44.88295161613165" lon="9.570818343768966"><ele>165.0</ele><time>2026-05-03T07:49:02.995Z</time></trkpt><trkpt lat="44.88285957257506" lon="9.57055077128402"><ele>164.33333333333334</ele><time>2026-05-03T07:49:03.995Z</time></trkpt><trkpt lat="44.88276589092376" lon="9.570292963290653"><ele>163.66666666666669</ele><time>2026-05-03T07:49:04.995Z</time></trkpt><trkpt lat="44.8826772675583" lon="9.570043024479572"><ele>163.0</ele><time>2026-05-03T07:49:05.994Z</time></trkpt><trkpt lat="44.882589536030885" lon="9.569794058722115"><ele>165.66666666666669</ele><time>2026-05-03T07:49:06.994Z</time></trkpt><trkpt lat="44.882501287640814" lon="9.569542757023992"><ele>168.33333333333334</ele><time>2026-05-03T07:49:07.994Z</time></trkpt><trkpt lat="44.88240909742218" lon="9.569285074193774"><ele>171.0</ele><time>2026-05-03T07:49:08.994Z</time></trkpt><trkpt lat="44.882317823194015" lon="9.569023554149783"><ele>171.0</ele><time>2026-05-03T07:49:09.994Z</time></trkpt><trkpt lat="44.88222602251211" lon="9.568763730064182"><ele>171.0</ele><time>2026-05-03T07:49:10.994Z</time></trkpt><trkpt lat="44.88213434188021" lon="9.568502473638665"><ele>171.0</ele><time>2026-05-03T07:49:11.994Z</time></trkpt><trkpt lat="44.882048568587656" lon="9.568246714851202"><ele>169.66666666666666</ele><time>2026-05-03T07:49:12.994Z</time></trkpt><trkpt lat="44.881959784595175" lon="9.568004878209168"><ele>168.33333333333331</ele><time>2026-05-03T07:49:13.994Z</time></trkpt><trkpt lat="44.881875184882674" lon="9.5677640081458"><ele>167.0</ele><time>2026-05-03T07:49:14.994Z</time></trkpt><trkpt lat="44.88178661698117" lon="9.567534548159436"><ele>167.66666666666666</ele><time>2026-05-03T07:49:15.994Z</time></trkpt><trkpt lat="44.88167923934047" lon="9.56732258729947"><ele>168.33333333333334</ele><time>2026-05-03T07:49:16.994Z</time></trkpt><trkpt lat="44.8815534559726" lon="9.567123122897646"><ele>169.0</ele><time>2026-05-03T07:49:17.994Z</time></trkpt><trkpt lat="44.88141353930686" lon="9.566926257161319"><ele>169.0</ele><time>2026-05-03T07:49:18.994Z</time></trkpt><trkpt lat="44.88126174636634" lon="9.566736415950466"><ele>169.0</ele><time>2026-05-03T07:49:19.994Z</time></trkpt><trkpt lat="44.88110241343276" lon="9.566533457751802"><ele>169.0</ele><time>2026-05-03T07:49:20.994Z</time></trkpt><trkpt lat="44.88094718718626" lon="9.566315901784519"><ele>169.0</ele><time>2026-05-03T07:49:21.994Z</time></trkpt><trkpt lat="44.88079244142614" lon="9.566105684854467"><ele>169.0</ele><time>2026-05-03T07:49:22.994Z</time></trkpt><trkpt lat="44.880628318952084" lon="9.5658935596262"><ele>169.0</ele><time>2026-05-03T07:49:23.994Z</time></trkpt><trkpt lat="44.88046357339478" lon="9.565680253844812"><ele>169.0</ele><time>2026-05-03T07:49:24.994Z</time></trkpt><trkpt lat="44.88029968195124" lon="9.565465422735748"><ele>169.0</ele><time>2026-05-03T07:49:25.994Z</time></trkpt><trkpt lat="44.88013901814536" lon="9.565257122066066"><ele>169.0</ele><time>2026-05-03T07:49:26.994Z</time></trkpt><trkpt lat="44.87999290031474" lon="9.565038079503793"><ele>170.66666666666669</ele><time>2026-05-03T07:49:27.994Z</time></trkpt><trkpt lat="44.87985139111848" lon="9.564845995555434"><ele>172.33333333333334</ele><time>2026-05-03T07:49:28.994Z</time></trkpt><trkpt lat="44.87970864887902" lon="9.564652237864703"><ele>174.0</ele><time>2026-05-03T07:49:29.994Z</time></trkpt><trkpt lat="44.87956250031713" lon="9.564454273452887"><ele>176.33333333333334</ele><time>2026-05-03T07:49:30.994Z</time></trkpt><trkpt lat="44.879405626395034" lon="9.564276095007243"><ele>178.66666666666669</ele><time>2026-05-03T07:49:31.994Z</time></trkpt><trkpt lat="44.87926819112126" lon="9.564076262095638"><ele>181.0</ele><time>2026-05-03T07:49:32.994Z</time></trkpt><trkpt lat="44.87914078224986" lon="9.563900037016621"><ele>181.0</ele><time>2026-05-03T07:49:33.994Z</time></trkpt><trkpt lat="44.87901346313581" lon="9.563720608813622"><ele>181.0</ele><time>2026-05-03T07:49:34.994Z</time></trkpt><trkpt lat="44.87888266596494" lon="9.563529808749903"><ele>181.0</ele><time>2026-05-03T07:49:35.994Z</time></trkpt><trkpt lat="44.878727675426106" lon="9.56335646625541"><ele>181.0</ele><time>2026-05-03T07:49:36.994Z</time></trkpt><trkpt lat="44.87859167642548" lon="9.563174016466101"><ele>181.0</ele><time>2026-05-03T07:49:37.994Z</time></trkpt><trkpt lat="44.878428921881" lon="9.56294960265099"><ele>181.0</ele><time>2026-05-03T07:49:38.994Z</time></trkpt><trkpt lat="44.878266526904376" lon="9.562760380081517"><ele>178.66666666666669</ele><time>2026-05-03T07:49:39.994Z</time></trkpt><trkpt lat="44.87810177643813" lon="9.562584776846428"><ele>176.33333333333334</ele><time>2026-05-03T07:49:40.994Z</time></trkpt><trkpt lat="44.87793433055084" lon="9.562403784367902"><ele>174.0</ele><time>2026-05-03T07:49:41.994Z</time></trkpt><trkpt lat="44.87776848708632" lon="9.562225794105977"><ele>174.33333333333334</ele><time>2026-05-03T07:49:42.994Z</time></trkpt><trkpt lat="44.87759665328174" lon="9.56205043296622"><ele>174.66666666666669</ele><time>2026-05-03T07:49:43.994Z</time></trkpt><trkpt lat="44.87742278784487" lon="9.561883207283573"><ele>175.0</ele><time>2026-05-03T07:49:44.994Z</time></trkpt><trkpt lat="44.877252154723536" lon="9.561710186637484"><ele>175.0</ele><time>2026-05-03T07:49:45.994Z</time></trkpt><trkpt lat="44.877085339406904" lon="9.561534627709406"><ele>175.0</ele><time>2026-05-03T07:49:46.994Z</time></trkpt><trkpt lat="44.87692113663398" lon="9.561366303923394"><ele>175.0</ele><time>2026-05-03T07:49:47.994Z</time></trkpt><trkpt lat="44.87675198952316" lon="9.561213542012641"><ele>175.0</ele><time>2026-05-03T07:49:48.994Z</time></trkpt><trkpt lat="44.87657561772595" lon="9.56109062617066"><ele>175.0</ele><time>2026-05-03T07:49:49.994Z</time></trkpt><trkpt lat="44.8763856113533" lon="9.560994306476914"><ele>175.0</ele><time>2026-05-03T07:49:50.994Z</time></trkpt><trkpt lat="44.87619508520885" lon="9.560917257239183"><ele>175.0</ele><time>2026-05-03T07:49:51.994Z</time></trkpt><trkpt lat="44.876004432729715" lon="9.560871961660833"><ele>175.0</ele><time>2026-05-03T07:49:52.994Z</time></trkpt><trkpt lat="44.87581506119482" lon="9.56087871775284"><ele>175.0</ele><time>2026-05-03T07:49:53.994Z</time></trkpt><trkpt lat="44.875629812967865" lon="9.56091862233623"><ele>175.33333333333334</ele><time>2026-05-03T07:49:54.994Z</time></trkpt><trkpt lat="44.87544275545392" lon="9.560970497104575"><ele>175.66666666666666</ele><time>2026-05-03T07:49:55.994Z</time></trkpt><trkpt lat="44.875262424431526" lon="9.561012175718119"><ele>176.0</ele><time>2026-05-03T07:49:56.994Z</time></trkpt><trkpt lat="44.875094010426764" lon="9.561039929989116"><ele>176.33333333333331</ele><time>2026-05-03T07:49:57.994Z</time></trkpt><trkpt lat="44.874940335476346" lon="9.561058733453427"><ele>176.66666666666666</ele><time>2026-05-03T07:49:58.994Z</time></trkpt><trkpt lat="44.874793247638365" lon="9.561048754316332"><ele>177.0</ele><time>2026-05-03T07:49:59.994Z</time></trkpt><trkpt lat="44.87464382634763" lon="9.560990164271395"><ele>177.0</ele><time>2026-05-03T07:50:00.994Z</time></trkpt><trkpt lat="44.874495675097776" lon="9.560882616764161"><ele>177.0</ele><time>2026-05-03T07:50:01.994Z</time></trkpt><trkpt lat="44.874338813637806" lon="9.560753103248993"><ele>177.0</ele><time>2026-05-03T07:50:02.994Z</time></trkpt><trkpt lat="44.87417760327601" lon="9.560625017486418"><ele>177.66666666666666</ele><time>2026-05-03T07:50:03.994Z</time></trkpt><trkpt lat="44.87401333125433" lon="9.560508806829684"><ele>178.33333333333331</ele><time>2026-05-03T07:50:04.994Z</time></trkpt><trkpt lat="44.873846282762706" lon="9.560390291545906"><ele>179.0</ele><time>2026-05-03T07:50:05.994Z</time></trkpt><trkpt lat="44.87367855915591" lon="9.560271382805004"><ele>179.66666666666666</ele><time>2026-05-03T07:50:06.994Z</time></trkpt><trkpt lat="44.873511584444934" lon="9.560139096484274"><ele>180.33333333333334</ele><time>2026-05-03T07:50:07.994Z</time></trkpt><trkpt lat="44.873365025549646" lon="9.560009707258128"><ele>181.0</ele><time>2026-05-03T07:50:08.994Z</time></trkpt><trkpt lat="44.87322946961992" lon="9.559895138075971"><ele>181.0</ele><time>2026-05-03T07:50:09.994Z</time></trkpt><trkpt lat="44.87308933059869" lon="9.55978255605418"><ele>181.0</ele><time>2026-05-03T07:50:10.994Z</time></trkpt><trkpt lat="44.87293650220952" lon="9.559680669329081"><ele>181.0</ele><time>2026-05-03T07:50:11.994Z</time></trkpt><trkpt lat="44.87277568907198" lon="9.559579949955543"><ele>180.0</ele><time>2026-05-03T07:50:12.994Z</time></trkpt><trkpt lat="44.87261354941966" lon="9.559472548137247"><ele>179.0</ele><time>2026-05-03T07:50:13.994Z</time></trkpt><trkpt lat="44.872469591030196" lon="9.55935980747717"><ele>178.0</ele><time>2026-05-03T07:50:14.994Z</time></trkpt><trkpt lat="44.872330656737" lon="9.559235593507479"><ele>178.0</ele><time>2026-05-03T07:50:15.994Z</time></trkpt><trkpt lat="44.87221877256957" lon="9.559065979620666"><ele>178.0</ele><time>2026-05-03T07:50:16.994Z</time></trkpt><trkpt lat="44.872129366152414" lon="9.55885148978264"><ele>178.0</ele><time>2026-05-03T07:50:17.994Z</time></trkpt><trkpt lat="44.872064545757816" lon="9.558641197764041"><ele>177.0</ele><time>2026-05-03T07:50:18.994Z</time></trkpt><trkpt lat="44.87200184704337" lon="9.558448132736757"><ele>176.0</ele><time>2026-05-03T07:50:19.994Z</time></trkpt><trkpt lat="44.87193794349346" lon="9.558267265331041"><ele>175.0</ele><time>2026-05-03T07:50:20.994Z</time></trkpt><trkpt lat="44.87185373294753" lon="9.558100982586113"><ele>174.0</ele><time>2026-05-03T07:50:21.994Z</time></trkpt><trkpt lat="44.871752103228125" lon="9.557948031824537"><ele>175.33333333333334</ele><time>2026-05-03T07:50:22.994Z</time></trkpt><trkpt lat="44.871623897725584" lon="9.55781279203866"><ele>176.66666666666669</ele><time>2026-05-03T07:50:23.994Z</time></trkpt><trkpt lat="44.87148648443831" lon="9.557705890529517"><ele>178.0</ele><time>2026-05-03T07:50:24.994Z</time></trkpt><trkpt lat="44.87133966529988" lon="9.55762867164153"><ele>178.0</ele><time>2026-05-03T07:50:25.994Z</time></trkpt><trkpt lat="44.871186843235115" lon="9.557584371406"><ele>178.0</ele><time>2026-05-03T07:50:26.994Z</time></trkpt><trkpt lat="44.87102880515208" lon="9.55759364956783"><ele>178.0</ele><time>2026-05-03T07:50:27.994Z</time></trkpt><trkpt lat="44.87086158594082" lon="9.557629917892774"><ele>180.66666666666669</ele><time>2026-05-03T07:50:28.994Z</time></trkpt><trkpt lat="44.87069272037758" lon="9.557683367486096"><ele>183.33333333333334</ele><time>2026-05-03T07:50:29.994Z</time></trkpt><trkpt lat="44.87051355225082" lon="9.55770484876434"><ele>186.0</ele><time>2026-05-03T07:50:30.994Z</time></trkpt><trkpt lat="44.87033819473429" lon="9.557764133947405"><ele>186.0</ele><time>2026-05-03T07:50:31.994Z</time></trkpt><trkpt lat="44.87016398552291" lon="9.557817362683899"><ele>186.0</ele><time>2026-05-03T07:50:32.994Z</time></trkpt><trkpt lat="44.87000454322493" lon="9.557863583256985"><ele>186.0</ele><time>2026-05-03T07:50:33.994Z</time></trkpt><trkpt lat="44.86984894480392" lon="9.557903338022768"><ele>189.33333333333331</ele><time>2026-05-03T07:50:34.994Z</time></trkpt><trkpt lat="44.869686321590926" lon="9.557921560322029"><ele>192.66666666666666</ele><time>2026-05-03T07:50:35.994Z</time></trkpt><trkpt lat="44.86952101962874" lon="9.557908267463961"><ele>196.0</ele><time>2026-05-03T07:50:36.994Z</time></trkpt><trkpt lat="44.86935062340395" lon="9.557871944144264"><ele>192.33333333333331</ele><time>2026-05-03T07:50:37.994Z</time></trkpt><trkpt lat="44.86918717733918" lon="9.55783159345958"><ele>188.66666666666666</ele><time>2026-05-03T07:50:38.994Z</time></trkpt><trkpt lat="44.86903424831093" lon="9.557771100089752"><ele>185.0</ele><time>2026-05-03T07:50:39.994Z</time></trkpt><trkpt lat="44.868890870545876" lon="9.557676958322249"><ele>185.0</ele><time>2026-05-03T07:50:40.994Z</time></trkpt><trkpt lat="44.86876262748547" lon="9.557515661157815"><ele>185.0</ele><time>2026-05-03T07:50:41.994Z</time></trkpt><trkpt lat="44.86866853341014" lon="9.557323112218786"><ele>185.0</ele><time>2026-05-03T07:50:42.994Z</time></trkpt><trkpt lat="44.868577979045895" lon="9.557114342550156"><ele>186.0</ele><time>2026-05-03T07:50:43.994Z</time></trkpt><trkpt lat="44.86849303282903" lon="9.556910324527308"><ele>187.0</ele><time>2026-05-03T07:50:44.994Z</time></trkpt><trkpt lat="44.86839929198364" lon="9.55672726020484"><ele>188.0</ele><time>2026-05-03T07:50:45.994Z</time></trkpt><trkpt lat="44.868301116881526" lon="9.556551371943659"><ele>188.0</ele><time>2026-05-03T07:50:46.994Z</time></trkpt><trkpt lat="44.868188788376095" lon="9.556404227236902"><ele>188.0</ele><time>2026-05-03T07:50:47.994Z</time></trkpt><trkpt lat="44.868057341744" lon="9.556293794639325"><ele>188.0</ele><time>2026-05-03T07:50:48.994Z</time></trkpt><trkpt lat="44.86790793318084" lon="9.55622357913977"><ele>187.33333333333331</ele><time>2026-05-03T07:50:49.994Z</time></trkpt><trkpt lat="44.86773573942471" lon="9.556180163796661"><ele>186.66666666666666</ele><time>2026-05-03T07:50:50.994Z</time></trkpt><trkpt lat="44.867559260639915" lon="9.556118737520054"><ele>186.0</ele><time>2026-05-03T07:50:51.995Z</time></trkpt><trkpt lat="44.86738040063539" lon="9.556063776263084"><ele>186.0</ele><time>2026-05-03T07:50:52.994Z</time></trkpt><trkpt lat="44.86720953513805" lon="9.556010096957024"><ele>186.0</ele><time>2026-05-03T07:50:53.994Z</time></trkpt><trkpt lat="44.86706013456542" lon="9.555904037433935"><ele>186.0</ele><time>2026-05-03T07:50:54.995Z</time></trkpt><trkpt lat="44.86693631169151" lon="9.555741629141654"><ele>186.0</ele><time>2026-05-03T07:50:55.995Z</time></trkpt><trkpt lat="44.86680501289566" lon="9.555601019331412"><ele>186.0</ele><time>2026-05-03T07:50:56.994Z</time></trkpt><trkpt lat="44.86669556333254" lon="9.555440721721517"><ele>186.0</ele><time>2026-05-03T07:50:57.994Z</time></trkpt><trkpt lat="44.86658655168166" lon="9.555283814776947"><ele>186.0</ele><time>2026-05-03T07:50:58.994Z</time></trkpt><trkpt lat="44.866478510621405" lon="9.555141228887628"><ele>186.0</ele><time>2026-05-03T07:50:59.995Z</time></trkpt><trkpt lat="44.866371429968495" lon="9.55500212620356"><ele>186.0</ele><time>2026-05-03T07:51:00.995Z</time></trkpt><trkpt lat="44.86626651348767" lon="9.554870663029444"><ele>186.0</ele><time>2026-05-03T07:51:01.995Z</time></trkpt><trkpt lat="44.866161945959625" lon="9.554760631160086"><ele>186.0</ele><time>2026-05-03T07:51:02.994Z</time></trkpt><trkpt lat="44.86604354266923" lon="9.55468326293825"><ele>186.0</ele><time>2026-05-03T07:51:03.995Z</time></trkpt><trkpt lat="44.86591757789157" lon="9.55464975113352"><ele>186.0</ele><time>2026-05-03T07:51:04.995Z</time></trkpt><trkpt lat="44.86577763012575" lon="9.554665837182178"><ele>186.0</ele><time>2026-05-03T07:51:05.995Z</time></trkpt><trkpt lat="44.8656197384956" lon="9.55471050436808"><ele>188.33333333333331</ele><time>2026-05-03T07:51:06.995Z</time></trkpt><trkpt lat="44.86544896538936" lon="9.554759553289506"><ele>190.66666666666666</ele><time>2026-05-03T07:51:07.995Z</time></trkpt><trkpt lat="44.865264677362156" lon="9.554801116779997"><ele>193.0</ele><time>2026-05-03T07:51:08.995Z</time></trkpt><trkpt lat="44.865071484497214" lon="9.554848207136802"><ele>193.0</ele><time>2026-05-03T07:51:09.995Z</time></trkpt><trkpt lat="44.86487646014998" lon="9.554894430489213"><ele>193.0</ele><time>2026-05-03T07:51:10.995Z</time></trkpt><trkpt lat="44.86468213826089" lon="9.554951889652969"><ele>193.0</ele><time>2026-05-03T07:51:11.995Z</time></trkpt><trkpt lat="44.86449495871066" lon="9.55500868787721"><ele>193.0</ele><time>2026-05-03T07:51:12.995Z</time></trkpt><trkpt lat="44.86432347736458" lon="9.555063011593763"><ele>193.0</ele><time>2026-05-03T07:51:13.995Z</time></trkpt><trkpt lat="44.864155172377906" lon="9.555117572868498"><ele>193.0</ele><time>2026-05-03T07:51:14.995Z</time></trkpt><trkpt lat="44.864003151542796" lon="9.55515591063555"><ele>191.33333333333331</ele><time>2026-05-03T07:51:15.995Z</time></trkpt><trkpt lat="44.86384431039688" lon="9.555198838860044"><ele>189.66666666666666</ele><time>2026-05-03T07:51:16.995Z</time></trkpt><trkpt lat="44.863695022867354" lon="9.555221473470418"><ele>188.0</ele><time>2026-05-03T07:51:17.995Z</time></trkpt><trkpt lat="44.86354711973853" lon="9.55520330396666"><ele>188.0</ele><time>2026-05-03T07:51:18.995Z</time></trkpt><trkpt lat="44.8633915474412" lon="9.555143691495648"><ele>188.0</ele><time>2026-05-03T07:51:19.995Z</time></trkpt><trkpt lat="44.86323840984273" lon="9.555053089304662"><ele>188.0</ele><time>2026-05-03T07:51:20.995Z</time></trkpt><trkpt lat="44.86309879492498" lon="9.5549277064535"><ele>188.0</ele><time>2026-05-03T07:51:21.994Z</time></trkpt><trkpt lat="44.862969027059194" lon="9.554757802599017"><ele>188.0</ele><time>2026-05-03T07:51:22.994Z</time></trkpt><trkpt lat="44.86288351174483" lon="9.55453860547372"><ele>188.0</ele><time>2026-05-03T07:51:23.994Z</time></trkpt><trkpt lat="44.86279054117741" lon="9.554319169395045"><ele>189.0</ele><time>2026-05-03T07:51:24.994Z</time></trkpt><trkpt lat="44.86269744512525" lon="9.554102254944697"><ele>190.0</ele><time>2026-05-03T07:51:25.994Z</time></trkpt><trkpt lat="44.86258839360041" lon="9.553905985457808"><ele>191.0</ele><time>2026-05-03T07:51:26.994Z</time></trkpt><trkpt lat="44.86245107590901" lon="9.55375981181335"><ele>187.33333333333331</ele><time>2026-05-03T07:51:27.994Z</time></trkpt><trkpt lat="44.8623096036181" lon="9.55363811870626"><ele>183.66666666666666</ele><time>2026-05-03T07:51:28.994Z</time></trkpt><trkpt lat="44.86215996022526" lon="9.553517447194483"><ele>180.0</ele><time>2026-05-03T07:51:29.994Z</time></trkpt><trkpt lat="44.86201248675779" lon="9.553416237958801"><ele>180.0</ele><time>2026-05-03T07:51:30.994Z</time></trkpt><trkpt lat="44.86187058444316" lon="9.553308140815679"><ele>180.0</ele><time>2026-05-03T07:51:31.994Z</time></trkpt><trkpt lat="44.86176388742293" lon="9.55315390441322"><ele>180.0</ele><time>2026-05-03T07:51:32.994Z</time></trkpt><trkpt lat="44.86166623041687" lon="9.552966136781475"><ele>181.66666666666666</ele><time>2026-05-03T07:51:33.994Z</time></trkpt><trkpt lat="44.86156892539617" lon="9.552766631750085"><ele>183.33333333333331</ele><time>2026-05-03T07:51:34.994Z</time></trkpt><trkpt lat="44.8614758913669" lon="9.552565132165883"><ele>185.0</ele><time>2026-05-03T07:51:35.994Z</time></trkpt><trkpt lat="44.86140095169431" lon="9.552375149330906"><ele>185.0</ele><time>2026-05-03T07:51:36.994Z</time></trkpt><trkpt lat="44.86131557991149" lon="9.552181937212811"><ele>185.0</ele><time>2026-05-03T07:51:37.994Z</time></trkpt><trkpt lat="44.861198050257315" lon="9.552017216114864"><ele>185.0</ele><time>2026-05-03T07:51:38.994Z</time></trkpt><trkpt lat="44.86105654296209" lon="9.551867718084075"><ele>185.66666666666666</ele><time>2026-05-03T07:51:39.994Z</time></trkpt><trkpt lat="44.8609071186309" lon="9.551714964146084"><ele>186.33333333333334</ele><time>2026-05-03T07:51:40.994Z</time></trkpt><trkpt lat="44.86072957778386" lon="9.551591583909845"><ele>187.0</ele><time>2026-05-03T07:51:41.994Z</time></trkpt><trkpt lat="44.86056948406595" lon="9.551419020920477"><ele>187.0</ele><time>2026-05-03T07:51:42.994Z</time></trkpt><trkpt lat="44.860417739337855" lon="9.551243450868283"><ele>187.0</ele><time>2026-05-03T07:51:43.994Z</time></trkpt><trkpt lat="44.86026899330572" lon="9.551064142286586"><ele>187.0</ele><time>2026-05-03T07:51:44.994Z</time></trkpt><trkpt lat="44.860126460360725" lon="9.550869928354825"><ele>189.33333333333334</ele><time>2026-05-03T07:51:45.994Z</time></trkpt><trkpt lat="44.86000491936193" lon="9.55064338060766"><ele>191.66666666666669</ele><time>2026-05-03T07:51:46.994Z</time></trkpt><trkpt lat="44.859853646305034" lon="9.550450846245578"><ele>194.0</ele><time>2026-05-03T07:51:47.994Z</time></trkpt><trkpt lat="44.85968576489617" lon="9.5502716384858"><ele>196.33333333333334</ele><time>2026-05-03T07:51:48.994Z</time></trkpt><trkpt lat="44.85951180890543" lon="9.550103175161185"><ele>198.66666666666669</ele><time>2026-05-03T07:51:49.994Z</time></trkpt><trkpt lat="44.85933476268781" lon="9.549929436369524"><ele>201.0</ele><time>2026-05-03T07:51:50.994Z</time></trkpt><trkpt lat="44.85917741303127" lon="9.549770368676956"><ele>201.0</ele><time>2026-05-03T07:51:51.994Z</time></trkpt><trkpt lat="44.85903112394087" lon="9.549641831865195"><ele>201.0</ele><time>2026-05-03T07:51:52.994Z</time></trkpt><trkpt lat="44.85893879503866" lon="9.549531150853635"><ele>201.0</ele><time>2026-05-03T07:51:53.994Z</time></trkpt><trkpt lat="44.85866515491999" lon="9.549265368977947"><ele>200.66666666666669</ele><time>2026-05-03T07:51:54.994Z</time></trkpt><trkpt lat="44.85851343605038" lon="9.549117315604027"><ele>200.33333333333334</ele><time>2026-05-03T07:51:55.994Z</time></trkpt><trkpt lat="44.858359454958894" lon="9.548977224731201"><ele>200.0</ele><time>2026-05-03T07:51:56.994Z</time></trkpt><trkpt lat="44.85823739757588" lon="9.548805855047133"><ele>192.0</ele><time>2026-05-03T07:51:57.994Z</time></trkpt><trkpt lat="44.85809192056334" lon="9.548679158744067"><ele>184.0</ele><time>2026-05-03T07:51:58.994Z</time></trkpt><trkpt lat="44.857952814370535" lon="9.54853983116702"><ele>176.0</ele><time>2026-05-03T07:51:59.994Z</time></trkpt><trkpt lat="44.85778927689014" lon="9.54843292692148"><ele>179.0</ele><time>2026-05-03T07:52:00.994Z</time></trkpt><trkpt lat="44.85761649271323" lon="9.548360742378097"><ele>182.0</ele><time>2026-05-03T07:52:01.994Z</time></trkpt><trkpt lat="44.85744550048359" lon="9.54829098253628"><ele>185.0</ele><time>2026-05-03T07:52:02.994Z</time></trkpt><trkpt lat="44.85726712916458" lon="9.54821352056701"><ele>185.0</ele><time>2026-05-03T07:52:03.994Z</time></trkpt><trkpt lat="44.85708047475581" lon="9.548127380788241"><ele>185.0</ele><time>2026-05-03T07:52:04.994Z</time></trkpt><trkpt lat="44.85689092048382" lon="9.548036881796659"><ele>185.0</ele><time>2026-05-03T07:52:05.994Z</time></trkpt><trkpt lat="44.856708747364635" lon="9.547946579860074"><ele>183.0</ele><time>2026-05-03T07:52:06.994Z</time></trkpt><trkpt lat="44.856535552450566" lon="9.547861144780857"><ele>181.0</ele><time>2026-05-03T07:52:07.994Z</time></trkpt><trkpt lat="44.85637085709598" lon="9.547784923832898"><ele>179.0</ele><time>2026-05-03T07:52:08.994Z</time></trkpt><trkpt lat="44.85621869017004" lon="9.547682680957859"><ele>179.0</ele><time>2026-05-03T07:52:09.994Z</time></trkpt><trkpt lat="44.856083723700614" lon="9.547553686938976"><ele>179.0</ele><time>2026-05-03T07:52:10.994Z</time></trkpt><trkpt lat="44.855951111600184" lon="9.547391527419192"><ele>179.0</ele><time>2026-05-03T07:52:11.994Z</time></trkpt><trkpt lat="44.85580214572631" lon="9.547205507446725"><ele>180.33333333333331</ele><time>2026-05-03T07:52:12.994Z</time></trkpt><trkpt lat="44.85564273159485" lon="9.547004828283514"><ele>181.66666666666666</ele><time>2026-05-03T07:52:13.994Z</time></trkpt><trkpt lat="44.85547567501982" lon="9.546797412472163"><ele>183.0</ele><time>2026-05-03T07:52:14.994Z</time></trkpt><trkpt lat="44.85529470526119" lon="9.5466015506147"><ele>183.0</ele><time>2026-05-03T07:52:15.994Z</time></trkpt><trkpt lat="44.855134366047245" lon="9.546373088154716"><ele>183.0</ele><time>2026-05-03T07:52:16.994Z</time></trkpt><trkpt lat="44.85497475683548" lon="9.54617465660165"><ele>183.0</ele><time>2026-05-03T07:52:17.994Z</time></trkpt><trkpt lat="44.85481209838052" lon="9.545956603694266"><ele>183.0</ele><time>2026-05-03T07:52:18.994Z</time></trkpt><trkpt lat="44.854702753833806" lon="9.545824772409008"><ele>183.0</ele><time>2026-05-03T07:52:19.994Z</time></trkpt><trkpt lat="44.854624571741766" lon="9.54572286380186"><ele>183.0</ele><time>2026-05-03T07:52:20.994Z</time></trkpt><trkpt lat="44.85454075441814" lon="9.545614260372561"><ele>183.0</ele><time>2026-05-03T07:52:21.994Z</time></trkpt><trkpt lat="44.85445126030906" lon="9.54543879384885"><ele>184.5</ele><time>2026-05-03T07:52:22.994Z</time></trkpt><trkpt lat="44.85437487142801" lon="9.545277317476392"><ele>186.0</ele><time>2026-05-03T07:52:23.994Z</time></trkpt><trkpt lat="44.854304853224164" lon="9.545125034765865"><ele>187.5</ele><time>2026-05-03T07:52:24.994Z</time></trkpt><trkpt lat="44.85423755355796" lon="9.544987109152483"><ele>189.0</ele><time>2026-05-03T07:52:25.994Z</time></trkpt><trkpt lat="44.85416761061299" lon="9.544866868021211"><ele>189.0</ele><time>2026-05-03T07:52:26.994Z</time></trkpt><trkpt lat="44.85411577577397" lon="9.544756448769478"><ele>189.0</ele><time>2026-05-03T07:52:27.994Z</time></trkpt><trkpt lat="44.854066235901335" lon="9.544663710962672"><ele>189.0</ele><time>2026-05-03T07:52:28.994Z</time></trkpt><trkpt lat="44.85401102482477" lon="9.544571673353328"><ele>189.0</ele><time>2026-05-03T07:52:29.994Z</time></trkpt><trkpt lat="44.85396654347216" lon="9.544444120946817"><ele>189.0</ele><time>2026-05-03T07:52:30.994Z</time></trkpt><trkpt lat="44.853933470646865" lon="9.5442751921388"><ele>186.66666666666666</ele><time>2026-05-03T07:52:31.994Z</time></trkpt><trkpt lat="44.85389772993754" lon="9.544089193606451"><ele>184.33333333333331</ele><time>2026-05-03T07:52:32.994Z</time></trkpt><trkpt lat="44.853870685849174" lon="9.543858281859727"><ele>182.0</ele><time>2026-05-03T07:52:33.994Z</time></trkpt><trkpt lat="44.853840614973585" lon="9.54363527957464"><ele>181.5</ele><time>2026-05-03T07:52:34.994Z</time></trkpt><trkpt lat="44.85380475179697" lon="9.543428160310153"><ele>181.0</ele><time>2026-05-03T07:52:35.994Z</time></trkpt><trkpt lat="44.853775336058064" lon="9.543224386827445"><ele>180.5</ele><time>2026-05-03T07:52:36.994Z</time></trkpt><trkpt lat="44.85374347774172" lon="9.543028130204956"><ele>180.0</ele><time>2026-05-03T07:52:37.994Z</time></trkpt><trkpt lat="44.85369403903937" lon="9.542830626520066"><ele>178.0</ele><time>2026-05-03T07:52:38.994Z</time></trkpt><trkpt lat="44.8535999567792" lon="9.542635085529946"><ele>176.0</ele><time>2026-05-03T07:52:39.994Z</time></trkpt><trkpt lat="44.85347113348543" lon="9.542461901173375"><ele>174.0</ele><time>2026-05-03T07:52:40.994Z</time></trkpt><trkpt lat="44.85332565048406" lon="9.542312281293674"><ele>175.66666666666666</ele><time>2026-05-03T07:52:41.994Z</time></trkpt><trkpt lat="44.853187910785245" lon="9.542158757363925"><ele>177.33333333333331</ele><time>2026-05-03T07:52:42.994Z</time></trkpt><trkpt lat="44.85301563043681" lon="9.542048984328"><ele>179.0</ele><time>2026-05-03T07:52:43.994Z</time></trkpt><trkpt lat="44.85284210046225" lon="9.541937814322075"><ele>179.0</ele><time>2026-05-03T07:52:44.994Z</time></trkpt><trkpt lat="44.852682326864574" lon="9.541825379499663"><ele>179.0</ele><time>2026-05-03T07:52:45.994Z</time></trkpt><trkpt lat="44.85251447464674" lon="9.54172225990881"><ele>179.0</ele><time>2026-05-03T07:52:46.994Z</time></trkpt><trkpt lat="44.85235334628838" lon="9.54161563173098"><ele>183.66666666666666</ele><time>2026-05-03T07:52:47.994Z</time></trkpt><trkpt lat="44.85220322608863" lon="9.541520846725659"><ele>188.33333333333331</ele><time>2026-05-03T07:52:48.994Z</time></trkpt><trkpt lat="44.85205186793255" lon="9.541433851628868"><ele>193.0</ele><time>2026-05-03T07:52:49.994Z</time></trkpt><trkpt lat="44.851923335496174" lon="9.541305322636665"><ele>192.0</ele><time>2026-05-03T07:52:50.994Z</time></trkpt><trkpt lat="44.851773667732935" lon="9.541220961606916"><ele>191.0</ele><time>2026-05-03T07:52:51.994Z</time></trkpt><trkpt lat="44.85162679522554" lon="9.541134020371052"><ele>190.0</ele><time>2026-05-03T07:52:52.994Z</time></trkpt><trkpt lat="44.85148169123321" lon="9.541044347746173"><ele>190.0</ele><time>2026-05-03T07:52:53.994Z</time></trkpt><trkpt lat="44.85133650936445" lon="9.540958961927574"><ele>190.0</ele><time>2026-05-03T07:52:54.994Z</time></trkpt><trkpt lat="44.851186309876915" lon="9.540895641174343"><ele>190.0</ele><time>2026-05-03T07:52:55.994Z</time></trkpt><trkpt lat="44.85102212391393" lon="9.540847688874415"><ele>190.66666666666669</ele><time>2026-05-03T07:52:56.994Z</time></trkpt><trkpt lat="44.85085122285431" lon="9.540819694974102"><ele>191.33333333333334</ele><time>2026-05-03T07:52:57.994Z</time></trkpt><trkpt lat="44.85067473819608" lon="9.540808760603959"><ele>192.0</ele><time>2026-05-03T07:52:58.994Z</time></trkpt><trkpt lat="44.850491227423554" lon="9.540797758464974"><ele>192.0</ele><time>2026-05-03T07:52:59.994Z</time></trkpt><trkpt lat="44.850308273005915" lon="9.5407790761753"><ele>192.0</ele><time>2026-05-03T07:53:00.994Z</time></trkpt><trkpt lat="44.85013529345716" lon="9.540759745300162"><ele>192.0</ele><time>2026-05-03T07:53:01.994Z</time></trkpt><trkpt lat="44.8499762713703" lon="9.540737178434254"><ele>191.5</ele><time>2026-05-03T07:53:02.994Z</time></trkpt><trkpt lat="44.84982685937235" lon="9.540725614769151"><ele>191.0</ele><time>2026-05-03T07:53:03.994Z</time></trkpt><trkpt lat="44.84968198736105" lon="9.540713274527713"><ele>190.5</ele><time>2026-05-03T07:53:04.994Z</time></trkpt><trkpt lat="44.84953794911452" lon="9.54069647881775"><ele>190.0</ele><time>2026-05-03T07:53:05.994Z</time></trkpt><trkpt lat="44.84939121238394" lon="9.540674538334331"><ele>190.75</ele><time>2026-05-03T07:53:06.995Z</time></trkpt><trkpt lat="44.84924358482302" lon="9.540656715627428"><ele>191.5</ele><time>2026-05-03T07:53:07.995Z</time></trkpt><trkpt lat="44.849096485865566" lon="9.54064763609136"><ele>192.25</ele><time>2026-05-03T07:53:08.994Z</time></trkpt><trkpt lat="44.8489518196316" lon="9.540634965917159"><ele>193.0</ele><time>2026-05-03T07:53:09.994Z</time></trkpt><trkpt lat="44.84881265699989" lon="9.540625063620821"><ele>193.0</ele><time>2026-05-03T07:53:10.994Z</time></trkpt><trkpt lat="44.84868788542296" lon="9.540573930545884"><ele>193.0</ele><time>2026-05-03T07:53:11.994Z</time></trkpt><trkpt lat="44.84854846020192" lon="9.540565784309141"><ele>193.0</ele><time>2026-05-03T07:53:12.994Z</time></trkpt><trkpt lat="44.848404150496606" lon="9.540544802680532"><ele>193.0</ele><time>2026-05-03T07:53:13.994Z</time></trkpt><trkpt lat="44.84825873724786" lon="9.54048722122036"><ele>190.33333333333331</ele><time>2026-05-03T07:53:14.994Z</time></trkpt><trkpt lat="44.84813781807074" lon="9.540351451520406"><ele>187.66666666666666</ele><time>2026-05-03T07:53:15.994Z</time></trkpt><trkpt lat="44.8480275357714" lon="9.540191426834701"><ele>185.0</ele><time>2026-05-03T07:53:16.994Z</time></trkpt><trkpt lat="44.847893964138514" lon="9.540023146025291"><ele>185.0</ele><time>2026-05-03T07:53:17.994Z</time></trkpt><trkpt lat="44.847770565104675" lon="9.539819000559048"><ele>185.0</ele><time>2026-05-03T07:53:18.994Z</time></trkpt><trkpt lat="44.84764204942671" lon="9.53962258791216"><ele>185.0</ele><time>2026-05-03T07:53:19.994Z</time></trkpt><trkpt lat="44.84752727409278" lon="9.539448189996808"><ele>186.33333333333331</ele><time>2026-05-03T07:53:20.994Z</time></trkpt><trkpt lat="44.84741821939468" lon="9.53928471085733"><ele>187.66666666666666</ele><time>2026-05-03T07:53:21.994Z</time></trkpt><trkpt lat="44.84731601880117" lon="9.539129979236526"><ele>189.0</ele><time>2026-05-03T07:53:22.994Z</time></trkpt><trkpt lat="44.84721862184167" lon="9.538985862610042"><ele>189.0</ele><time>2026-05-03T07:53:23.994Z</time></trkpt><trkpt lat="44.847117715335195" lon="9.538837355460448"><ele>189.0</ele><time>2026-05-03T07:53:24.994Z</time></trkpt><trkpt lat="44.8470057116108" lon="9.53869850642779"><ele>189.0</ele><time>2026-05-03T07:53:25.994Z</time></trkpt><trkpt lat="44.84688693777928" lon="9.538571069644568"><ele>189.0</ele><time>2026-05-03T07:53:26.994Z</time></trkpt><trkpt lat="44.84675552739931" lon="9.538464318879832"><ele>188.66666666666666</ele><time>2026-05-03T07:53:27.994Z</time></trkpt><trkpt lat="44.84661856552476" lon="9.538376025948779"><ele>188.33333333333331</ele><time>2026-05-03T07:53:28.994Z</time></trkpt><trkpt lat="44.84647328345873" lon="9.538299378365993"><ele>188.0</ele><time>2026-05-03T07:53:29.994Z</time></trkpt><trkpt lat="44.84633113760975" lon="9.538227609924773"><ele>188.0</ele><time>2026-05-03T07:53:30.994Z</time></trkpt><trkpt lat="44.846190159204895" lon="9.538169512087297"><ele>188.0</ele><time>2026-05-03T07:53:31.994Z</time></trkpt><trkpt lat="44.84608204715789" lon="9.538066959671022"><ele>188.0</ele><time>2026-05-03T07:53:32.994Z</time></trkpt><trkpt lat="44.84596731543949" lon="9.53799050887974"><ele>188.0</ele><time>2026-05-03T07:53:33.994Z</time></trkpt><trkpt lat="44.84587229742525" lon="9.537887426009812"><ele>189.0</ele><time>2026-05-03T07:53:34.994Z</time></trkpt><trkpt lat="44.845817747499105" lon="9.537723742712142"><ele>190.0</ele><time>2026-05-03T07:53:35.994Z</time></trkpt><trkpt lat="44.845745456524014" lon="9.537559953456553"><ele>191.0</ele><time>2026-05-03T07:53:36.994Z</time></trkpt><trkpt lat="44.845676952173314" lon="9.537390194129115"><ele>192.0</ele><time>2026-05-03T07:53:37.994Z</time></trkpt><trkpt lat="44.84560432347214" lon="9.537235270226338"><ele>192.0</ele><time>2026-05-03T07:53:38.994Z</time></trkpt><trkpt lat="44.84553851834338" lon="9.537092896192519"><ele>192.0</ele><time>2026-05-03T07:53:39.994Z</time></trkpt><trkpt lat="44.84545769940284" lon="9.536972700630205"><ele>192.0</ele><time>2026-05-03T07:53:40.994Z</time></trkpt><trkpt lat="44.845366398322156" lon="9.53685933553896"><ele>192.0</ele><time>2026-05-03T07:53:41.994Z</time></trkpt><trkpt lat="44.84524082235884" lon="9.536787882354398"><ele>193.25</ele><time>2026-05-03T07:53:42.994Z</time></trkpt><trkpt lat="44.84511298152669" lon="9.53674205552617"><ele>194.5</ele><time>2026-05-03T07:53:43.994Z</time></trkpt><trkpt lat="44.84498788999374" lon="9.536697718917253"><ele>195.75</ele><time>2026-05-03T07:53:44.994Z</time></trkpt><trkpt lat="44.84487641588534" lon="9.536631943941076"><ele>197.0</ele><time>2026-05-03T07:53:45.994Z</time></trkpt><trkpt lat="44.84476582372473" lon="9.536548869745772"><ele>197.0</ele><time>2026-05-03T07:53:46.994Z</time></trkpt><trkpt lat="44.84468564020565" lon="9.53641335986857"><ele>197.0</ele><time>2026-05-03T07:53:47.994Z</time></trkpt><trkpt lat="44.844623451290154" lon="9.536265589746776"><ele>197.0</ele><time>2026-05-03T07:53:48.994Z</time></trkpt><trkpt lat="44.844549306747666" lon="9.536118697189895"><ele>197.0</ele><time>2026-05-03T07:53:49.994Z</time></trkpt><trkpt lat="44.84445829620201" lon="9.536014797015698"><ele>197.25</ele><time>2026-05-03T07:53:50.994Z</time></trkpt><trkpt lat="44.844356872536075" lon="9.535919877830995"><ele>197.5</ele><time>2026-05-03T07:53:51.994Z</time></trkpt><trkpt lat="44.84422142689371" lon="9.535892062447378"><ele>197.75</ele><time>2026-05-03T07:53:52.994Z</time></trkpt><trkpt lat="44.84409272955395" lon="9.535893173536078"><ele>198.0</ele><time>2026-05-03T07:53:53.994Z</time></trkpt><trkpt lat="44.84398638675275" lon="9.535906775393263"><ele>198.0</ele><time>2026-05-03T07:53:54.994Z</time></trkpt><trkpt lat="44.843880357737575" lon="9.535931314338296"><ele>198.0</ele><time>2026-05-03T07:53:55.994Z</time></trkpt><trkpt lat="44.84377967812583" lon="9.535944526590109"><ele>198.0</ele><time>2026-05-03T07:53:56.994Z</time></trkpt><trkpt lat="44.84366665824486" lon="9.535919883880686"><ele>198.0</ele><time>2026-05-03T07:53:57.994Z</time></trkpt><trkpt lat="44.843562769077316" lon="9.53585084146564"><ele>198.0</ele><time>2026-05-03T07:53:58.994Z</time></trkpt><trkpt lat="44.84346420692561" lon="9.535732576305222"><ele>200.0</ele><time>2026-05-03T07:53:59.994Z</time></trkpt><trkpt lat="44.84338803548481" lon="9.535594603975992"><ele>202.0</ele><time>2026-05-03T07:54:00.994Z</time></trkpt><trkpt lat="44.843360731369984" lon="9.535417756768835"><ele>204.0</ele><time>2026-05-03T07:54:01.994Z</time></trkpt><trkpt lat="44.84334322063595" lon="9.535214270548218"><ele>206.0</ele><time>2026-05-03T07:54:02.994Z</time></trkpt><trkpt lat="44.843317520165485" lon="9.534941575839367"><ele>206.0</ele><time>2026-05-03T07:54:03.993Z</time></trkpt><trkpt lat="44.84327662150647" lon="9.534669629590521"><ele>206.0</ele><time>2026-05-03T07:54:04.993Z</time></trkpt><trkpt lat="44.84326599608319" lon="9.53439567820257"><ele>206.0</ele><time>2026-05-03T07:54:05.993Z</time></trkpt><trkpt lat="44.84323988908963" lon="9.534131860175556"><ele>204.33333333333334</ele><time>2026-05-03T07:54:06.993Z</time></trkpt><trkpt lat="44.843215748043356" lon="9.533901425294541"><ele>202.66666666666669</ele><time>2026-05-03T07:54:07.993Z</time></trkpt><trkpt lat="44.843190844472915" lon="9.533695591339598"><ele>201.0</ele><time>2026-05-03T07:54:08.993Z</time></trkpt><trkpt lat="44.843159418607485" lon="9.533493503245868"><ele>199.66666666666669</ele><time>2026-05-03T07:54:09.993Z</time></trkpt><trkpt lat="44.84311503259353" lon="9.533284244283852"><ele>198.33333333333334</ele><time>2026-05-03T07:54:10.993Z</time></trkpt><trkpt lat="44.84306630563608" lon="9.533075929760216"><ele>197.0</ele><time>2026-05-03T07:54:11.993Z</time></trkpt><trkpt lat="44.843024490031276" lon="9.532887351969576"><ele>194.75</ele><time>2026-05-03T07:54:12.993Z</time></trkpt><trkpt lat="44.8429702733202" lon="9.532715699322655"><ele>192.5</ele><time>2026-05-03T07:54:13.993Z</time></trkpt><trkpt lat="44.84295085902237" lon="9.532548619016852"><ele>190.25</ele><time>2026-05-03T07:54:14.993Z</time></trkpt><trkpt lat="44.84291599590757" lon="9.532388234545195"><ele>188.0</ele><time>2026-05-03T07:54:15.993Z</time></trkpt><trkpt lat="44.84288815985904" lon="9.532255702959807"><ele>188.0</ele><time>2026-05-03T07:54:16.993Z</time></trkpt><trkpt lat="44.84285928904114" lon="9.532121677581118"><ele>188.0</ele><time>2026-05-03T07:54:17.993Z</time></trkpt><trkpt lat="44.84281353608601" lon="9.531973975752928"><ele>188.0</ele><time>2026-05-03T07:54:18.993Z</time></trkpt><trkpt lat="44.84273880822885" lon="9.531839130612235"><ele>188.0</ele><time>2026-05-03T07:54:19.993Z</time></trkpt><trkpt lat="44.84262477639058" lon="9.531727928413295"><ele>194.66666666666666</ele><time>2026-05-03T07:54:20.993Z</time></trkpt><trkpt lat="44.84248534199856" lon="9.531627500203347"><ele>201.33333333333331</ele><time>2026-05-03T07:54:21.993Z</time></trkpt><trkpt lat="44.842339909294" lon="9.531547988528192"><ele>208.0</ele><time>2026-05-03T07:54:22.993Z</time></trkpt><trkpt lat="44.842194259981525" lon="9.53147229972476"><ele>208.0</ele><time>2026-05-03T07:54:23.993Z</time></trkpt><trkpt lat="44.842065397213666" lon="9.531362610834389"><ele>208.0</ele><time>2026-05-03T07:54:24.993Z</time></trkpt><trkpt lat="44.84193827093376" lon="9.531250326849472"><ele>208.0</ele><time>2026-05-03T07:54:25.993Z</time></trkpt><trkpt lat="44.84183476041123" lon="9.531102917113971"><ele>208.0</ele><time>2026-05-03T07:54:26.993Z</time></trkpt><trkpt lat="44.84172209109652" lon="9.530903422561455"><ele>209.0</ele><time>2026-05-03T07:54:27.993Z</time></trkpt><trkpt lat="44.84162989127211" lon="9.530678264000993"><ele>210.0</ele><time>2026-05-03T07:54:28.993Z</time></trkpt><trkpt lat="44.84153569849356" lon="9.530421374864462"><ele>211.0</ele><time>2026-05-03T07:54:29.993Z</time></trkpt><trkpt lat="44.84144629870237" lon="9.530179945094913"><ele>208.0</ele><time>2026-05-03T07:54:30.993Z</time></trkpt><trkpt lat="44.84134536071445" lon="9.529965709877763"><ele>205.0</ele><time>2026-05-03T07:54:31.993Z</time></trkpt><trkpt lat="44.84125219411102" lon="9.52975563768323"><ele>202.0</ele><time>2026-05-03T07:54:32.993Z</time></trkpt><trkpt lat="44.841140548413776" lon="9.52956008762719"><ele>204.0</ele><time>2026-05-03T07:54:33.993Z</time></trkpt><trkpt lat="44.84101774276895" lon="9.529362368606579"><ele>206.0</ele><time>2026-05-03T07:54:34.993Z</time></trkpt><trkpt lat="44.84089482025641" lon="9.52917108113216"><ele>208.0</ele><time>2026-05-03T07:54:35.993Z</time></trkpt><trkpt lat="44.84078034927194" lon="9.52898984424519"><ele>208.0</ele><time>2026-05-03T07:54:36.993Z</time></trkpt><trkpt lat="44.840678712082614" lon="9.528822850344543"><ele>208.0</ele><time>2026-05-03T07:54:37.993Z</time></trkpt><trkpt lat="44.840575349698085" lon="9.528657013870303"><ele>208.0</ele><time>2026-05-03T07:54:38.993Z</time></trkpt><trkpt lat="44.840480111392914" lon="9.528477374247187"><ele>206.33333333333331</ele><time>2026-05-03T07:54:39.993Z</time></trkpt><trkpt lat="44.84038672141741" lon="9.528279013147193"><ele>204.66666666666669</ele><time>2026-05-03T07:54:40.993Z</time></trkpt><trkpt lat="44.84029884876799" lon="9.528064451481677"><ele>203.0</ele><time>2026-05-03T07:54:41.993Z</time></trkpt><trkpt lat="44.840211086116426" lon="9.52784123035155"><ele>207.0</ele><time>2026-05-03T07:54:42.993Z</time></trkpt><trkpt lat="44.8401210029257" lon="9.527615580801257"><ele>211.0</ele><time>2026-05-03T07:54:43.993Z</time></trkpt><trkpt lat="44.84003318369245" lon="9.527383531266066"><ele>215.0</ele><time>2026-05-03T07:54:44.993Z</time></trkpt><trkpt lat="44.839951197381836" lon="9.527153956478944"><ele>212.0</ele><time>2026-05-03T07:54:45.993Z</time></trkpt><trkpt lat="44.839870471631095" lon="9.526935276314264"><ele>209.0</ele><time>2026-05-03T07:54:46.993Z</time></trkpt><trkpt lat="44.839792165924386" lon="9.52672822744345"><ele>206.0</ele><time>2026-05-03T07:54:47.993Z</time></trkpt><trkpt lat="44.83971708675189" lon="9.52653075173029"><ele>206.0</ele><time>2026-05-03T07:54:48.993Z</time></trkpt><trkpt lat="44.839640484505594" lon="9.526334230176468"><ele>206.0</ele><time>2026-05-03T07:54:49.993Z</time></trkpt><trkpt lat="44.839566686873816" lon="9.526139514044555"><ele>206.0</ele><time>2026-05-03T07:54:50.993Z</time></trkpt><trkpt lat="44.8394891054863" lon="9.525943450825794"><ele>203.33333333333334</ele><time>2026-05-03T07:54:51.993Z</time></trkpt><trkpt lat="44.83940774599254" lon="9.525750284365852"><ele>200.66666666666669</ele><time>2026-05-03T07:54:52.993Z</time></trkpt><trkpt lat="44.83935615566713" lon="9.525536151948897"><ele>198.0</ele><time>2026-05-03T07:54:53.993Z</time></trkpt><trkpt lat="44.839267078409335" lon="9.525344546849446"><ele>203.33333333333331</ele><time>2026-05-03T07:54:54.993Z</time></trkpt><trkpt lat="44.83917691873645" lon="9.525149124256917"><ele>208.66666666666666</ele><time>2026-05-03T07:54:55.993Z</time></trkpt><trkpt lat="44.83910444452299" lon="9.52493627633215"><ele>214.0</ele><time>2026-05-03T07:54:56.993Z</time></trkpt><trkpt lat="44.83904824752423" lon="9.524712083011373"><ele>212.0</ele><time>2026-05-03T07:54:57.993Z</time></trkpt><trkpt lat="44.83900372975719" lon="9.52448981322305"><ele>210.0</ele><time>2026-05-03T07:54:58.993Z</time></trkpt><trkpt lat="44.83897193524432" lon="9.524288465746784"><ele>208.0</ele><time>2026-05-03T07:54:59.993Z</time></trkpt><trkpt lat="44.83893003680157" lon="9.524082679603332"><ele>208.0</ele><time>2026-05-03T07:55:00.993Z</time></trkpt><trkpt lat="44.83886878591298" lon="9.523885189210032"><ele>208.0</ele><time>2026-05-03T07:55:01.993Z</time></trkpt><trkpt lat="44.83878946673273" lon="9.523687256271492"><ele>208.0</ele><time>2026-05-03T07:55:02.994Z</time></trkpt><trkpt lat="44.838699193946276" lon="9.523495572941378"><ele>204.0</ele><time>2026-05-03T07:55:03.994Z</time></trkpt><trkpt lat="44.838591606103854" lon="9.523317954072535"><ele>200.0</ele><time>2026-05-03T07:55:04.994Z</time></trkpt><trkpt lat="44.8384696407151" lon="9.52314652764854"><ele>196.0</ele><time>2026-05-03T07:55:05.994Z</time></trkpt><trkpt lat="44.838329595111695" lon="9.522993918260065"><ele>198.33333333333331</ele><time>2026-05-03T07:55:06.994Z</time></trkpt><trkpt lat="44.83817853453477" lon="9.522851810978624"><ele>200.66666666666669</ele><time>2026-05-03T07:55:07.994Z</time></trkpt><trkpt lat="44.83802697948915" lon="9.522703654386671"><ele>203.0</ele><time>2026-05-03T07:55:08.994Z</time></trkpt><trkpt lat="44.83787472612669" lon="9.52254868282704"><ele>203.0</ele><time>2026-05-03T07:55:09.994Z</time></trkpt><trkpt lat="44.837724956182" lon="9.522397824834808"><ele>203.0</ele><time>2026-05-03T07:55:10.994Z</time></trkpt><trkpt lat="44.837583157361344" lon="9.522241681507987"><ele>203.0</ele><time>2026-05-03T07:55:11.994Z</time></trkpt><trkpt lat="44.837442485038814" lon="9.5220949808945"><ele>203.0</ele><time>2026-05-03T07:55:12.994Z</time></trkpt><trkpt lat="44.83730546691734" lon="9.521950484887785"><ele>203.0</ele><time>2026-05-03T07:55:13.994Z</time></trkpt><trkpt lat="44.837167470025214" lon="9.521814174814846"><ele>203.0</ele><time>2026-05-03T07:55:14.994Z</time></trkpt><trkpt lat="44.83703233861965" lon="9.521672782445489"><ele>203.0</ele><time>2026-05-03T07:55:15.995Z</time></trkpt><trkpt lat="44.836908083576624" lon="9.521510395000378"><ele>203.0</ele><time>2026-05-03T07:55:16.995Z</time></trkpt><trkpt lat="44.836789523129525" lon="9.521342690383312"><ele>203.0</ele><time>2026-05-03T07:55:17.995Z</time></trkpt><trkpt lat="44.836674415701566" lon="9.521165205869147"><ele>204.66666666666669</ele><time>2026-05-03T07:55:18.995Z</time></trkpt><trkpt lat="44.8365637289268" lon="9.520993751103433"><ele>206.33333333333331</ele><time>2026-05-03T07:55:19.995Z</time></trkpt><trkpt lat="44.83645252232717" lon="9.52083132123603"><ele>208.0</ele><time>2026-05-03T07:55:20.995Z</time></trkpt><trkpt lat="44.83634732489971" lon="9.520680625236972"><ele>208.0</ele><time>2026-05-03T07:55:21.995Z</time></trkpt><trkpt lat="44.83623484625242" lon="9.520529594061527"><ele>208.0</ele><time>2026-05-03T07:55:22.995Z</time></trkpt><trkpt lat="44.83610985449184" lon="9.52039670429914"><ele>208.0</ele><time>2026-05-03T07:55:23.995Z</time></trkpt><trkpt lat="44.83597364903317" lon="9.520269694479929"><ele>207.0</ele><time>2026-05-03T07:55:24.994Z</time></trkpt><trkpt lat="44.83583020385369" lon="9.520188463179185"><ele>206.0</ele><time>2026-05-03T07:55:25.994Z</time></trkpt><trkpt lat="44.83569595766029" lon="9.520112506617401"><ele>205.0</ele><time>2026-05-03T07:55:26.994Z</time></trkpt><trkpt lat="44.835568022932655" lon="9.520042789961416"><ele>204.0</ele><time>2026-05-03T07:55:27.994Z</time></trkpt><trkpt lat="44.83543801586525" lon="9.519975078215978"><ele>204.0</ele><time>2026-05-03T07:55:28.994Z</time></trkpt><trkpt lat="44.83529810322375" lon="9.519912406681097"><ele>204.0</ele><time>2026-05-03T07:55:29.994Z</time></trkpt><trkpt lat="44.8351492068987" lon="9.51988465298069"><ele>204.0</ele><time>2026-05-03T07:55:30.994Z</time></trkpt><trkpt lat="44.834999070318844" lon="9.519918936442968"><ele>204.0</ele><time>2026-05-03T07:55:31.994Z</time></trkpt><trkpt lat="44.8348590668051" lon="9.520010541786135"><ele>206.0</ele><time>2026-05-03T07:55:32.994Z</time></trkpt><trkpt lat="44.8347417921807" lon="9.520126369842846"><ele>208.0</ele><time>2026-05-03T07:55:33.994Z</time></trkpt><trkpt lat="44.834649234742464" lon="9.520254152501408"><ele>210.0</ele><time>2026-05-03T07:55:34.994Z</time></trkpt><trkpt lat="44.83454115629362" lon="9.520318560660943"><ele>212.0</ele><time>2026-05-03T07:55:35.994Z</time></trkpt><trkpt lat="44.834440108610735" lon="9.520342934628978"><ele>212.0</ele><time>2026-05-03T07:55:36.994Z</time></trkpt><trkpt lat="44.83433612014555" lon="9.520334911919447"><ele>212.0</ele><time>2026-05-03T07:55:37.994Z</time></trkpt><trkpt lat="44.83424472285543" lon="9.520210132132636"><ele>212.0</ele><time>2026-05-03T07:55:38.994Z</time></trkpt><trkpt lat="44.834119094027535" lon="9.520110129762577"><ele>212.0</ele><time>2026-05-03T07:55:39.994Z</time></trkpt><trkpt lat="44.833997513225505" lon="9.519978037945402"><ele>210.75</ele><time>2026-05-03T07:55:40.994Z</time></trkpt><trkpt lat="44.833867950800204" lon="9.519868417181343"><ele>209.5</ele><time>2026-05-03T07:55:41.994Z</time></trkpt><trkpt lat="44.833740752482626" lon="9.519778493568746"><ele>208.25</ele><time>2026-05-03T07:55:42.994Z</time></trkpt><trkpt lat="44.83361245819211" lon="9.519699627961915"><ele>207.0</ele><time>2026-05-03T07:55:43.994Z</time></trkpt><trkpt lat="44.83348453068091" lon="9.519638160020662"><ele>208.25</ele><time>2026-05-03T07:55:44.994Z</time></trkpt><trkpt lat="44.833364054968676" lon="9.5195938879852"><ele>209.5</ele><time>2026-05-03T07:55:45.994Z</time></trkpt><trkpt lat="44.83323363107439" lon="9.51958383321687"><ele>210.75</ele><time>2026-05-03T07:55:46.994Z</time></trkpt><trkpt lat="44.833096624912436" lon="9.519600450102537"><ele>212.0</ele><time>2026-05-03T07:55:47.994Z</time></trkpt><trkpt lat="44.83295427782297" lon="9.519644606599671"><ele>212.0</ele><time>2026-05-03T07:55:48.994Z</time></trkpt><trkpt lat="44.83281113469669" lon="9.51970583755726"><ele>212.0</ele><time>2026-05-03T07:55:49.994Z</time></trkpt><trkpt lat="44.83266783262562" lon="9.519776847895564"><ele>212.0</ele><time>2026-05-03T07:55:50.994Z</time></trkpt><trkpt lat="44.8325331787002" lon="9.51984888981373"><ele>212.0</ele><time>2026-05-03T07:55:51.994Z</time></trkpt><trkpt lat="44.83240558678704" lon="9.519911700560787"><ele>211.25</ele><time>2026-05-03T07:55:52.994Z</time></trkpt><trkpt lat="44.832270533162614" lon="9.519969595036542"><ele>210.5</ele><time>2026-05-03T07:55:53.994Z</time></trkpt><trkpt lat="44.83214780541234" lon="9.520024810797816"><ele>209.75</ele><time>2026-05-03T07:55:54.994Z</time></trkpt><trkpt lat="44.83202491387299" lon="9.520069946436045"><ele>209.0</ele><time>2026-05-03T07:55:55.994Z</time></trkpt><trkpt lat="44.83190598120855" lon="9.520097149761204"><ele>208.0</ele><time>2026-05-03T07:55:56.994Z</time></trkpt><trkpt lat="44.83179661487442" lon="9.520111567148572"><ele>207.0</ele><time>2026-05-03T07:55:57.994Z</time></trkpt><trkpt lat="44.83168803164562" lon="9.52009524782181"><ele>206.0</ele><time>2026-05-03T07:55:58.994Z</time></trkpt><trkpt lat="44.831579523440084" lon="9.520044111943392"><ele>205.0</ele><time>2026-05-03T07:55:59.994Z</time></trkpt><trkpt lat="44.831473688482305" lon="9.519956241644149"><ele>205.0</ele><time>2026-05-03T07:56:00.994Z</time></trkpt><trkpt lat="44.83136989673237" lon="9.519847302061358"><ele>205.0</ele><time>2026-05-03T07:56:01.994Z</time></trkpt><trkpt lat="44.831269734653034" lon="9.519716834808811"><ele>205.0</ele><time>2026-05-03T07:56:02.994Z</time></trkpt><trkpt lat="44.831181141789266" lon="9.519573034382956"><ele>205.0</ele><time>2026-05-03T07:56:03.994Z</time></trkpt><trkpt lat="44.830983625475255" lon="9.519278380577468"><ele>204.25</ele><time>2026-05-03T07:56:05.994Z</time></trkpt><trkpt lat="44.83088003626895" lon="9.519134434486947"><ele>203.5</ele><time>2026-05-03T07:56:06.994Z</time></trkpt><trkpt lat="44.83080322816971" lon="9.518974598446595"><ele>202.75</ele><time>2026-05-03T07:56:07.994Z</time></trkpt><trkpt lat="44.83070936711513" lon="9.518839201493833"><ele>202.0</ele><time>2026-05-03T07:56:08.994Z</time></trkpt><trkpt lat="44.830625537366366" lon="9.518696438801163"><ele>201.5</ele><time>2026-05-03T07:56:09.994Z</time></trkpt><trkpt lat="44.830566607254426" lon="9.518547131380581"><ele>201.0</ele><time>2026-05-03T07:56:10.994Z</time></trkpt><trkpt lat="44.830530287231674" lon="9.518379062891148"><ele>200.5</ele><time>2026-05-03T07:56:11.994Z</time></trkpt><trkpt lat="44.830536243497264" lon="9.518212825141411"><ele>200.0</ele><time>2026-05-03T07:56:12.994Z</time></trkpt><trkpt lat="44.83057803112874" lon="9.518055630938383"><ele>200.00000000000003</ele><time>2026-05-03T07:56:13.994Z</time></trkpt><trkpt lat="44.830628008122346" lon="9.517920619775069"><ele>200.0</ele><time>2026-05-03T07:56:14.994Z</time></trkpt><trkpt lat="44.83067825784895" lon="9.517807985291908"><ele>200.0</ele><time>2026-05-03T07:56:15.994Z</time></trkpt><trkpt lat="44.830712297210766" lon="9.517714081192107"><ele>200.0</ele><time>2026-05-03T07:56:16.994Z</time></trkpt><trkpt lat="44.83074474355657" lon="9.51762955442258"><ele>200.00000000000003</ele><time>2026-05-03T07:56:17.994Z</time></trkpt><trkpt lat="44.83077338001813" lon="9.517548066024148"><ele>200.0</ele><time>2026-05-03T07:56:18.994Z</time></trkpt><trkpt lat="44.83083794952221" lon="9.51737468535901"><ele>201.0</ele><time>2026-05-03T07:56:20.994Z</time></trkpt><trkpt lat="44.830865355080945" lon="9.517275670771246"><ele>202.0</ele><time>2026-05-03T07:56:21.994Z</time></trkpt><trkpt lat="44.8308856598764" lon="9.517184256170596"><ele>203.0</ele><time>2026-05-03T07:56:22.994Z</time></trkpt><trkpt lat="44.83087782439299" lon="9.517037131866742"><ele>204.0</ele><time>2026-05-03T07:56:24.994Z</time></trkpt><trkpt lat="44.830855071817034" lon="9.516908362344227"><ele>205.0</ele><time>2026-05-03T07:56:26.994Z</time></trkpt><trkpt lat="44.83083546391866" lon="9.516749300216748"><ele>204.99999999999997</ele><time>2026-05-03T07:56:28.994Z</time></trkpt><trkpt lat="44.83082302694687" lon="9.51665504856373"><ele>205.0</ele><time>2026-05-03T07:56:29.994Z</time></trkpt><trkpt lat="44.830809970997144" lon="9.516554571772454"><ele>205.0</ele><time>2026-05-03T07:56:30.994Z</time></trkpt><trkpt lat="44.83077221559405" lon="9.516405735928334"><ele>205.0</ele><time>2026-05-03T07:56:32.994Z</time></trkpt><trkpt lat="44.83070855500336" lon="9.516297902136323"><ele>204.99999999999997</ele><time>2026-05-03T07:56:34.994Z</time></trkpt><trkpt lat="44.83065625697185" lon="9.516239779512958"><ele>205.0</ele><time>2026-05-03T07:56:36.994Z</time></trkpt><trkpt lat="44.83058814464753" lon="9.516154079171196"><ele>203.4</ele><time>2026-05-03T07:56:39.994Z</time></trkpt><trkpt lat="44.83051692702122" lon="9.515997848546313"><ele>201.8</ele><time>2026-05-03T07:56:41.994Z</time></trkpt><trkpt lat="44.83045493324665" lon="9.515931221622733"><ele>200.2</ele><time>2026-05-03T07:56:42.994Z</time></trkpt><trkpt lat="44.830379054001185" lon="9.515862765049885"><ele>198.6</ele><time>2026-05-03T07:56:43.994Z</time></trkpt><trkpt lat="44.830301196409195" lon="9.515756652652069"><ele>197.0</ele><time>2026-05-03T07:56:44.994Z</time></trkpt><trkpt lat="44.830217054688376" lon="9.515631744966145"><ele>196.0</ele><time>2026-05-03T07:56:45.994Z</time></trkpt><trkpt lat="44.83012383221088" lon="9.515453177977202"><ele>195.0</ele><time>2026-05-03T07:56:46.994Z</time></trkpt><trkpt lat="44.82997544613035" lon="9.515317074886916"><ele>194.0</ele><time>2026-05-03T07:56:47.994Z</time></trkpt><trkpt lat="44.8298124489237" lon="9.515164660170251"><ele>194.0</ele><time>2026-05-03T07:56:48.994Z</time></trkpt><trkpt lat="44.82965127002251" lon="9.515019316020977"><ele>194.0</ele><time>2026-05-03T07:56:49.994Z</time></trkpt><trkpt lat="44.829489904147955" lon="9.51487454561124"><ele>194.0</ele><time>2026-05-03T07:56:50.994Z</time></trkpt><trkpt lat="44.82934035161976" lon="9.514740572977654"><ele>194.33333333333334</ele><time>2026-05-03T07:56:51.994Z</time></trkpt><trkpt lat="44.82920515879902" lon="9.514613544288764"><ele>194.66666666666669</ele><time>2026-05-03T07:56:52.994Z</time></trkpt><trkpt lat="44.82907853484256" lon="9.514493187084401"><ele>195.0</ele><time>2026-05-03T07:56:53.994Z</time></trkpt><trkpt lat="44.82895911219623" lon="9.514380496430467"><ele>195.0</ele><time>2026-05-03T07:56:54.994Z</time></trkpt><trkpt lat="44.82885792990396" lon="9.514272258960462"><ele>195.0</ele><time>2026-05-03T07:56:55.994Z</time></trkpt><trkpt lat="44.82876836518646" lon="9.514167907685893"><ele>195.0</ele><time>2026-05-03T07:56:56.994Z</time></trkpt><trkpt lat="44.828698919269954" lon="9.514082513128926"><ele>195.0</ele><time>2026-05-03T07:56:57.994Z</time></trkpt><trkpt lat="44.828629971488425" lon="9.513988805235655"><ele>195.0</ele><time>2026-05-03T07:56:58.994Z</time></trkpt><trkpt lat="44.82855971743247" lon="9.51388853729193"><ele>195.0</ele><time>2026-05-03T07:56:59.994Z</time></trkpt><trkpt lat="44.82849513619088" lon="9.513787697312713"><ele>195.0</ele><time>2026-05-03T07:57:00.994Z</time></trkpt><trkpt lat="44.828425368132486" lon="9.513676182346071"><ele>195.0</ele><time>2026-05-03T07:57:01.994Z</time></trkpt><trkpt lat="44.82835705358745" lon="9.513547598011854"><ele>195.0</ele><time>2026-05-03T07:57:02.994Z</time></trkpt><trkpt lat="44.828293722727146" lon="9.513412042872318"><ele>195.0</ele><time>2026-05-03T07:57:03.994Z</time></trkpt><trkpt lat="44.828236319261265" lon="9.51327971766166"><ele>194.0</ele><time>2026-05-03T07:57:04.994Z</time></trkpt><trkpt lat="44.82820294039665" lon="9.513116305934668"><ele>193.0</ele><time>2026-05-03T07:57:05.994Z</time></trkpt><trkpt lat="44.8281428988456" lon="9.512960220432914"><ele>192.0</ele><time>2026-05-03T07:57:06.994Z</time></trkpt><trkpt lat="44.82808005937302" lon="9.51279631548364"><ele>191.0</ele><time>2026-05-03T07:57:07.994Z</time></trkpt><trkpt lat="44.82802197185323" lon="9.512634219638443"><ele>191.0</ele><time>2026-05-03T07:57:08.993Z</time></trkpt><trkpt lat="44.82796827834421" lon="9.512471508664662"><ele>191.0</ele><time>2026-05-03T07:57:09.994Z</time></trkpt><trkpt lat="44.82790608203887" lon="9.512303742968498"><ele>191.0</ele><time>2026-05-03T07:57:10.994Z</time></trkpt><trkpt lat="44.8278419883593" lon="9.512143327859853"><ele>191.0</ele><time>2026-05-03T07:57:11.994Z</time></trkpt><trkpt lat="44.827780164154994" lon="9.51199444930986"><ele>190.20000000000002</ele><time>2026-05-03T07:57:12.994Z</time></trkpt><trkpt lat="44.827718313551514" lon="9.51186011516339"><ele>189.4</ele><time>2026-05-03T07:57:13.994Z</time></trkpt><trkpt lat="44.827661881473176" lon="9.511750034836668"><ele>188.6</ele><time>2026-05-03T07:57:14.994Z</time></trkpt><trkpt lat="44.8276095364162" lon="9.511656160176656"><ele>187.8</ele><time>2026-05-03T07:57:15.994Z</time></trkpt><trkpt lat="44.82755319483486" lon="9.511553087066796"><ele>187.0</ele><time>2026-05-03T07:57:16.994Z</time></trkpt><trkpt lat="44.827493910656564" lon="9.511447514704477"><ele>187.39999999999998</ele><time>2026-05-03T07:57:17.994Z</time></trkpt><trkpt lat="44.82742983990754" lon="9.511339218118502"><ele>187.79999999999998</ele><time>2026-05-03T07:57:18.994Z</time></trkpt><trkpt lat="44.82736250584841" lon="9.511234532553475"><ele>188.2</ele><time>2026-05-03T07:57:19.994Z</time></trkpt><trkpt lat="44.82729981121149" lon="9.511143387065877"><ele>188.6</ele><time>2026-05-03T07:57:20.994Z</time></trkpt><trkpt lat="44.82724393219367" lon="9.511060891970223"><ele>189.0</ele><time>2026-05-03T07:57:21.994Z</time></trkpt><trkpt lat="44.82719139687358" lon="9.510978672747983"><ele>189.0</ele><time>2026-05-03T07:57:22.994Z</time></trkpt><trkpt lat="44.827134800328345" lon="9.510894812791108"><ele>189.0</ele><time>2026-05-03T07:57:23.994Z</time></trkpt><trkpt lat="44.82707915821676" lon="9.510813964043425"><ele>189.0</ele><time>2026-05-03T07:57:24.994Z</time></trkpt><trkpt lat="44.827019386429136" lon="9.510721103597952"><ele>189.0</ele><time>2026-05-03T07:57:25.994Z</time></trkpt><trkpt lat="44.82695192011054" lon="9.510622039674077"><ele>189.0</ele><time>2026-05-03T07:57:26.994Z</time></trkpt><trkpt lat="44.826875245324324" lon="9.510513046386482"><ele>188.75</ele><time>2026-05-03T07:57:27.994Z</time></trkpt><trkpt lat="44.82679392506289" lon="9.51039306634521"><ele>188.5</ele><time>2026-05-03T07:57:28.994Z</time></trkpt><trkpt lat="44.82673837569488" lon="9.510259912064859"><ele>188.25</ele><time>2026-05-03T07:57:29.994Z</time></trkpt><trkpt lat="44.826645129540914" lon="9.510122032025953"><ele>188.0</ele><time>2026-05-03T07:57:30.994Z</time></trkpt><trkpt lat="44.82654878698208" lon="9.509941701283477"><ele>188.0</ele><time>2026-05-03T07:57:31.994Z</time></trkpt><trkpt lat="44.82643838732171" lon="9.50971746204769"><ele>188.0</ele><time>2026-05-03T07:57:32.994Z</time></trkpt><trkpt lat="44.82631371476579" lon="9.509459667253399"><ele>188.0</ele><time>2026-05-03T07:57:33.994Z</time></trkpt><trkpt lat="44.82617839890287" lon="9.509177574176986"><ele>187.5</ele><time>2026-05-03T07:57:34.994Z</time></trkpt><trkpt lat="44.826040668017626" lon="9.508919882445573"><ele>187.0</ele><time>2026-05-03T07:57:35.994Z</time></trkpt><trkpt lat="44.82590507775719" lon="9.508648900831966"><ele>187.33333333333334</ele><time>2026-05-03T07:57:36.994Z</time></trkpt><trkpt lat="44.82578668843386" lon="9.508374128410773"><ele>187.66666666666666</ele><time>2026-05-03T07:57:37.994Z</time></trkpt><trkpt lat="44.82566628693107" lon="9.508129316965542"><ele>188.0</ele><time>2026-05-03T07:57:38.994Z</time></trkpt><trkpt lat="44.82555669512162" lon="9.50790550131291"><ele>188.0</ele><time>2026-05-03T07:57:39.994Z</time></trkpt><trkpt lat="44.82544863635224" lon="9.507680848951136"><ele>188.0</ele><time>2026-05-03T07:57:40.994Z</time></trkpt><trkpt lat="44.8253314553381" lon="9.507433603102246"><ele>188.0</ele><time>2026-05-03T07:57:41.994Z</time></trkpt><trkpt lat="44.82520059434732" lon="9.507154341919643"><ele>188.5</ele><time>2026-05-03T07:57:42.994Z</time></trkpt><trkpt lat="44.825057366715846" lon="9.506846419774899"><ele>189.0</ele><time>2026-05-03T07:57:43.994Z</time></trkpt><trkpt lat="44.8248940930256" lon="9.506528107911956"><ele>188.5</ele><time>2026-05-03T07:57:44.994Z</time></trkpt><trkpt lat="44.82473012385605" lon="9.506168652616784"><ele>188.0</ele><time>2026-05-03T07:57:45.994Z</time></trkpt><trkpt lat="44.824563969419515" lon="9.505808515781828"><ele>188.0</ele><time>2026-05-03T07:57:46.994Z</time></trkpt><trkpt lat="44.82440607710019" lon="9.505457731895161"><ele>188.0</ele><time>2026-05-03T07:57:47.994Z</time></trkpt><trkpt lat="44.824245249183825" lon="9.50510534762278"><ele>188.0</ele><time>2026-05-03T07:57:48.994Z</time></trkpt><trkpt lat="44.824083434450145" lon="9.50476901070381"><ele>188.0</ele><time>2026-05-03T07:57:49.994Z</time></trkpt><trkpt lat="44.82390436546505" lon="9.504442242588498"><ele>188.0</ele><time>2026-05-03T07:57:50.994Z</time></trkpt><trkpt lat="44.82371447783442" lon="9.504126277450464"><ele>188.0</ele><time>2026-05-03T07:57:51.994Z</time></trkpt><trkpt lat="44.82352313712893" lon="9.503828444013681"><ele>188.5</ele><time>2026-05-03T07:57:52.994Z</time></trkpt><trkpt lat="44.82332652407025" lon="9.503559497328913"><ele>189.0</ele><time>2026-05-03T07:57:53.994Z</time></trkpt><trkpt lat="44.823122993203754" lon="9.503303329022275"><ele>189.0</ele><time>2026-05-03T07:57:54.994Z</time></trkpt><trkpt lat="44.82291522016375" lon="9.50306762881847"><ele>189.0</ele><time>2026-05-03T07:57:55.994Z</time></trkpt><trkpt lat="44.82270093789633" lon="9.502835714319515"><ele>188.0</ele><time>2026-05-03T07:57:56.994Z</time></trkpt><trkpt lat="44.82249281496521" lon="9.502602728071226"><ele>187.0</ele><time>2026-05-03T07:57:57.994Z</time></trkpt><trkpt lat="44.82229139715059" lon="9.502379046199726"><ele>187.0</ele><time>2026-05-03T07:57:58.994Z</time></trkpt><trkpt lat="44.82209683303577" lon="9.502160929723045"><ele>187.0</ele><time>2026-05-03T07:57:59.994Z</time></trkpt><trkpt lat="44.8219145526573" lon="9.501954656444346"><ele>188.66666666666669</ele><time>2026-05-03T07:58:00.994Z</time></trkpt><trkpt lat="44.821746047289686" lon="9.501749138179346"><ele>190.33333333333334</ele><time>2026-05-03T07:58:01.994Z</time></trkpt><trkpt lat="44.82159522311078" lon="9.501525441771362"><ele>192.0</ele><time>2026-05-03T07:58:02.994Z</time></trkpt><trkpt lat="44.821444375867735" lon="9.501277341155765"><ele>190.5</ele><time>2026-05-03T07:58:03.994Z</time></trkpt><trkpt lat="44.82130552023894" lon="9.50099979668171"><ele>189.0</ele><time>2026-05-03T07:58:04.994Z</time></trkpt><trkpt lat="44.82116595944506" lon="9.500703086881057"><ele>188.0</ele><time>2026-05-03T07:58:05.994Z</time></trkpt><trkpt lat="44.821043319253945" lon="9.50038093758112"><ele>187.0</ele><time>2026-05-03T07:58:06.994Z</time></trkpt><trkpt lat="44.82093392520073" lon="9.500042095379488"><ele>190.0</ele><time>2026-05-03T07:58:07.994Z</time></trkpt><trkpt lat="44.820817167566375" lon="9.49969844552835"><ele>193.0</ele><time>2026-05-03T07:58:08.994Z</time></trkpt><trkpt lat="44.82073204429129" lon="9.499339135601398"><ele>193.0</ele><time>2026-05-03T07:58:09.994Z</time></trkpt><trkpt lat="44.82064494589851" lon="9.498981864223618"><ele>193.0</ele><time>2026-05-03T07:58:10.994Z</time></trkpt><trkpt lat="44.82056100300966" lon="9.498634032342101"><ele>192.5</ele><time>2026-05-03T07:58:11.994Z</time></trkpt><trkpt lat="44.82047287918438" lon="9.498285127231048"><ele>192.0</ele><time>2026-05-03T07:58:12.994Z</time></trkpt><trkpt lat="44.820373934592325" lon="9.497937726283961"><ele>191.5</ele><time>2026-05-03T07:58:13.994Z</time></trkpt><trkpt lat="44.82026515091197" lon="9.49759941659457"><ele>191.0</ele><time>2026-05-03T07:58:14.994Z</time></trkpt><trkpt lat="44.82014890307316" lon="9.49726454418535"><ele>194.5</ele><time>2026-05-03T07:58:15.994Z</time></trkpt><trkpt lat="44.82003549696571" lon="9.496935591688468"><ele>198.0</ele><time>2026-05-03T07:58:16.994Z</time></trkpt><trkpt lat="44.81992323569336" lon="9.496604786794942"><ele>198.0</ele><time>2026-05-03T07:58:17.994Z</time></trkpt><trkpt lat="44.81981469551722" lon="9.496270100451525"><ele>198.0</ele><time>2026-05-03T07:58:18.994Z</time></trkpt><trkpt lat="44.81971299907189" lon="9.495925138648259"><ele>195.5</ele><time>2026-05-03T07:58:19.994Z</time></trkpt><trkpt lat="44.81961225354477" lon="9.495582569648585"><ele>193.0</ele><time>2026-05-03T07:58:20.994Z</time></trkpt><trkpt lat="44.81951211538171" lon="9.495246900042233"><ele>191.5</ele><time>2026-05-03T07:58:21.994Z</time></trkpt><trkpt lat="44.8194142895166" lon="9.494914875811729"><ele>190.0</ele><time>2026-05-03T07:58:22.994Z</time></trkpt><trkpt lat="44.8193192500373" lon="9.49457990896518"><ele>194.0</ele><time>2026-05-03T07:58:23.994Z</time></trkpt><trkpt lat="44.819232247741745" lon="9.494244758427374"><ele>198.0</ele><time>2026-05-03T07:58:24.994Z</time></trkpt><trkpt lat="44.81915395118565" lon="9.493911834486779"><ele>196.0</ele><time>2026-05-03T07:58:25.994Z</time></trkpt><trkpt lat="44.81908335901481" lon="9.493572528762407"><ele>194.0</ele><time>2026-05-03T07:58:26.994Z</time></trkpt><trkpt lat="44.819023409661476" lon="9.493216382387244"><ele>194.0</ele><time>2026-05-03T07:58:27.994Z</time></trkpt><trkpt lat="44.818975482869696" lon="9.49283871560461"><ele>194.0</ele><time>2026-05-03T07:58:28.994Z</time></trkpt><trkpt lat="44.81894409090311" lon="9.492422780373458"><ele>194.0</ele><time>2026-05-03T07:58:29.993Z</time></trkpt><trkpt lat="44.81892076044438" lon="9.49199241583371"><ele>194.0</ele><time>2026-05-03T07:58:30.993Z</time></trkpt><trkpt lat="44.81891150754779" lon="9.491553247396839"><ele>194.5</ele><time>2026-05-03T07:58:31.993Z</time></trkpt><trkpt lat="44.81890334328188" lon="9.491099374924378"><ele>195.0</ele><time>2026-05-03T07:58:32.993Z</time></trkpt><trkpt lat="44.81889576324758" lon="9.490635794499902"><ele>195.0</ele><time>2026-05-03T07:58:33.993Z</time></trkpt><trkpt lat="44.81888698049371" lon="9.49019898797928"><ele>195.0</ele><time>2026-05-03T07:58:34.993Z</time></trkpt><trkpt lat="44.81887749366114" lon="9.489784104366215"><ele>195.0</ele><time>2026-05-03T07:58:35.993Z</time></trkpt><trkpt lat="44.818867732585844" lon="9.489390494516547"><ele>195.0</ele><time>2026-05-03T07:58:36.993Z</time></trkpt><trkpt lat="44.818856762025234" lon="9.488999765133041"><ele>194.5</ele><time>2026-05-03T07:58:37.993Z</time></trkpt><trkpt lat="44.818845281152576" lon="9.488614786234386"><ele>194.0</ele><time>2026-05-03T07:58:38.993Z</time></trkpt><trkpt lat="44.81883416602563" lon="9.488229156180982"><ele>195.0</ele><time>2026-05-03T07:58:39.993Z</time></trkpt><trkpt lat="44.818824525232024" lon="9.487844917156975"><ele>196.0</ele><time>2026-05-03T07:58:40.993Z</time></trkpt><trkpt lat="44.81881920262061" lon="9.487479988940638"><ele>196.0</ele><time>2026-05-03T07:58:41.993Z</time></trkpt><trkpt lat="44.81880620086021" lon="9.487129769575988"><ele>196.0</ele><time>2026-05-03T07:58:42.993Z</time></trkpt><trkpt lat="44.81879328549972" lon="9.486797188263283"><ele>197.0</ele><time>2026-05-03T07:58:43.993Z</time></trkpt><trkpt lat="44.818765763408855" lon="9.486464239186537"><ele>198.0</ele><time>2026-05-03T07:58:44.993Z</time></trkpt><trkpt lat="44.81872218580815" lon="9.486128511496808"><ele>198.5</ele><time>2026-05-03T07:58:45.993Z</time></trkpt><trkpt lat="44.818647517179" lon="9.48579972433918"><ele>199.0</ele><time>2026-05-03T07:58:46.993Z</time></trkpt><trkpt lat="44.818559402449935" lon="9.485462649411993"><ele>208.0</ele><time>2026-05-03T07:58:47.993Z</time></trkpt><trkpt lat="44.81844271857993" lon="9.485120124842013"><ele>217.0</ele><time>2026-05-03T07:58:48.993Z</time></trkpt><trkpt lat="44.818346040819755" lon="9.484775759208073"><ele>219.5</ele><time>2026-05-03T07:58:49.993Z</time></trkpt><trkpt lat="44.81825408642362" lon="9.484435386654532"><ele>222.0</ele><time>2026-05-03T07:58:50.993Z</time></trkpt><trkpt lat="44.818158772918224" lon="9.484100920727668"><ele>220.0</ele><time>2026-05-03T07:58:51.993Z</time></trkpt><trkpt lat="44.81806235290341" lon="9.483762755302486"><ele>218.0</ele><time>2026-05-03T07:58:52.993Z</time></trkpt><trkpt lat="44.817964898808235" lon="9.483422890846368"><ele>218.0</ele><time>2026-05-03T07:58:53.993Z</time></trkpt><trkpt lat="44.81787071944927" lon="9.483075672443066"><ele>218.0</ele><time>2026-05-03T07:58:54.993Z</time></trkpt><trkpt lat="44.81765811561432" lon="9.482669096723924"><ele>204.0</ele><time>2026-05-03T07:58:56.134Z</time></trkpt><trkpt lat="44.81730911430704" lon="9.481516356432643"><ele>202.0</ele><time>2026-05-03T07:58:59.993Z</time></trkpt><trkpt lat="44.81714144941262" lon="9.481174888559007"><ele>200.0</ele><time>2026-05-03T07:59:00.993Z</time></trkpt><trkpt lat="44.81700674342358" lon="9.480803718314856"><ele>200.0</ele><time>2026-05-03T07:59:01.993Z</time></trkpt><trkpt lat="44.81688686012902" lon="9.480458928199122"><ele>200.0</ele><time>2026-05-03T07:59:02.993Z</time></trkpt><trkpt lat="44.816799037582186" lon="9.480079957658194"><ele>203.5</ele><time>2026-05-03T07:59:03.993Z</time></trkpt><trkpt lat="44.81673499358155" lon="9.479688076896698"><ele>207.0</ele><time>2026-05-03T07:59:04.993Z</time></trkpt><trkpt lat="44.816661767030716" lon="9.47927464073785"><ele>208.0</ele><time>2026-05-03T07:59:05.993Z</time></trkpt><trkpt lat="44.81663434856563" lon="9.478852045812154"><ele>209.0</ele><time>2026-05-03T07:59:06.993Z</time></trkpt><trkpt lat="44.81662457721827" lon="9.478420631710991"><ele>209.5</ele><time>2026-05-03T07:59:07.993Z</time></trkpt><trkpt lat="44.81662956898952" lon="9.477994555301061"><ele>210.0</ele><time>2026-05-03T07:59:08.993Z</time></trkpt><trkpt lat="44.816633344261874" lon="9.47759274494297"><ele>210.5</ele><time>2026-05-03T07:59:09.993Z</time></trkpt><trkpt lat="44.81663583337112" lon="9.47721319094896"><ele>211.0</ele><time>2026-05-03T07:59:10.993Z</time></trkpt><trkpt lat="44.81663915976129" lon="9.47685811576698"><ele>213.5</ele><time>2026-05-03T07:59:11.993Z</time></trkpt><trkpt lat="44.81663996733953" lon="9.476512148713201"><ele>216.0</ele><time>2026-05-03T07:59:12.993Z</time></trkpt><trkpt lat="44.816642891958054" lon="9.47617916825197"><ele>218.5</ele><time>2026-05-03T07:59:13.993Z</time></trkpt><trkpt lat="44.816639549772376" lon="9.475848871282581"><ele>221.0</ele><time>2026-05-03T07:59:14.994Z</time></trkpt><trkpt lat="44.816638136617605" lon="9.475523729225497"><ele>222.33333333333334</ele><time>2026-05-03T07:59:15.994Z</time></trkpt><trkpt lat="44.816637514416044" lon="9.475205994073535"><ele>223.66666666666669</ele><time>2026-05-03T07:59:16.994Z</time></trkpt><trkpt lat="44.81663881028156" lon="9.474898013919413"><ele>225.0</ele><time>2026-05-03T07:59:17.993Z</time></trkpt><trkpt lat="44.81663659152138" lon="9.474618774918245"><ele>226.0</ele><time>2026-05-03T07:59:18.993Z</time></trkpt><trkpt lat="44.81664058262739" lon="9.474352707604199"><ele>227.0</ele><time>2026-05-03T07:59:19.993Z</time></trkpt><trkpt lat="44.8166465887815" lon="9.47410308727357"><ele>228.0</ele><time>2026-05-03T07:59:20.994Z</time></trkpt><trkpt lat="44.816652128237656" lon="9.473869027467842"><ele>228.0</ele><time>2026-05-03T07:59:21.993Z</time></trkpt><trkpt lat="44.81666014081402" lon="9.473652244035348"><ele>228.0</ele><time>2026-05-03T07:59:22.993Z</time></trkpt><trkpt lat="44.81666540656793" lon="9.47345229847385"><ele>228.0</ele><time>2026-05-03T07:59:23.993Z</time></trkpt><trkpt lat="44.81668471042775" lon="9.473261116160765"><ele>228.0</ele><time>2026-05-03T07:59:24.994Z</time></trkpt><trkpt lat="44.81673172035661" lon="9.473058217733946"><ele>226.33333333333331</ele><time>2026-05-03T07:59:25.994Z</time></trkpt><trkpt lat="44.81679958610844" lon="9.472857261713388"><ele>224.66666666666666</ele><time>2026-05-03T07:59:26.993Z</time></trkpt><trkpt lat="44.81689065309826" lon="9.472637533522999"><ele>223.0</ele><time>2026-05-03T07:59:27.994Z</time></trkpt><trkpt lat="44.81701312777232" lon="9.472399276267968"><ele>223.0</ele><time>2026-05-03T07:59:28.994Z</time></trkpt><trkpt lat="44.817156789986655" lon="9.472201001287752"><ele>223.0</ele><time>2026-05-03T07:59:29.994Z</time></trkpt><trkpt lat="44.81728847734734" lon="9.472021032040054"><ele>223.0</ele><time>2026-05-03T07:59:30.994Z</time></trkpt><trkpt lat="44.817396327764655" lon="9.471810803326054"><ele>225.66666666666666</ele><time>2026-05-03T07:59:31.994Z</time></trkpt><trkpt lat="44.81750056814097" lon="9.471598137515487"><ele>228.33333333333331</ele><time>2026-05-03T07:59:32.994Z</time></trkpt><trkpt lat="44.81757046050789" lon="9.471341443935446"><ele>231.0</ele><time>2026-05-03T07:59:33.994Z</time></trkpt><trkpt lat="44.817605678371095" lon="9.471045365372794"><ele>230.5</ele><time>2026-05-03T07:59:34.994Z</time></trkpt><trkpt lat="44.81759449826867" lon="9.470741829033335"><ele>230.0</ele><time>2026-05-03T07:59:35.994Z</time></trkpt><trkpt lat="44.81754453407047" lon="9.470415812607854"><ele>230.0</ele><time>2026-05-03T07:59:36.994Z</time></trkpt><trkpt lat="44.817472235394355" lon="9.470076251964537"><ele>230.0</ele><time>2026-05-03T07:59:37.994Z</time></trkpt><trkpt lat="44.81740091680618" lon="9.469723702381321"><ele>225.0</ele><time>2026-05-03T07:59:38.994Z</time></trkpt><trkpt lat="44.81733546466448" lon="9.469364826108842"><ele>220.0</ele><time>2026-05-03T07:59:39.994Z</time></trkpt><trkpt lat="44.81727232085303" lon="9.469011738455716"><ele>219.0</ele><time>2026-05-03T07:59:40.994Z</time></trkpt><trkpt lat="44.81720821424195" lon="9.46866862591418"><ele>218.0</ele><time>2026-05-03T07:59:41.994Z</time></trkpt><trkpt lat="44.817142099588864" lon="9.468326591789582"><ele>218.0</ele><time>2026-05-03T07:59:42.994Z</time></trkpt><trkpt lat="44.81707043910342" lon="9.467988444897692"><ele>218.0</ele><time>2026-05-03T07:59:43.993Z</time></trkpt><trkpt lat="44.81699292646321" lon="9.467659349900758"><ele>217.5</ele><time>2026-05-03T07:59:44.992Z</time></trkpt><trkpt lat="44.81690618006774" lon="9.467340851416813"><ele>217.0</ele><time>2026-05-03T07:59:45.991Z</time></trkpt><trkpt lat="44.8168000301132" lon="9.467030652282878"><ele>222.5</ele><time>2026-05-03T07:59:46.991Z</time></trkpt><trkpt lat="44.81668295639581" lon="9.466727719760566"><ele>228.0</ele><time>2026-05-03T07:59:47.99Z</time></trkpt><trkpt lat="44.816557314873506" lon="9.466425922530973"><ele>223.5</ele><time>2026-05-03T07:59:48.989Z</time></trkpt><trkpt lat="44.81643217218184" lon="9.466126836762276"><ele>219.0</ele><time>2026-05-03T07:59:49.989Z</time></trkpt><trkpt lat="44.81630089318751" lon="9.465828431994995"><ele>219.0</ele><time>2026-05-03T07:59:50.988Z</time></trkpt><trkpt lat="44.81619434741039" lon="9.465516236021328"><ele>219.0</ele><time>2026-05-03T07:59:51.988Z</time></trkpt><trkpt lat="44.81612223567866" lon="9.46517582378144"><ele>216.0</ele><time>2026-05-03T07:59:52.987Z</time></trkpt><trkpt lat="44.816085259812546" lon="9.46485148146444"><ele>213.0</ele><time>2026-05-03T07:59:53.987Z</time></trkpt><trkpt lat="44.81605481881066" lon="9.464532238631124"><ele>212.0</ele><time>2026-05-03T07:59:54.986Z</time></trkpt><trkpt lat="44.816011391192056" lon="9.464200329405829"><ele>211.0</ele><time>2026-05-03T07:59:55.986Z</time></trkpt><trkpt lat="44.815980262233104" lon="9.463856106003693"><ele>221.5</ele><time>2026-05-03T07:59:56.985Z</time></trkpt><trkpt lat="44.815940032804754" lon="9.463508145049001"><ele>232.0</ele><time>2026-05-03T07:59:57.985Z</time></trkpt><trkpt lat="44.81589165694341" lon="9.463159161589417"><ele>230.5</ele><time>2026-05-03T07:59:58.984Z</time></trkpt><trkpt lat="44.81584022025136" lon="9.462813122815096"><ele>229.0</ele><time>2026-05-03T07:59:59.984Z</time></trkpt><trkpt lat="44.81578505905991" lon="9.462472363822792"><ele>229.0</ele><time>2026-05-03T08:00:00.984Z</time></trkpt><trkpt lat="44.81572550858697" lon="9.462134825641868"><ele>229.0</ele><time>2026-05-03T08:00:01.984Z</time></trkpt><trkpt lat="44.815675857126834" lon="9.461802684613538"><ele>227.5</ele><time>2026-05-03T08:00:02.983Z</time></trkpt><trkpt lat="44.815628467422236" lon="9.461476294277771"><ele>226.0</ele><time>2026-05-03T08:00:03.983Z</time></trkpt><trkpt lat="44.81558953707412" lon="9.461156179107714"><ele>225.0</ele><time>2026-05-03T08:00:04.983Z</time></trkpt><trkpt lat="44.815558876245525" lon="9.460838634473328"><ele>224.0</ele><time>2026-05-03T08:00:05.983Z</time></trkpt><trkpt lat="44.81553486566103" lon="9.460525708022061"><ele>223.33333333333334</ele><time>2026-05-03T08:00:06.982Z</time></trkpt><trkpt lat="44.81551181509134" lon="9.460223450774778"><ele>222.66666666666669</ele><time>2026-05-03T08:00:07.982Z</time></trkpt><trkpt lat="44.81549572364034" lon="9.459978484841047"><ele>222.0</ele><time>2026-05-03T08:00:08.982Z</time></trkpt><trkpt lat="44.815477941365394" lon="9.459771437865918"><ele>222.25</ele><time>2026-05-03T08:00:09.982Z</time></trkpt><trkpt lat="44.81546153297297" lon="9.459586908019844"><ele>222.5</ele><time>2026-05-03T08:00:10.982Z</time></trkpt><trkpt lat="44.81543889305088" lon="9.459423982361395"><ele>222.75</ele><time>2026-05-03T08:00:11.981Z</time></trkpt><trkpt lat="44.815425933289845" lon="9.459278210572823"><ele>223.0</ele><time>2026-05-03T08:00:12.981Z</time></trkpt><trkpt lat="44.81540987305794" lon="9.459139763815054"><ele>223.0</ele><time>2026-05-03T08:00:13.981Z</time></trkpt><trkpt lat="44.81542347349869" lon="9.458996040064344"><ele>223.0</ele><time>2026-05-03T08:00:14.981Z</time></trkpt><trkpt lat="44.8154005985889" lon="9.458873411245245"><ele>223.0</ele><time>2026-05-03T08:00:15.981Z</time></trkpt><trkpt lat="44.81537553091308" lon="9.458768220718783"><ele>223.0</ele><time>2026-05-03T08:00:16.981Z</time></trkpt><trkpt lat="44.81535413036718" lon="9.45867688342357"><ele>223.0</ele><time>2026-05-03T08:00:17.981Z</time></trkpt><trkpt lat="44.815304037984895" lon="9.458534815129502"><ele>222.8</ele><time>2026-05-03T08:00:19.98Z</time></trkpt><trkpt lat="44.81526177786587" lon="9.458407228987662"><ele>222.60000000000002</ele><time>2026-05-03T08:00:21.98Z</time></trkpt><trkpt lat="44.815228696605594" lon="9.458309728342757"><ele>222.39999999999998</ele><time>2026-05-03T08:00:23.98Z</time></trkpt><trkpt lat="44.815193013230555" lon="9.458209282923384"><ele>222.2</ele><time>2026-05-03T08:00:26.98Z</time></trkpt><trkpt lat="44.81509984049019" lon="9.45807244123811"><ele>222.0</ele><time>2026-05-03T08:00:44.979Z</time></trkpt><trkpt lat="44.815046030585265" lon="9.457955853584963"><ele>223.0</ele><time>2026-05-03T08:00:45.979Z</time></trkpt><trkpt lat="44.81498948015069" lon="9.457798749572614"><ele>224.0</ele><time>2026-05-03T08:00:46.979Z</time></trkpt><trkpt lat="44.81491306334489" lon="9.457630285994941"><ele>225.0</ele><time>2026-05-03T08:00:47.979Z</time></trkpt><trkpt lat="44.81482899323653" lon="9.457443994011523"><ele>226.0</ele><time>2026-05-03T08:00:48.979Z</time></trkpt><trkpt lat="44.81474097411441" lon="9.457253292784099"><ele>221.66666666666666</ele><time>2026-05-03T08:00:49.979Z</time></trkpt><trkpt lat="44.814653690540815" lon="9.457063238933888"><ele>217.33333333333331</ele><time>2026-05-03T08:00:50.979Z</time></trkpt><trkpt lat="44.814575003481224" lon="9.456882077010953"><ele>213.0</ele><time>2026-05-03T08:00:51.979Z</time></trkpt><trkpt lat="44.81449442909352" lon="9.456706511632108"><ele>213.0</ele><time>2026-05-03T08:00:52.979Z</time></trkpt><trkpt lat="44.81441407299523" lon="9.45652515203646"><ele>213.0</ele><time>2026-05-03T08:00:53.979Z</time></trkpt><trkpt lat="44.81432678682914" lon="9.456334230456667"><ele>213.0</ele><time>2026-05-03T08:00:54.979Z</time></trkpt><trkpt lat="44.81423103252075" lon="9.456135778740647"><ele>215.33333333333331</ele><time>2026-05-03T08:00:55.979Z</time></trkpt><trkpt lat="44.814136300232306" lon="9.455930158400534"><ele>217.66666666666666</ele><time>2026-05-03T08:00:56.979Z</time></trkpt><trkpt lat="44.81403873880716" lon="9.455724006235807"><ele>220.0</ele><time>2026-05-03T08:00:57.979Z</time></trkpt><trkpt lat="44.81394450570756" lon="9.455518662865682"><ele>218.33333333333331</ele><time>2026-05-03T08:00:58.979Z</time></trkpt><trkpt lat="44.81385062620561" lon="9.455310361806013"><ele>216.66666666666669</ele><time>2026-05-03T08:00:59.979Z</time></trkpt><trkpt lat="44.81375367005063" lon="9.455097443521705"><ele>215.0</ele><time>2026-05-03T08:01:00.979Z</time></trkpt><trkpt lat="44.81365714000158" lon="9.454882898809473"><ele>215.0</ele><time>2026-05-03T08:01:01.979Z</time></trkpt><trkpt lat="44.81355840740406" lon="9.454664977869143"><ele>215.0</ele><time>2026-05-03T08:01:02.978Z</time></trkpt><trkpt lat="44.81345806996421" lon="9.454443418839329"><ele>215.0</ele><time>2026-05-03T08:01:03.978Z</time></trkpt><trkpt lat="44.81335604936461" lon="9.454221034565606"><ele>214.66666666666669</ele><time>2026-05-03T08:01:04.978Z</time></trkpt><trkpt lat="44.813254741707965" lon="9.453997616551197"><ele>214.33333333333331</ele><time>2026-05-03T08:01:05.978Z</time></trkpt><trkpt lat="44.813157094918395" lon="9.453772842286401"><ele>214.0</ele><time>2026-05-03T08:01:06.978Z</time></trkpt><trkpt lat="44.81306164920245" lon="9.45354654376122"><ele>214.0</ele><time>2026-05-03T08:01:07.978Z</time></trkpt><trkpt lat="44.81295994875753" lon="9.453320686098834"><ele>214.0</ele><time>2026-05-03T08:01:08.978Z</time></trkpt><trkpt lat="44.812854314894714" lon="9.45309329487562"><ele>214.0</ele><time>2026-05-03T08:01:09.978Z</time></trkpt><trkpt lat="44.81275114886821" lon="9.452864325724748"><ele>217.0</ele><time>2026-05-03T08:01:10.978Z</time></trkpt><trkpt lat="44.81265308782629" lon="9.452648361679252"><ele>220.0</ele><time>2026-05-03T08:01:11.978Z</time></trkpt><trkpt lat="44.812564161667375" lon="9.452439693274796"><ele>223.0</ele><time>2026-05-03T08:01:12.978Z</time></trkpt><trkpt lat="44.812489385096505" lon="9.4522302609408"><ele>222.66666666666666</ele><time>2026-05-03T08:01:13.978Z</time></trkpt><trkpt lat="44.81242851722824" lon="9.451996902260897"><ele>222.33333333333331</ele><time>2026-05-03T08:01:14.978Z</time></trkpt><trkpt lat="44.81238085631997" lon="9.451745850513971"><ele>222.0</ele><time>2026-05-03T08:01:15.978Z</time></trkpt><trkpt lat="44.81234492032504" lon="9.45145084806113"><ele>220.5</ele><time>2026-05-03T08:01:16.978Z</time></trkpt><trkpt lat="44.8123115071353" lon="9.451098793740643"><ele>219.0</ele><time>2026-05-03T08:01:17.978Z</time></trkpt><trkpt lat="44.812271866001645" lon="9.450743546257161"><ele>219.0</ele><time>2026-05-03T08:01:18.978Z</time></trkpt><trkpt lat="44.81222815362717" lon="9.45036511426243"><ele>219.0</ele><time>2026-05-03T08:01:19.978Z</time></trkpt><trkpt lat="44.81218295179713" lon="9.449981488009135"><ele>217.0</ele><time>2026-05-03T08:01:20.979Z</time></trkpt><trkpt lat="44.81213435526473" lon="9.44960935547066"><ele>215.0</ele><time>2026-05-03T08:01:21.979Z</time></trkpt><trkpt lat="44.81208698155329" lon="9.449240260398065"><ele>215.0</ele><time>2026-05-03T08:01:22.979Z</time></trkpt><trkpt lat="44.8120417779798" lon="9.44887875725714"><ele>215.0</ele><time>2026-05-03T08:01:23.979Z</time></trkpt><trkpt lat="44.81200536350344" lon="9.448539058713173"><ele>214.5</ele><time>2026-05-03T08:01:24.978Z</time></trkpt><trkpt lat="44.81196583573501" lon="9.448217769844849"><ele>214.0</ele><time>2026-05-03T08:01:25.978Z</time></trkpt><trkpt lat="44.8119261270048" lon="9.447891712510271"><ele>213.5</ele><time>2026-05-03T08:01:26.978Z</time></trkpt><trkpt lat="44.811884871255515" lon="9.447559779188243"><ele>213.0</ele><time>2026-05-03T08:01:27.979Z</time></trkpt><trkpt lat="44.811848876959246" lon="9.447226933324544"><ele>217.0</ele><time>2026-05-03T08:01:28.979Z</time></trkpt><trkpt lat="44.81181127324047" lon="9.446904944338275"><ele>221.0</ele><time>2026-05-03T08:01:29.979Z</time></trkpt><trkpt lat="44.811772824610046" lon="9.446582197565322"><ele>220.5</ele><time>2026-05-03T08:01:30.979Z</time></trkpt><trkpt lat="44.81173591306143" lon="9.44626790367048"><ele>220.0</ele><time>2026-05-03T08:01:31.979Z</time></trkpt><trkpt lat="44.81170027821606" lon="9.445947167081863"><ele>220.0</ele><time>2026-05-03T08:01:32.978Z</time></trkpt><trkpt lat="44.811663290944836" lon="9.445625490034363"><ele>220.0</ele><time>2026-05-03T08:01:33.979Z</time></trkpt><trkpt lat="44.811622895186424" lon="9.445309798465416"><ele>220.66666666666666</ele><time>2026-05-03T08:01:34.979Z</time></trkpt><trkpt lat="44.81158904599247" lon="9.44500318634981"><ele>221.33333333333331</ele><time>2026-05-03T08:01:35.979Z</time></trkpt><trkpt lat="44.811546235508644" lon="9.444701435355592"><ele>222.0</ele><time>2026-05-03T08:01:36.979Z</time></trkpt><trkpt lat="44.811515818260794" lon="9.444413827100256"><ele>222.0</ele><time>2026-05-03T08:01:37.979Z</time></trkpt><trkpt lat="44.81148243949754" lon="9.44412951403335"><ele>222.0</ele><time>2026-05-03T08:01:38.979Z</time></trkpt><trkpt lat="44.811445541981826" lon="9.44384080864048"><ele>222.0</ele><time>2026-05-03T08:01:39.979Z</time></trkpt><trkpt lat="44.81140376695228" lon="9.443553944586315"><ele>221.66666666666669</ele><time>2026-05-03T08:01:40.979Z</time></trkpt><trkpt lat="44.811365139702076" lon="9.443273842988255"><ele>221.33333333333334</ele><time>2026-05-03T08:01:41.979Z</time></trkpt><trkpt lat="44.811328167404966" lon="9.442989889338449"><ele>221.0</ele><time>2026-05-03T08:01:42.979Z</time></trkpt><trkpt lat="44.81129935249395" lon="9.442708944699039"><ele>221.0</ele><time>2026-05-03T08:01:43.979Z</time></trkpt><trkpt lat="44.81127283127103" lon="9.442440718747585"><ele>221.0</ele><time>2026-05-03T08:01:44.979Z</time></trkpt><trkpt lat="44.81124077585562" lon="9.442149922151605"><ele>221.0</ele><time>2026-05-03T08:01:45.979Z</time></trkpt><trkpt lat="44.811209182551515" lon="9.441869910860023"><ele>220.33333333333334</ele><time>2026-05-03T08:01:46.978Z</time></trkpt><trkpt lat="44.81117205216805" lon="9.441592121189442"><ele>219.66666666666669</ele><time>2026-05-03T08:01:47.978Z</time></trkpt><trkpt lat="44.81113887087254" lon="9.441311499089064"><ele>219.0</ele><time>2026-05-03T08:01:48.978Z</time></trkpt><trkpt lat="44.81109989864736" lon="9.441038399471621"><ele>218.33333333333331</ele><time>2026-05-03T08:01:49.978Z</time></trkpt><trkpt lat="44.811050954877246" lon="9.440755425940983"><ele>217.66666666666666</ele><time>2026-05-03T08:01:50.978Z</time></trkpt><trkpt lat="44.81099219308427" lon="9.440466382587148"><ele>217.0</ele><time>2026-05-03T08:01:51.978Z</time></trkpt><trkpt lat="44.81090411828811" lon="9.440185734045146"><ele>221.0</ele><time>2026-05-03T08:01:52.978Z</time></trkpt><trkpt lat="44.81079881954443" lon="9.439903824153282"><ele>225.0</ele><time>2026-05-03T08:01:53.978Z</time></trkpt><trkpt lat="44.81067401928752" lon="9.439633888170569"><ele>223.0</ele><time>2026-05-03T08:01:54.978Z</time></trkpt><trkpt lat="44.81053052625999" lon="9.439379074263599"><ele>221.0</ele><time>2026-05-03T08:01:55.978Z</time></trkpt><trkpt lat="44.81038087490831" lon="9.43913546376361"><ele>221.0</ele><time>2026-05-03T08:01:56.978Z</time></trkpt><trkpt lat="44.81022556600106" lon="9.438899830500494"><ele>221.0</ele><time>2026-05-03T08:01:57.978Z</time></trkpt><trkpt lat="44.810067839894614" lon="9.43866580941551"><ele>223.66666666666669</ele><time>2026-05-03T08:01:58.978Z</time></trkpt><trkpt lat="44.80991214344121" lon="9.438432268407494"><ele>226.33333333333331</ele><time>2026-05-03T08:01:59.978Z</time></trkpt><trkpt lat="44.809760069077875" lon="9.438206642056993"><ele>229.0</ele><time>2026-05-03T08:02:00.978Z</time></trkpt><trkpt lat="44.80960828792929" lon="9.437986859378956"><ele>230.0</ele><time>2026-05-03T08:02:01.978Z</time></trkpt><trkpt lat="44.80946544146063" lon="9.437760560978216"><ele>231.0</ele><time>2026-05-03T08:02:02.978Z</time></trkpt><trkpt lat="44.809322345526624" lon="9.437548497840657"><ele>232.0</ele><time>2026-05-03T08:02:03.978Z</time></trkpt><trkpt lat="44.80918517667422" lon="9.437352805300307"><ele>232.0</ele><time>2026-05-03T08:02:04.978Z</time></trkpt><trkpt lat="44.80906016638345" lon="9.437142102979672"><ele>232.0</ele><time>2026-05-03T08:02:05.978Z</time></trkpt><trkpt lat="44.808955175832715" lon="9.436916447634601"><ele>232.0</ele><time>2026-05-03T08:02:06.978Z</time></trkpt><trkpt lat="44.80886921241586" lon="9.436667830997504"><ele>228.66666666666666</ele><time>2026-05-03T08:02:07.978Z</time></trkpt><trkpt lat="44.80879059333411" lon="9.436404855796003"><ele>225.33333333333331</ele><time>2026-05-03T08:02:08.978Z</time></trkpt><trkpt lat="44.808704264138676" lon="9.43612923762154"><ele>222.0</ele><time>2026-05-03T08:02:09.978Z</time></trkpt><trkpt lat="44.80860801186723" lon="9.43585451031719"><ele>220.66666666666669</ele><time>2026-05-03T08:02:10.978Z</time></trkpt><trkpt lat="44.80850460442229" lon="9.435589733223585"><ele>219.33333333333334</ele><time>2026-05-03T08:02:11.978Z</time></trkpt><trkpt lat="44.80840636237436" lon="9.435333130994094"><ele>218.0</ele><time>2026-05-03T08:02:12.978Z</time></trkpt><trkpt lat="44.808304694868994" lon="9.43506530674538"><ele>218.0</ele><time>2026-05-03T08:02:13.978Z</time></trkpt><trkpt lat="44.80819846373119" lon="9.434776564261318"><ele>218.0</ele><time>2026-05-03T08:02:14.978Z</time></trkpt><trkpt lat="44.80809222262695" lon="9.434474676782918"><ele>219.5</ele><time>2026-05-03T08:02:15.978Z</time></trkpt><trkpt lat="44.80798468928218" lon="9.434160573514124"><ele>221.0</ele><time>2026-05-03T08:02:16.978Z</time></trkpt><trkpt lat="44.807875267997886" lon="9.43383966907394"><ele>221.0</ele><time>2026-05-03T08:02:17.978Z</time></trkpt><trkpt lat="44.80776229393627" lon="9.433512767451903"><ele>221.0</ele><time>2026-05-03T08:02:18.978Z</time></trkpt><trkpt lat="44.80764407317534" lon="9.433173104027885"><ele>223.0</ele><time>2026-05-03T08:02:19.978Z</time></trkpt><trkpt lat="44.80752119011194" lon="9.43282990119273"><ele>225.0</ele><time>2026-05-03T08:02:20.978Z</time></trkpt><trkpt lat="44.8074055303132" lon="9.432503196397574"><ele>225.0</ele><time>2026-05-03T08:02:21.978Z</time></trkpt><trkpt lat="44.80730327841478" lon="9.432191202158194"><ele>225.0</ele><time>2026-05-03T08:02:22.978Z</time></trkpt><trkpt lat="44.80719404225122" lon="9.431888356504636"><ele>229.5</ele><time>2026-05-03T08:02:23.978Z</time></trkpt><trkpt lat="44.80707932001874" lon="9.431597971813746"><ele>234.0</ele><time>2026-05-03T08:02:24.978Z</time></trkpt><trkpt lat="44.806958059826044" lon="9.431317474919043"><ele>231.5</ele><time>2026-05-03T08:02:25.978Z</time></trkpt><trkpt lat="44.80683036541618" lon="9.431043015967466"><ele>229.0</ele><time>2026-05-03T08:02:26.978Z</time></trkpt><trkpt lat="44.80669694850199" lon="9.430773011145789"><ele>229.0</ele><time>2026-05-03T08:02:27.978Z</time></trkpt><trkpt lat="44.806555057806634" lon="9.430514553474776"><ele>229.0</ele><time>2026-05-03T08:02:28.978Z</time></trkpt><trkpt lat="44.80640713328611" lon="9.430260112916873"><ele>229.0</ele><time>2026-05-03T08:02:29.978Z</time></trkpt><trkpt lat="44.806245783393265" lon="9.430002488531892"><ele>229.0</ele><time>2026-05-03T08:02:30.978Z</time></trkpt><trkpt lat="44.806067215696814" lon="9.429748274707286"><ele>227.5</ele><time>2026-05-03T08:02:31.978Z</time></trkpt><trkpt lat="44.80588005256866" lon="9.429484849180414"><ele>226.0</ele><time>2026-05-03T08:02:32.978Z</time></trkpt><trkpt lat="44.80567051790076" lon="9.429216547340857"><ele>226.0</ele><time>2026-05-03T08:02:33.978Z</time></trkpt><trkpt lat="44.80545913198961" lon="9.428937412438009"><ele>226.0</ele><time>2026-05-03T08:02:34.978Z</time></trkpt><trkpt lat="44.805236755483186" lon="9.428658136103607"><ele>226.0</ele><time>2026-05-03T08:02:35.978Z</time></trkpt><trkpt lat="44.80500856156091" lon="9.42837242641385"><ele>226.0</ele><time>2026-05-03T08:02:36.978Z</time></trkpt><trkpt lat="44.80479000015178" lon="9.4280883094876"><ele>227.0</ele><time>2026-05-03T08:02:37.978Z</time></trkpt><trkpt lat="44.80458792348416" lon="9.427820165156518"><ele>228.0</ele><time>2026-05-03T08:02:38.978Z</time></trkpt><trkpt lat="44.80439985756604" lon="9.427566766232992"><ele>227.0</ele><time>2026-05-03T08:02:39.978Z</time></trkpt><trkpt lat="44.80421615057383" lon="9.427323085179381"><ele>226.0</ele><time>2026-05-03T08:02:40.978Z</time></trkpt><trkpt lat="44.804034633692865" lon="9.427081022032036"><ele>228.0</ele><time>2026-05-03T08:02:41.978Z</time></trkpt><trkpt lat="44.803852642007804" lon="9.426853374811527"><ele>230.0</ele><time>2026-05-03T08:02:42.978Z</time></trkpt><trkpt lat="44.803678365982044" lon="9.426624484611931"><ele>230.0</ele><time>2026-05-03T08:02:43.978Z</time></trkpt><trkpt lat="44.8035063701698" lon="9.42639909210995"><ele>230.0</ele><time>2026-05-03T08:02:44.978Z</time></trkpt><trkpt lat="44.8033325656417" lon="9.426195613664163"><ele>228.5</ele><time>2026-05-03T08:02:45.978Z</time></trkpt><trkpt lat="44.803148012120545" lon="9.425999169191623"><ele>227.0</ele><time>2026-05-03T08:02:46.978Z</time></trkpt><trkpt lat="44.80296249023317" lon="9.425805777836441"><ele>227.0</ele><time>2026-05-03T08:02:47.978Z</time></trkpt><trkpt lat="44.80277216415223" lon="9.425625362753003"><ele>227.0</ele><time>2026-05-03T08:02:48.978Z</time></trkpt><trkpt lat="44.80257737713989" lon="9.425467111887047"><ele>229.0</ele><time>2026-05-03T08:02:49.978Z</time></trkpt><trkpt lat="44.802371068195576" lon="9.425314741156003"><ele>231.0</ele><time>2026-05-03T08:02:50.978Z</time></trkpt><trkpt lat="44.802162370199305" lon="9.425168619696414"><ele>231.0</ele><time>2026-05-03T08:02:51.978Z</time></trkpt><trkpt lat="44.80194842050453" lon="9.425016997536448"><ele>231.0</ele><time>2026-05-03T08:02:52.978Z</time></trkpt><trkpt lat="44.801718249483194" lon="9.42485922373195"><ele>229.0</ele><time>2026-05-03T08:02:53.977Z</time></trkpt><trkpt lat="44.80147078644402" lon="9.424683026061256"><ele>227.0</ele><time>2026-05-03T08:02:54.977Z</time></trkpt><trkpt lat="44.801212583618025" lon="9.424499261571544"><ele>228.0</ele><time>2026-05-03T08:02:55.977Z</time></trkpt><trkpt lat="44.800950984667274" lon="9.424311016083077"><ele>229.0</ele><time>2026-05-03T08:02:56.977Z</time></trkpt><trkpt lat="44.800701863216155" lon="9.424131017926458"><ele>229.0</ele><time>2026-05-03T08:02:57.977Z</time></trkpt><trkpt lat="44.80046952591074" lon="9.4239558226851"><ele>229.0</ele><time>2026-05-03T08:02:58.977Z</time></trkpt><trkpt lat="44.80024758164829" lon="9.423794782502885"><ele>231.5</ele><time>2026-05-03T08:02:59.977Z</time></trkpt><trkpt lat="44.800029149925436" lon="9.423652034444876"><ele>234.0</ele><time>2026-05-03T08:03:00.977Z</time></trkpt><trkpt lat="44.79981339135082" lon="9.423533588437275"><ele>234.0</ele><time>2026-05-03T08:03:01.977Z</time></trkpt><trkpt lat="44.799605274334596" lon="9.423434319031742"><ele>234.0</ele><time>2026-05-03T08:03:02.977Z</time></trkpt><trkpt lat="44.7993952741047" lon="9.423353426255273"><ele>234.0</ele><time>2026-05-03T08:03:03.977Z</time></trkpt><trkpt lat="44.799200330158705" lon="9.42329405876091"><ele>234.66666666666669</ele><time>2026-05-03T08:03:04.977Z</time></trkpt><trkpt lat="44.79899664131871" lon="9.423264253198147"><ele>235.33333333333334</ele><time>2026-05-03T08:03:05.977Z</time></trkpt><trkpt lat="44.798775431759296" lon="9.42322915310874"><ele>236.0</ele><time>2026-05-03T08:03:06.977Z</time></trkpt><trkpt lat="44.79855472408581" lon="9.423205521221288"><ele>237.66666666666669</ele><time>2026-05-03T08:03:07.977Z</time></trkpt><trkpt lat="44.798337141983716" lon="9.423177065250163"><ele>239.33333333333331</ele><time>2026-05-03T08:03:08.977Z</time></trkpt><trkpt lat="44.79811564955522" lon="9.423147197087344"><ele>241.0</ele><time>2026-05-03T08:03:09.977Z</time></trkpt><trkpt lat="44.79790076769977" lon="9.423107057868666"><ele>241.0</ele><time>2026-05-03T08:03:10.977Z</time></trkpt><trkpt lat="44.79768570288872" lon="9.42306079960777"><ele>241.0</ele><time>2026-05-03T08:03:11.977Z</time></trkpt><trkpt lat="44.79747301644473" lon="9.42301414374755"><ele>241.0</ele><time>2026-05-03T08:03:12.977Z</time></trkpt><trkpt lat="44.797276409876105" lon="9.422960162687296"><ele>240.66666666666666</ele><time>2026-05-03T08:03:13.977Z</time></trkpt><trkpt lat="44.797085604515686" lon="9.422882991195443"><ele>240.33333333333331</ele><time>2026-05-03T08:03:14.977Z</time></trkpt><trkpt lat="44.796908518321914" lon="9.422788154024062"><ele>240.0</ele><time>2026-05-03T08:03:15.977Z</time></trkpt><trkpt lat="44.79674193683167" lon="9.422681348295775"><ele>240.0</ele><time>2026-05-03T08:03:16.977Z</time></trkpt><trkpt lat="44.796577649597246" lon="9.422555345391174"><ele>240.0</ele><time>2026-05-03T08:03:17.977Z</time></trkpt><trkpt lat="44.79640329745636" lon="9.422405650758977"><ele>240.0</ele><time>2026-05-03T08:03:18.977Z</time></trkpt><trkpt lat="44.79623530608098" lon="9.422243299554001"><ele>242.33333333333331</ele><time>2026-05-03T08:03:19.977Z</time></trkpt><trkpt lat="44.796066505053346" lon="9.422059804440645"><ele>244.66666666666666</ele><time>2026-05-03T08:03:20.977Z</time></trkpt><trkpt lat="44.79590908538757" lon="9.421833324886482"><ele>247.0</ele><time>2026-05-03T08:03:21.977Z</time></trkpt><trkpt lat="44.79572479624952" lon="9.421621488249098"><ele>247.0</ele><time>2026-05-03T08:03:22.977Z</time></trkpt><trkpt lat="44.795549807439045" lon="9.421382463597313"><ele>247.0</ele><time>2026-05-03T08:03:23.977Z</time></trkpt><trkpt lat="44.79536581040521" lon="9.421139243650865"><ele>244.5</ele><time>2026-05-03T08:03:24.977Z</time></trkpt><trkpt lat="44.795181234263794" lon="9.420893671668919"><ele>242.0</ele><time>2026-05-03T08:03:25.977Z</time></trkpt><trkpt lat="44.795001424489" lon="9.420645887834485"><ele>261.5</ele><time>2026-05-03T08:03:26.977Z</time></trkpt><trkpt lat="44.79481677805743" lon="9.420394278656435"><ele>281.0</ele><time>2026-05-03T08:03:27.977Z</time></trkpt><trkpt lat="44.79463321362846" lon="9.420141999086958"><ele>281.0</ele><time>2026-05-03T08:03:28.977Z</time></trkpt><trkpt lat="44.79444757850651" lon="9.419889892736045"><ele>281.0</ele><time>2026-05-03T08:03:29.977Z</time></trkpt><trkpt lat="44.79425594777067" lon="9.419631970612002"><ele>302.5</ele><time>2026-05-03T08:03:30.977Z</time></trkpt><trkpt lat="44.79407281918224" lon="9.419384569993465"><ele>324.0</ele><time>2026-05-03T08:03:31.977Z</time></trkpt><trkpt lat="44.79387066403841" lon="9.419107810738648"><ele>324.0</ele><time>2026-05-03T08:03:33.12Z</time></trkpt><trkpt lat="44.79369701666522" lon="9.418863467019532"><ele>324.0</ele><time>2026-05-03T08:03:34.118Z</time></trkpt><trkpt lat="44.79351815529579" lon="9.418615206512316"><ele>359.0</ele><time>2026-05-03T08:03:35.12Z</time></trkpt><trkpt lat="44.792877993100404" lon="9.417842807199522"><ele>359.0</ele><time>2026-05-03T08:03:38.459Z</time></trkpt><trkpt lat="44.792680191644614" lon="9.417617624286272"><ele>359.0</ele><time>2026-05-03T08:03:39.459Z</time></trkpt><trkpt lat="44.79249469201978" lon="9.417374068372165"><ele>373.5</ele><time>2026-05-03T08:03:40.459Z</time></trkpt><trkpt lat="44.79230913301995" lon="9.41713043450033"><ele>388.0</ele><time>2026-05-03T08:03:41.46Z</time></trkpt><trkpt lat="44.79212369701591" lon="9.416886962118582"><ele>388.0</ele><time>2026-05-03T08:03:42.459Z</time></trkpt><trkpt lat="44.791938192548194" lon="9.416643399845912"><ele>388.0</ele><time>2026-05-03T08:03:43.459Z</time></trkpt><trkpt lat="44.79175321621934" lon="9.416400531005062"><ele>357.5</ele><time>2026-05-03T08:03:44.456Z</time></trkpt><trkpt lat="44.79156700192142" lon="9.41615709456787"><ele>327.0</ele><time>2026-05-03T08:03:45.458Z</time></trkpt><trkpt lat="44.79138078313091" lon="9.415914009561638"><ele>327.0</ele><time>2026-05-03T08:03:46.459Z</time></trkpt><trkpt lat="44.79119597626836" lon="9.41566957532344"><ele>327.0</ele><time>2026-05-03T08:03:47.459Z</time></trkpt><trkpt lat="44.79101077225265" lon="9.41542728402748"><ele>240.0</ele><time>2026-05-03T08:03:48.456Z</time></trkpt><trkpt lat="44.789945952884445" lon="9.414016853102183"><ele>236.0</ele><time>2026-05-03T08:03:49.976Z</time></trkpt><trkpt lat="44.78952979655891" lon="9.413462086295992"><ele>236.5</ele><time>2026-05-03T08:03:50.976Z</time></trkpt><trkpt lat="44.78921412020793" lon="9.413049623902538"><ele>237.0</ele><time>2026-05-03T08:03:51.976Z</time></trkpt><trkpt lat="44.78896326133994" lon="9.412721022745131"><ele>237.0</ele><time>2026-05-03T08:03:52.976Z</time></trkpt><trkpt lat="44.78874199430238" lon="9.412423893916145"><ele>237.0</ele><time>2026-05-03T08:03:53.976Z</time></trkpt><trkpt lat="44.788540538562685" lon="9.412154156166862"><ele>237.5</ele><time>2026-05-03T08:03:54.976Z</time></trkpt><trkpt lat="44.78831635535221" lon="9.411844142137815"><ele>238.0</ele><time>2026-05-03T08:03:55.976Z</time></trkpt><trkpt lat="44.78812359228287" lon="9.411590384890793"><ele>238.0</ele><time>2026-05-03T08:03:56.976Z</time></trkpt><trkpt lat="44.7879213777335" lon="9.411333696525135"><ele>238.0</ele><time>2026-05-03T08:03:57.976Z</time></trkpt><trkpt lat="44.78772550293748" lon="9.411079058811376"><ele>239.0</ele><time>2026-05-03T08:03:58.976Z</time></trkpt><trkpt lat="44.78753541131448" lon="9.41083059784559"><ele>240.0</ele><time>2026-05-03T08:03:59.976Z</time></trkpt><trkpt lat="44.78734527874892" lon="9.410580825416153"><ele>238.5</ele><time>2026-05-03T08:04:00.976Z</time></trkpt><trkpt lat="44.78715730539336" lon="9.41032476683715"><ele>237.0</ele><time>2026-05-03T08:04:01.976Z</time></trkpt><trkpt lat="44.78696473552543" lon="9.410070957334906"><ele>241.5</ele><time>2026-05-03T08:04:02.976Z</time></trkpt><trkpt lat="44.786777580187064" lon="9.409822973005006"><ele>246.0</ele><time>2026-05-03T08:04:03.976Z</time></trkpt><trkpt lat="44.786584603302565" lon="9.409573782526968"><ele>246.0</ele><time>2026-05-03T08:04:04.976Z</time></trkpt><trkpt lat="44.78639072053575" lon="9.409319252979728"><ele>246.0</ele><time>2026-05-03T08:04:05.976Z</time></trkpt><trkpt lat="44.78619518346221" lon="9.409065343456913"><ele>246.0</ele><time>2026-05-03T08:04:06.976Z</time></trkpt><trkpt lat="44.78600232552316" lon="9.408810706310286"><ele>246.0</ele><time>2026-05-03T08:04:07.976Z</time></trkpt><trkpt lat="44.78580602119919" lon="9.408555109374657"><ele>246.0</ele><time>2026-05-03T08:04:08.976Z</time></trkpt><trkpt lat="44.78561106304183" lon="9.40830494360752"><ele>246.0</ele><time>2026-05-03T08:04:09.976Z</time></trkpt><trkpt lat="44.78541531543284" lon="9.40805497923857"><ele>247.0</ele><time>2026-05-03T08:04:10.976Z</time></trkpt><trkpt lat="44.785229503013774" lon="9.407803819323345"><ele>248.0</ele><time>2026-05-03T08:04:11.976Z</time></trkpt><trkpt lat="44.78504450542533" lon="9.407553036692072"><ele>248.0</ele><time>2026-05-03T08:04:12.976Z</time></trkpt><trkpt lat="44.784857183163574" lon="9.407304119216313"><ele>248.0</ele><time>2026-05-03T08:04:13.976Z</time></trkpt><trkpt lat="44.784671749056955" lon="9.407048332548229"><ele>247.0</ele><time>2026-05-03T08:04:14.976Z</time></trkpt><trkpt lat="44.78450492976169" lon="9.406780585554152"><ele>246.0</ele><time>2026-05-03T08:04:15.976Z</time></trkpt><trkpt lat="44.78432859290918" lon="9.406519903400952"><ele>245.0</ele><time>2026-05-03T08:04:16.976Z</time></trkpt><trkpt lat="44.78414738518376" lon="9.406256625501918"><ele>244.0</ele><time>2026-05-03T08:04:17.976Z</time></trkpt><trkpt lat="44.783962683484646" lon="9.405996017502549"><ele>244.0</ele><time>2026-05-03T08:04:18.976Z</time></trkpt><trkpt lat="44.783771782993355" lon="9.405737623050717"><ele>244.0</ele><time>2026-05-03T08:04:19.976Z</time></trkpt><trkpt lat="44.78358331229328" lon="9.405473243150801"><ele>242.5</ele><time>2026-05-03T08:04:20.976Z</time></trkpt><trkpt lat="44.783395764412745" lon="9.405193880781452"><ele>241.0</ele><time>2026-05-03T08:04:21.976Z</time></trkpt><trkpt lat="44.783209055932446" lon="9.40491358933557"><ele>241.0</ele><time>2026-05-03T08:04:22.976Z</time></trkpt><trkpt lat="44.78301675922005" lon="9.404637578133181"><ele>241.0</ele><time>2026-05-03T08:04:23.976Z</time></trkpt><trkpt lat="44.78283224979148" lon="9.404364295967111"><ele>242.0</ele><time>2026-05-03T08:04:24.976Z</time></trkpt><trkpt lat="44.782645859980256" lon="9.404101622800638"><ele>243.0</ele><time>2026-05-03T08:04:25.976Z</time></trkpt><trkpt lat="44.78246150075546" lon="9.403839544874746"><ele>243.5</ele><time>2026-05-03T08:04:26.976Z</time></trkpt><trkpt lat="44.78227514175029" lon="9.40358094370452"><ele>244.0</ele><time>2026-05-03T08:04:27.976Z</time></trkpt><trkpt lat="44.78208987348374" lon="9.403312430480831"><ele>244.0</ele><time>2026-05-03T08:04:28.976Z</time></trkpt><trkpt lat="44.781899934866324" lon="9.403042577248286"><ele>244.0</ele><time>2026-05-03T08:04:29.976Z</time></trkpt><trkpt lat="44.78171509019891" lon="9.402778363733288"><ele>245.5</ele><time>2026-05-03T08:04:30.976Z</time></trkpt><trkpt lat="44.781540349744084" lon="9.402519338184158"><ele>247.0</ele><time>2026-05-03T08:04:31.976Z</time></trkpt><trkpt lat="44.78136581053" lon="9.402270443122141"><ele>250.0</ele><time>2026-05-03T08:04:32.976Z</time></trkpt><trkpt lat="44.781192964602354" lon="9.402018475907335"><ele>253.0</ele><time>2026-05-03T08:04:33.976Z</time></trkpt><trkpt lat="44.78102102515502" lon="9.401760570599729"><ele>254.0</ele><time>2026-05-03T08:04:34.976Z</time></trkpt><trkpt lat="44.78084651247037" lon="9.401500859376558"><ele>255.0</ele><time>2026-05-03T08:04:35.976Z</time></trkpt><trkpt lat="44.78067848362327" lon="9.401237248663435"><ele>255.0</ele><time>2026-05-03T08:04:36.976Z</time></trkpt><trkpt lat="44.78052049311019" lon="9.400964907976748"><ele>255.0</ele><time>2026-05-03T08:04:37.976Z</time></trkpt><trkpt lat="44.78037525406252" lon="9.400683138574218"><ele>253.5</ele><time>2026-05-03T08:04:38.976Z</time></trkpt><trkpt lat="44.78024687317497" lon="9.400391025000207"><ele>252.0</ele><time>2026-05-03T08:04:39.976Z</time></trkpt><trkpt lat="44.780137707248116" lon="9.40009156465175"><ele>252.0</ele><time>2026-05-03T08:04:40.976Z</time></trkpt><trkpt lat="44.78004470101536" lon="9.399780521659986"><ele>252.0</ele><time>2026-05-03T08:04:41.976Z</time></trkpt><trkpt lat="44.77996467356561" lon="9.399466587440102"><ele>254.5</ele><time>2026-05-03T08:04:42.976Z</time></trkpt><trkpt lat="44.77990840439457" lon="9.399136229575559"><ele>257.0</ele><time>2026-05-03T08:04:43.976Z</time></trkpt><trkpt lat="44.77986397244778" lon="9.3988034185571"><ele>258.5</ele><time>2026-05-03T08:04:44.976Z</time></trkpt><trkpt lat="44.77983472116688" lon="9.398467319689791"><ele>260.0</ele><time>2026-05-03T08:04:45.976Z</time></trkpt><trkpt lat="44.77981925051077" lon="9.398121856817726"><ele>260.5</ele><time>2026-05-03T08:04:46.976Z</time></trkpt><trkpt lat="44.77980053243194" lon="9.397770730628737"><ele>261.0</ele><time>2026-05-03T08:04:47.976Z</time></trkpt><trkpt lat="44.77977521412895" lon="9.397420087595318"><ele>264.0</ele><time>2026-05-03T08:04:48.976Z</time></trkpt><trkpt lat="44.77974077056392" lon="9.397058321986254"><ele>267.0</ele><time>2026-05-03T08:04:49.976Z</time></trkpt><trkpt lat="44.779698286221226" lon="9.396696233809136"><ele>267.0</ele><time>2026-05-03T08:04:50.976Z</time></trkpt><trkpt lat="44.779654978357" lon="9.396340365753849"><ele>267.0</ele><time>2026-05-03T08:04:51.976Z</time></trkpt><trkpt lat="44.77959851769115" lon="9.395990902606458"><ele>271.0</ele><time>2026-05-03T08:04:52.976Z</time></trkpt><trkpt lat="44.77953497034754" lon="9.395656282817622"><ele>275.0</ele><time>2026-05-03T08:04:53.976Z</time></trkpt><trkpt lat="44.77946167642308" lon="9.395340738895896"><ele>277.5</ele><time>2026-05-03T08:04:54.975Z</time></trkpt><trkpt lat="44.77938544091632" lon="9.395031810015313"><ele>280.0</ele><time>2026-05-03T08:04:55.975Z</time></trkpt><trkpt lat="44.77930263045449" lon="9.39473374568987"><ele>271.0</ele><time>2026-05-03T08:04:56.975Z</time></trkpt><trkpt lat="44.77921478930484" lon="9.394447940522115"><ele>262.0</ele><time>2026-05-03T08:04:57.975Z</time></trkpt><trkpt lat="44.77911922049039" lon="9.39417451244491"><ele>253.0</ele><time>2026-05-03T08:04:58.975Z</time></trkpt><trkpt lat="44.77901348376825" lon="9.393901190175766"><ele>258.5</ele><time>2026-05-03T08:04:59.975Z</time></trkpt><trkpt lat="44.778883669189604" lon="9.393616689092337"><ele>264.0</ele><time>2026-05-03T08:05:00.975Z</time></trkpt><trkpt lat="44.778724548795324" lon="9.393316315841002"><ele>259.5</ele><time>2026-05-03T08:05:01.975Z</time></trkpt><trkpt lat="44.77856929971384" lon="9.392974985063285"><ele>255.0</ele><time>2026-05-03T08:05:02.975Z</time></trkpt><trkpt lat="44.77841551195452" lon="9.392649835069065"><ele>255.0</ele><time>2026-05-03T08:05:03.975Z</time></trkpt><trkpt lat="44.778270221765894" lon="9.392325961485815"><ele>255.0</ele><time>2026-05-03T08:05:04.975Z</time></trkpt><trkpt lat="44.778339310876945" lon="9.392424991067875"><ele>255.0</ele><time>2026-05-03T08:05:05.975Z</time></trkpt><trkpt lat="44.77820095188789" lon="9.392206355036764"><ele>263.3333333333333</ele><time>2026-05-03T08:05:06.975Z</time></trkpt><trkpt lat="44.778076730652316" lon="9.391966386601261"><ele>271.66666666666663</ele><time>2026-05-03T08:05:07.975Z</time></trkpt><trkpt lat="44.77791047443455" lon="9.391759907833084"><ele>280.0</ele><time>2026-05-03T08:05:08.975Z</time></trkpt><trkpt lat="44.77773561382635" lon="9.391571628384247"><ele>278.66666666666663</ele><time>2026-05-03T08:05:09.975Z</time></trkpt><trkpt lat="44.777556234444184" lon="9.39138764582774"><ele>277.3333333333333</ele><time>2026-05-03T08:05:10.975Z</time></trkpt><trkpt lat="44.777370434146874" lon="9.391209285666685"><ele>276.0</ele><time>2026-05-03T08:05:11.975Z</time></trkpt><trkpt lat="44.77718092308967" lon="9.39103444985944"><ele>276.0</ele><time>2026-05-03T08:05:12.975Z</time></trkpt><trkpt lat="44.77699326815204" lon="9.390864138103892"><ele>276.0</ele><time>2026-05-03T08:05:13.975Z</time></trkpt><trkpt lat="44.77680272172835" lon="9.390700951080072"><ele>276.0</ele><time>2026-05-03T08:05:14.975Z</time></trkpt><trkpt lat="44.77643176275511" lon="9.390396850838487"><ele>274.0</ele><time>2026-05-03T08:05:16.975Z</time></trkpt><trkpt lat="44.77626163798935" lon="9.390241827988529"><ele>272.0</ele><time>2026-05-03T08:05:17.975Z</time></trkpt><trkpt lat="44.77609632488128" lon="9.390091365734309"><ele>270.0</ele><time>2026-05-03T08:05:18.975Z</time></trkpt><trkpt lat="44.77594240240242" lon="9.389952117528994"><ele>269.6666666666667</ele><time>2026-05-03T08:05:19.975Z</time></trkpt><trkpt lat="44.77578151920087" lon="9.389819721986527"><ele>269.33333333333337</ele><time>2026-05-03T08:05:20.975Z</time></trkpt><trkpt lat="44.775610306753535" lon="9.389697904499252"><ele>269.0</ele><time>2026-05-03T08:05:21.975Z</time></trkpt><trkpt lat="44.77543104001634" lon="9.389593706322596"><ele>269.0</ele><time>2026-05-03T08:05:22.975Z</time></trkpt><trkpt lat="44.77525277802042" lon="9.389511571564382"><ele>269.0</ele><time>2026-05-03T08:05:23.975Z</time></trkpt><trkpt lat="44.77506315967319" lon="9.38944353780115"><ele>269.0</ele><time>2026-05-03T08:05:24.975Z</time></trkpt><trkpt lat="44.77486249852294" lon="9.389398739814718"><ele>264.33333333333337</ele><time>2026-05-03T08:05:25.975Z</time></trkpt><trkpt lat="44.77464655252681" lon="9.389368881960902"><ele>259.6666666666667</ele><time>2026-05-03T08:05:26.975Z</time></trkpt><trkpt lat="44.7744245931654" lon="9.389366186979672"><ele>255.0</ele><time>2026-05-03T08:05:27.975Z</time></trkpt><trkpt lat="44.774199662448844" lon="9.389406953130468"><ele>255.0</ele><time>2026-05-03T08:05:28.975Z</time></trkpt><trkpt lat="44.773992019696436" lon="9.389427647427167"><ele>255.0</ele><time>2026-05-03T08:05:29.975Z</time></trkpt><trkpt lat="44.77379527639626" lon="9.389448234045062"><ele>255.0</ele><time>2026-05-03T08:05:30.975Z</time></trkpt><trkpt lat="44.773601801365025" lon="9.389465340197393"><ele>256.6666666666667</ele><time>2026-05-03T08:05:31.975Z</time></trkpt><trkpt lat="44.773406342935" lon="9.38947520318565"><ele>258.33333333333337</ele><time>2026-05-03T08:05:32.976Z</time></trkpt><trkpt lat="44.77320668287349" lon="9.389467521867592"><ele>260.0</ele><time>2026-05-03T08:05:33.976Z</time></trkpt><trkpt lat="44.7730049441351" lon="9.389445997652132"><ele>260.0</ele><time>2026-05-03T08:05:34.976Z</time></trkpt><trkpt lat="44.772794711069196" lon="9.389404239105394"><ele>260.0</ele><time>2026-05-03T08:05:35.977Z</time></trkpt><trkpt lat="44.77257882052083" lon="9.389342179267123"><ele>260.0</ele><time>2026-05-03T08:05:36.976Z</time></trkpt><trkpt lat="44.77236446373104" lon="9.389257614577598"><ele>259.6666666666667</ele><time>2026-05-03T08:05:37.976Z</time></trkpt><trkpt lat="44.77215274301763" lon="9.389151385985441"><ele>259.3333333333333</ele><time>2026-05-03T08:05:38.976Z</time></trkpt><trkpt lat="44.77193994826643" lon="9.389051510054065"><ele>259.0</ele><time>2026-05-03T08:05:39.976Z</time></trkpt><trkpt lat="44.77173500758986" lon="9.38895888777448"><ele>257.66666666666663</ele><time>2026-05-03T08:05:40.976Z</time></trkpt><trkpt lat="44.77152167229214" lon="9.388876427105872"><ele>256.3333333333333</ele><time>2026-05-03T08:05:41.976Z</time></trkpt><trkpt lat="44.7713161456926" lon="9.388789833216848"><ele>255.0</ele><time>2026-05-03T08:05:42.977Z</time></trkpt><trkpt lat="44.771108769069976" lon="9.38870290394989"><ele>257.3333333333333</ele><time>2026-05-03T08:05:43.976Z</time></trkpt><trkpt lat="44.770906581364656" lon="9.388620014418283"><ele>259.66666666666663</ele><time>2026-05-03T08:05:44.976Z</time></trkpt><trkpt lat="44.77070873450681" lon="9.388547428677049"><ele>262.0</ele><time>2026-05-03T08:05:45.976Z</time></trkpt><trkpt lat="44.770505019067414" lon="9.388488904253517"><ele>262.0</ele><time>2026-05-03T08:05:46.976Z</time></trkpt><trkpt lat="44.770290857699116" lon="9.388435579278323"><ele>262.0</ele><time>2026-05-03T08:05:47.976Z</time></trkpt><trkpt lat="44.770065744043876" lon="9.388397037168827"><ele>262.0</ele><time>2026-05-03T08:05:48.976Z</time></trkpt><trkpt lat="44.76983823854767" lon="9.38836912248544"><ele>260.5</ele><time>2026-05-03T08:05:49.976Z</time></trkpt><trkpt lat="44.76960038597779" lon="9.388372064226797"><ele>259.0</ele><time>2026-05-03T08:05:50.976Z</time></trkpt><trkpt lat="44.76937343011948" lon="9.388390282242506"><ele>260.66666666666663</ele><time>2026-05-03T08:05:51.976Z</time></trkpt><trkpt lat="44.76917017049214" lon="9.388419465751308"><ele>262.3333333333333</ele><time>2026-05-03T08:05:52.976Z</time></trkpt><trkpt lat="44.76898074655677" lon="9.388464882566339"><ele>264.0</ele><time>2026-05-03T08:05:53.976Z</time></trkpt><trkpt lat="44.76880514324297" lon="9.38850935713736"><ele>264.0</ele><time>2026-05-03T08:05:54.976Z</time></trkpt><trkpt lat="44.768651935548775" lon="9.388555251013756"><ele>264.0</ele><time>2026-05-03T08:05:55.976Z</time></trkpt><trkpt lat="44.76851904941233" lon="9.388591585882873"><ele>264.0</ele><time>2026-05-03T08:05:56.976Z</time></trkpt><trkpt lat="44.76839059736756" lon="9.388630073062862"><ele>264.0</ele><time>2026-05-03T08:05:57.976Z</time></trkpt><trkpt lat="44.7682784909833" lon="9.388667508499623"><ele>263.6666666666667</ele><time>2026-05-03T08:05:58.976Z</time></trkpt><trkpt lat="44.76817830865175" lon="9.388693458949756"><ele>263.3333333333333</ele><time>2026-05-03T08:05:59.976Z</time></trkpt><trkpt lat="44.768086645701814" lon="9.388718634445294"><ele>263.0</ele><time>2026-05-03T08:06:00.976Z</time></trkpt><trkpt lat="44.76800683245286" lon="9.388736483103184"><ele>262.66666666666663</ele><time>2026-05-03T08:06:01.976Z</time></trkpt><trkpt lat="44.767931913310825" lon="9.388759080867484"><ele>262.3333333333333</ele><time>2026-05-03T08:06:02.976Z</time></trkpt><trkpt lat="44.76786723637521" lon="9.388778582685047"><ele>262.0</ele><time>2026-05-03T08:06:03.976Z</time></trkpt><trkpt lat="44.767768498750904" lon="9.38880926708946"><ele>262.0</ele><time>2026-05-03T08:06:05.976Z</time></trkpt><trkpt lat="44.76770314704393" lon="9.38882506916378"><ele>262.0</ele><time>2026-05-03T08:06:08.976Z</time></trkpt><trkpt lat="44.767589790235576" lon="9.388824383292194"><ele>262.0</ele><time>2026-05-03T08:08:22.974Z</time></trkpt><trkpt lat="44.76752837220344" lon="9.388848898849762"><ele>262.0</ele><time>2026-05-03T08:08:23.974Z</time></trkpt><trkpt lat="44.76746367210523" lon="9.388867331155685"><ele>262.0</ele><time>2026-05-03T08:08:24.974Z</time></trkpt><trkpt lat="44.76739537062365" lon="9.388884596710708"><ele>262.0</ele><time>2026-05-03T08:08:25.974Z</time></trkpt><trkpt lat="44.76732208638403" lon="9.388904414819464"><ele>261.4</ele><time>2026-05-03T08:08:26.974Z</time></trkpt><trkpt lat="44.76724671408651" lon="9.388927765871097"><ele>260.79999999999995</ele><time>2026-05-03T08:08:27.974Z</time></trkpt><trkpt lat="44.76717294030352" lon="9.388962096846493"><ele>260.2</ele><time>2026-05-03T08:08:28.974Z</time></trkpt><trkpt lat="44.76708112764229" lon="9.388993757672608"><ele>259.59999999999997</ele><time>2026-05-03T08:08:29.974Z</time></trkpt><trkpt lat="44.76699030796252" lon="9.389024932659549"><ele>259.0</ele><time>2026-05-03T08:08:30.974Z</time></trkpt><trkpt lat="44.76688754246693" lon="9.38907016968567"><ele>259.0</ele><time>2026-05-03T08:08:31.974Z</time></trkpt><trkpt lat="44.76676994979509" lon="9.389114447020056"><ele>259.0</ele><time>2026-05-03T08:08:32.974Z</time></trkpt><trkpt lat="44.7666550798347" lon="9.389141663815346"><ele>259.0</ele><time>2026-05-03T08:08:33.974Z</time></trkpt><trkpt lat="44.76653728110708" lon="9.389162717702005"><ele>259.0</ele><time>2026-05-03T08:08:34.974Z</time></trkpt><trkpt lat="44.76641165158546" lon="9.38917423187508"><ele>259.0</ele><time>2026-05-03T08:08:35.974Z</time></trkpt><trkpt lat="44.76627699236324" lon="9.389168657965566"><ele>259.0</ele><time>2026-05-03T08:08:36.974Z</time></trkpt><trkpt lat="44.766140560918195" lon="9.389150822859442"><ele>259.0</ele><time>2026-05-03T08:08:37.974Z</time></trkpt><trkpt lat="44.76601523163953" lon="9.389093674623608"><ele>259.0</ele><time>2026-05-03T08:08:38.974Z</time></trkpt><trkpt lat="44.76589689007711" lon="9.389033590789372"><ele>258.5</ele><time>2026-05-03T08:08:39.974Z</time></trkpt><trkpt lat="44.765789974866806" lon="9.388960538901134"><ele>258.0</ele><time>2026-05-03T08:08:40.974Z</time></trkpt><trkpt lat="44.765687253761186" lon="9.388876947319199"><ele>257.5</ele><time>2026-05-03T08:08:41.974Z</time></trkpt><trkpt lat="44.76558865530127" lon="9.388782510845978"><ele>257.0</ele><time>2026-05-03T08:08:42.974Z</time></trkpt><trkpt lat="44.765498411181994" lon="9.388668508497247"><ele>256.75</ele><time>2026-05-03T08:08:43.974Z</time></trkpt><trkpt lat="44.76541782979563" lon="9.388544653473845"><ele>256.5</ele><time>2026-05-03T08:08:44.974Z</time></trkpt><trkpt lat="44.76533833661467" lon="9.388404234285353"><ele>256.25</ele><time>2026-05-03T08:08:45.974Z</time></trkpt><trkpt lat="44.765254815843875" lon="9.388245171062042"><ele>256.0</ele><time>2026-05-03T08:08:46.974Z</time></trkpt><trkpt lat="44.76517006417251" lon="9.3880753919011"><ele>256.25</ele><time>2026-05-03T08:08:47.974Z</time></trkpt><trkpt lat="44.76507916493487" lon="9.387911952623751"><ele>256.5</ele><time>2026-05-03T08:08:48.974Z</time></trkpt><trkpt lat="44.764992097544926" lon="9.387739101176377"><ele>256.75</ele><time>2026-05-03T08:08:49.974Z</time></trkpt><trkpt lat="44.76491981220886" lon="9.387556356073103"><ele>257.0</ele><time>2026-05-03T08:08:50.974Z</time></trkpt><trkpt lat="44.76483871144669" lon="9.387391432160497"><ele>257.0</ele><time>2026-05-03T08:08:51.974Z</time></trkpt><trkpt lat="44.76475913190598" lon="9.387229601755578"><ele>257.0</ele><time>2026-05-03T08:08:52.974Z</time></trkpt><trkpt lat="44.76467683364334" lon="9.38706288962951"><ele>257.0</ele><time>2026-05-03T08:08:53.974Z</time></trkpt><trkpt lat="44.76459432776456" lon="9.386894390126214"><ele>257.0</ele><time>2026-05-03T08:08:54.974Z</time></trkpt><trkpt lat="44.76450941416278" lon="9.386720973389886"><ele>257.0</ele><time>2026-05-03T08:08:55.974Z</time></trkpt><trkpt lat="44.76442411095621" lon="9.386545973233044"><ele>257.0</ele><time>2026-05-03T08:08:56.974Z</time></trkpt><trkpt lat="44.76433053552562" lon="9.38637080354449"><ele>257.0</ele><time>2026-05-03T08:08:57.974Z</time></trkpt><trkpt lat="44.76424739915131" lon="9.38617984237873"><ele>260.0</ele><time>2026-05-03T08:08:58.974Z</time></trkpt><trkpt lat="44.76415785370303" lon="9.38598257487971"><ele>263.0</ele><time>2026-05-03T08:08:59.974Z</time></trkpt><trkpt lat="44.76406373386929" lon="9.385784030678305"><ele>266.0</ele><time>2026-05-03T08:09:00.974Z</time></trkpt><trkpt lat="44.76396342501333" lon="9.385580697794506"><ele>271.0</ele><time>2026-05-03T08:09:01.974Z</time></trkpt><trkpt lat="44.76386176200432" lon="9.385370677520896"><ele>276.0</ele><time>2026-05-03T08:09:02.974Z</time></trkpt><trkpt lat="44.763758899345234" lon="9.385148322578777"><ele>281.0</ele><time>2026-05-03T08:09:03.974Z</time></trkpt><trkpt lat="44.76365436776763" lon="9.384925569702974"><ele>281.0</ele><time>2026-05-03T08:09:04.974Z</time></trkpt><trkpt lat="44.763552086168424" lon="9.384706287229733"><ele>281.0</ele><time>2026-05-03T08:09:05.974Z</time></trkpt><trkpt lat="44.76345938303194" lon="9.384485726009041"><ele>281.0</ele><time>2026-05-03T08:09:06.974Z</time></trkpt><trkpt lat="44.763363987688464" lon="9.384271707357485"><ele>279.33333333333337</ele><time>2026-05-03T08:09:07.974Z</time></trkpt><trkpt lat="44.76325701693688" lon="9.384069256324246"><ele>277.6666666666667</ele><time>2026-05-03T08:09:08.974Z</time></trkpt><trkpt lat="44.76312656406209" lon="9.3838722246932"><ele>276.0</ele><time>2026-05-03T08:09:09.974Z</time></trkpt><trkpt lat="44.7629911609011" lon="9.383672916311053"><ele>276.0</ele><time>2026-05-03T08:09:10.974Z</time></trkpt><trkpt lat="44.76283969627182" lon="9.383486206188877"><ele>276.0</ele><time>2026-05-03T08:09:11.974Z</time></trkpt><trkpt lat="44.762663605674604" lon="9.383325945023039"><ele>276.0</ele><time>2026-05-03T08:09:12.974Z</time></trkpt><trkpt lat="44.762456962950175" lon="9.383175405653759"><ele>271.0</ele><time>2026-05-03T08:09:13.974Z</time></trkpt><trkpt lat="44.7622301181766" lon="9.383035770270995"><ele>266.0</ele><time>2026-05-03T08:09:14.973Z</time></trkpt><trkpt lat="44.76198781618786" lon="9.382863525391732"><ele>264.5</ele><time>2026-05-03T08:09:15.973Z</time></trkpt><trkpt lat="44.76173710442896" lon="9.382717853797942"><ele>263.0</ele><time>2026-05-03T08:09:16.973Z</time></trkpt><trkpt lat="44.761499845245815" lon="9.3825481544904"><ele>263.0</ele><time>2026-05-03T08:09:17.973Z</time></trkpt><trkpt lat="44.76128432036538" lon="9.382377641535477"><ele>263.0</ele><time>2026-05-03T08:09:18.973Z</time></trkpt><trkpt lat="44.7610809908423" lon="9.382232034461051"><ele>264.6666666666667</ele><time>2026-05-03T08:09:19.973Z</time></trkpt><trkpt lat="44.76088490150376" lon="9.382089058623428"><ele>266.3333333333333</ele><time>2026-05-03T08:09:20.973Z</time></trkpt><trkpt lat="44.76070169766946" lon="9.381957750570205"><ele>268.0</ele><time>2026-05-03T08:09:21.973Z</time></trkpt><trkpt lat="44.76052290181908" lon="9.381841269974352"><ele>268.0</ele><time>2026-05-03T08:09:22.973Z</time></trkpt><trkpt lat="44.76033843201335" lon="9.381739189169856"><ele>268.0</ele><time>2026-05-03T08:09:23.973Z</time></trkpt><trkpt lat="44.7601341339001" lon="9.381658943234278"><ele>268.0</ele><time>2026-05-03T08:09:24.973Z</time></trkpt><trkpt lat="44.75995098856956" lon="9.38159150127692"><ele>267.0</ele><time>2026-05-03T08:09:25.973Z</time></trkpt><trkpt lat="44.759712955214376" lon="9.381556219698851"><ele>266.0</ele><time>2026-05-03T08:09:26.973Z</time></trkpt><trkpt lat="44.75949300383762" lon="9.381577627329861"><ele>266.0</ele><time>2026-05-03T08:09:27.973Z</time></trkpt><trkpt lat="44.75927865716718" lon="9.381618639480001"><ele>266.0</ele><time>2026-05-03T08:09:28.973Z</time></trkpt><trkpt lat="44.75908221735036" lon="9.38165501632056"><ele>266.0</ele><time>2026-05-03T08:09:29.973Z</time></trkpt><trkpt lat="44.75888834378256" lon="9.381700832884606"><ele>266.0</ele><time>2026-05-03T08:09:30.973Z</time></trkpt><trkpt lat="44.758684546594075" lon="9.38173961097625"><ele>266.0</ele><time>2026-05-03T08:09:31.973Z</time></trkpt><trkpt lat="44.75847344197337" lon="9.38177471726503"><ele>266.0</ele><time>2026-05-03T08:09:32.973Z</time></trkpt><trkpt lat="44.758265667719506" lon="9.381810865327802"><ele>266.33333333333337</ele><time>2026-05-03T08:09:33.973Z</time></trkpt><trkpt lat="44.75805753275063" lon="9.38185242122209"><ele>266.6666666666667</ele><time>2026-05-03T08:09:34.973Z</time></trkpt><trkpt lat="44.75785021384199" lon="9.381885677663329"><ele>267.0</ele><time>2026-05-03T08:09:35.973Z</time></trkpt><trkpt lat="44.75764505992852" lon="9.381925008536435"><ele>267.6666666666667</ele><time>2026-05-03T08:09:36.973Z</time></trkpt><trkpt lat="44.7574450276349" lon="9.381964193205608"><ele>268.33333333333337</ele><time>2026-05-03T08:09:37.973Z</time></trkpt><trkpt lat="44.75725482211328" lon="9.382002754466907"><ele>269.0</ele><time>2026-05-03T08:09:38.973Z</time></trkpt><trkpt lat="44.757050220849834" lon="9.382035241911652"><ele>269.6666666666667</ele><time>2026-05-03T08:09:39.973Z</time></trkpt><trkpt lat="44.75685429528279" lon="9.382061737457004"><ele>270.3333333333333</ele><time>2026-05-03T08:09:40.973Z</time></trkpt><trkpt lat="44.75666522488884" lon="9.382066344010429"><ele>271.0</ele><time>2026-05-03T08:09:41.973Z</time></trkpt><trkpt lat="44.756473457454156" lon="9.382041371548706"><ele>271.0</ele><time>2026-05-03T08:09:42.973Z</time></trkpt><trkpt lat="44.75629041886726" lon="9.381950273086721"><ele>271.0</ele><time>2026-05-03T08:09:43.973Z</time></trkpt><trkpt lat="44.75609672249497" lon="9.381848339581842"><ele>271.0</ele><time>2026-05-03T08:09:44.975Z</time></trkpt><trkpt lat="44.755914388673" lon="9.381702281448394"><ele>270.66666666666663</ele><time>2026-05-03T08:09:45.974Z</time></trkpt><trkpt lat="44.75573338828325" lon="9.381541781822051"><ele>270.3333333333333</ele><time>2026-05-03T08:09:46.974Z</time></trkpt><trkpt lat="44.75554511198597" lon="9.381370837212692"><ele>270.0</ele><time>2026-05-03T08:09:47.975Z</time></trkpt><trkpt lat="44.75533846620932" lon="9.381179188469286"><ele>270.5</ele><time>2026-05-03T08:09:48.975Z</time></trkpt><trkpt lat="44.75514739963169" lon="9.38100875570546"><ele>271.0</ele><time>2026-05-03T08:09:49.975Z</time></trkpt><trkpt lat="44.75495979743541" lon="9.38083588632695"><ele>271.0</ele><time>2026-05-03T08:09:50.975Z</time></trkpt><trkpt lat="44.75477403928122" lon="9.38066640719657"><ele>271.0</ele><time>2026-05-03T08:09:51.975Z</time></trkpt><trkpt lat="44.75459302173836" lon="9.380506099217106"><ele>271.0</ele><time>2026-05-03T08:09:52.975Z</time></trkpt><trkpt lat="44.75442020191166" lon="9.380354546672182"><ele>271.0</ele><time>2026-05-03T08:09:53.975Z</time></trkpt><trkpt lat="44.75425762520363" lon="9.380188478965735"><ele>271.0</ele><time>2026-05-03T08:09:54.974Z</time></trkpt><trkpt lat="44.754080561973744" lon="9.380048435237299"><ele>271.0</ele><time>2026-05-03T08:09:55.974Z</time></trkpt><trkpt lat="44.75391024875785" lon="9.379912973122453"><ele>271.0</ele><time>2026-05-03T08:09:56.974Z</time></trkpt><trkpt lat="44.75371137272183" lon="9.379866570538033"><ele>271.0</ele><time>2026-05-03T08:09:57.974Z</time></trkpt><trkpt lat="44.75349781960538" lon="9.379842136525383"><ele>271.0</ele><time>2026-05-03T08:09:58.974Z</time></trkpt><trkpt lat="44.753270280613066" lon="9.379827920600405"><ele>267.5</ele><time>2026-05-03T08:09:59.974Z</time></trkpt><trkpt lat="44.75302519891247" lon="9.379815955919396"><ele>264.0</ele><time>2026-05-03T08:10:00.974Z</time></trkpt><trkpt lat="44.752774342506996" lon="9.379798178662256"><ele>263.0</ele><time>2026-05-03T08:10:01.974Z</time></trkpt><trkpt lat="44.752527576999725" lon="9.379778146183485"><ele>262.0</ele><time>2026-05-03T08:10:02.974Z</time></trkpt><trkpt lat="44.7522881999341" lon="9.37975911611732"><ele>262.0</ele><time>2026-05-03T08:10:03.974Z</time></trkpt><trkpt lat="44.752048173620196" lon="9.379741956583565"><ele>262.0</ele><time>2026-05-03T08:10:04.974Z</time></trkpt><trkpt lat="44.75180376018031" lon="9.379720147789453"><ele>263.5</ele><time>2026-05-03T08:10:05.974Z</time></trkpt><trkpt lat="44.75156028832736" lon="9.379704625740713"><ele>265.0</ele><time>2026-05-03T08:10:06.974Z</time></trkpt><trkpt lat="44.751323059200665" lon="9.37968373494535"><ele>264.66666666666663</ele><time>2026-05-03T08:10:07.974Z</time></trkpt><trkpt lat="44.75109416078283" lon="9.379663229823807"><ele>264.3333333333333</ele><time>2026-05-03T08:10:08.974Z</time></trkpt><trkpt lat="44.7508751135569" lon="9.379645770011553"><ele>264.0</ele><time>2026-05-03T08:10:09.974Z</time></trkpt><trkpt lat="44.7506699467261" lon="9.379627004389198"><ele>265.0</ele><time>2026-05-03T08:10:10.974Z</time></trkpt><trkpt lat="44.750473776257806" lon="9.379616269622801"><ele>266.0</ele><time>2026-05-03T08:10:11.974Z</time></trkpt><trkpt lat="44.75028100879468" lon="9.379624773080817"><ele>267.0</ele><time>2026-05-03T08:10:12.974Z</time></trkpt><trkpt lat="44.75008165674119" lon="9.379653042099614"><ele>268.0</ele><time>2026-05-03T08:10:13.974Z</time></trkpt><trkpt lat="44.74987903480864" lon="9.37972646094397"><ele>269.0</ele><time>2026-05-03T08:10:14.974Z</time></trkpt><trkpt lat="44.74967943611958" lon="9.37984177360813"><ele>270.0</ele><time>2026-05-03T08:10:15.974Z</time></trkpt><trkpt lat="44.74949069766183" lon="9.379995858789968"><ele>272.0</ele><time>2026-05-03T08:10:16.974Z</time></trkpt><trkpt lat="44.7493206671707" lon="9.380182527400791"><ele>274.0</ele><time>2026-05-03T08:10:17.974Z</time></trkpt><trkpt lat="44.749168158940094" lon="9.38038790160126"><ele>276.0</ele><time>2026-05-03T08:10:18.974Z</time></trkpt><trkpt lat="44.74903551866745" lon="9.38062204697779"><ele>279.0</ele><time>2026-05-03T08:10:19.974Z</time></trkpt><trkpt lat="44.74891844003997" lon="9.380879030097395"><ele>282.0</ele><time>2026-05-03T08:10:20.974Z</time></trkpt><trkpt lat="44.74882149266998" lon="9.381150446009514"><ele>285.0</ele><time>2026-05-03T08:10:21.974Z</time></trkpt><trkpt lat="44.74875536747934" lon="9.381425369030609"><ele>289.6666666666667</ele><time>2026-05-03T08:10:22.974Z</time></trkpt><trkpt lat="44.74871702308811" lon="9.38173068381943"><ele>294.33333333333337</ele><time>2026-05-03T08:10:23.974Z</time></trkpt><trkpt lat="44.7487002192926" lon="9.38201921664785"><ele>299.0</ele><time>2026-05-03T08:10:24.974Z</time></trkpt><trkpt lat="44.748714118992424" lon="9.382310256316886"><ele>301.33333333333337</ele><time>2026-05-03T08:10:25.974Z</time></trkpt><trkpt lat="44.748752304750944" lon="9.382599750187275"><ele>303.6666666666667</ele><time>2026-05-03T08:10:26.974Z</time></trkpt><trkpt lat="44.74880323711266" lon="9.38288721785901"><ele>306.0</ele><time>2026-05-03T08:10:27.974Z</time></trkpt><trkpt lat="44.74885924684453" lon="9.383180796009087"><ele>306.3333333333333</ele><time>2026-05-03T08:10:28.974Z</time></trkpt><trkpt lat="44.748907060471254" lon="9.383468875960176"><ele>306.66666666666663</ele><time>2026-05-03T08:10:29.974Z</time></trkpt><trkpt lat="44.748939184838676" lon="9.383756110040254"><ele>307.0</ele><time>2026-05-03T08:10:30.974Z</time></trkpt><trkpt lat="44.748959940271696" lon="9.384040769701976"><ele>307.66666666666663</ele><time>2026-05-03T08:10:31.974Z</time></trkpt><trkpt lat="44.74896328046474" lon="9.384326932364687"><ele>308.3333333333333</ele><time>2026-05-03T08:10:32.974Z</time></trkpt><trkpt lat="44.74895528861072" lon="9.384606221620045"><ele>309.0</ele><time>2026-05-03T08:10:33.974Z</time></trkpt><trkpt lat="44.74895273996804" lon="9.384877858008817"><ele>309.0</ele><time>2026-05-03T08:10:34.974Z</time></trkpt><trkpt lat="44.74896009141118" lon="9.385151913829379"><ele>309.0</ele><time>2026-05-03T08:10:35.974Z</time></trkpt><trkpt lat="44.74896741965288" lon="9.385422630282505"><ele>309.0</ele><time>2026-05-03T08:10:36.974Z</time></trkpt><trkpt lat="44.74896848476312" lon="9.385686972670019"><ele>311.6666666666667</ele><time>2026-05-03T08:10:37.974Z</time></trkpt><trkpt lat="44.74896613635211" lon="9.385955408372562"><ele>314.33333333333337</ele><time>2026-05-03T08:10:38.974Z</time></trkpt><trkpt lat="44.74894577879755" lon="9.386231586054079"><ele>317.0</ele><time>2026-05-03T08:10:39.974Z</time></trkpt><trkpt lat="44.74892400703428" lon="9.386501477936726"><ele>321.6666666666667</ele><time>2026-05-03T08:10:40.974Z</time></trkpt><trkpt lat="44.74888524306784" lon="9.386787160893423"><ele>326.3333333333333</ele><time>2026-05-03T08:10:41.974Z</time></trkpt><trkpt lat="44.74883035327618" lon="9.387070409118243"><ele>331.0</ele><time>2026-05-03T08:10:42.974Z</time></trkpt><trkpt lat="44.74875479321229" lon="9.387344210241249"><ele>336.3333333333333</ele><time>2026-05-03T08:10:43.974Z</time></trkpt><trkpt lat="44.74867091916218" lon="9.387626085446426"><ele>341.6666666666667</ele><time>2026-05-03T08:10:44.973Z</time></trkpt><trkpt lat="44.74857138974014" lon="9.387910462660127"><ele>347.0</ele><time>2026-05-03T08:10:45.973Z</time></trkpt><trkpt lat="44.74846262740534" lon="9.38817507384781"><ele>343.6666666666667</ele><time>2026-05-03T08:10:46.973Z</time></trkpt><trkpt lat="44.74833833245807" lon="9.388429457087645"><ele>340.3333333333333</ele><time>2026-05-03T08:10:47.973Z</time></trkpt><trkpt lat="44.74823491051106" lon="9.388678760820168"><ele>337.0</ele><time>2026-05-03T08:10:48.973Z</time></trkpt><trkpt lat="44.748132637737356" lon="9.388913516934846"><ele>337.0</ele><time>2026-05-03T08:10:49.973Z</time></trkpt><trkpt lat="44.74802714424681" lon="9.38913877443267"><ele>337.0</ele><time>2026-05-03T08:10:50.973Z</time></trkpt><trkpt lat="44.74790796620697" lon="9.389348118832869"><ele>337.0</ele><time>2026-05-03T08:10:51.973Z</time></trkpt><trkpt lat="44.747764443380746" lon="9.389536178050319"><ele>332.66666666666663</ele><time>2026-05-03T08:10:52.973Z</time></trkpt><trkpt lat="44.74760556659093" lon="9.3897005296515"><ele>328.3333333333333</ele><time>2026-05-03T08:10:53.973Z</time></trkpt><trkpt lat="44.7474360691722" lon="9.389846224917932"><ele>324.0</ele><time>2026-05-03T08:10:54.973Z</time></trkpt><trkpt lat="44.747253276717956" lon="9.389967905902903"><ele>324.0</ele><time>2026-05-03T08:10:55.973Z</time></trkpt><trkpt lat="44.74705247081888" lon="9.390062899600494"><ele>324.0</ele><time>2026-05-03T08:10:56.973Z</time></trkpt><trkpt lat="44.74684743577604" lon="9.390119453897155"><ele>324.0</ele><time>2026-05-03T08:10:57.973Z</time></trkpt><trkpt lat="44.74663373009466" lon="9.39013805213603"><ele>323.3333333333333</ele><time>2026-05-03T08:10:58.973Z</time></trkpt><trkpt lat="44.746409306447454" lon="9.390129456095886"><ele>322.66666666666663</ele><time>2026-05-03T08:10:59.973Z</time></trkpt><trkpt lat="44.74618933179428" lon="9.390081390315057"><ele>322.0</ele><time>2026-05-03T08:11:00.973Z</time></trkpt><trkpt lat="44.745981745037724" lon="9.389973232558123"><ele>322.0</ele><time>2026-05-03T08:11:01.973Z</time></trkpt><trkpt lat="44.745784213557556" lon="9.389897936211453"><ele>322.0</ele><time>2026-05-03T08:11:02.973Z</time></trkpt><trkpt lat="44.74559136252124" lon="9.389793757029844"><ele>322.0</ele><time>2026-05-03T08:11:03.973Z</time></trkpt><trkpt lat="44.74541019150527" lon="9.389664837631225"><ele>319.3333333333333</ele><time>2026-05-03T08:11:04.973Z</time></trkpt><trkpt lat="44.74523499168094" lon="9.38951388993524"><ele>316.6666666666667</ele><time>2026-05-03T08:11:05.973Z</time></trkpt><trkpt lat="44.7450524537511" lon="9.389366062878148"><ele>314.0</ele><time>2026-05-03T08:11:06.973Z</time></trkpt><trkpt lat="44.744870008736065" lon="9.3892313083716"><ele>314.0</ele><time>2026-05-03T08:11:07.973Z</time></trkpt><trkpt lat="44.744682097075305" lon="9.389110257700946"><ele>314.0</ele><time>2026-05-03T08:11:08.973Z</time></trkpt><trkpt lat="44.74448224931589" lon="9.389013418881657"><ele>314.0</ele><time>2026-05-03T08:11:09.973Z</time></trkpt><trkpt lat="44.74427944932217" lon="9.388949296474136"><ele>319.33333333333337</ele><time>2026-05-03T08:11:10.973Z</time></trkpt><trkpt lat="44.7440688257333" lon="9.388935127274806"><ele>324.6666666666667</ele><time>2026-05-03T08:11:11.973Z</time></trkpt><trkpt lat="44.74386266447055" lon="9.388941129127987"><ele>330.0</ele><time>2026-05-03T08:11:12.973Z</time></trkpt><trkpt lat="44.743656800782425" lon="9.388968398545513"><ele>335.6666666666667</ele><time>2026-05-03T08:11:13.973Z</time></trkpt><trkpt lat="44.7434628093222" lon="9.38899451300171"><ele>341.33333333333337</ele><time>2026-05-03T08:11:14.973Z</time></trkpt><trkpt lat="44.74328111781952" lon="9.388982242580822"><ele>347.0</ele><time>2026-05-03T08:11:15.973Z</time></trkpt><trkpt lat="44.743138628837315" lon="9.388936104022646"><ele>347.0</ele><time>2026-05-03T08:11:16.973Z</time></trkpt><trkpt lat="44.743027818771196" lon="9.388876367438563"><ele>347.0</ele><time>2026-05-03T08:11:17.973Z</time></trkpt><trkpt lat="44.74295164202028" lon="9.38882887397098"><ele>347.0</ele><time>2026-05-03T08:11:18.973Z</time></trkpt><trkpt lat="44.74289753423472" lon="9.388781164499212"><ele>347.0</ele><time>2026-05-03T08:11:19.973Z</time></trkpt><trkpt lat="44.742826278885374" lon="9.388733574447004"><ele>347.0</ele><time>2026-05-03T08:11:21.973Z</time></trkpt><trkpt lat="44.742785935329096" lon="9.388664110393503"><ele>347.0</ele><time>2026-05-03T08:13:30.972Z</time></trkpt><trkpt lat="44.7426537117419" lon="9.38858791603761"><ele>344.20000000000005</ele><time>2026-05-03T08:13:32.972Z</time></trkpt><trkpt lat="44.742570545106666" lon="9.388535370427949"><ele>341.4</ele><time>2026-05-03T08:13:33.972Z</time></trkpt><trkpt lat="44.74248439951878" lon="9.388475003994968"><ele>338.6</ele><time>2026-05-03T08:13:34.972Z</time></trkpt><trkpt lat="44.74238052962351" lon="9.388415461486222"><ele>335.79999999999995</ele><time>2026-05-03T08:13:35.972Z</time></trkpt><trkpt lat="44.74225582041188" lon="9.38834073302474"><ele>333.0</ele><time>2026-05-03T08:13:36.972Z</time></trkpt><trkpt lat="44.74212320554015" lon="9.388257846446297"><ele>333.0</ele><time>2026-05-03T08:13:37.972Z</time></trkpt><trkpt lat="44.74197752906572" lon="9.388168919994857"><ele>333.0</ele><time>2026-05-03T08:13:38.972Z</time></trkpt><trkpt lat="44.74182456777976" lon="9.388076019206371"><ele>333.0</ele><time>2026-05-03T08:13:39.972Z</time></trkpt><trkpt lat="44.741673199354416" lon="9.387981701282559"><ele>342.3333333333333</ele><time>2026-05-03T08:13:40.972Z</time></trkpt><trkpt lat="44.74151766837131" lon="9.387884213339017"><ele>351.66666666666663</ele><time>2026-05-03T08:13:41.972Z</time></trkpt><trkpt lat="44.7413551832097" lon="9.387782768290943"><ele>361.0</ele><time>2026-05-03T08:13:42.972Z</time></trkpt><trkpt lat="44.74161510671785" lon="9.388006844525458"><ele>356.0</ele><time>2026-05-03T08:13:44.117Z</time></trkpt><trkpt lat="44.74022169646855" lon="9.387406598378458"><ele>342.6666666666667</ele><time>2026-05-03T08:13:50.972Z</time></trkpt><trkpt lat="44.740057570829165" lon="9.387358344395848"><ele>329.3333333333333</ele><time>2026-05-03T08:13:51.972Z</time></trkpt><trkpt lat="44.73984788357061" lon="9.387293663275237"><ele>316.0</ele><time>2026-05-03T08:13:52.972Z</time></trkpt><trkpt lat="44.7396532585414" lon="9.387212521798583"><ele>316.0</ele><time>2026-05-03T08:13:53.972Z</time></trkpt><trkpt lat="44.739472841530564" lon="9.38724282456281"><ele>316.0</ele><time>2026-05-03T08:13:54.972Z</time></trkpt><trkpt lat="44.739280326103" lon="9.38730829035616"><ele>316.0</ele><time>2026-05-03T08:13:55.972Z</time></trkpt><trkpt lat="44.739100427610765" lon="9.38737154482708"><ele>320.0</ele><time>2026-05-03T08:13:56.973Z</time></trkpt><trkpt lat="44.73895253337978" lon="9.387493189086884"><ele>324.0</ele><time>2026-05-03T08:13:57.972Z</time></trkpt><trkpt lat="44.73880486082213" lon="9.387654673060421"><ele>328.0</ele><time>2026-05-03T08:13:58.972Z</time></trkpt><trkpt lat="44.73864986392089" lon="9.387850906096915"><ele>327.0</ele><time>2026-05-03T08:13:59.972Z</time></trkpt><trkpt lat="44.73847616862514" lon="9.388070486235147"><ele>326.0</ele><time>2026-05-03T08:14:00.973Z</time></trkpt><trkpt lat="44.73828124101607" lon="9.388308627985676"><ele>326.0</ele><time>2026-05-03T08:14:01.973Z</time></trkpt><trkpt lat="44.738085297052244" lon="9.3885509950117"><ele>326.0</ele><time>2026-05-03T08:14:02.973Z</time></trkpt><trkpt lat="44.73787116462652" lon="9.38877669017111"><ele>329.5</ele><time>2026-05-03T08:14:03.973Z</time></trkpt><trkpt lat="44.73765983967853" lon="9.389001218831869"><ele>333.0</ele><time>2026-05-03T08:14:04.973Z</time></trkpt><trkpt lat="44.737463336671205" lon="9.38919784987779"><ele>333.0</ele><time>2026-05-03T08:14:05.973Z</time></trkpt><trkpt lat="44.73726891204325" lon="9.389362602161242"><ele>333.0</ele><time>2026-05-03T08:14:06.972Z</time></trkpt><trkpt lat="44.73707869239661" lon="9.389484047165348"><ele>333.0</ele><time>2026-05-03T08:14:07.972Z</time></trkpt><trkpt lat="44.73687406412454" lon="9.389577336111635"><ele>330.0</ele><time>2026-05-03T08:14:08.973Z</time></trkpt><trkpt lat="44.73666544729629" lon="9.389641454367176"><ele>327.0</ele><time>2026-05-03T08:14:09.972Z</time></trkpt><trkpt lat="44.736454854033965" lon="9.389669916956244"><ele>324.0</ele><time>2026-05-03T08:14:10.972Z</time></trkpt><trkpt lat="44.73624768318339" lon="9.389668827509555"><ele>322.6666666666667</ele><time>2026-05-03T08:14:11.972Z</time></trkpt><trkpt lat="44.7360354191501" lon="9.389671480993453"><ele>321.33333333333337</ele><time>2026-05-03T08:14:12.972Z</time></trkpt><trkpt lat="44.7358286130239" lon="9.389673998495557"><ele>320.0</ele><time>2026-05-03T08:14:13.972Z</time></trkpt><trkpt lat="44.73562889892476" lon="9.389670639855654"><ele>320.0</ele><time>2026-05-03T08:14:14.972Z</time></trkpt><trkpt lat="44.735423803506926" lon="9.389661478277741"><ele>320.0</ele><time>2026-05-03T08:14:15.972Z</time></trkpt><trkpt lat="44.73522151753728" lon="9.389617467223315"><ele>320.0</ele><time>2026-05-03T08:14:16.972Z</time></trkpt><trkpt lat="44.735016824359576" lon="9.38953089406386"><ele>323.33333333333337</ele><time>2026-05-03T08:14:17.972Z</time></trkpt><trkpt lat="44.73482329447763" lon="9.389429446643291"><ele>326.6666666666667</ele><time>2026-05-03T08:14:18.972Z</time></trkpt><trkpt lat="44.734656620574675" lon="9.38932859060899"><ele>330.0</ele><time>2026-05-03T08:14:19.972Z</time></trkpt><trkpt lat="44.734508009518606" lon="9.38922005934124"><ele>335.0</ele><time>2026-05-03T08:14:20.972Z</time></trkpt><trkpt lat="44.73434164668061" lon="9.389121767623852"><ele>340.0</ele><time>2026-05-03T08:14:21.972Z</time></trkpt><trkpt lat="44.73415614921672" lon="9.389060962597274"><ele>345.0</ele><time>2026-05-03T08:14:22.972Z</time></trkpt><trkpt lat="44.73396199516561" lon="9.389054729929589"><ele>345.0</ele><time>2026-05-03T08:14:23.972Z</time></trkpt><trkpt lat="44.73376575784287" lon="9.389071028680277"><ele>345.0</ele><time>2026-05-03T08:14:24.972Z</time></trkpt><trkpt lat="44.73359131217037" lon="9.389110819053371"><ele>345.0</ele><time>2026-05-03T08:14:25.972Z</time></trkpt><trkpt lat="44.733415919189405" lon="9.389141485984979"><ele>346.0</ele><time>2026-05-03T08:14:26.972Z</time></trkpt><trkpt lat="44.733233178545994" lon="9.389079737866693"><ele>347.0</ele><time>2026-05-03T08:14:27.972Z</time></trkpt><trkpt lat="44.73303930397478" lon="9.389020504187409"><ele>348.0</ele><time>2026-05-03T08:14:28.972Z</time></trkpt><trkpt lat="44.73285921072897" lon="9.389030556252925"><ele>355.0</ele><time>2026-05-03T08:14:29.972Z</time></trkpt><trkpt lat="44.732698363786376" lon="9.389003213925871"><ele>362.0</ele><time>2026-05-03T08:14:30.972Z</time></trkpt><trkpt lat="44.73254460438777" lon="9.388991245800183"><ele>369.0</ele><time>2026-05-03T08:14:31.972Z</time></trkpt><trkpt lat="44.732413080569245" lon="9.388944353222236"><ele>356.25</ele><time>2026-05-03T08:14:32.972Z</time></trkpt><trkpt lat="44.732336652733906" lon="9.388828391438189"><ele>343.5</ele><time>2026-05-03T08:14:33.972Z</time></trkpt><trkpt lat="44.73224824890541" lon="9.388668664530815"><ele>330.75</ele><time>2026-05-03T08:14:34.972Z</time></trkpt><trkpt lat="44.73212246751538" lon="9.388548647041135"><ele>318.0</ele><time>2026-05-03T08:14:35.972Z</time></trkpt><trkpt lat="44.73197451814861" lon="9.388481937597838"><ele>325.6666666666667</ele><time>2026-05-03T08:14:36.972Z</time></trkpt><trkpt lat="44.731817117539144" lon="9.388419908383536"><ele>333.33333333333337</ele><time>2026-05-03T08:14:37.972Z</time></trkpt><trkpt lat="44.731661852071774" lon="9.3883770425831"><ele>341.0</ele><time>2026-05-03T08:14:38.972Z</time></trkpt><trkpt lat="44.73151457256793" lon="9.388392917043483"><ele>341.0</ele><time>2026-05-03T08:14:39.972Z</time></trkpt><trkpt lat="44.73136828605462" lon="9.388437738342715"><ele>341.0</ele><time>2026-05-03T08:14:40.972Z</time></trkpt><trkpt lat="44.73123047091914" lon="9.388460340388802"><ele>341.0</ele><time>2026-05-03T08:14:41.972Z</time></trkpt><trkpt lat="44.731103380117396" lon="9.388443274256854"><ele>341.0</ele><time>2026-05-03T08:14:42.972Z</time></trkpt><trkpt lat="44.7309942138917" lon="9.388356850932436"><ele>345.75</ele><time>2026-05-03T08:14:43.972Z</time></trkpt><trkpt lat="44.73089715641086" lon="9.38831082357623"><ele>350.5</ele><time>2026-05-03T08:14:44.972Z</time></trkpt><trkpt lat="44.7308047462046" lon="9.388284768903729"><ele>355.25</ele><time>2026-05-03T08:14:45.972Z</time></trkpt><trkpt lat="44.73075238938121" lon="9.387990723727276"><ele>360.0</ele><time>2026-05-03T08:14:46.972Z</time></trkpt><trkpt lat="44.730641844848094" lon="9.388011923314497"><ele>360.0</ele><time>2026-05-03T08:14:47.972Z</time></trkpt><trkpt lat="44.73051478375064" lon="9.388010292956734"><ele>360.0</ele><time>2026-05-03T08:14:48.972Z</time></trkpt><trkpt lat="44.73035685057443" lon="9.387971294735344"><ele>360.0</ele><time>2026-05-03T08:14:49.972Z</time></trkpt><trkpt lat="44.730186111340075" lon="9.387864723852184"><ele>352.0</ele><time>2026-05-03T08:14:50.972Z</time></trkpt><trkpt lat="44.73004362109514" lon="9.387775245434552"><ele>344.0</ele><time>2026-05-03T08:14:51.972Z</time></trkpt><trkpt lat="44.72990054392779" lon="9.387720096290776"><ele>336.0</ele><time>2026-05-03T08:14:52.972Z</time></trkpt><trkpt lat="44.72976473907161" lon="9.387646164641653"><ele>336.0</ele><time>2026-05-03T08:14:53.972Z</time></trkpt><trkpt lat="44.72963688607704" lon="9.387501956948729"><ele>336.0</ele><time>2026-05-03T08:14:54.972Z</time></trkpt><trkpt lat="44.72950112359113" lon="9.387351191754277"><ele>336.0</ele><time>2026-05-03T08:14:55.972Z</time></trkpt><trkpt lat="44.729348694168564" lon="9.387258809928083"><ele>345.75</ele><time>2026-05-03T08:14:56.972Z</time></trkpt><trkpt lat="44.72921245575484" lon="9.38725026688644"><ele>355.5</ele><time>2026-05-03T08:14:57.972Z</time></trkpt><trkpt lat="44.7290834017604" lon="9.3872813807545"><ele>365.25</ele><time>2026-05-03T08:14:58.971Z</time></trkpt><trkpt lat="44.72897836925006" lon="9.387285643630742"><ele>375.0</ele><time>2026-05-03T08:14:59.971Z</time></trkpt><trkpt lat="44.72882302967038" lon="9.387245235627702"><ele>370.0</ele><time>2026-05-03T08:15:00.971Z</time></trkpt><trkpt lat="44.728662127797826" lon="9.387160487077452"><ele>365.0</ele><time>2026-05-03T08:15:01.971Z</time></trkpt><trkpt lat="44.72851777384367" lon="9.387036231244522"><ele>360.0</ele><time>2026-05-03T08:15:02.971Z</time></trkpt><trkpt lat="44.72838737187691" lon="9.386867983986685"><ele>360.0</ele><time>2026-05-03T08:15:03.971Z</time></trkpt><trkpt lat="44.72865591327729" lon="9.386854538179994"><ele>360.0</ele><time>2026-05-03T08:15:04.971Z</time></trkpt><trkpt lat="44.728616318939956" lon="9.386719436353282"><ele>360.0</ele><time>2026-05-03T08:15:05.971Z</time></trkpt><trkpt lat="44.728538492891204" lon="9.386636234324905"><ele>360.0</ele><time>2026-05-03T08:15:06.971Z</time></trkpt><trkpt lat="44.72840806967958" lon="9.386609498487598"><ele>360.0</ele><time>2026-05-03T08:15:07.971Z</time></trkpt><trkpt lat="44.72824825564278" lon="9.386596976733232"><ele>360.0</ele><time>2026-05-03T08:15:08.971Z</time></trkpt><trkpt lat="44.72807153521623" lon="9.386556869222048"><ele>360.0</ele><time>2026-05-03T08:15:09.971Z</time></trkpt><trkpt lat="44.72789491159779" lon="9.38648811761093"><ele>360.0</ele><time>2026-05-03T08:15:10.971Z</time></trkpt><trkpt lat="44.72774109573248" lon="9.386412338710285"><ele>360.0</ele><time>2026-05-03T08:15:11.971Z</time></trkpt><trkpt lat="44.727592018620065" lon="9.386308883971905"><ele>351.0</ele><time>2026-05-03T08:15:12.971Z</time></trkpt><trkpt lat="44.7274562133397" lon="9.386183957609122"><ele>342.0</ele><time>2026-05-03T08:15:13.971Z</time></trkpt><trkpt lat="44.727326812914534" lon="9.386057086434272"><ele>333.0</ele><time>2026-05-03T08:15:14.971Z</time></trkpt><trkpt lat="44.72719251983298" lon="9.385953446156618"><ele>333.0</ele><time>2026-05-03T08:15:15.971Z</time></trkpt><trkpt lat="44.727066930901785" lon="9.385870219025001"><ele>333.0</ele><time>2026-05-03T08:15:16.971Z</time></trkpt><trkpt lat="44.72695242837041" lon="9.38577753941523"><ele>333.0</ele><time>2026-05-03T08:15:17.971Z</time></trkpt><trkpt lat="44.72685232472507" lon="9.385655235580122"><ele>333.0</ele><time>2026-05-03T08:15:18.971Z</time></trkpt><trkpt lat="44.726773602469216" lon="9.385514153429463"><ele>329.0</ele><time>2026-05-03T08:15:19.971Z</time></trkpt><trkpt lat="44.72668631189144" lon="9.38540154088904"><ele>325.0</ele><time>2026-05-03T08:15:20.971Z</time></trkpt><trkpt lat="44.72656048962574" lon="9.385329548800021"><ele>321.0</ele><time>2026-05-03T08:15:21.971Z</time></trkpt><trkpt lat="44.726438168443494" lon="9.385282258878014"><ele>317.0</ele><time>2026-05-03T08:15:22.971Z</time></trkpt><trkpt lat="44.726346694949" lon="9.385236687164463"><ele>317.0</ele><time>2026-05-03T08:15:23.971Z</time></trkpt><trkpt lat="44.72626902570996" lon="9.38520736610931"><ele>317.0</ele><time>2026-05-03T08:15:24.971Z</time></trkpt><trkpt lat="44.72620520891651" lon="9.38523212645789"><ele>317.0</ele><time>2026-05-03T08:15:25.971Z</time></trkpt><trkpt lat="44.72615326926645" lon="9.38531411260582"><ele>317.0</ele><time>2026-05-03T08:15:26.971Z</time></trkpt><trkpt lat="44.72617584268963" lon="9.3854877255902"><ele>317.0</ele><time>2026-05-03T08:15:27.971Z</time></trkpt><trkpt lat="44.72621719932691" lon="9.385632328305197"><ele>327.0</ele><time>2026-05-03T08:15:28.971Z</time></trkpt><trkpt lat="44.72626364048853" lon="9.38580083203347"><ele>337.0</ele><time>2026-05-03T08:15:29.971Z</time></trkpt><trkpt lat="44.72631137214794" lon="9.386017095887636"><ele>347.0</ele><time>2026-05-03T08:15:30.971Z</time></trkpt><trkpt lat="44.72634867770599" lon="9.386229532606597"><ele>357.0</ele><time>2026-05-03T08:15:31.971Z</time></trkpt><trkpt lat="44.72639407414259" lon="9.386430658578822"><ele>361.75</ele><time>2026-05-03T08:15:32.971Z</time></trkpt><trkpt lat="44.72643124876169" lon="9.386604588059559"><ele>366.5</ele><time>2026-05-03T08:15:33.971Z</time></trkpt><trkpt lat="44.72645500217171" lon="9.386781381404782"><ele>371.25</ele><time>2026-05-03T08:15:34.971Z</time></trkpt><trkpt lat="44.72644066046748" lon="9.386988121953733"><ele>376.0</ele><time>2026-05-03T08:15:35.971Z</time></trkpt><trkpt lat="44.726382057760716" lon="9.3871990053101"><ele>382.3333333333333</ele><time>2026-05-03T08:15:36.971Z</time></trkpt><trkpt lat="44.72628243581615" lon="9.387382797694682"><ele>388.66666666666663</ele><time>2026-05-03T08:15:37.971Z</time></trkpt><trkpt lat="44.72619303650917" lon="9.387589923447605"><ele>395.0</ele><time>2026-05-03T08:15:38.971Z</time></trkpt><trkpt lat="44.726097721599366" lon="9.387791135812718"><ele>386.3333333333333</ele><time>2026-05-03T08:15:39.971Z</time></trkpt><trkpt lat="44.726008777978564" lon="9.387977983137738"><ele>377.66666666666663</ele><time>2026-05-03T08:15:40.971Z</time></trkpt><trkpt lat="44.725921756548345" lon="9.388138859466077"><ele>369.0</ele><time>2026-05-03T08:15:41.971Z</time></trkpt><trkpt lat="44.72581480101679" lon="9.388294792938904"><ele>369.0</ele><time>2026-05-03T08:15:42.971Z</time></trkpt><trkpt lat="44.72568231069208" lon="9.388446086594149"><ele>369.0</ele><time>2026-05-03T08:15:43.971Z</time></trkpt><trkpt lat="44.725534178368996" lon="9.38862194420046"><ele>369.0</ele><time>2026-05-03T08:15:44.971Z</time></trkpt><trkpt lat="44.72537894696154" lon="9.388759397653693"><ele>366.0</ele><time>2026-05-03T08:15:45.971Z</time></trkpt><trkpt lat="44.725228912067365" lon="9.38885148176235"><ele>363.0</ele><time>2026-05-03T08:15:46.971Z</time></trkpt><trkpt lat="44.72510328116625" lon="9.388962571996379"><ele>360.0</ele><time>2026-05-03T08:15:47.971Z</time></trkpt><trkpt lat="44.72499793169074" lon="9.389031587688239"><ele>357.0</ele><time>2026-05-03T08:15:48.971Z</time></trkpt><trkpt lat="44.72490869597707" lon="9.389164899918601"><ele>357.0</ele><time>2026-05-03T08:15:49.971Z</time></trkpt><trkpt lat="44.72484208492772" lon="9.389380760540583"><ele>357.0</ele><time>2026-05-03T08:15:50.971Z</time></trkpt><trkpt lat="44.72479694945691" lon="9.389632188694689"><ele>357.0</ele><time>2026-05-03T08:15:51.971Z</time></trkpt><trkpt lat="44.72475909200955" lon="9.389839554438936"><ele>357.5</ele><time>2026-05-03T08:15:52.971Z</time></trkpt><trkpt lat="44.724727592707865" lon="9.390017898038396"><ele>358.0</ele><time>2026-05-03T08:15:53.971Z</time></trkpt><trkpt lat="44.72475586648732" lon="9.390198506022498"><ele>358.5</ele><time>2026-05-03T08:15:54.971Z</time></trkpt><trkpt lat="44.724835865685755" lon="9.390350506427218"><ele>359.0</ele><time>2026-05-03T08:15:55.971Z</time></trkpt><trkpt lat="44.724920074088296" lon="9.390486868702492"><ele>356.25</ele><time>2026-05-03T08:15:56.971Z</time></trkpt><trkpt lat="44.724944163868464" lon="9.39062052691423"><ele>353.5</ele><time>2026-05-03T08:15:57.971Z</time></trkpt><trkpt lat="44.724906843623316" lon="9.39075783130262"><ele>350.75</ele><time>2026-05-03T08:15:58.971Z</time></trkpt><trkpt lat="44.72485494392544" lon="9.390953883633467"><ele>348.0</ele><time>2026-05-03T08:15:59.971Z</time></trkpt><trkpt lat="44.724792253704756" lon="9.391194179897555"><ele>352.6666666666667</ele><time>2026-05-03T08:16:00.971Z</time></trkpt><trkpt lat="44.72473512604796" lon="9.391456656530558"><ele>357.33333333333337</ele><time>2026-05-03T08:16:01.971Z</time></trkpt><trkpt lat="44.72467341014224" lon="9.391706069211464"><ele>362.0</ele><time>2026-05-03T08:16:02.971Z</time></trkpt><trkpt lat="44.72461134197577" lon="9.391926237437614"><ele>362.0</ele><time>2026-05-03T08:16:03.972Z</time></trkpt><trkpt lat="44.72456717381208" lon="9.392139938103925"><ele>362.0</ele><time>2026-05-03T08:16:04.972Z</time></trkpt><trkpt lat="44.72452200913641" lon="9.392326424137119"><ele>362.0</ele><time>2026-05-03T08:16:05.972Z</time></trkpt><trkpt lat="44.72443439600424" lon="9.392485958002725"><ele>362.0</ele><time>2026-05-03T08:16:06.971Z</time></trkpt><trkpt lat="44.72433246361587" lon="9.392675945236197"><ele>363.33333333333337</ele><time>2026-05-03T08:16:07.971Z</time></trkpt><trkpt lat="44.72423131644224" lon="9.39287393259264"><ele>364.6666666666667</ele><time>2026-05-03T08:16:08.971Z</time></trkpt><trkpt lat="44.72413220270109" lon="9.393039176496503"><ele>366.0</ele><time>2026-05-03T08:16:09.972Z</time></trkpt><trkpt lat="44.72403937051652" lon="9.393158334607637"><ele>366.0</ele><time>2026-05-03T08:16:10.972Z</time></trkpt><trkpt lat="44.723975219023785" lon="9.393280689767384"><ele>366.0</ele><time>2026-05-03T08:16:11.971Z</time></trkpt><trkpt lat="44.723921596255195" lon="9.393401605086053"><ele>366.0</ele><time>2026-05-03T08:16:12.972Z</time></trkpt><trkpt lat="44.723861972631624" lon="9.393500016877672"><ele>366.0</ele><time>2026-05-03T08:16:13.972Z</time></trkpt><trkpt lat="44.723791684643366" lon="9.39359767682753"><ele>366.0</ele><time>2026-05-03T08:16:14.972Z</time></trkpt><trkpt lat="44.723700664943124" lon="9.393657715178808"><ele>366.0</ele><time>2026-05-03T08:16:15.972Z</time></trkpt><trkpt lat="44.723600968856886" lon="9.39371828632913"><ele>366.0</ele><time>2026-05-03T08:16:16.972Z</time></trkpt><trkpt lat="44.72350038140091" lon="9.393794418950845"><ele>366.0</ele><time>2026-05-03T08:16:17.972Z</time></trkpt><trkpt lat="44.72339360187565" lon="9.393837169928393"><ele>366.0</ele><time>2026-05-03T08:16:18.972Z</time></trkpt><trkpt lat="44.72327800642149" lon="9.393889941876047"><ele>366.5</ele><time>2026-05-03T08:16:19.972Z</time></trkpt><trkpt lat="44.72315036925475" lon="9.393944303256868"><ele>367.0</ele><time>2026-05-03T08:16:20.972Z</time></trkpt><trkpt lat="44.72301510762785" lon="9.393993581978137"><ele>367.5</ele><time>2026-05-03T08:16:21.972Z</time></trkpt><trkpt lat="44.722892414151666" lon="9.394040002890117"><ele>368.0</ele><time>2026-05-03T08:16:22.972Z</time></trkpt><trkpt lat="44.72278553968102" lon="9.394098710885487"><ele>362.4</ele><time>2026-05-03T08:16:23.972Z</time></trkpt><trkpt lat="44.72269707865436" lon="9.394182415583"><ele>356.79999999999995</ele><time>2026-05-03T08:16:24.972Z</time></trkpt><trkpt lat="44.72263555937463" lon="9.394295888271262"><ele>351.2</ele><time>2026-05-03T08:16:25.972Z</time></trkpt><trkpt lat="44.72260802216829" lon="9.39443245255855"><ele>345.6</ele><time>2026-05-03T08:16:26.972Z</time></trkpt><trkpt lat="44.722559561013966" lon="9.394542227384981"><ele>340.0</ele><time>2026-05-03T08:16:27.972Z</time></trkpt><trkpt lat="44.72249357423611" lon="9.394587156884656"><ele>340.0</ele><time>2026-05-03T08:16:28.972Z</time></trkpt><trkpt lat="44.72241932716097" lon="9.394574349949362"><ele>340.0</ele><time>2026-05-03T08:16:29.972Z</time></trkpt><trkpt lat="44.72234814632477" lon="9.394512461043634"><ele>340.0</ele><time>2026-05-03T08:16:30.972Z</time></trkpt><trkpt lat="44.72227331021512" lon="9.39436061584756"><ele>340.0</ele><time>2026-05-03T08:16:31.972Z</time></trkpt><trkpt lat="44.72215959950543" lon="9.39421224164949"><ele>340.0</ele><time>2026-05-03T08:16:32.972Z</time></trkpt><trkpt lat="44.72205268743632" lon="9.394052950705756"><ele>340.0</ele><time>2026-05-03T08:16:33.972Z</time></trkpt><trkpt lat="44.72193670469898" lon="9.393924021781995"><ele>340.0</ele><time>2026-05-03T08:16:34.972Z</time></trkpt><trkpt lat="44.72181723174111" lon="9.393849172786487"><ele>340.0</ele><time>2026-05-03T08:16:35.972Z</time></trkpt><trkpt lat="44.72169436002143" lon="9.393815603540558"><ele>340.0</ele><time>2026-05-03T08:16:36.972Z</time></trkpt><trkpt lat="44.721573921516296" lon="9.393828168652343"><ele>339.25</ele><time>2026-05-03T08:16:37.972Z</time></trkpt><trkpt lat="44.7214642104597" lon="9.393931394654949"><ele>338.5</ele><time>2026-05-03T08:16:38.972Z</time></trkpt><trkpt lat="44.72139843665695" lon="9.394090442632415"><ele>337.75</ele><time>2026-05-03T08:16:39.972Z</time></trkpt><trkpt lat="44.72136971332733" lon="9.394270006189759"><ele>337.0</ele><time>2026-05-03T08:16:40.972Z</time></trkpt><trkpt lat="44.72133896680868" lon="9.394449737304644"><ele>337.0</ele><time>2026-05-03T08:16:41.972Z</time></trkpt><trkpt lat="44.721276880435305" lon="9.394574674078676"><ele>337.0</ele><time>2026-05-03T08:16:42.972Z</time></trkpt><trkpt lat="44.721186964070675" lon="9.394674381756536"><ele>337.0</ele><time>2026-05-03T08:16:43.972Z</time></trkpt><trkpt lat="44.72107521166773" lon="9.39479305696962"><ele>337.0</ele><time>2026-05-03T08:16:44.972Z</time></trkpt><trkpt lat="44.72095033064003" lon="9.394920070504648"><ele>339.40000000000003</ele><time>2026-05-03T08:16:45.972Z</time></trkpt><trkpt lat="44.72083997667062" lon="9.395001643166935"><ele>341.8</ele><time>2026-05-03T08:16:46.972Z</time></trkpt><trkpt lat="44.72072592111858" lon="9.395031204103931"><ele>344.2</ele><time>2026-05-03T08:16:47.972Z</time></trkpt><trkpt lat="44.720622871266585" lon="9.395041532081665"><ele>346.6</ele><time>2026-05-03T08:16:48.972Z</time></trkpt><trkpt lat="44.720545398039654" lon="9.39498715077852"><ele>349.0</ele><time>2026-05-03T08:16:49.972Z</time></trkpt><trkpt lat="44.7204859354019" lon="9.394909312378612"><ele>349.0</ele><time>2026-05-03T08:16:50.972Z</time></trkpt><trkpt lat="44.72046566369808" lon="9.394772676367955"><ele>349.0</ele><time>2026-05-03T08:16:51.972Z</time></trkpt><trkpt lat="44.72048179042538" lon="9.394611067315253"><ele>349.0</ele><time>2026-05-03T08:16:52.972Z</time></trkpt><trkpt lat="44.72049040069523" lon="9.394374769019162"><ele>349.0</ele><time>2026-05-03T08:16:53.972Z</time></trkpt><trkpt lat="44.720492151273604" lon="9.394165597398588"><ele>343.5</ele><time>2026-05-03T08:16:54.972Z</time></trkpt><trkpt lat="44.72056778317403" lon="9.393997110768552"><ele>338.0</ele><time>2026-05-03T08:16:55.971Z</time></trkpt><trkpt lat="44.72065579462018" lon="9.393818138480551"><ele>332.5</ele><time>2026-05-03T08:16:56.971Z</time></trkpt><trkpt lat="44.72073236293743" lon="9.393634619177343"><ele>327.0</ele><time>2026-05-03T08:16:57.971Z</time></trkpt><trkpt lat="44.72080721396715" lon="9.393491716565295"><ele>327.0</ele><time>2026-05-03T08:16:58.971Z</time></trkpt><trkpt lat="44.72084845342867" lon="9.393355615524806"><ele>327.0</ele><time>2026-05-03T08:16:59.971Z</time></trkpt><trkpt lat="44.7208562294928" lon="9.393211722665656"><ele>327.0</ele><time>2026-05-03T08:17:00.971Z</time></trkpt><trkpt lat="44.72081848180134" lon="9.393052445636664"><ele>327.0</ele><time>2026-05-03T08:17:01.971Z</time></trkpt><trkpt lat="44.720729760170094" lon="9.392912277565252"><ele>325.3333333333333</ele><time>2026-05-03T08:17:02.971Z</time></trkpt><trkpt lat="44.72062301353719" lon="9.392768369968994"><ele>323.66666666666663</ele><time>2026-05-03T08:17:03.971Z</time></trkpt><trkpt lat="44.72052197420189" lon="9.392619352788927"><ele>322.0</ele><time>2026-05-03T08:17:04.971Z</time></trkpt><trkpt lat="44.7204219679526" lon="9.392443126762474"><ele>322.0</ele><time>2026-05-03T08:17:05.971Z</time></trkpt><trkpt lat="44.72035418290365" lon="9.392180917837328"><ele>322.0</ele><time>2026-05-03T08:17:06.971Z</time></trkpt><trkpt lat="44.72029942024341" lon="9.391941536766993"><ele>322.0</ele><time>2026-05-03T08:17:07.971Z</time></trkpt><trkpt lat="44.720284701374354" lon="9.391752285122395"><ele>317.66666666666663</ele><time>2026-05-03T08:17:08.971Z</time></trkpt><trkpt lat="44.72026111336468" lon="9.391549466878269"><ele>313.3333333333333</ele><time>2026-05-03T08:17:09.971Z</time></trkpt><trkpt lat="44.7202580079571" lon="9.39132583632864"><ele>309.0</ele><time>2026-05-03T08:17:10.971Z</time></trkpt><trkpt lat="44.72026299245654" lon="9.391095691901084"><ele>307.5</ele><time>2026-05-03T08:17:11.971Z</time></trkpt><trkpt lat="44.720254172003564" lon="9.390890322439722"><ele>306.0</ele><time>2026-05-03T08:17:12.971Z</time></trkpt><trkpt lat="44.72023068897525" lon="9.390711938679209"><ele>304.5</ele><time>2026-05-03T08:17:13.971Z</time></trkpt><trkpt lat="44.720207817791106" lon="9.390535768765508"><ele>303.0</ele><time>2026-05-03T08:17:14.971Z</time></trkpt><trkpt lat="44.72018076480985" lon="9.390357146509913"><ele>307.0</ele><time>2026-05-03T08:17:15.971Z</time></trkpt><trkpt lat="44.72011972117347" lon="9.390197541648657"><ele>311.0</ele><time>2026-05-03T08:17:16.971Z</time></trkpt><trkpt lat="44.72001016672568" lon="9.390071023172013"><ele>315.0</ele><time>2026-05-03T08:17:17.971Z</time></trkpt><trkpt lat="44.719869683944204" lon="9.389990485895712"><ele>319.0</ele><time>2026-05-03T08:17:18.971Z</time></trkpt><trkpt lat="44.7197058802085" lon="9.389955742541856"><ele>319.0</ele><time>2026-05-03T08:17:19.971Z</time></trkpt><trkpt lat="44.71951243322635" lon="9.389935267801294"><ele>319.0</ele><time>2026-05-03T08:17:20.971Z</time></trkpt><trkpt lat="44.71932762750382" lon="9.389931924738333"><ele>319.0</ele><time>2026-05-03T08:17:21.971Z</time></trkpt><trkpt lat="44.71916280376154" lon="9.389961249521962"><ele>320.3333333333333</ele><time>2026-05-03T08:17:22.971Z</time></trkpt><trkpt lat="44.71900461658414" lon="9.39003499783412"><ele>321.6666666666667</ele><time>2026-05-03T08:17:23.971Z</time></trkpt><trkpt lat="44.71886140703779" lon="9.39015216069654"><ele>323.0</ele><time>2026-05-03T08:17:24.971Z</time></trkpt><trkpt lat="44.71870139863296" lon="9.390221579561407"><ele>323.6666666666667</ele><time>2026-05-03T08:17:25.971Z</time></trkpt><trkpt lat="44.71850182112913" lon="9.390232243825345"><ele>324.3333333333333</ele><time>2026-05-03T08:17:26.971Z</time></trkpt><trkpt lat="44.718274663882355" lon="9.390231471229063"><ele>325.0</ele><time>2026-05-03T08:17:27.971Z</time></trkpt><trkpt lat="44.718045521346625" lon="9.390180734119058"><ele>325.0</ele><time>2026-05-03T08:17:28.971Z</time></trkpt><trkpt lat="44.71784067274145" lon="9.390140206752976"><ele>325.0</ele><time>2026-05-03T08:17:29.971Z</time></trkpt><trkpt lat="44.71765494031807" lon="9.390133459917108"><ele>325.0</ele><time>2026-05-03T08:17:30.971Z</time></trkpt><trkpt lat="44.717486737859645" lon="9.39014997217085"><ele>327.3333333333333</ele><time>2026-05-03T08:17:31.971Z</time></trkpt><trkpt lat="44.717333656738454" lon="9.390071044942568"><ele>329.6666666666667</ele><time>2026-05-03T08:17:32.971Z</time></trkpt><trkpt lat="44.71717250713189" lon="9.38998187780629"><ele>332.0</ele><time>2026-05-03T08:17:33.971Z</time></trkpt><trkpt lat="44.716981403315714" lon="9.38990476023786"><ele>337.0</ele><time>2026-05-03T08:17:34.971Z</time></trkpt><trkpt lat="44.71682087723597" lon="9.389792165328718"><ele>342.0</ele><time>2026-05-03T08:17:35.971Z</time></trkpt><trkpt lat="44.71665888332088" lon="9.389685233683124"><ele>347.0</ele><time>2026-05-03T08:17:36.971Z</time></trkpt><trkpt lat="44.71651135952492" lon="9.38955374123931"><ele>347.5</ele><time>2026-05-03T08:17:37.971Z</time></trkpt><trkpt lat="44.7163756087096" lon="9.389431584026099"><ele>348.0</ele><time>2026-05-03T08:17:38.971Z</time></trkpt><trkpt lat="44.71625177433553" lon="9.389319174793537"><ele>348.5</ele><time>2026-05-03T08:17:39.971Z</time></trkpt><trkpt lat="44.71613439868963" lon="9.389209219655125"><ele>349.0</ele><time>2026-05-03T08:17:40.971Z</time></trkpt><trkpt lat="44.71603083331242" lon="9.389086121935472"><ele>349.0</ele><time>2026-05-03T08:17:41.971Z</time></trkpt><trkpt lat="44.71596135198604" lon="9.388881787576333"><ele>349.0</ele><time>2026-05-03T08:17:42.971Z</time></trkpt><trkpt lat="44.7158883022748" lon="9.388630780370248"><ele>349.0</ele><time>2026-05-03T08:17:43.971Z</time></trkpt><trkpt lat="44.71581583799859" lon="9.3883911298537"><ele>340.66666666666663</ele><time>2026-05-03T08:17:44.971Z</time></trkpt><trkpt lat="44.715734172261925" lon="9.388162835744621"><ele>332.3333333333333</ele><time>2026-05-03T08:17:45.971Z</time></trkpt><trkpt lat="44.71563502452241" lon="9.387954596671335"><ele>324.0</ele><time>2026-05-03T08:17:46.971Z</time></trkpt><trkpt lat="44.7155270497469" lon="9.3877823567014"><ele>319.6666666666667</ele><time>2026-05-03T08:17:47.971Z</time></trkpt><trkpt lat="44.71540650756651" lon="9.387640125226344"><ele>315.33333333333337</ele><time>2026-05-03T08:17:48.971Z</time></trkpt><trkpt lat="44.7152794424748" lon="9.38747685777446"><ele>311.0</ele><time>2026-05-03T08:17:49.971Z</time></trkpt><trkpt lat="44.715220422414625" lon="9.387267121612293"><ele>316.0</ele><time>2026-05-03T08:17:50.971Z</time></trkpt><trkpt lat="44.71519158564426" lon="9.387080271631657"><ele>321.0</ele><time>2026-05-03T08:17:51.971Z</time></trkpt><trkpt lat="44.71512268081814" lon="9.386876585744817"><ele>326.0</ele><time>2026-05-03T08:17:52.971Z</time></trkpt><trkpt lat="44.71502729362747" lon="9.386686586504004"><ele>326.0</ele><time>2026-05-03T08:17:53.971Z</time></trkpt><trkpt lat="44.71493873682212" lon="9.38645768033412"><ele>326.0</ele><time>2026-05-03T08:17:54.971Z</time></trkpt><trkpt lat="44.71484786054817" lon="9.386198584101791"><ele>326.0</ele><time>2026-05-03T08:17:55.971Z</time></trkpt><trkpt lat="44.714763074401716" lon="9.385955969721174"><ele>322.33333333333337</ele><time>2026-05-03T08:17:56.971Z</time></trkpt><trkpt lat="44.71466677941737" lon="9.385723286917989"><ele>318.6666666666667</ele><time>2026-05-03T08:17:57.971Z</time></trkpt><trkpt lat="44.714598214965065" lon="9.38552443923248"><ele>315.0</ele><time>2026-05-03T08:17:58.971Z</time></trkpt><trkpt lat="44.71453874853585" lon="9.38535446116932"><ele>313.25</ele><time>2026-05-03T08:17:59.971Z</time></trkpt><trkpt lat="44.714484564079235" lon="9.385201213739727"><ele>311.5</ele><time>2026-05-03T08:18:00.971Z</time></trkpt><trkpt lat="44.714453035284606" lon="9.385030481003682"><ele>309.75</ele><time>2026-05-03T08:18:01.971Z</time></trkpt><trkpt lat="44.714454166152464" lon="9.384825200628411"><ele>308.0</ele><time>2026-05-03T08:18:02.971Z</time></trkpt><trkpt lat="44.71448708896217" lon="9.384561132407812"><ele>308.0</ele><time>2026-05-03T08:18:03.97Z</time></trkpt><trkpt lat="44.7144993562174" lon="9.384295578125558"><ele>308.0</ele><time>2026-05-03T08:18:04.97Z</time></trkpt><trkpt lat="44.714513235941624" lon="9.384077329121556"><ele>308.0</ele><time>2026-05-03T08:18:05.97Z</time></trkpt><trkpt lat="44.71454084317483" lon="9.383885590299636"><ele>309.0</ele><time>2026-05-03T08:18:06.97Z</time></trkpt><trkpt lat="44.71456149114718" lon="9.38372076272283"><ele>310.0</ele><time>2026-05-03T08:18:07.97Z</time></trkpt><trkpt lat="44.7145621989617" lon="9.383558701328017"><ele>311.0</ele><time>2026-05-03T08:18:08.971Z</time></trkpt><trkpt lat="44.714535688264235" lon="9.383398272844223"><ele>312.0</ele><time>2026-05-03T08:18:09.971Z</time></trkpt><trkpt lat="44.71446967910738" lon="9.38326006736953"><ele>313.25</ele><time>2026-05-03T08:18:10.971Z</time></trkpt><trkpt lat="44.71437857409277" lon="9.383131380353115"><ele>314.5</ele><time>2026-05-03T08:18:11.971Z</time></trkpt><trkpt lat="44.71427883801186" lon="9.382990232910402"><ele>315.75</ele><time>2026-05-03T08:18:12.971Z</time></trkpt><trkpt lat="44.71418374585602" lon="9.382839675584725"><ele>317.0</ele><time>2026-05-03T08:18:13.971Z</time></trkpt><trkpt lat="44.71408602548496" lon="9.382688273623264"><ele>317.0</ele><time>2026-05-03T08:18:14.971Z</time></trkpt><trkpt lat="44.714002649916566" lon="9.382537872459622"><ele>317.0</ele><time>2026-05-03T08:18:15.971Z</time></trkpt><trkpt lat="44.71394122343298" lon="9.382384666065098"><ele>317.0</ele><time>2026-05-03T08:18:16.971Z</time></trkpt><trkpt lat="44.713927284509275" lon="9.382215621265775"><ele>317.0</ele><time>2026-05-03T08:18:17.971Z</time></trkpt><trkpt lat="44.71389702233577" lon="9.382018965630957"><ele>316.25</ele><time>2026-05-03T08:18:18.971Z</time></trkpt><trkpt lat="44.71389335940643" lon="9.38180188571864"><ele>315.5</ele><time>2026-05-03T08:18:19.971Z</time></trkpt><trkpt lat="44.71387292429027" lon="9.381632039130226"><ele>314.75</ele><time>2026-05-03T08:18:20.97Z</time></trkpt><trkpt lat="44.713854916827955" lon="9.381451072337326"><ele>314.0</ele><time>2026-05-03T08:18:21.971Z</time></trkpt><trkpt lat="44.71382675619095" lon="9.381274369694548"><ele>314.0</ele><time>2026-05-03T08:18:22.971Z</time></trkpt><trkpt lat="44.71378075353842" lon="9.381112274722023"><ele>314.0</ele><time>2026-05-03T08:18:23.971Z</time></trkpt><trkpt lat="44.713716804023214" lon="9.38096784359533"><ele>314.0</ele><time>2026-05-03T08:18:24.971Z</time></trkpt><trkpt lat="44.713639563282406" lon="9.380845645491414"><ele>314.0</ele><time>2026-05-03T08:18:25.971Z</time></trkpt><trkpt lat="44.71355418552344" lon="9.380715265236612"><ele>315.25</ele><time>2026-05-03T08:18:26.971Z</time></trkpt><trkpt lat="44.71346289860256" lon="9.380587120275925"><ele>316.5</ele><time>2026-05-03T08:18:27.971Z</time></trkpt><trkpt lat="44.71337078037744" lon="9.38045074695361"><ele>317.75</ele><time>2026-05-03T08:18:28.971Z</time></trkpt><trkpt lat="44.713272904781086" lon="9.380321784401147"><ele>319.0</ele><time>2026-05-03T08:18:29.971Z</time></trkpt><trkpt lat="44.71316698792577" lon="9.380219720225575"><ele>319.0</ele><time>2026-05-03T08:18:30.971Z</time></trkpt><trkpt lat="44.71305815453255" lon="9.380156772592615"><ele>319.0</ele><time>2026-05-03T08:18:31.971Z</time></trkpt><trkpt lat="44.712935806832164" lon="9.38011940850855"><ele>319.0</ele><time>2026-05-03T08:18:32.971Z</time></trkpt><trkpt lat="44.712802498764006" lon="9.380089765222865"><ele>319.0</ele><time>2026-05-03T08:18:33.971Z</time></trkpt><trkpt lat="44.71266137347456" lon="9.38006367689638"><ele>319.75</ele><time>2026-05-03T08:18:34.971Z</time></trkpt><trkpt lat="44.71252530114506" lon="9.380048237736471"><ele>320.5</ele><time>2026-05-03T08:18:35.971Z</time></trkpt><trkpt lat="44.712387619081746" lon="9.380028408450322"><ele>321.25</ele><time>2026-05-03T08:18:36.971Z</time></trkpt><trkpt lat="44.71224299659745" lon="9.380007243999133"><ele>322.0</ele><time>2026-05-03T08:18:37.971Z</time></trkpt><trkpt lat="44.71209093359955" lon="9.379986795319434"><ele>322.0</ele><time>2026-05-03T08:18:38.971Z</time></trkpt><trkpt lat="44.7119449099597" lon="9.379964346015143"><ele>322.0</ele><time>2026-05-03T08:18:39.971Z</time></trkpt><trkpt lat="44.71180965477672" lon="9.379942124206956"><ele>322.0</ele><time>2026-05-03T08:18:40.971Z</time></trkpt><trkpt lat="44.71168453371744" lon="9.379885784591638"><ele>322.0</ele><time>2026-05-03T08:18:41.971Z</time></trkpt><trkpt lat="44.711573348361405" lon="9.379771999925618"><ele>319.0</ele><time>2026-05-03T08:18:42.971Z</time></trkpt><trkpt lat="44.71148120338915" lon="9.379616001606957"><ele>316.0</ele><time>2026-05-03T08:18:43.971Z</time></trkpt><trkpt lat="44.7113994056801" lon="9.379435386291323"><ele>313.0</ele><time>2026-05-03T08:18:44.971Z</time></trkpt><trkpt lat="44.71131209787085" lon="9.379241690220907"><ele>313.0</ele><time>2026-05-03T08:18:45.971Z</time></trkpt><trkpt lat="44.71121913078102" lon="9.37904813138148"><ele>313.0</ele><time>2026-05-03T08:18:46.971Z</time></trkpt><trkpt lat="44.71112169968084" lon="9.378853247297872"><ele>313.0</ele><time>2026-05-03T08:18:47.971Z</time></trkpt><trkpt lat="44.711027172897595" lon="9.37864915142266"><ele>314.0</ele><time>2026-05-03T08:18:48.971Z</time></trkpt><trkpt lat="44.71093151038629" lon="9.378436904510172"><ele>315.0</ele><time>2026-05-03T08:18:49.971Z</time></trkpt><trkpt lat="44.71083571201707" lon="9.37822793410772"><ele>316.0</ele><time>2026-05-03T08:18:50.971Z</time></trkpt><trkpt lat="44.710743603714356" lon="9.378030266395442"><ele>318.0</ele><time>2026-05-03T08:18:51.971Z</time></trkpt><trkpt lat="44.71065509542912" lon="9.377844312123582"><ele>320.0</ele><time>2026-05-03T08:18:52.971Z</time></trkpt><trkpt lat="44.710581565716055" lon="9.377677477332602"><ele>322.0</ele><time>2026-05-03T08:18:53.971Z</time></trkpt><trkpt lat="44.71050318122974" lon="9.377560967205639"><ele>324.0</ele><time>2026-05-03T08:18:54.97Z</time></trkpt><trkpt lat="44.71042285178397" lon="9.377503419644531"><ele>324.0</ele><time>2026-05-03T08:18:55.97Z</time></trkpt><trkpt lat="44.710325880791" lon="9.377459953134819"><ele>324.0</ele><time>2026-05-03T08:18:56.97Z</time></trkpt><trkpt lat="44.710188781240745" lon="9.377442792302022"><ele>324.0</ele><time>2026-05-03T08:18:57.97Z</time></trkpt><trkpt lat="44.709994923291454" lon="9.377502861351253"><ele>324.0</ele><time>2026-05-03T08:18:58.97Z</time></trkpt><trkpt lat="44.7098389671067" lon="9.377633368924318"><ele>326.3333333333333</ele><time>2026-05-03T08:18:59.97Z</time></trkpt><trkpt lat="44.70971767124076" lon="9.377760622942343"><ele>328.66666666666663</ele><time>2026-05-03T08:19:00.97Z</time></trkpt><trkpt lat="44.709601183188305" lon="9.37787128343488"><ele>331.0</ele><time>2026-05-03T08:19:01.97Z</time></trkpt><trkpt lat="44.70945364292573" lon="9.3779648758425"><ele>328.25</ele><time>2026-05-03T08:19:02.97Z</time></trkpt><trkpt lat="44.709288962441235" lon="9.37803331705912"><ele>325.5</ele><time>2026-05-03T08:19:03.97Z</time></trkpt><trkpt lat="44.70917614338795" lon="9.378071575269004"><ele>322.75</ele><time>2026-05-03T08:19:04.97Z</time></trkpt><trkpt lat="44.709086744728154" lon="9.37810330205323"><ele>320.0</ele><time>2026-05-03T08:19:05.97Z</time></trkpt><trkpt lat="44.70898313240088" lon="9.378110614080992"><ele>320.0</ele><time>2026-05-03T08:19:06.97Z</time></trkpt><trkpt lat="44.70886032829188" lon="9.378076214998371"><ele>320.0</ele><time>2026-05-03T08:19:07.97Z</time></trkpt><trkpt lat="44.70870831336335" lon="9.37801261495605"><ele>320.0</ele><time>2026-05-03T08:19:08.97Z</time></trkpt><trkpt lat="44.70856497937795" lon="9.377950652595267"><ele>320.0</ele><time>2026-05-03T08:19:09.97Z</time></trkpt><trkpt lat="44.70840534400748" lon="9.37787949773332"><ele>323.75</ele><time>2026-05-03T08:19:10.97Z</time></trkpt><trkpt lat="44.70827521267211" lon="9.377810724305213"><ele>327.5</ele><time>2026-05-03T08:19:11.97Z</time></trkpt><trkpt lat="44.70818560423783" lon="9.377681327256122"><ele>331.25</ele><time>2026-05-03T08:19:12.97Z</time></trkpt><trkpt lat="44.708126163182705" lon="9.377531365108592"><ele>335.0</ele><time>2026-05-03T08:19:13.97Z</time></trkpt><trkpt lat="44.70808990907224" lon="9.377352181077173"><ele>339.2</ele><time>2026-05-03T08:19:14.97Z</time></trkpt><trkpt lat="44.70806153673514" lon="9.37716810375403"><ele>343.4</ele><time>2026-05-03T08:19:15.97Z</time></trkpt><trkpt lat="44.70802867677319" lon="9.377045720794692"><ele>347.6</ele><time>2026-05-03T08:19:16.97Z</time></trkpt><trkpt lat="44.70796684501921" lon="9.376931514779313"><ele>351.8</ele><time>2026-05-03T08:19:17.97Z</time></trkpt><trkpt lat="44.707875694214984" lon="9.376845313739025"><ele>356.0</ele><time>2026-05-03T08:19:18.97Z</time></trkpt><trkpt lat="44.70778597949992" lon="9.376809374706873"><ele>353.8</ele><time>2026-05-03T08:19:19.97Z</time></trkpt><trkpt lat="44.70768991080498" lon="9.376804819248829"><ele>351.6</ele><time>2026-05-03T08:19:20.97Z</time></trkpt><trkpt lat="44.70759733637903" lon="9.3768226041109"><ele>349.4</ele><time>2026-05-03T08:19:21.97Z</time></trkpt><trkpt lat="44.707502323858435" lon="9.376829404302342"><ele>347.2</ele><time>2026-05-03T08:19:22.97Z</time></trkpt><trkpt lat="44.707398598312416" lon="9.37683577031093"><ele>345.0</ele><time>2026-05-03T08:19:23.97Z</time></trkpt><trkpt lat="44.70729640353729" lon="9.376846926799749"><ele>345.0</ele><time>2026-05-03T08:19:24.97Z</time></trkpt><trkpt lat="44.70719916291847" lon="9.376868678851121"><ele>345.0</ele><time>2026-05-03T08:19:25.97Z</time></trkpt><trkpt lat="44.70711652581545" lon="9.376915748536582"><ele>345.0</ele><time>2026-05-03T08:19:26.97Z</time></trkpt><trkpt lat="44.707040159811086" lon="9.376995512338764"><ele>345.0</ele><time>2026-05-03T08:19:27.97Z</time></trkpt><trkpt lat="44.70697139919759" lon="9.377089654002669"><ele>345.0</ele><time>2026-05-03T08:19:28.97Z</time></trkpt><trkpt lat="44.70691816533563" lon="9.377181402779865"><ele>343.8</ele><time>2026-05-03T08:19:29.97Z</time></trkpt><trkpt lat="44.70684832855924" lon="9.377264058148375"><ele>342.6</ele><time>2026-05-03T08:19:30.97Z</time></trkpt><trkpt lat="44.706764445938546" lon="9.377318167827331"><ele>341.4</ele><time>2026-05-03T08:19:31.97Z</time></trkpt><trkpt lat="44.7066667490007" lon="9.37732988199001"><ele>340.2</ele><time>2026-05-03T08:19:32.97Z</time></trkpt><trkpt lat="44.7065587698908" lon="9.377292647044646"><ele>339.0</ele><time>2026-05-03T08:19:33.97Z</time></trkpt><trkpt lat="44.70646017806992" lon="9.377211109806632"><ele>340.4</ele><time>2026-05-03T08:19:34.97Z</time></trkpt><trkpt lat="44.70637614941586" lon="9.377130259012546"><ele>341.79999999999995</ele><time>2026-05-03T08:19:35.97Z</time></trkpt><trkpt lat="44.706293343151884" lon="9.37705162636485"><ele>343.20000000000005</ele><time>2026-05-03T08:19:36.97Z</time></trkpt><trkpt lat="44.706202692161796" lon="9.376967378956957"><ele>344.6</ele><time>2026-05-03T08:19:37.97Z</time></trkpt><trkpt lat="44.706105845941615" lon="9.376872382508873"><ele>346.0</ele><time>2026-05-03T08:19:38.97Z</time></trkpt><trkpt lat="44.70600674320069" lon="9.376770372469949"><ele>346.0</ele><time>2026-05-03T08:19:39.97Z</time></trkpt><trkpt lat="44.70590769641351" lon="9.376656415876884"><ele>346.0</ele><time>2026-05-03T08:19:40.97Z</time></trkpt><trkpt lat="44.7058202066021" lon="9.376523018268683"><ele>346.0</ele><time>2026-05-03T08:19:41.97Z</time></trkpt><trkpt lat="44.705758351806686" lon="9.376348480288774"><ele>346.0</ele><time>2026-05-03T08:19:42.97Z</time></trkpt><trkpt lat="44.70569745660495" lon="9.376176805264494"><ele>347.75</ele><time>2026-05-03T08:19:43.97Z</time></trkpt><trkpt lat="44.705641311869215" lon="9.376020288037804"><ele>349.5</ele><time>2026-05-03T08:19:44.97Z</time></trkpt><trkpt lat="44.70558578155904" lon="9.37585926171997"><ele>351.25</ele><time>2026-05-03T08:19:45.97Z</time></trkpt><trkpt lat="44.705543571530384" lon="9.375692742233364"><ele>353.0</ele><time>2026-05-03T08:19:46.97Z</time></trkpt><trkpt lat="44.70551891338352" lon="9.37551989464442"><ele>353.79999999999995</ele><time>2026-05-03T08:19:47.97Z</time></trkpt><trkpt lat="44.705551502960596" lon="9.375390989862654"><ele>354.6</ele><time>2026-05-03T08:19:48.97Z</time></trkpt><trkpt lat="44.70558435506148" lon="9.375278085245846"><ele>355.4</ele><time>2026-05-03T08:19:49.97Z</time></trkpt><trkpt lat="44.70562405717098" lon="9.3751302976395"><ele>356.20000000000005</ele><time>2026-05-03T08:19:50.97Z</time></trkpt><trkpt lat="44.70567407462436" lon="9.374947102299524"><ele>357.0</ele><time>2026-05-03T08:19:51.97Z</time></trkpt><trkpt lat="44.70572288152041" lon="9.374767849748359"><ele>358.0</ele><time>2026-05-03T08:19:52.97Z</time></trkpt><trkpt lat="44.705774737534654" lon="9.37457739871416"><ele>359.0</ele><time>2026-05-03T08:19:53.97Z</time></trkpt><trkpt lat="44.70581346351472" lon="9.374412323961685"><ele>360.0</ele><time>2026-05-03T08:19:55.97Z</time></trkpt><trkpt lat="44.705841111913585" lon="9.37429127388678"><ele>361.0</ele><time>2026-05-03T08:19:56.97Z</time></trkpt><trkpt lat="44.70586071143257" lon="9.37416011234331"><ele>361.0</ele><time>2026-05-03T08:19:57.97Z</time></trkpt><trkpt lat="44.70586679884623" lon="9.374018016322927"><ele>361.0</ele><time>2026-05-03T08:19:58.97Z</time></trkpt><trkpt lat="44.705844926783314" lon="9.37388069884117"><ele>361.0</ele><time>2026-05-03T08:19:59.97Z</time></trkpt><trkpt lat="44.70579231525207" lon="9.373749968887157"><ele>361.0</ele><time>2026-05-03T08:20:00.97Z</time></trkpt><trkpt lat="44.70571113966178" lon="9.373642543879923"><ele>361.0</ele><time>2026-05-03T08:20:01.97Z</time></trkpt><trkpt lat="44.70563595941203" lon="9.373527263844094"><ele>364.6</ele><time>2026-05-03T08:20:02.969Z</time></trkpt><trkpt lat="44.70555586093706" lon="9.37339974179638"><ele>368.20000000000005</ele><time>2026-05-03T08:20:03.969Z</time></trkpt><trkpt lat="44.705473997289666" lon="9.373273841514255"><ele>371.79999999999995</ele><time>2026-05-03T08:20:04.969Z</time></trkpt><trkpt lat="44.705407009900036" lon="9.373171783849276"><ele>375.4</ele><time>2026-05-03T08:20:05.969Z</time></trkpt><trkpt lat="44.70533486201193" lon="9.373069594983711"><ele>379.0</ele><time>2026-05-03T08:20:06.969Z</time></trkpt><trkpt lat="44.70524844827832" lon="9.372986556413878"><ele>382.25</ele><time>2026-05-03T08:20:07.969Z</time></trkpt><trkpt lat="44.705134893950046" lon="9.37294358768075"><ele>385.5</ele><time>2026-05-03T08:20:08.969Z</time></trkpt><trkpt lat="44.70500265427588" lon="9.372944935507016"><ele>388.75</ele><time>2026-05-03T08:20:09.969Z</time></trkpt><trkpt lat="44.704863718485974" lon="9.372908717104863"><ele>392.0</ele><time>2026-05-03T08:20:10.969Z</time></trkpt><trkpt lat="44.70473475314191" lon="9.372835177836604"><ele>392.0</ele><time>2026-05-03T08:20:11.969Z</time></trkpt><trkpt lat="44.704630345008056" lon="9.372759664477378"><ele>392.0</ele><time>2026-05-03T08:20:12.969Z</time></trkpt><trkpt lat="44.70453009400202" lon="9.372736024696026"><ele>392.0</ele><time>2026-05-03T08:20:13.971Z</time></trkpt><trkpt lat="44.704416927146085" lon="9.372764468806691"><ele>392.0</ele><time>2026-05-03T08:20:14.97Z</time></trkpt><trkpt lat="44.70431202152399" lon="9.372792544495791"><ele>392.0</ele><time>2026-05-03T08:20:15.97Z</time></trkpt><trkpt lat="44.70422692043196" lon="9.37284142673973"><ele>390.8</ele><time>2026-05-03T08:20:16.97Z</time></trkpt><trkpt lat="44.704122299042815" lon="9.37284495689292"><ele>389.6</ele><time>2026-05-03T08:20:17.97Z</time></trkpt><trkpt lat="44.704025579503885" lon="9.372801867223659"><ele>388.40000000000003</ele><time>2026-05-03T08:20:18.97Z</time></trkpt><trkpt lat="44.703944610652" lon="9.372726378622632"><ele>387.20000000000005</ele><time>2026-05-03T08:20:19.97Z</time></trkpt><trkpt lat="44.703845105315736" lon="9.372649785945136"><ele>386.0</ele><time>2026-05-03T08:20:20.97Z</time></trkpt><trkpt lat="44.7037529703072" lon="9.372558148697333"><ele>386.0</ele><time>2026-05-03T08:20:21.97Z</time></trkpt><trkpt lat="44.703662016888785" lon="9.372467439136566"><ele>386.0</ele><time>2026-05-03T08:20:22.97Z</time></trkpt><trkpt lat="44.70359336423506" lon="9.372336006975438"><ele>386.0</ele><time>2026-05-03T08:20:23.97Z</time></trkpt><trkpt lat="44.70351559953674" lon="9.372206782511899"><ele>386.0</ele><time>2026-05-03T08:20:24.97Z</time></trkpt><trkpt lat="44.703454845905966" lon="9.372057322091875"><ele>386.4</ele><time>2026-05-03T08:20:25.97Z</time></trkpt><trkpt lat="44.70339253092895" lon="9.371935532979343"><ele>386.8</ele><time>2026-05-03T08:20:26.97Z</time></trkpt><trkpt lat="44.70332140519431" lon="9.371806645049903"><ele>387.2</ele><time>2026-05-03T08:20:27.97Z</time></trkpt><trkpt lat="44.703250554431484" lon="9.371700339808768"><ele>387.59999999999997</ele><time>2026-05-03T08:20:28.97Z</time></trkpt><trkpt lat="44.7031782913961" lon="9.371618535848945"><ele>388.0</ele><time>2026-05-03T08:20:29.97Z</time></trkpt><trkpt lat="44.70309475737022" lon="9.371536855128719"><ele>388.0</ele><time>2026-05-03T08:20:30.97Z</time></trkpt><trkpt lat="44.70298914746018" lon="9.371475002375414"><ele>388.0</ele><time>2026-05-03T08:20:31.97Z</time></trkpt><trkpt lat="44.70285439659349" lon="9.371443327926915"><ele>388.0</ele><time>2026-05-03T08:20:32.97Z</time></trkpt><trkpt lat="44.70273007750226" lon="9.371382978511944"><ele>388.0</ele><time>2026-05-03T08:20:33.97Z</time></trkpt><trkpt lat="44.70260660710302" lon="9.371327309605839"><ele>390.4</ele><time>2026-05-03T08:20:34.97Z</time></trkpt><trkpt lat="44.70250799912674" lon="9.371298086734557"><ele>392.79999999999995</ele><time>2026-05-03T08:20:35.97Z</time></trkpt><trkpt lat="44.70241051194671" lon="9.371267369180837"><ele>395.2</ele><time>2026-05-03T08:20:36.97Z</time></trkpt><trkpt lat="44.70231425795861" lon="9.371227788945664"><ele>397.6</ele><time>2026-05-03T08:20:37.97Z</time></trkpt><trkpt lat="44.70223147986687" lon="9.371189001072104"><ele>400.0</ele><time>2026-05-03T08:20:38.97Z</time></trkpt><trkpt lat="44.702138972895376" lon="9.371145436064122"><ele>400.0</ele><time>2026-05-03T08:20:39.97Z</time></trkpt><trkpt lat="44.702039588323494" lon="9.371083146752866"><ele>400.0</ele><time>2026-05-03T08:20:40.97Z</time></trkpt><trkpt lat="44.701949409713606" lon="9.370997725567142"><ele>400.0</ele><time>2026-05-03T08:20:41.97Z</time></trkpt><trkpt lat="44.70187417259389" lon="9.370886872102066"><ele>400.0</ele><time>2026-05-03T08:20:42.97Z</time></trkpt><trkpt lat="44.70180984890185" lon="9.370756317556014"><ele>400.0</ele><time>2026-05-03T08:20:43.97Z</time></trkpt><trkpt lat="44.70176480882833" lon="9.370633816990756"><ele>397.0</ele><time>2026-05-03T08:20:44.97Z</time></trkpt><trkpt lat="44.70175697555281" lon="9.370500728390688"><ele>394.0</ele><time>2026-05-03T08:20:45.97Z</time></trkpt><trkpt lat="44.70179607719731" lon="9.370339908179083"><ele>391.0</ele><time>2026-05-03T08:20:46.969Z</time></trkpt><trkpt lat="44.70186966932128" lon="9.370193120141776"><ele>388.0</ele><time>2026-05-03T08:20:47.969Z</time></trkpt><trkpt lat="44.70193048787927" lon="9.37006881686541"><ele>388.0</ele><time>2026-05-03T08:20:48.969Z</time></trkpt><trkpt lat="44.701955590685316" lon="9.369963215996822"><ele>388.0</ele><time>2026-05-03T08:20:49.969Z</time></trkpt><trkpt lat="44.70194987131881" lon="9.369843425830686"><ele>388.0</ele><time>2026-05-03T08:20:50.969Z</time></trkpt><trkpt lat="44.70189725847894" lon="9.369707535148574"><ele>388.0</ele><time>2026-05-03T08:20:51.969Z</time></trkpt><trkpt lat="44.70181558487236" lon="9.369589599263096"><ele>388.0</ele><time>2026-05-03T08:20:52.969Z</time></trkpt><trkpt lat="44.70174155523072" lon="9.369455967535403"><ele>391.79999999999995</ele><time>2026-05-03T08:20:53.969Z</time></trkpt><trkpt lat="44.70172024999418" lon="9.369296705751626"><ele>395.6</ele><time>2026-05-03T08:20:54.969Z</time></trkpt><trkpt lat="44.70169844439795" lon="9.369138496639838"><ele>399.4</ele><time>2026-05-03T08:20:55.969Z</time></trkpt><trkpt lat="44.70169340494785" lon="9.36900929087156"><ele>403.20000000000005</ele><time>2026-05-03T08:20:56.969Z</time></trkpt><trkpt lat="44.70165893270017" lon="9.368900685257904"><ele>407.0</ele><time>2026-05-03T08:20:57.969Z</time></trkpt><trkpt lat="44.70159341531106" lon="9.368809148504667"><ele>412.5</ele><time>2026-05-03T08:20:58.969Z</time></trkpt><trkpt lat="44.70150382655108" lon="9.368721828768598"><ele>418.0</ele><time>2026-05-03T08:20:59.969Z</time></trkpt><trkpt lat="44.70141314856353" lon="9.368636734004548"><ele>423.5</ele><time>2026-05-03T08:21:00.969Z</time></trkpt><trkpt lat="44.70134600784678" lon="9.368504289209344"><ele>429.0</ele><time>2026-05-03T08:21:01.969Z</time></trkpt><trkpt lat="44.701309522218914" lon="9.368338739374252"><ele>429.0</ele><time>2026-05-03T08:21:02.969Z</time></trkpt><trkpt lat="44.701255481551364" lon="9.368182036043038"><ele>429.0</ele><time>2026-05-03T08:21:03.969Z</time></trkpt><trkpt lat="44.70119914525493" lon="9.368044869529054"><ele>429.0</ele><time>2026-05-03T08:21:04.969Z</time></trkpt><trkpt lat="44.701151528096766" lon="9.36790938757815"><ele>429.0</ele><time>2026-05-03T08:21:05.969Z</time></trkpt><trkpt lat="44.70107093530281" lon="9.367811904723856"><ele>425.5</ele><time>2026-05-03T08:21:06.969Z</time></trkpt><trkpt lat="44.70097052300967" lon="9.367700214694297"><ele>422.0</ele><time>2026-05-03T08:21:07.969Z</time></trkpt><trkpt lat="44.7008496519348" lon="9.367592824258438"><ele>418.5</ele><time>2026-05-03T08:21:08.969Z</time></trkpt><trkpt lat="44.70074474593623" lon="9.367494813977771"><ele>415.0</ele><time>2026-05-03T08:21:09.969Z</time></trkpt><trkpt lat="44.70065656649256" lon="9.367409313651226"><ele>415.0</ele><time>2026-05-03T08:21:10.969Z</time></trkpt><trkpt lat="44.70058030178943" lon="9.367319465048974"><ele>415.0</ele><time>2026-05-03T08:21:11.969Z</time></trkpt><trkpt lat="44.700521998277864" lon="9.367204174711802"><ele>415.0</ele><time>2026-05-03T08:21:12.969Z</time></trkpt><trkpt lat="44.7004805064048" lon="9.367077935377965"><ele>415.0</ele><time>2026-05-03T08:21:13.969Z</time></trkpt><trkpt lat="44.7004586206458" lon="9.366938479133015"><ele>415.0</ele><time>2026-05-03T08:21:14.969Z</time></trkpt><trkpt lat="44.70048370007332" lon="9.366785273123751"><ele>419.0</ele><time>2026-05-03T08:21:15.969Z</time></trkpt><trkpt lat="44.700524600616305" lon="9.366646765144113"><ele>423.0</ele><time>2026-05-03T08:21:16.969Z</time></trkpt><trkpt lat="44.70055700484686" lon="9.366543437827318"><ele>427.0</ele><time>2026-05-03T08:21:17.969Z</time></trkpt><trkpt lat="44.700560245737385" lon="9.366445016649692"><ele>431.0</ele><time>2026-05-03T08:21:18.969Z</time></trkpt><trkpt lat="44.700515826820606" lon="9.366343855026827"><ele>435.0</ele><time>2026-05-03T08:21:19.969Z</time></trkpt><trkpt lat="44.70043398780022" lon="9.366235747849172"><ele>436.2</ele><time>2026-05-03T08:21:20.969Z</time></trkpt><trkpt lat="44.70034692108227" lon="9.366151485465947"><ele>437.4</ele><time>2026-05-03T08:21:21.969Z</time></trkpt><trkpt lat="44.700255339188715" lon="9.366108984131614"><ele>438.6</ele><time>2026-05-03T08:21:22.969Z</time></trkpt><trkpt lat="44.70014187170035" lon="9.36613408096393"><ele>439.8</ele><time>2026-05-03T08:21:23.969Z</time></trkpt><trkpt lat="44.70001773418668" lon="9.366183564059531"><ele>441.0</ele><time>2026-05-03T08:21:24.969Z</time></trkpt><trkpt lat="44.699884221405135" lon="9.366192974984841"><ele>441.0</ele><time>2026-05-03T08:21:25.969Z</time></trkpt><trkpt lat="44.69977795525331" lon="9.366213218600972"><ele>441.0</ele><time>2026-05-03T08:21:26.969Z</time></trkpt><trkpt lat="44.699681058616015" lon="9.366238423591009"><ele>441.0</ele><time>2026-05-03T08:21:27.969Z</time></trkpt><trkpt lat="44.69958528526571" lon="9.366265484637433"><ele>441.0</ele><time>2026-05-03T08:21:28.969Z</time></trkpt><trkpt lat="44.69948784954314" lon="9.366298899766758"><ele>441.0</ele><time>2026-05-03T08:21:29.969Z</time></trkpt><trkpt lat="44.6994010140996" lon="9.366321612579675"><ele>437.4</ele><time>2026-05-03T08:21:30.969Z</time></trkpt><trkpt lat="44.699303793803665" lon="9.3663110297453"><ele>433.8</ele><time>2026-05-03T08:21:31.969Z</time></trkpt><trkpt lat="44.69922243805767" lon="9.366240752779108"><ele>430.2</ele><time>2026-05-03T08:21:32.969Z</time></trkpt><trkpt lat="44.69913589884109" lon="9.36612209827533"><ele>426.59999999999997</ele><time>2026-05-03T08:21:33.969Z</time></trkpt><trkpt lat="44.69905268592606" lon="9.366043169579585"><ele>423.0</ele><time>2026-05-03T08:21:34.969Z</time></trkpt><trkpt lat="44.698970784211284" lon="9.366000827690678"><ele>423.0</ele><time>2026-05-03T08:21:35.969Z</time></trkpt><trkpt lat="44.69890945296211" lon="9.36595229967712"><ele>423.0</ele><time>2026-05-03T08:21:36.969Z</time></trkpt><trkpt lat="44.69887253062136" lon="9.365865211193665"><ele>423.0</ele><time>2026-05-03T08:21:37.969Z</time></trkpt><trkpt lat="44.69886160514455" lon="9.365749716301835"><ele>423.0</ele><time>2026-05-03T08:21:38.969Z</time></trkpt><trkpt lat="44.69888836826685" lon="9.365596674666724"><ele>423.0</ele><time>2026-05-03T08:21:39.969Z</time></trkpt><trkpt lat="44.6988976053502" lon="9.365450229407031"><ele>423.0</ele><time>2026-05-03T08:21:40.969Z</time></trkpt><trkpt lat="44.69885534649572" lon="9.365317799838317"><ele>421.79999999999995</ele><time>2026-05-03T08:21:41.969Z</time></trkpt><trkpt lat="44.69880272347178" lon="9.365200558464604"><ele>420.6</ele><time>2026-05-03T08:21:42.969Z</time></trkpt><trkpt lat="44.698749177793644" lon="9.365081311488288"><ele>419.4</ele><time>2026-05-03T08:21:43.969Z</time></trkpt><trkpt lat="44.69869442120432" lon="9.364962646309122"><ele>418.20000000000005</ele><time>2026-05-03T08:21:44.969Z</time></trkpt><trkpt lat="44.698630338525824" lon="9.364867060093138"><ele>417.0</ele><time>2026-05-03T08:21:45.969Z</time></trkpt><trkpt lat="44.69855585530886" lon="9.364810463264549"><ele>417.0</ele><time>2026-05-03T08:21:46.969Z</time></trkpt><trkpt lat="44.69846890797262" lon="9.364783953570647"><ele>417.0</ele><time>2026-05-03T08:21:47.969Z</time></trkpt><trkpt lat="44.698373855440906" lon="9.364777854967613"><ele>417.0</ele><time>2026-05-03T08:21:48.969Z</time></trkpt><trkpt lat="44.69827787741167" lon="9.364772566651567"><ele>417.0</ele><time>2026-05-03T08:21:49.969Z</time></trkpt><trkpt lat="44.698190089369135" lon="9.364735389890708"><ele>417.0</ele><time>2026-05-03T08:21:50.969Z</time></trkpt><trkpt lat="44.69809498072276" lon="9.36465106938686"><ele>426.0</ele><time>2026-05-03T08:21:51.969Z</time></trkpt><trkpt lat="44.69801043033921" lon="9.364539802684927"><ele>435.0</ele><time>2026-05-03T08:21:52.969Z</time></trkpt><trkpt lat="44.69794812695195" lon="9.364401920757873"><ele>444.00000000000006</ele><time>2026-05-03T08:21:53.968Z</time></trkpt><trkpt lat="44.697898427422246" lon="9.364255557348178"><ele>453.0</ele><time>2026-05-03T08:21:54.968Z</time></trkpt><trkpt lat="44.697868445245206" lon="9.36412628520436"><ele>462.0</ele><time>2026-05-03T08:21:55.968Z</time></trkpt><trkpt lat="44.69781651998252" lon="9.364051933505436"><ele>456.6</ele><time>2026-05-03T08:21:56.968Z</time></trkpt><trkpt lat="44.69773763865036" lon="9.36400910599568"><ele>451.20000000000005</ele><time>2026-05-03T08:21:57.968Z</time></trkpt><trkpt lat="44.69762653889852" lon="9.363996986890294"><ele>445.8</ele><time>2026-05-03T08:21:58.968Z</time></trkpt><trkpt lat="44.69749190885667" lon="9.364009678570389"><ele>440.4</ele><time>2026-05-03T08:21:59.968Z</time></trkpt><trkpt lat="44.697376843396015" lon="9.36399986636132"><ele>435.0</ele><time>2026-05-03T08:22:00.968Z</time></trkpt><trkpt lat="44.69728621033148" lon="9.363986892887173"><ele>435.0</ele><time>2026-05-03T08:22:01.968Z</time></trkpt><trkpt lat="44.69719828552492" lon="9.363963699075114"><ele>435.0</ele><time>2026-05-03T08:22:02.968Z</time></trkpt><trkpt lat="44.69710896832699" lon="9.36393262033136"><ele>435.0</ele><time>2026-05-03T08:22:03.968Z</time></trkpt><trkpt lat="44.69701908008801" lon="9.363940213765424"><ele>435.0</ele><time>2026-05-03T08:22:04.968Z</time></trkpt><trkpt lat="44.69692225186724" lon="9.36399702867874"><ele>435.0</ele><time>2026-05-03T08:22:05.968Z</time></trkpt><trkpt lat="44.69683470701948" lon="9.364037981131428"><ele>437.25</ele><time>2026-05-03T08:22:06.968Z</time></trkpt><trkpt lat="44.696730155303186" lon="9.36404942142668"><ele>439.5</ele><time>2026-05-03T08:22:07.968Z</time></trkpt><trkpt lat="44.696623084909376" lon="9.364027935087298"><ele>441.75</ele><time>2026-05-03T08:22:08.968Z</time></trkpt><trkpt lat="44.696507738703765" lon="9.364020355476708"><ele>444.0</ele><time>2026-05-03T08:22:09.968Z</time></trkpt><trkpt lat="44.696377460211615" lon="9.364011166879036"><ele>444.0</ele><time>2026-05-03T08:22:10.968Z</time></trkpt><trkpt lat="44.696269231023415" lon="9.363965445387777"><ele>444.0</ele><time>2026-05-03T08:22:11.968Z</time></trkpt><trkpt lat="44.69618165818486" lon="9.363951672156011"><ele>444.0</ele><time>2026-05-03T08:22:12.968Z</time></trkpt><trkpt lat="44.69610423878533" lon="9.363943628850674"><ele>444.0</ele><time>2026-05-03T08:22:13.968Z</time></trkpt><trkpt lat="44.696016852055905" lon="9.363922053176253"><ele>444.0</ele><time>2026-05-03T08:22:14.968Z</time></trkpt><trkpt lat="44.695912558222396" lon="9.363871621787776"><ele>453.75</ele><time>2026-05-03T08:22:15.968Z</time></trkpt><trkpt lat="44.69579677028191" lon="9.36381291931375"><ele>463.5</ele><time>2026-05-03T08:22:16.968Z</time></trkpt><trkpt lat="44.69567958461617" lon="9.36378108156171"><ele>473.25</ele><time>2026-05-03T08:22:17.968Z</time></trkpt><trkpt lat="44.695548114809526" lon="9.363798292329298"><ele>483.0</ele><time>2026-05-03T08:22:18.968Z</time></trkpt><trkpt lat="44.695390412791625" lon="9.363835572091673"><ele>479.75</ele><time>2026-05-03T08:22:19.969Z</time></trkpt><trkpt lat="44.695236272335976" lon="9.363855007085885"><ele>476.5</ele><time>2026-05-03T08:22:20.97Z</time></trkpt><trkpt lat="44.69509698060227" lon="9.363889184946881"><ele>473.25</ele><time>2026-05-03T08:22:21.97Z</time></trkpt><trkpt lat="44.69497427251632" lon="9.363911384875223"><ele>470.0</ele><time>2026-05-03T08:22:22.969Z</time></trkpt><trkpt lat="44.69485201347425" lon="9.363938462273085"><ele>465.2</ele><time>2026-05-03T08:22:23.97Z</time></trkpt><trkpt lat="44.6947385431524" lon="9.36395820836165"><ele>460.4</ele><time>2026-05-03T08:22:24.97Z</time></trkpt><trkpt lat="44.694636831867776" lon="9.363968586817272"><ele>455.6</ele><time>2026-05-03T08:22:25.969Z</time></trkpt><trkpt lat="44.69454560666426" lon="9.36398867874915"><ele>450.8</ele><time>2026-05-03T08:22:26.969Z</time></trkpt><trkpt lat="44.6944632279784" lon="9.36399274519535"><ele>446.0</ele><time>2026-05-03T08:22:27.969Z</time></trkpt><trkpt lat="44.69438743462749" lon="9.363982567022274"><ele>444.8</ele><time>2026-05-03T08:22:28.969Z</time></trkpt><trkpt lat="44.69431453768253" lon="9.363878219952662"><ele>443.6</ele><time>2026-05-03T08:22:30.97Z</time></trkpt><trkpt lat="44.694378906649824" lon="9.363722570131998"><ele>442.4</ele><time>2026-05-03T08:22:32.969Z</time></trkpt><trkpt lat="44.694447458616914" lon="9.363681148109263"><ele>441.2</ele><time>2026-05-03T08:22:33.969Z</time></trkpt><trkpt lat="44.6945257079973" lon="9.363654855067843"><ele>440.0</ele><time>2026-05-03T08:22:34.969Z</time></trkpt><trkpt lat="44.69458859164021" lon="9.363610007343926"><ele>443.49999999999994</ele><time>2026-05-03T08:22:35.969Z</time></trkpt><trkpt lat="44.694634517517834" lon="9.363537151549663"><ele>447.0</ele><time>2026-05-03T08:22:36.969Z</time></trkpt><trkpt lat="44.6946594756882" lon="9.363431256407509"><ele>450.5</ele><time>2026-05-03T08:22:37.969Z</time></trkpt><trkpt lat="44.6946589064274" lon="9.363302898108872"><ele>454.0</ele><time>2026-05-03T08:22:38.969Z</time></trkpt><trkpt lat="44.69464028236563" lon="9.36316556114862"><ele>457.49999999999994</ele><time>2026-05-03T08:22:39.969Z</time></trkpt><trkpt lat="44.694617663270364" lon="9.363017894377542"><ele>461.0</ele><time>2026-05-03T08:22:40.969Z</time></trkpt><trkpt lat="44.69462671550562" lon="9.36287153514628"><ele>461.0</ele><time>2026-05-03T08:22:41.969Z</time></trkpt><trkpt lat="44.69466746772549" lon="9.362732302314573"><ele>461.0</ele><time>2026-05-03T08:22:42.969Z</time></trkpt><trkpt lat="44.69473872709997" lon="9.362605360067532"><ele>461.0</ele><time>2026-05-03T08:22:43.969Z</time></trkpt><trkpt lat="44.69481526518759" lon="9.362481866480222"><ele>461.0</ele><time>2026-05-03T08:22:44.969Z</time></trkpt><trkpt lat="44.69488549860901" lon="9.362376467180443"><ele>461.0</ele><time>2026-05-03T08:22:45.969Z</time></trkpt><trkpt lat="44.6949646047731" lon="9.362291115778648"><ele>461.0</ele><time>2026-05-03T08:22:46.969Z</time></trkpt><trkpt lat="44.69506123455706" lon="9.362232263800571"><ele>461.0</ele><time>2026-05-03T08:22:47.969Z</time></trkpt><trkpt lat="44.695160084484414" lon="9.362181638582056"><ele>461.0</ele><time>2026-05-03T08:22:48.969Z</time></trkpt><trkpt lat="44.695259212879016" lon="9.362134143739032"><ele>461.0</ele><time>2026-05-03T08:22:49.969Z</time></trkpt><trkpt lat="44.695343912109365" lon="9.362072139853064"><ele>461.0</ele><time>2026-05-03T08:22:50.969Z</time></trkpt><trkpt lat="44.695402794484096" lon="9.361959861496272"><ele>464.4</ele><time>2026-05-03T08:22:51.969Z</time></trkpt><trkpt lat="44.695432481087565" lon="9.361833478374956"><ele>467.8</ele><time>2026-05-03T08:22:52.969Z</time></trkpt><trkpt lat="44.695430829558525" lon="9.361692698899637"><ele>471.19999999999993</ele><time>2026-05-03T08:22:53.969Z</time></trkpt><trkpt lat="44.69540651754811" lon="9.361540727991908"><ele>474.59999999999997</ele><time>2026-05-03T08:22:54.969Z</time></trkpt><trkpt lat="44.695371903562" lon="9.361398163029804"><ele>478.0</ele><time>2026-05-03T08:22:55.969Z</time></trkpt><trkpt lat="44.695344879804296" lon="9.361259183296893"><ele>478.0</ele><time>2026-05-03T08:22:56.969Z</time></trkpt><trkpt lat="44.695330745370875" lon="9.361122830968284"><ele>478.0</ele><time>2026-05-03T08:22:57.969Z</time></trkpt><trkpt lat="44.69534215544805" lon="9.360980462209065"><ele>478.0</ele><time>2026-05-03T08:22:58.969Z</time></trkpt><trkpt lat="44.69536734348029" lon="9.360811287935462"><ele>478.0</ele><time>2026-05-03T08:22:59.969Z</time></trkpt><trkpt lat="44.69540352179656" lon="9.360626424244781"><ele>478.5</ele><time>2026-05-03T08:23:00.969Z</time></trkpt><trkpt lat="44.695450591714064" lon="9.360442046509503"><ele>479.0</ele><time>2026-05-03T08:23:01.969Z</time></trkpt><trkpt lat="44.69549513644288" lon="9.360267971235126"><ele>479.5</ele><time>2026-05-03T08:23:02.969Z</time></trkpt><trkpt lat="44.69554295640716" lon="9.360112603983824"><ele>480.0</ele><time>2026-05-03T08:23:03.969Z</time></trkpt><trkpt lat="44.69558657906595" lon="9.35993228352788"><ele>480.0</ele><time>2026-05-03T08:23:04.969Z</time></trkpt><trkpt lat="44.69561354037108" lon="9.35977396865864"><ele>480.0</ele><time>2026-05-03T08:23:05.969Z</time></trkpt><trkpt lat="44.69562224655207" lon="9.359629599293829"><ele>480.0</ele><time>2026-05-03T08:23:06.969Z</time></trkpt><trkpt lat="44.69561713730251" lon="9.3594723938308"><ele>480.0</ele><time>2026-05-03T08:23:07.969Z</time></trkpt><trkpt lat="44.69558185725892" lon="9.35932118950879"><ele>480.0</ele><time>2026-05-03T08:23:08.969Z</time></trkpt><trkpt lat="44.695521080898374" lon="9.3592038940683"><ele>480.5</ele><time>2026-05-03T08:23:09.969Z</time></trkpt><trkpt lat="44.6954384126428" lon="9.359119053214032"><ele>481.0</ele><time>2026-05-03T08:23:10.969Z</time></trkpt><trkpt lat="44.69533474821914" lon="9.359067658052327"><ele>481.5</ele><time>2026-05-03T08:23:11.969Z</time></trkpt><trkpt lat="44.69521375821447" lon="9.35908469160227"><ele>482.0</ele><time>2026-05-03T08:23:12.969Z</time></trkpt><trkpt lat="44.695084531408604" lon="9.359146114084956"><ele>479.75</ele><time>2026-05-03T08:23:13.969Z</time></trkpt><trkpt lat="44.6949544198614" lon="9.3592046557968"><ele>477.5</ele><time>2026-05-03T08:23:14.969Z</time></trkpt><trkpt lat="44.69483877241202" lon="9.359238180615828"><ele>475.25</ele><time>2026-05-03T08:23:15.969Z</time></trkpt><trkpt lat="44.694733106829766" lon="9.359264651840988"><ele>473.0</ele><time>2026-05-03T08:23:16.969Z</time></trkpt><trkpt lat="44.694628360478795" lon="9.359290065030923"><ele>473.0</ele><time>2026-05-03T08:23:17.969Z</time></trkpt><trkpt lat="44.694534989692386" lon="9.359286811435304"><ele>472.99999999999994</ele><time>2026-05-03T08:23:18.969Z</time></trkpt><trkpt lat="44.69445071954225" lon="9.359254776876563"><ele>472.99999999999994</ele><time>2026-05-03T08:23:19.969Z</time></trkpt><trkpt lat="44.69439142707572" lon="9.359172828792339"><ele>473.0</ele><time>2026-05-03T08:23:20.968Z</time></trkpt><trkpt lat="44.69433780024415" lon="9.359051915589363"><ele>473.0</ele><time>2026-05-03T08:23:21.968Z</time></trkpt><trkpt lat="44.694267935311764" lon="9.35891813518622"><ele>471.79999999999995</ele><time>2026-05-03T08:23:22.968Z</time></trkpt><trkpt lat="44.69419647377561" lon="9.35880293423396"><ele>470.59999999999997</ele><time>2026-05-03T08:23:23.968Z</time></trkpt><trkpt lat="44.69413544873455" lon="9.358682354206815"><ele>469.40000000000003</ele><time>2026-05-03T08:23:24.968Z</time></trkpt><trkpt lat="44.69408347612493" lon="9.358574252446504"><ele>468.20000000000005</ele><time>2026-05-03T08:23:25.968Z</time></trkpt><trkpt lat="44.69403425548618" lon="9.358477842954116"><ele>467.0</ele><time>2026-05-03T08:23:26.968Z</time></trkpt><trkpt lat="44.693998210262244" lon="9.35836972735588"><ele>467.0</ele><time>2026-05-03T08:23:27.968Z</time></trkpt><trkpt lat="44.693990753594335" lon="9.358237607752812"><ele>467.00000000000006</ele><time>2026-05-03T08:23:28.968Z</time></trkpt><trkpt lat="44.69403453571304" lon="9.35809672210552"><ele>467.00000000000006</ele><time>2026-05-03T08:23:29.968Z</time></trkpt><trkpt lat="44.694094833484044" lon="9.357972383117211"><ele>467.0</ele><time>2026-05-03T08:23:30.968Z</time></trkpt><trkpt lat="44.69416801676852" lon="9.35786065769391"><ele>467.0</ele><time>2026-05-03T08:23:31.968Z</time></trkpt><trkpt lat="44.69425649536993" lon="9.357761449518014"><ele>470.8</ele><time>2026-05-03T08:23:32.968Z</time></trkpt><trkpt lat="44.694349856208" lon="9.357684153906858"><ele>474.6</ele><time>2026-05-03T08:23:33.968Z</time></trkpt><trkpt lat="44.69443877655778" lon="9.357621621745595"><ele>478.40000000000003</ele><time>2026-05-03T08:23:34.968Z</time></trkpt><trkpt lat="44.69453086036901" lon="9.357561707097958"><ele>482.20000000000005</ele><time>2026-05-03T08:23:35.968Z</time></trkpt><trkpt lat="44.694609469416456" lon="9.357477845052319"><ele>486.0</ele><time>2026-05-03T08:23:36.968Z</time></trkpt><trkpt lat="44.69467866327917" lon="9.357375804953957"><ele>486.0</ele><time>2026-05-03T08:23:37.968Z</time></trkpt><trkpt lat="44.69473205646953" lon="9.357219891251079"><ele>486.0</ele><time>2026-05-03T08:23:38.968Z</time></trkpt><trkpt lat="44.69477287900029" lon="9.357049748285851"><ele>486.0</ele><time>2026-05-03T08:23:39.968Z</time></trkpt><trkpt lat="44.69481819685538" lon="9.356856305852414"><ele>486.0</ele><time>2026-05-03T08:23:40.968Z</time></trkpt><trkpt lat="44.69486110468128" lon="9.356674217172882"><ele>482.75</ele><time>2026-05-03T08:23:41.968Z</time></trkpt><trkpt lat="44.694897371729965" lon="9.356506007221041"><ele>479.5</ele><time>2026-05-03T08:23:42.968Z</time></trkpt><trkpt lat="44.69493332883015" lon="9.356345467624477"><ele>476.25</ele><time>2026-05-03T08:23:43.968Z</time></trkpt><trkpt lat="44.69496370109648" lon="9.356194092438232"><ele>473.0</ele><time>2026-05-03T08:23:44.968Z</time></trkpt><trkpt lat="44.69497625978983" lon="9.356060793781825"><ele>472.49999999999994</ele><time>2026-05-03T08:23:45.968Z</time></trkpt><trkpt lat="44.69494836265754" lon="9.355939845925267"><ele>472.0</ele><time>2026-05-03T08:23:46.968Z</time></trkpt><trkpt lat="44.69489102913006" lon="9.35584536212385"><ele>471.5</ele><time>2026-05-03T08:23:47.968Z</time></trkpt><trkpt lat="44.694825815677504" lon="9.355750688462345"><ele>471.0</ele><time>2026-05-03T08:23:48.968Z</time></trkpt><trkpt lat="44.694784651133986" lon="9.355644766719955"><ele>470.49999999999994</ele><time>2026-05-03T08:23:49.968Z</time></trkpt><trkpt lat="44.69477207069616" lon="9.355523365313346"><ele>470.0</ele><time>2026-05-03T08:23:50.968Z</time></trkpt><trkpt lat="44.694785692402064" lon="9.355377892402995"><ele>469.4</ele><time>2026-05-03T08:23:51.968Z</time></trkpt><trkpt lat="44.69481678201147" lon="9.355216597900814"><ele>468.8</ele><time>2026-05-03T08:23:52.968Z</time></trkpt><trkpt lat="44.6948468469817" lon="9.355060277259323"><ele>468.20000000000005</ele><time>2026-05-03T08:23:53.968Z</time></trkpt><trkpt lat="44.6948673255408" lon="9.354920936632894"><ele>467.6</ele><time>2026-05-03T08:23:54.968Z</time></trkpt><trkpt lat="44.69488884921822" lon="9.354788243141003"><ele>467.0</ele><time>2026-05-03T08:23:55.968Z</time></trkpt><trkpt lat="44.69489871387899" lon="9.354649755751648"><ele>469.20000000000005</ele><time>2026-05-03T08:23:56.968Z</time></trkpt><trkpt lat="44.694867559444916" lon="9.35451905109842"><ele>471.40000000000003</ele><time>2026-05-03T08:23:57.968Z</time></trkpt><trkpt lat="44.69481706430622" lon="9.354407658128869"><ele>473.59999999999997</ele><time>2026-05-03T08:23:58.968Z</time></trkpt><trkpt lat="44.69475966468413" lon="9.354290684928422"><ele>475.79999999999995</ele><time>2026-05-03T08:23:59.968Z</time></trkpt><trkpt lat="44.694717181865094" lon="9.354160288450766"><ele>478.0</ele><time>2026-05-03T08:24:00.968Z</time></trkpt><trkpt lat="44.69470165888747" lon="9.354026996936943"><ele>478.00000000000006</ele><time>2026-05-03T08:24:01.968Z</time></trkpt><trkpt lat="44.69469480581908" lon="9.353891471900662"><ele>478.0</ele><time>2026-05-03T08:24:02.968Z</time></trkpt><trkpt lat="44.69470454948493" lon="9.35375803846025"><ele>478.0</ele><time>2026-05-03T08:24:03.968Z</time></trkpt><trkpt lat="44.694705324494855" lon="9.353637001234404"><ele>478.0</ele><time>2026-05-03T08:24:04.968Z</time></trkpt><trkpt lat="44.694672667125296" lon="9.35353348796175"><ele>478.00000000000006</ele><time>2026-05-03T08:24:05.968Z</time></trkpt><trkpt lat="44.69461475985198" lon="9.353453013667133"><ele>478.0</ele><time>2026-05-03T08:24:06.968Z</time></trkpt><trkpt lat="44.694526498196254" lon="9.353393424054369"><ele>475.0</ele><time>2026-05-03T08:24:07.968Z</time></trkpt><trkpt lat="44.69441211836102" lon="9.353404795897355"><ele>471.99999999999994</ele><time>2026-05-03T08:24:08.968Z</time></trkpt><trkpt lat="44.69431180332638" lon="9.353429526173423"><ele>468.99999999999994</ele><time>2026-05-03T08:24:09.968Z</time></trkpt><trkpt lat="44.69421361195685" lon="9.353453167348489"><ele>466.0</ele><time>2026-05-03T08:24:10.968Z</time></trkpt><trkpt lat="44.694122373148" lon="9.35348677773159"><ele>463.0</ele><time>2026-05-03T08:24:11.968Z</time></trkpt><trkpt lat="44.694028585889576" lon="9.35348360308466"><ele>463.00000000000006</ele><time>2026-05-03T08:24:12.968Z</time></trkpt><trkpt lat="44.69394812972846" lon="9.353447641416883"><ele>463.0</ele><time>2026-05-03T08:24:13.968Z</time></trkpt><trkpt lat="44.69389027756765" lon="9.353367072562559"><ele>463.0</ele><time>2026-05-03T08:24:14.968Z</time></trkpt><trkpt lat="44.693833723675425" lon="9.353268902616433"><ele>463.0</ele><time>2026-05-03T08:24:15.968Z</time></trkpt><trkpt lat="44.6937541768948" lon="9.353217914713042"><ele>463.00000000000006</ele><time>2026-05-03T08:24:16.968Z</time></trkpt><trkpt lat="44.69367208428054" lon="9.35321022322295"><ele>463.0</ele><time>2026-05-03T08:24:17.968Z</time></trkpt><trkpt lat="44.69357449117794" lon="9.35322144318644"><ele>459.6666666666667</ele><time>2026-05-03T08:24:18.968Z</time></trkpt><trkpt lat="44.69348268721231" lon="9.353219145108875"><ele>456.33333333333337</ele><time>2026-05-03T08:24:19.968Z</time></trkpt><trkpt lat="44.693401149745604" lon="9.353183191797184"><ele>453.0</ele><time>2026-05-03T08:24:20.968Z</time></trkpt><trkpt lat="44.69334043892052" lon="9.353110836193757"><ele>449.66666666666663</ele><time>2026-05-03T08:24:21.968Z</time></trkpt><trkpt lat="44.69329842925247" lon="9.352999812219958"><ele>446.3333333333333</ele><time>2026-05-03T08:24:22.968Z</time></trkpt><trkpt lat="44.693300501323435" lon="9.352865832367034"><ele>443.0</ele><time>2026-05-03T08:24:23.968Z</time></trkpt><trkpt lat="44.69333675774978" lon="9.352726804777232"><ele>443.0</ele><time>2026-05-03T08:24:24.968Z</time></trkpt><trkpt lat="44.693366976597794" lon="9.352579441563456"><ele>442.99999999999994</ele><time>2026-05-03T08:24:25.968Z</time></trkpt><trkpt lat="44.69337130387083" lon="9.352452700778182"><ele>442.99999999999994</ele><time>2026-05-03T08:24:26.968Z</time></trkpt><trkpt lat="44.69334545683983" lon="9.352317762189529"><ele>443.0</ele><time>2026-05-03T08:24:27.968Z</time></trkpt><trkpt lat="44.6932911098937" lon="9.352178183054887"><ele>443.0</ele><time>2026-05-03T08:24:28.969Z</time></trkpt><trkpt lat="44.69321981858373" lon="9.352046049036723"><ele>449.0</ele><time>2026-05-03T08:24:29.968Z</time></trkpt><trkpt lat="44.69316206464084" lon="9.351905358606807"><ele>455.0</ele><time>2026-05-03T08:24:30.968Z</time></trkpt><trkpt lat="44.693101697032496" lon="9.351762840244701"><ele>461.0</ele><time>2026-05-03T08:24:31.968Z</time></trkpt><trkpt lat="44.69302182024505" lon="9.35161698013095"><ele>467.0</ele><time>2026-05-03T08:24:32.968Z</time></trkpt><trkpt lat="44.69296840954921" lon="9.35147912859993"><ele>470.20000000000005</ele><time>2026-05-03T08:24:33.968Z</time></trkpt><trkpt lat="44.69294448909653" lon="9.351335464991807"><ele>473.40000000000003</ele><time>2026-05-03T08:24:34.968Z</time></trkpt><trkpt lat="44.69292442913704" lon="9.351198536857693"><ele>476.59999999999997</ele><time>2026-05-03T08:24:35.968Z</time></trkpt><trkpt lat="44.692876593417935" lon="9.351056960976198"><ele>479.79999999999995</ele><time>2026-05-03T08:24:36.968Z</time></trkpt><trkpt lat="44.692783739625945" lon="9.350944238602171"><ele>483.0</ele><time>2026-05-03T08:24:37.968Z</time></trkpt><trkpt lat="44.69268799031415" lon="9.350833058893937"><ele>479.25</ele><time>2026-05-03T08:24:38.968Z</time></trkpt><trkpt lat="44.692604959105765" lon="9.35072418506834"><ele>475.5</ele><time>2026-05-03T08:24:39.968Z</time></trkpt><trkpt lat="44.69252297680469" lon="9.350599357898698"><ele>471.75</ele><time>2026-05-03T08:24:40.968Z</time></trkpt><trkpt lat="44.6924531989111" lon="9.350465564593526"><ele>468.0</ele><time>2026-05-03T08:24:41.968Z</time></trkpt><trkpt lat="44.69240108007413" lon="9.350317423339257"><ele>468.0</ele><time>2026-05-03T08:24:42.968Z</time></trkpt><trkpt lat="44.692341759895946" lon="9.350173468903899"><ele>467.99999999999994</ele><time>2026-05-03T08:24:43.968Z</time></trkpt><trkpt lat="44.692258878926815" lon="9.350057522521734"><ele>467.99999999999994</ele><time>2026-05-03T08:24:44.968Z</time></trkpt><trkpt lat="44.692172351048576" lon="9.349973425471472"><ele>468.0</ele><time>2026-05-03T08:24:45.968Z</time></trkpt><trkpt lat="44.69210506442263" lon="9.349872490320209"><ele>468.0</ele><time>2026-05-03T08:24:46.968Z</time></trkpt><trkpt lat="44.69206081266075" lon="9.349749153173757"><ele>472.0</ele><time>2026-05-03T08:24:47.968Z</time></trkpt><trkpt lat="44.69203236933653" lon="9.349622081807567"><ele>475.99999999999994</ele><time>2026-05-03T08:24:48.968Z</time></trkpt><trkpt lat="44.69198953830613" lon="9.34952282868908"><ele>479.99999999999994</ele><time>2026-05-03T08:24:49.968Z</time></trkpt><trkpt lat="44.69191303345387" lon="9.349441474868701"><ele>484.0</ele><time>2026-05-03T08:24:50.968Z</time></trkpt><trkpt lat="44.69182137374104" lon="9.34938814689518"><ele>488.0</ele><time>2026-05-03T08:24:51.968Z</time></trkpt><trkpt lat="44.69172375046519" lon="9.349327208782354"><ele>477.4</ele><time>2026-05-03T08:24:52.968Z</time></trkpt><trkpt lat="44.69164070832152" lon="9.34923345534286"><ele>466.79999999999995</ele><time>2026-05-03T08:24:53.968Z</time></trkpt><trkpt lat="44.69158560627011" lon="9.349119482701164"><ele>456.2</ele><time>2026-05-03T08:24:54.968Z</time></trkpt><trkpt lat="44.691556314853344" lon="9.348997023208879"><ele>445.6</ele><time>2026-05-03T08:24:55.968Z</time></trkpt><trkpt lat="44.69156760999401" lon="9.348860518128896"><ele>435.0</ele><time>2026-05-03T08:24:56.968Z</time></trkpt><trkpt lat="44.6916236064515" lon="9.348737779546163"><ele>435.0</ele><time>2026-05-03T08:24:57.968Z</time></trkpt><trkpt lat="44.691701141764646" lon="9.348605858444335"><ele>435.0</ele><time>2026-05-03T08:24:58.968Z</time></trkpt><trkpt lat="44.69176344501301" lon="9.348473678634887"><ele>435.0</ele><time>2026-05-03T08:24:59.968Z</time></trkpt><trkpt lat="44.691797175392715" lon="9.348344453916175"><ele>435.0</ele><time>2026-05-03T08:25:00.968Z</time></trkpt><trkpt lat="44.69181798968502" lon="9.348215649809795"><ele>435.0</ele><time>2026-05-03T08:25:01.968Z</time></trkpt><trkpt lat="44.691837736387924" lon="9.348086587934201"><ele>436.4</ele><time>2026-05-03T08:25:02.968Z</time></trkpt><trkpt lat="44.69184781325181" lon="9.347953944076819"><ele>437.8</ele><time>2026-05-03T08:25:03.968Z</time></trkpt><trkpt lat="44.69182985086157" lon="9.34783140148549"><ele>439.20000000000005</ele><time>2026-05-03T08:25:04.968Z</time></trkpt><trkpt lat="44.69176748847699" lon="9.347736822570791"><ele>440.6</ele><time>2026-05-03T08:25:05.968Z</time></trkpt><trkpt lat="44.691687574520834" lon="9.347673696380554"><ele>442.0</ele><time>2026-05-03T08:25:06.968Z</time></trkpt><trkpt lat="44.69160681317149" lon="9.3476079712698"><ele>442.0</ele><time>2026-05-03T08:25:07.968Z</time></trkpt><trkpt lat="44.6915446638598" lon="9.347498061649745"><ele>442.00000000000006</ele><time>2026-05-03T08:25:08.968Z</time></trkpt><trkpt lat="44.691504064810665" lon="9.34735969938058"><ele>442.00000000000006</ele><time>2026-05-03T08:25:09.968Z</time></trkpt><trkpt lat="44.691478714704395" lon="9.347232968353557"><ele>442.0</ele><time>2026-05-03T08:25:10.968Z</time></trkpt><trkpt lat="44.69146659494051" lon="9.347114471908618"><ele>442.0</ele><time>2026-05-03T08:25:11.968Z</time></trkpt><trkpt lat="44.69147837746524" lon="9.347006904371336"><ele>442.50000000000006</ele><time>2026-05-03T08:25:12.968Z</time></trkpt><trkpt lat="44.69151890431841" lon="9.346895243242852"><ele>443.0</ele><time>2026-05-03T08:25:13.968Z</time></trkpt><trkpt lat="44.69157069941061" lon="9.346785840988023"><ele>443.5</ele><time>2026-05-03T08:25:14.968Z</time></trkpt><trkpt lat="44.69161274037825" lon="9.346679061364322"><ele>444.0</ele><time>2026-05-03T08:25:15.968Z</time></trkpt><trkpt lat="44.69161769788253" lon="9.34657800320934"><ele>444.50000000000006</ele><time>2026-05-03T08:25:16.968Z</time></trkpt><trkpt lat="44.69158508818555" lon="9.346471330092243"><ele>445.0</ele><time>2026-05-03T08:25:17.968Z</time></trkpt><trkpt lat="44.691505355522125" lon="9.346387118505401"><ele>446.8</ele><time>2026-05-03T08:25:18.968Z</time></trkpt><trkpt lat="44.69142547087472" lon="9.34630824513218"><ele>448.6</ele><time>2026-05-03T08:25:19.968Z</time></trkpt><trkpt lat="44.691346232469236" lon="9.346231176562089"><ele>450.4</ele><time>2026-05-03T08:25:20.968Z</time></trkpt><trkpt lat="44.69127290791362" lon="9.346124973084503"><ele>452.2</ele><time>2026-05-03T08:25:21.968Z</time></trkpt><trkpt lat="44.6912059853505" lon="9.345997422558392"><ele>454.0</ele><time>2026-05-03T08:25:22.968Z</time></trkpt><trkpt lat="44.69116818742535" lon="9.345862329373517"><ele>454.0</ele><time>2026-05-03T08:25:23.967Z</time></trkpt><trkpt lat="44.691170791513244" lon="9.345709721288356"><ele>454.0</ele><time>2026-05-03T08:25:24.967Z</time></trkpt><trkpt lat="44.69117880247557" lon="9.345539556210754"><ele>454.0</ele><time>2026-05-03T08:25:25.967Z</time></trkpt><trkpt lat="44.69119557906998" lon="9.345367047150617"><ele>454.0</ele><time>2026-05-03T08:25:26.967Z</time></trkpt><trkpt lat="44.69120562605356" lon="9.345202445104208"><ele>452.2</ele><time>2026-05-03T08:25:27.967Z</time></trkpt><trkpt lat="44.69121491058057" lon="9.34505303717804"><ele>450.4</ele><time>2026-05-03T08:25:28.967Z</time></trkpt><trkpt lat="44.69124816676341" lon="9.344913153483096"><ele>448.6</ele><time>2026-05-03T08:25:29.967Z</time></trkpt><trkpt lat="44.69130963185111" lon="9.344788482038975"><ele>446.8</ele><time>2026-05-03T08:25:30.967Z</time></trkpt><trkpt lat="44.69140101207401" lon="9.344715000146106"><ele>445.0</ele><time>2026-05-03T08:25:31.967Z</time></trkpt><trkpt lat="44.691517436658366" lon="9.34471399791898"><ele>437.0</ele><time>2026-05-03T08:25:32.967Z</time></trkpt><trkpt lat="44.6916087788149" lon="9.344616440137687"><ele>429.0</ele><time>2026-05-03T08:25:33.967Z</time></trkpt><trkpt lat="44.6917146099559" lon="9.344529606255268"><ele>421.0</ele><time>2026-05-03T08:25:34.967Z</time></trkpt><trkpt lat="44.69181221405468" lon="9.34442690167707"><ele>413.0</ele><time>2026-05-03T08:25:35.967Z</time></trkpt><trkpt lat="44.69189625471674" lon="9.344334121070503"><ele>420.75</ele><time>2026-05-03T08:25:36.967Z</time></trkpt><trkpt lat="44.69199324382868" lon="9.344258250459808"><ele>428.5</ele><time>2026-05-03T08:25:37.967Z</time></trkpt><trkpt lat="44.69209577382862" lon="9.344188340368648"><ele>436.25</ele><time>2026-05-03T08:25:38.967Z</time></trkpt><trkpt lat="44.69219391997278" lon="9.3441165745464"><ele>444.0</ele><time>2026-05-03T08:25:39.967Z</time></trkpt><trkpt lat="44.69227655303015" lon="9.344001289181234"><ele>444.0</ele><time>2026-05-03T08:25:40.967Z</time></trkpt><trkpt lat="44.69235173477243" lon="9.34391666185096"><ele>444.0</ele><time>2026-05-03T08:25:41.967Z</time></trkpt><trkpt lat="44.692418362568056" lon="9.34382853508465"><ele>444.0</ele><time>2026-05-03T08:25:42.967Z</time></trkpt><trkpt lat="44.69248847520675" lon="9.343743886186836"><ele>444.0</ele><time>2026-05-03T08:25:43.967Z</time></trkpt><trkpt lat="44.692573526188774" lon="9.343631421912022"><ele>444.0</ele><time>2026-05-03T08:25:44.967Z</time></trkpt><trkpt lat="44.69268047433506" lon="9.343471059823958"><ele>448.0</ele><time>2026-05-03T08:25:45.967Z</time></trkpt><trkpt lat="44.69275141416993" lon="9.343316163213919"><ele>452.0</ele><time>2026-05-03T08:25:46.967Z</time></trkpt><trkpt lat="44.692797143398145" lon="9.343147629570774"><ele>456.0</ele><time>2026-05-03T08:25:47.967Z</time></trkpt><trkpt lat="44.6928387717251" lon="9.342988743189148"><ele>460.0</ele><time>2026-05-03T08:25:48.967Z</time></trkpt><trkpt lat="44.69286313841123" lon="9.342838438987068"><ele>451.0</ele><time>2026-05-03T08:25:49.967Z</time></trkpt><trkpt lat="44.692926650497924" lon="9.342694926936655"><ele>442.0</ele><time>2026-05-03T08:25:50.967Z</time></trkpt><trkpt lat="44.69300456194327" lon="9.342544530539227"><ele>433.0</ele><time>2026-05-03T08:25:51.967Z</time></trkpt><trkpt lat="44.69307666860443" lon="9.34241471420719"><ele>424.0</ele><time>2026-05-03T08:25:52.967Z</time></trkpt><trkpt lat="44.6931506963541" lon="9.342299142785818"><ele>421.6</ele><time>2026-05-03T08:25:53.967Z</time></trkpt><trkpt lat="44.69322661426114" lon="9.342189152316964"><ele>419.2</ele><time>2026-05-03T08:25:54.967Z</time></trkpt><trkpt lat="44.69330512613748" lon="9.342088979896626"><ele>416.8</ele><time>2026-05-03T08:25:55.967Z</time></trkpt><trkpt lat="44.69337987391627" lon="9.341998008008197"><ele>414.40000000000003</ele><time>2026-05-03T08:25:56.967Z</time></trkpt><trkpt lat="44.69344067696171" lon="9.341892116515007"><ele>412.0</ele><time>2026-05-03T08:25:57.967Z</time></trkpt><trkpt lat="44.69346283010739" lon="9.341766995146351"><ele>412.0</ele><time>2026-05-03T08:25:58.967Z</time></trkpt><trkpt lat="44.69345564351855" lon="9.341625595262444"><ele>412.0</ele><time>2026-05-03T08:25:59.967Z</time></trkpt><trkpt lat="44.69344544347156" lon="9.34148836417647"><ele>412.0</ele><time>2026-05-03T08:26:00.967Z</time></trkpt><trkpt lat="44.69342802364648" lon="9.341374556709601"><ele>412.0</ele><time>2026-05-03T08:26:01.967Z</time></trkpt><trkpt lat="44.69337945105019" lon="9.341283953995692"><ele>412.0</ele><time>2026-05-03T08:26:02.967Z</time></trkpt><trkpt lat="44.69330701146915" lon="9.341213593480292"><ele>418.0</ele><time>2026-05-03T08:26:03.967Z</time></trkpt><trkpt lat="44.6932031629112" lon="9.341168214931146"><ele>424.0</ele><time>2026-05-03T08:26:04.967Z</time></trkpt><trkpt lat="44.693097430266626" lon="9.341129416543714"><ele>430.00000000000006</ele><time>2026-05-03T08:26:05.967Z</time></trkpt><trkpt lat="44.69298714948392" lon="9.341106736705274"><ele>436.0</ele><time>2026-05-03T08:26:06.967Z</time></trkpt><trkpt lat="44.692882734727014" lon="9.341118240847093"><ele>442.0</ele><time>2026-05-03T08:26:07.967Z</time></trkpt><trkpt lat="44.69278001336813" lon="9.34114816563673"><ele>441.40000000000003</ele><time>2026-05-03T08:26:08.967Z</time></trkpt><trkpt lat="44.69268261293117" lon="9.341198564261532"><ele>440.80000000000007</ele><time>2026-05-03T08:26:09.967Z</time></trkpt><trkpt lat="44.69260150605141" lon="9.34128303251641"><ele>440.2</ele><time>2026-05-03T08:26:10.967Z</time></trkpt><trkpt lat="44.6925249393901" lon="9.341386216966667"><ele>439.6</ele><time>2026-05-03T08:26:11.967Z</time></trkpt><trkpt lat="44.69246073802934" lon="9.341506671263774"><ele>439.0</ele><time>2026-05-03T08:26:12.967Z</time></trkpt><trkpt lat="44.69238697140898" lon="9.34162167564107"><ele>433.79999999999995</ele><time>2026-05-03T08:26:13.967Z</time></trkpt><trkpt lat="44.692306164433646" lon="9.341737186503353"><ele>428.59999999999997</ele><time>2026-05-03T08:26:14.967Z</time></trkpt><trkpt lat="44.69222847384609" lon="9.341849397714679"><ele>423.4</ele><time>2026-05-03T08:26:15.967Z</time></trkpt><trkpt lat="44.692162459813645" lon="9.341956006991676"><ele>418.2</ele><time>2026-05-03T08:26:16.967Z</time></trkpt><trkpt lat="44.69209340041165" lon="9.342073219729764"><ele>413.0</ele><time>2026-05-03T08:26:17.967Z</time></trkpt><trkpt lat="44.692023840536194" lon="9.342182135166139"><ele>410.2</ele><time>2026-05-03T08:26:18.967Z</time></trkpt><trkpt lat="44.69193383554583" lon="9.342253739133708"><ele>407.4</ele><time>2026-05-03T08:26:19.967Z</time></trkpt><trkpt lat="44.69182336240042" lon="9.342295046714836"><ele>404.59999999999997</ele><time>2026-05-03T08:26:20.967Z</time></trkpt><trkpt lat="44.69173587420604" lon="9.342321759600742"><ele>401.79999999999995</ele><time>2026-05-03T08:26:21.967Z</time></trkpt><trkpt lat="44.69164636240426" lon="9.342328295487789"><ele>399.0</ele><time>2026-05-03T08:26:22.967Z</time></trkpt><trkpt lat="44.691562300526314" lon="9.342311887469155"><ele>399.0</ele><time>2026-05-03T08:26:23.967Z</time></trkpt><trkpt lat="44.691516490863876" lon="9.342234015804486"><ele>399.0</ele><time>2026-05-03T08:26:24.967Z</time></trkpt><trkpt lat="44.69149368836546" lon="9.342120626713344"><ele>399.0</ele><time>2026-05-03T08:26:25.967Z</time></trkpt><trkpt lat="44.69149208424699" lon="9.341994488558473"><ele>399.0</ele><time>2026-05-03T08:26:26.967Z</time></trkpt><trkpt lat="44.69151903745095" lon="9.341859376122057"><ele>399.0</ele><time>2026-05-03T08:26:27.967Z</time></trkpt><trkpt lat="44.691542677429226" lon="9.341700202239185"><ele>402.6</ele><time>2026-05-03T08:26:28.967Z</time></trkpt><trkpt lat="44.69153172773531" lon="9.341527146893773"><ele>406.2</ele><time>2026-05-03T08:26:29.967Z</time></trkpt><trkpt lat="44.69150475806842" lon="9.341361304531778"><ele>409.8</ele><time>2026-05-03T08:26:30.967Z</time></trkpt><trkpt lat="44.691478446238" lon="9.341224967381468"><ele>413.40000000000003</ele><time>2026-05-03T08:26:31.967Z</time></trkpt><trkpt lat="44.6914516258343" lon="9.341093712571874"><ele>417.0</ele><time>2026-05-03T08:26:32.967Z</time></trkpt><trkpt lat="44.691431426491334" lon="9.340956870744124"><ele>418.0</ele><time>2026-05-03T08:26:33.967Z</time></trkpt><trkpt lat="44.69143106595308" lon="9.340818189350406"><ele>419.0</ele><time>2026-05-03T08:26:34.967Z</time></trkpt><trkpt lat="44.69144794368965" lon="9.340672511792965"><ele>420.0</ele><time>2026-05-03T08:26:35.967Z</time></trkpt><trkpt lat="44.69147949828315" lon="9.340538920038728"><ele>421.0</ele><time>2026-05-03T08:26:36.967Z</time></trkpt><trkpt lat="44.69151543530026" lon="9.340400801414217"><ele>422.0</ele><time>2026-05-03T08:26:37.967Z</time></trkpt><trkpt lat="44.69154868909382" lon="9.340268759641251"><ele>422.20000000000005</ele><time>2026-05-03T08:26:38.967Z</time></trkpt><trkpt lat="44.69158057516731" lon="9.340129328260081"><ele>422.4</ele><time>2026-05-03T08:26:39.967Z</time></trkpt><trkpt lat="44.691603371103774" lon="9.339987373992154"><ele>422.6</ele><time>2026-05-03T08:26:40.967Z</time></trkpt><trkpt lat="44.69159915871999" lon="9.33985042218385"><ele>422.79999999999995</ele><time>2026-05-03T08:26:41.968Z</time></trkpt><trkpt lat="44.69156627173458" lon="9.339731561660038"><ele>423.0</ele><time>2026-05-03T08:26:42.968Z</time></trkpt><trkpt lat="44.69151316550574" lon="9.339632515322911"><ele>422.59999999999997</ele><time>2026-05-03T08:26:43.968Z</time></trkpt><trkpt lat="44.69146310296754" lon="9.339539212054598"><ele>422.2</ele><time>2026-05-03T08:26:44.968Z</time></trkpt><trkpt lat="44.691437702380405" lon="9.339436318854077"><ele>421.8</ele><time>2026-05-03T08:26:45.968Z</time></trkpt><trkpt lat="44.6914503498333" lon="9.33932196460333"><ele>421.4</ele><time>2026-05-03T08:26:46.968Z</time></trkpt><trkpt lat="44.691490046449154" lon="9.33919926309163"><ele>421.0</ele><time>2026-05-03T08:26:47.968Z</time></trkpt><trkpt lat="44.691557214594646" lon="9.339067860149544"><ele>421.0</ele><time>2026-05-03T08:26:48.968Z</time></trkpt><trkpt lat="44.691631275074364" lon="9.338948098993006"><ele>421.0</ele><time>2026-05-03T08:26:49.968Z</time></trkpt><trkpt lat="44.69169781311978" lon="9.338840399079745"><ele>421.0</ele><time>2026-05-03T08:26:50.968Z</time></trkpt><trkpt lat="44.69176146126527" lon="9.338730173101599"><ele>421.0</ele><time>2026-05-03T08:26:51.968Z</time></trkpt><trkpt lat="44.69181066766425" lon="9.338625809195472"><ele>421.0</ele><time>2026-05-03T08:26:52.968Z</time></trkpt><trkpt lat="44.69183869609326" lon="9.338502289602287"><ele>420.8</ele><time>2026-05-03T08:26:53.968Z</time></trkpt><trkpt lat="44.69182516334828" lon="9.338375778510867"><ele>420.6</ele><time>2026-05-03T08:26:54.969Z</time></trkpt><trkpt lat="44.691787776723885" lon="9.338253990268568"><ele>420.4</ele><time>2026-05-03T08:26:55.969Z</time></trkpt><trkpt lat="44.69172989364785" lon="9.33814340274368"><ele>420.2</ele><time>2026-05-03T08:26:56.969Z</time></trkpt><trkpt lat="44.691655867859545" lon="9.338042314168396"><ele>420.0</ele><time>2026-05-03T08:26:57.969Z</time></trkpt><trkpt lat="44.69157484800014" lon="9.33798278829217"><ele>421.8</ele><time>2026-05-03T08:26:58.969Z</time></trkpt><trkpt lat="44.69148378944093" lon="9.337943773637512"><ele>423.6</ele><time>2026-05-03T08:26:59.969Z</time></trkpt><trkpt lat="44.69139178224697" lon="9.337918955632416"><ele>425.4</ele><time>2026-05-03T08:27:00.969Z</time></trkpt><trkpt lat="44.691311210968" lon="9.337875841225639"><ele>427.2</ele><time>2026-05-03T08:27:01.969Z</time></trkpt><trkpt lat="44.691216455474084" lon="9.33784107463683"><ele>429.0</ele><time>2026-05-03T08:27:02.969Z</time></trkpt><trkpt lat="44.691120244811785" lon="9.337815911615287"><ele>427.2</ele><time>2026-05-03T08:27:03.969Z</time></trkpt><trkpt lat="44.691038195403976" lon="9.337782995895324"><ele>425.4</ele><time>2026-05-03T08:27:04.969Z</time></trkpt><trkpt lat="44.690957080596796" lon="9.337744540811029"><ele>423.6</ele><time>2026-05-03T08:27:05.969Z</time></trkpt><trkpt lat="44.69087966384782" lon="9.337679295144614"><ele>421.8</ele><time>2026-05-03T08:27:06.969Z</time></trkpt><trkpt lat="44.690801335177106" lon="9.33758502396211"><ele>420.0</ele><time>2026-05-03T08:27:07.969Z</time></trkpt><trkpt lat="44.690726527394176" lon="9.337478263880554"><ele>420.0</ele><time>2026-05-03T08:27:08.969Z</time></trkpt><trkpt lat="44.69065412862723" lon="9.337369820739884"><ele>420.0</ele><time>2026-05-03T08:27:09.969Z</time></trkpt><trkpt lat="44.69058625868047" lon="9.337254646313879"><ele>420.0</ele><time>2026-05-03T08:27:10.969Z</time></trkpt><trkpt lat="44.6905394837281" lon="9.337131577493638"><ele>420.0</ele><time>2026-05-03T08:27:11.969Z</time></trkpt><trkpt lat="44.69051804849562" lon="9.336992027557532"><ele>420.0</ele><time>2026-05-03T08:27:12.969Z</time></trkpt><trkpt lat="44.69053669756558" lon="9.336837695709862"><ele>420.75</ele><time>2026-05-03T08:27:13.969Z</time></trkpt><trkpt lat="44.69056955052029" lon="9.336674542383472"><ele>421.5</ele><time>2026-05-03T08:27:14.969Z</time></trkpt><trkpt lat="44.690584669600845" lon="9.336492879990132"><ele>422.25</ele><time>2026-05-03T08:27:15.969Z</time></trkpt><trkpt lat="44.6905908214708" lon="9.336312573638862"><ele>423.0</ele><time>2026-05-03T08:27:16.969Z</time></trkpt><trkpt lat="44.690592935697495" lon="9.336129312892245"><ele>422.75</ele><time>2026-05-03T08:27:17.969Z</time></trkpt><trkpt lat="44.69059854695651" lon="9.335948446905252"><ele>422.5</ele><time>2026-05-03T08:27:18.969Z</time></trkpt><trkpt lat="44.69059912194084" lon="9.335764268592158"><ele>422.25</ele><time>2026-05-03T08:27:19.969Z</time></trkpt><trkpt lat="44.69059349001285" lon="9.335593729149725"><ele>422.0</ele><time>2026-05-03T08:27:20.969Z</time></trkpt><trkpt lat="44.69059709902638" lon="9.335450711888054"><ele>422.0</ele><time>2026-05-03T08:27:21.969Z</time></trkpt><trkpt lat="44.69059349091035" lon="9.335308114521046"><ele>422.0</ele><time>2026-05-03T08:27:22.969Z</time></trkpt><trkpt lat="44.69056262068755" lon="9.335161388552317"><ele>422.0</ele><time>2026-05-03T08:27:23.969Z</time></trkpt><trkpt lat="44.690519757223456" lon="9.334993164417668"><ele>422.0</ele><time>2026-05-03T08:27:24.969Z</time></trkpt><trkpt lat="44.69046454900035" lon="9.334889089440912"><ele>422.0</ele><time>2026-05-03T08:27:25.969Z</time></trkpt><trkpt lat="44.69039589459237" lon="9.334760758787976"><ele>421.0</ele><time>2026-05-03T08:27:26.969Z</time></trkpt><trkpt lat="44.69033533581346" lon="9.334648249062706"><ele>420.0</ele><time>2026-05-03T08:27:27.969Z</time></trkpt><trkpt lat="44.69027473684623" lon="9.334539072325015"><ele>419.0</ele><time>2026-05-03T08:27:28.969Z</time></trkpt><trkpt lat="44.690218304816725" lon="9.334430571027708"><ele>418.0</ele><time>2026-05-03T08:27:29.969Z</time></trkpt><trkpt lat="44.69017867512958" lon="9.334275999817427"><ele>417.0</ele><time>2026-05-03T08:27:30.969Z</time></trkpt><trkpt lat="44.690180556330134" lon="9.334029713783524"><ele>411.5</ele><time>2026-05-03T08:27:31.969Z</time></trkpt><trkpt lat="44.69017426671913" lon="9.333819434406974"><ele>406.0</ele><time>2026-05-03T08:27:32.969Z</time></trkpt><trkpt lat="44.69016303223285" lon="9.333601735186521"><ele>400.5</ele><time>2026-05-03T08:27:33.969Z</time></trkpt><trkpt lat="44.69013886191742" lon="9.333435686133448"><ele>395.0</ele><time>2026-05-03T08:27:34.969Z</time></trkpt><trkpt lat="44.69012271576431" lon="9.33327888431274"><ele>395.0</ele><time>2026-05-03T08:27:35.969Z</time></trkpt><trkpt lat="44.69013602173213" lon="9.33314153613372"><ele>395.0</ele><time>2026-05-03T08:27:36.969Z</time></trkpt><trkpt lat="44.69017983817712" lon="9.333020004505698"><ele>395.0</ele><time>2026-05-03T08:27:37.969Z</time></trkpt><trkpt lat="44.69026234064142" lon="9.332927965600721"><ele>395.0</ele><time>2026-05-03T08:27:38.969Z</time></trkpt><trkpt lat="44.69036208279028" lon="9.332843043731563"><ele>395.0</ele><time>2026-05-03T08:27:39.969Z</time></trkpt><trkpt lat="44.69047512213497" lon="9.332785973669685"><ele>395.4</ele><time>2026-05-03T08:27:40.969Z</time></trkpt><trkpt lat="44.69058982357004" lon="9.332776830528237"><ele>395.8</ele><time>2026-05-03T08:27:41.969Z</time></trkpt><trkpt lat="44.690695524068325" lon="9.332752377731326"><ele>396.20000000000005</ele><time>2026-05-03T08:27:42.969Z</time></trkpt><trkpt lat="44.69079227020636" lon="9.332752406787474"><ele>396.6</ele><time>2026-05-03T08:27:43.969Z</time></trkpt><trkpt lat="44.69088580406073" lon="9.332742737922263"><ele>397.0</ele><time>2026-05-03T08:27:44.969Z</time></trkpt><trkpt lat="44.690977957943296" lon="9.332717935330392"><ele>397.0</ele><time>2026-05-03T08:27:45.969Z</time></trkpt><trkpt lat="44.69104877869415" lon="9.332626206262516"><ele>397.0</ele><time>2026-05-03T08:27:46.969Z</time></trkpt><trkpt lat="44.69106553924257" lon="9.332494674406531"><ele>397.0</ele><time>2026-05-03T08:27:47.969Z</time></trkpt><trkpt lat="44.69100994544841" lon="9.332323927993313"><ele>397.0</ele><time>2026-05-03T08:27:49.969Z</time></trkpt><trkpt lat="44.690936631018594" lon="9.332270700733348"><ele>397.0</ele><time>2026-05-03T08:27:50.969Z</time></trkpt><trkpt lat="44.690836043495715" lon="9.332254179878626"><ele>398.40000000000003</ele><time>2026-05-03T08:27:51.969Z</time></trkpt><trkpt lat="44.690746573836435" lon="9.33220661251227"><ele>399.8</ele><time>2026-05-03T08:27:52.969Z</time></trkpt><trkpt lat="44.69065535529652" lon="9.332178845169258"><ele>401.2</ele><time>2026-05-03T08:27:53.969Z</time></trkpt><trkpt lat="44.69057025396497" lon="9.332095530707148"><ele>402.6</ele><time>2026-05-03T08:27:54.969Z</time></trkpt><trkpt lat="44.690501528437935" lon="9.331960577701114"><ele>404.0</ele><time>2026-05-03T08:27:55.969Z</time></trkpt><trkpt lat="44.69042495223755" lon="9.331836186632989"><ele>404.0</ele><time>2026-05-03T08:27:56.969Z</time></trkpt><trkpt lat="44.69035082037112" lon="9.331716316318772"><ele>404.0</ele><time>2026-05-03T08:27:57.969Z</time></trkpt><trkpt lat="44.69029193376878" lon="9.33160485096779"><ele>404.0</ele><time>2026-05-03T08:27:58.969Z</time></trkpt><trkpt lat="44.69024479089473" lon="9.331486422985034"><ele>404.0</ele><time>2026-05-03T08:27:59.969Z</time></trkpt><trkpt lat="44.690217489179176" lon="9.331368464354574"><ele>404.0</ele><time>2026-05-03T08:28:00.969Z</time></trkpt><trkpt lat="44.69020688521607" lon="9.331232104185244"><ele>396.75</ele><time>2026-05-03T08:28:01.969Z</time></trkpt><trkpt lat="44.69019581816857" lon="9.331073739621361"><ele>389.5</ele><time>2026-05-03T08:28:02.969Z</time></trkpt><trkpt lat="44.69019343896389" lon="9.330906994898468"><ele>382.25</ele><time>2026-05-03T08:28:03.969Z</time></trkpt><trkpt lat="44.690210227873216" lon="9.330729825812822"><ele>375.0</ele><time>2026-05-03T08:28:04.969Z</time></trkpt><trkpt lat="44.690234608736006" lon="9.330559676625102"><ele>375.4</ele><time>2026-05-03T08:28:05.969Z</time></trkpt><trkpt lat="44.690251554270255" lon="9.330399699876903"><ele>375.8</ele><time>2026-05-03T08:28:06.969Z</time></trkpt><trkpt lat="44.69027335185202" lon="9.330249185571159"><ele>376.20000000000005</ele><time>2026-05-03T08:28:07.969Z</time></trkpt><trkpt lat="44.69029798181409" lon="9.330110829465905"><ele>376.6</ele><time>2026-05-03T08:28:08.969Z</time></trkpt><trkpt lat="44.69030216352998" lon="9.330004650605341"><ele>377.0</ele><time>2026-05-03T08:28:09.969Z</time></trkpt><trkpt lat="44.690261019089164" lon="9.329912738187582"><ele>377.0</ele><time>2026-05-03T08:28:10.969Z</time></trkpt><trkpt lat="44.6901988759277" lon="9.329743524291098"><ele>377.0</ele><time>2026-05-03T08:28:11.969Z</time></trkpt><trkpt lat="44.69008185548476" lon="9.329624997059328"><ele>377.0</ele><time>2026-05-03T08:28:12.969Z</time></trkpt><trkpt lat="44.68994383553421" lon="9.329535104741886"><ele>377.0</ele><time>2026-05-03T08:28:13.969Z</time></trkpt><trkpt lat="44.6898250081611" lon="9.32946158350545"><ele>376.6</ele><time>2026-05-03T08:28:14.969Z</time></trkpt><trkpt lat="44.68972164966248" lon="9.329397182354652"><ele>376.20000000000005</ele><time>2026-05-03T08:28:15.969Z</time></trkpt><trkpt lat="44.68965011784118" lon="9.329352611678802"><ele>375.8</ele><time>2026-05-03T08:28:16.969Z</time></trkpt><trkpt lat="44.68957811121889" lon="9.329307745212764"><ele>375.4</ele><time>2026-05-03T08:28:17.969Z</time></trkpt><trkpt lat="44.689512382542254" lon="9.32926651623035"><ele>375.0</ele><time>2026-05-03T08:28:18.969Z</time></trkpt><trkpt lat="44.689413167968546" lon="9.329202841149607"><ele>370.5</ele><time>2026-05-03T08:28:20.969Z</time></trkpt><trkpt lat="44.68931661545166" lon="9.329140874592762"><ele>366.0</ele><time>2026-05-03T08:28:22.968Z</time></trkpt><trkpt lat="44.68897773623667" lon="9.328893197107194"><ele>367.4</ele><time>2026-05-03T08:28:23.968Z</time></trkpt><trkpt lat="44.68890787678884" lon="9.328832426070809"><ele>368.8</ele><time>2026-05-03T08:28:24.968Z</time></trkpt><trkpt lat="44.68886891392413" lon="9.32874515574536"><ele>370.2</ele><time>2026-05-03T08:28:25.968Z</time></trkpt><trkpt lat="44.688839167690354" lon="9.328641179354129"><ele>371.59999999999997</ele><time>2026-05-03T08:28:26.968Z</time></trkpt><trkpt lat="44.688950704127286" lon="9.328486698357871"><ele>373.0</ele><time>2026-05-03T08:28:27.968Z</time></trkpt><trkpt lat="44.6889800939242" lon="9.328354295839585"><ele>373.0</ele><time>2026-05-03T08:28:28.968Z</time></trkpt><trkpt lat="44.68900999956569" lon="9.328233292660748"><ele>373.0</ele><time>2026-05-03T08:28:29.968Z</time></trkpt><trkpt lat="44.689041154744636" lon="9.328112531297666"><ele>373.0</ele><time>2026-05-03T08:28:30.968Z</time></trkpt><trkpt lat="44.689069974728156" lon="9.328001716233489"><ele>373.0</ele><time>2026-05-03T08:28:31.968Z</time></trkpt><trkpt lat="44.68909389749295" lon="9.327897911862882"><ele>373.0</ele><time>2026-05-03T08:28:32.968Z</time></trkpt><trkpt lat="44.68910751772453" lon="9.32778163741181"><ele>373.0</ele><time>2026-05-03T08:28:33.968Z</time></trkpt><trkpt lat="44.68911885346337" lon="9.327669632054363"><ele>373.8333333333333</ele><time>2026-05-03T08:28:34.968Z</time></trkpt><trkpt lat="44.689127360117844" lon="9.327564007588995"><ele>374.66666666666663</ele><time>2026-05-03T08:28:35.968Z</time></trkpt><trkpt lat="44.689134345186226" lon="9.327461361548638"><ele>375.5</ele><time>2026-05-03T08:28:36.968Z</time></trkpt><trkpt lat="44.68914191241409" lon="9.327353934172642"><ele>376.3333333333333</ele><time>2026-05-03T08:28:37.969Z</time></trkpt><trkpt lat="44.68914993490685" lon="9.327255741410557"><ele>377.1666666666667</ele><time>2026-05-03T08:28:38.969Z</time></trkpt><trkpt lat="44.68916230550858" lon="9.327134907306537"><ele>378.0</ele><time>2026-05-03T08:28:40.969Z</time></trkpt><trkpt lat="44.68918069290701" lon="9.32703379342559"><ele>379.4</ele><time>2026-05-03T08:28:55.969Z</time></trkpt><trkpt lat="44.68919491190518" lon="9.326940175876022"><ele>380.79999999999995</ele><time>2026-05-03T08:28:56.969Z</time></trkpt><trkpt lat="44.68920153138521" lon="9.326836957924218"><ele>382.2</ele><time>2026-05-03T08:28:57.969Z</time></trkpt><trkpt lat="44.68921233263196" lon="9.326700990688465"><ele>383.6</ele><time>2026-05-03T08:28:58.969Z</time></trkpt><trkpt lat="44.68923275498513" lon="9.326528470701108"><ele>385.0</ele><time>2026-05-03T08:28:59.969Z</time></trkpt><trkpt lat="44.689267221563185" lon="9.326343139731053"><ele>386.33333333333337</ele><time>2026-05-03T08:29:00.969Z</time></trkpt><trkpt lat="44.68929767816896" lon="9.326152882785351"><ele>387.66666666666663</ele><time>2026-05-03T08:29:01.969Z</time></trkpt><trkpt lat="44.68934066966362" lon="9.325924808990615"><ele>389.0</ele><time>2026-05-03T08:29:02.969Z</time></trkpt><trkpt lat="44.68934830859953" lon="9.325697016256175"><ele>390.0</ele><time>2026-05-03T08:29:03.969Z</time></trkpt><trkpt lat="44.68934964048523" lon="9.325454172612567"><ele>391.0</ele><time>2026-05-03T08:29:04.969Z</time></trkpt><trkpt lat="44.689352539974465" lon="9.325198613584831"><ele>392.0</ele><time>2026-05-03T08:29:05.969Z</time></trkpt><trkpt lat="44.6893426095547" lon="9.324923772071765"><ele>392.66666666666663</ele><time>2026-05-03T08:29:06.969Z</time></trkpt><trkpt lat="44.68932816688764" lon="9.324654062220384"><ele>393.33333333333337</ele><time>2026-05-03T08:29:07.969Z</time></trkpt><trkpt lat="44.689315219946415" lon="9.324400898977037"><ele>394.0</ele><time>2026-05-03T08:29:08.969Z</time></trkpt><trkpt lat="44.68930268615232" lon="9.324180249179289"><ele>394.0</ele><time>2026-05-03T08:29:09.969Z</time></trkpt><trkpt lat="44.68929588786045" lon="9.323981091504155"><ele>394.0</ele><time>2026-05-03T08:29:10.969Z</time></trkpt><trkpt lat="44.689283538439966" lon="9.323810639883114"><ele>394.0</ele><time>2026-05-03T08:29:11.969Z</time></trkpt><trkpt lat="44.68922124343473" lon="9.323650265392686"><ele>394.0</ele><time>2026-05-03T08:29:12.969Z</time></trkpt><trkpt lat="44.68912118630675" lon="9.323477241825975"><ele>393.25</ele><time>2026-05-03T08:29:13.969Z</time></trkpt><trkpt lat="44.68901743827262" lon="9.323307967497097"><ele>392.5</ele><time>2026-05-03T08:29:14.969Z</time></trkpt><trkpt lat="44.68892433274574" lon="9.323165081887232"><ele>391.75</ele><time>2026-05-03T08:29:15.969Z</time></trkpt><trkpt lat="44.68882663205307" lon="9.32307109331164"><ele>391.0</ele><time>2026-05-03T08:29:16.969Z</time></trkpt><trkpt lat="44.688699998826" lon="9.323019993818722"><ele>394.25</ele><time>2026-05-03T08:29:17.969Z</time></trkpt><trkpt lat="44.688554278441146" lon="9.322990844125597"><ele>397.5</ele><time>2026-05-03T08:29:18.969Z</time></trkpt><trkpt lat="44.68841959456689" lon="9.32295374935236"><ele>400.75</ele><time>2026-05-03T08:29:19.969Z</time></trkpt><trkpt lat="44.68831216086953" lon="9.322904657982138"><ele>404.0</ele><time>2026-05-03T08:29:20.969Z</time></trkpt><trkpt lat="44.688237125614016" lon="9.322791329491224"><ele>404.0</ele><time>2026-05-03T08:29:21.969Z</time></trkpt><trkpt lat="44.68820046831319" lon="9.32266447700131"><ele>404.0</ele><time>2026-05-03T08:29:22.969Z</time></trkpt><trkpt lat="44.68816270424607" lon="9.322566496123113"><ele>404.0</ele><time>2026-05-03T08:29:23.969Z</time></trkpt><trkpt lat="44.68821005352893" lon="9.322415110223309"><ele>404.0</ele><time>2026-05-03T08:29:24.969Z</time></trkpt><trkpt lat="44.68820226368684" lon="9.322251606283595"><ele>404.0</ele><time>2026-05-03T08:29:25.969Z</time></trkpt><trkpt lat="44.68820389359288" lon="9.322077973485627"><ele>404.0</ele><time>2026-05-03T08:29:26.969Z</time></trkpt><trkpt lat="44.68816020408467" lon="9.32190428105368"><ele>404.0</ele><time>2026-05-03T08:29:27.969Z</time></trkpt><trkpt lat="44.68809959408301" lon="9.321741492578212"><ele>404.0</ele><time>2026-05-03T08:29:28.969Z</time></trkpt><trkpt lat="44.68806683557347" lon="9.321555049821258"><ele>404.0</ele><time>2026-05-03T08:29:29.969Z</time></trkpt><trkpt lat="44.68805548490374" lon="9.321358461830817"><ele>402.66666666666663</ele><time>2026-05-03T08:29:30.969Z</time></trkpt><trkpt lat="44.688077496253804" lon="9.321130115772663"><ele>401.33333333333337</ele><time>2026-05-03T08:29:31.969Z</time></trkpt><trkpt lat="44.68809858498566" lon="9.3208843847234"><ele>400.0</ele><time>2026-05-03T08:29:32.969Z</time></trkpt><trkpt lat="44.6881018691271" lon="9.320648424655017"><ele>398.5</ele><time>2026-05-03T08:29:33.969Z</time></trkpt><trkpt lat="44.68810194315765" lon="9.320441283154194"><ele>397.0</ele><time>2026-05-03T08:29:34.969Z</time></trkpt><trkpt lat="44.688100291766" lon="9.320252050208838"><ele>395.5</ele><time>2026-05-03T08:29:35.969Z</time></trkpt><trkpt lat="44.688109397048" lon="9.320061824339016"><ele>394.0</ele><time>2026-05-03T08:29:36.969Z</time></trkpt><trkpt lat="44.68810811235185" lon="9.31988745001702"><ele>392.5</ele><time>2026-05-03T08:29:37.969Z</time></trkpt><trkpt lat="44.688116716477786" lon="9.319726459749356"><ele>391.0</ele><time>2026-05-03T08:29:38.969Z</time></trkpt><trkpt lat="44.688103622603386" lon="9.319578879397955"><ele>389.5</ele><time>2026-05-03T08:29:39.969Z</time></trkpt><trkpt lat="44.6880720800028" lon="9.319419886401274"><ele>388.0</ele><time>2026-05-03T08:29:40.969Z</time></trkpt><trkpt lat="44.687969764395326" lon="9.3192986825127"><ele>388.0</ele><time>2026-05-03T08:29:41.969Z</time></trkpt><trkpt lat="44.68785381746476" lon="9.319194413553076"><ele>388.0</ele><time>2026-05-03T08:29:42.969Z</time></trkpt><trkpt lat="44.68773692089367" lon="9.319161275116764"><ele>388.0</ele><time>2026-05-03T08:29:43.969Z</time></trkpt><trkpt lat="44.68763437240744" lon="9.319189933308863"><ele>388.0</ele><time>2026-05-03T08:29:44.969Z</time></trkpt><trkpt lat="44.68754969838998" lon="9.31929879721005"><ele>394.2</ele><time>2026-05-03T08:29:45.969Z</time></trkpt><trkpt lat="44.687438654364776" lon="9.319379452902355"><ele>400.4</ele><time>2026-05-03T08:29:46.969Z</time></trkpt><trkpt lat="44.68733949385822" lon="9.319485605809852"><ele>406.59999999999997</ele><time>2026-05-03T08:29:47.969Z</time></trkpt><trkpt lat="44.6872427588776" lon="9.31953407166243"><ele>412.79999999999995</ele><time>2026-05-03T08:29:48.969Z</time></trkpt><trkpt lat="44.68716370368212" lon="9.319520326361218"><ele>419.0</ele><time>2026-05-03T08:29:49.969Z</time></trkpt><trkpt lat="44.68710982228283" lon="9.319406194321717"><ele>419.0</ele><time>2026-05-03T08:29:50.969Z</time></trkpt><trkpt lat="44.68704543404655" lon="9.319289460447413"><ele>419.0</ele><time>2026-05-03T08:29:51.969Z</time></trkpt><trkpt lat="44.68699991809975" lon="9.319099184720901"><ele>419.0</ele><time>2026-05-03T08:29:52.969Z</time></trkpt><trkpt lat="44.68693531139778" lon="9.318899957204884"><ele>419.0</ele><time>2026-05-03T08:29:53.969Z</time></trkpt><trkpt lat="44.6868890236267" lon="9.318744334185794"><ele>416.75</ele><time>2026-05-03T08:29:54.969Z</time></trkpt><trkpt lat="44.68684395563007" lon="9.318590600260446"><ele>414.5</ele><time>2026-05-03T08:29:55.969Z</time></trkpt><trkpt lat="44.68686390582733" lon="9.318421983633243"><ele>412.25</ele><time>2026-05-03T08:29:56.969Z</time></trkpt><trkpt lat="44.68687975757534" lon="9.3182130296952"><ele>410.0</ele><time>2026-05-03T08:29:57.969Z</time></trkpt><trkpt lat="44.686971092955915" lon="9.317993453906785"><ele>410.0</ele><time>2026-05-03T08:29:58.969Z</time></trkpt><trkpt lat="44.68707250155715" lon="9.317841324248885"><ele>410.0</ele><time>2026-05-03T08:29:59.969Z</time></trkpt><trkpt lat="44.68716399902973" lon="9.317707734456176"><ele>410.0</ele><time>2026-05-03T08:30:00.969Z</time></trkpt><trkpt lat="44.68726016650979" lon="9.317588349904451"><ele>410.0</ele><time>2026-05-03T08:30:01.968Z</time></trkpt><trkpt lat="44.68731221160632" lon="9.317464646915253"><ele>410.0</ele><time>2026-05-03T08:30:02.968Z</time></trkpt><trkpt lat="44.68733596064579" lon="9.317307092716065"><ele>410.0</ele><time>2026-05-03T08:30:03.968Z</time></trkpt><trkpt lat="44.68729805567352" lon="9.317139898551767"><ele>410.0</ele><time>2026-05-03T08:30:04.968Z</time></trkpt><trkpt lat="44.68724674067955" lon="9.316962364274687"><ele>410.0</ele><time>2026-05-03T08:30:05.968Z</time></trkpt><trkpt lat="44.68723806579229" lon="9.316793061402755"><ele>414.0</ele><time>2026-05-03T08:30:06.968Z</time></trkpt><trkpt lat="44.68724911164025" lon="9.316620914713948"><ele>418.0</ele><time>2026-05-03T08:30:07.968Z</time></trkpt><trkpt lat="44.68728317612653" lon="9.31641051110228"><ele>422.0</ele><time>2026-05-03T08:30:08.968Z</time></trkpt><trkpt lat="44.68733537456905" lon="9.316173884048117"><ele>424.5</ele><time>2026-05-03T08:30:09.968Z</time></trkpt><trkpt lat="44.68737147064036" lon="9.315942500409157"><ele>427.0</ele><time>2026-05-03T08:30:10.968Z</time></trkpt><trkpt lat="44.68739459239098" lon="9.315748567461716"><ele>429.5</ele><time>2026-05-03T08:30:11.968Z</time></trkpt><trkpt lat="44.68739370092505" lon="9.315575269796899"><ele>432.0</ele><time>2026-05-03T08:30:12.968Z</time></trkpt><trkpt lat="44.68737395743973" lon="9.315422713486228"><ele>434.6</ele><time>2026-05-03T08:30:13.968Z</time></trkpt><trkpt lat="44.68735438877574" lon="9.315278848709385"><ele>437.20000000000005</ele><time>2026-05-03T08:30:14.968Z</time></trkpt><trkpt lat="44.68737195119029" lon="9.315165402615293"><ele>439.8</ele><time>2026-05-03T08:30:15.968Z</time></trkpt><trkpt lat="44.68747835580011" lon="9.315077279017258"><ele>442.4</ele><time>2026-05-03T08:30:16.968Z</time></trkpt><trkpt lat="44.68755779889571" lon="9.314925891692514"><ele>445.0</ele><time>2026-05-03T08:30:17.968Z</time></trkpt><trkpt lat="44.687644778267746" lon="9.314726138190183"><ele>447.5</ele><time>2026-05-03T08:30:18.968Z</time></trkpt><trkpt lat="44.687712260471365" lon="9.31452756458064"><ele>450.0</ele><time>2026-05-03T08:30:19.968Z</time></trkpt><trkpt lat="44.687749198923754" lon="9.31433736737684"><ele>452.5</ele><time>2026-05-03T08:30:20.968Z</time></trkpt><trkpt lat="44.68776515790447" lon="9.31413416717261"><ele>455.0</ele><time>2026-05-03T08:30:21.968Z</time></trkpt><trkpt lat="44.6877607225803" lon="9.313941513773644"><ele>451.75</ele><time>2026-05-03T08:30:22.968Z</time></trkpt><trkpt lat="44.68773477328298" lon="9.313777949283617"><ele>448.5</ele><time>2026-05-03T08:30:23.968Z</time></trkpt><trkpt lat="44.687681056240706" lon="9.313633490593881"><ele>445.25</ele><time>2026-05-03T08:30:24.968Z</time></trkpt><trkpt lat="44.687589436220186" lon="9.313534710447195"><ele>442.0</ele><time>2026-05-03T08:30:25.968Z</time></trkpt><trkpt lat="44.68747608374306" lon="9.313482797712819"><ele>442.0</ele><time>2026-05-03T08:30:26.968Z</time></trkpt><trkpt lat="44.68736260414771" lon="9.313453707425031"><ele>442.00000000000006</ele><time>2026-05-03T08:30:27.968Z</time></trkpt><trkpt lat="44.68727434252139" lon="9.31338995819288"><ele>442.00000000000006</ele><time>2026-05-03T08:30:28.968Z</time></trkpt><trkpt lat="44.687216777858325" lon="9.313276052460685"><ele>442.0</ele><time>2026-05-03T08:30:29.968Z</time></trkpt><trkpt lat="44.68716911896355" lon="9.31310706427678"><ele>442.0</ele><time>2026-05-03T08:30:30.968Z</time></trkpt><trkpt lat="44.687129468728855" lon="9.31289329463621"><ele>446.6666666666667</ele><time>2026-05-03T08:30:31.968Z</time></trkpt><trkpt lat="44.6870718366197" lon="9.312649513083807"><ele>451.33333333333337</ele><time>2026-05-03T08:30:32.968Z</time></trkpt><trkpt lat="44.68700734431584" lon="9.312409583549782"><ele>456.0</ele><time>2026-05-03T08:30:33.968Z</time></trkpt><trkpt lat="44.68691878796295" lon="9.312178263834797"><ele>456.0</ele><time>2026-05-03T08:30:34.968Z</time></trkpt><trkpt lat="44.686832889163476" lon="9.311976002463165"><ele>456.0</ele><time>2026-05-03T08:30:35.968Z</time></trkpt><trkpt lat="44.68674018898271" lon="9.311793275083357"><ele>456.0</ele><time>2026-05-03T08:30:36.968Z</time></trkpt><trkpt lat="44.68663561068095" lon="9.311659929126533"><ele>456.0</ele><time>2026-05-03T08:30:37.968Z</time></trkpt><trkpt lat="44.68651726961591" lon="9.311565357418749"><ele>456.0</ele><time>2026-05-03T08:30:38.968Z</time></trkpt><trkpt lat="44.68640102035979" lon="9.311512482387727"><ele>456.0</ele><time>2026-05-03T08:30:39.968Z</time></trkpt><trkpt lat="44.68630711404768" lon="9.311432254534509"><ele>456.0</ele><time>2026-05-03T08:30:40.968Z</time></trkpt><trkpt lat="44.686242044555975" lon="9.311321646062247"><ele>454.0</ele><time>2026-05-03T08:30:41.968Z</time></trkpt><trkpt lat="44.68622156130095" lon="9.311186305056635"><ele>452.0</ele><time>2026-05-03T08:30:42.967Z</time></trkpt><trkpt lat="44.68622124661709" lon="9.311029417567417"><ele>450.0</ele><time>2026-05-03T08:30:43.969Z</time></trkpt><trkpt lat="44.686243726902376" lon="9.310795115525348"><ele>448.0</ele><time>2026-05-03T08:30:44.971Z</time></trkpt><trkpt lat="44.686296240643905" lon="9.310571347126215"><ele>453.5</ele><time>2026-05-03T08:30:45.973Z</time></trkpt><trkpt lat="44.68634898927569" lon="9.310379666264796"><ele>459.0</ele><time>2026-05-03T08:30:46.975Z</time></trkpt><trkpt lat="44.68644270177243" lon="9.310255493225162"><ele>464.5</ele><time>2026-05-03T08:30:47.977Z</time></trkpt><trkpt lat="44.686563304219334" lon="9.310214130520432"><ele>470.0</ele><time>2026-05-03T08:30:48.979Z</time></trkpt><trkpt lat="44.68668992738313" lon="9.310192896689378"><ele>470.0</ele><time>2026-05-03T08:30:49.98Z</time></trkpt><trkpt lat="44.686791617896425" lon="9.310131324613819"><ele>470.0</ele><time>2026-05-03T08:30:50.981Z</time></trkpt><trkpt lat="44.68689981357408" lon="9.310017049971352"><ele>470.0</ele><time>2026-05-03T08:30:51.983Z</time></trkpt><trkpt lat="44.68698318014426" lon="9.309838852616197"><ele>470.0</ele><time>2026-05-03T08:30:52.984Z</time></trkpt><trkpt lat="44.68701459714171" lon="9.309642544389357"><ele>469.5</ele><time>2026-05-03T08:30:53.985Z</time></trkpt><trkpt lat="44.68699383060113" lon="9.309443098872762"><ele>469.0</ele><time>2026-05-03T08:30:54.986Z</time></trkpt><trkpt lat="44.68692921577514" lon="9.309258758788328"><ele>468.5</ele><time>2026-05-03T08:30:55.987Z</time></trkpt><trkpt lat="44.68683217571591" lon="9.309114797195317"><ele>468.0</ele><time>2026-05-03T08:30:56.988Z</time></trkpt><trkpt lat="44.686717910320695" lon="9.309007328252488"><ele>468.0</ele><time>2026-05-03T08:30:57.989Z</time></trkpt><trkpt lat="44.68657334780424" lon="9.308945126309176"><ele>468.0</ele><time>2026-05-03T08:30:58.99Z</time></trkpt><trkpt lat="44.68641008088788" lon="9.308910554731034"><ele>468.0</ele><time>2026-05-03T08:30:59.99Z</time></trkpt><trkpt lat="44.68626626289907" lon="9.308853822156895"><ele>462.66666666666663</ele><time>2026-05-03T08:31:00.991Z</time></trkpt><trkpt lat="44.68611862284808" lon="9.308819389051106"><ele>457.3333333333333</ele><time>2026-05-03T08:31:01.992Z</time></trkpt><trkpt lat="44.68596306673471" lon="9.308817246180727"><ele>452.0</ele><time>2026-05-03T08:31:02.992Z</time></trkpt><trkpt lat="44.68580617790099" lon="9.308855313439546"><ele>452.0</ele><time>2026-05-03T08:31:03.993Z</time></trkpt><trkpt lat="44.6856417530435" lon="9.308878170070464"><ele>452.0</ele><time>2026-05-03T08:31:04.993Z</time></trkpt><trkpt lat="44.685477606983696" lon="9.308848252441148"><ele>452.0</ele><time>2026-05-03T08:31:05.994Z</time></trkpt><trkpt lat="44.685310250410375" lon="9.308822774347174"><ele>456.0</ele><time>2026-05-03T08:31:06.994Z</time></trkpt><trkpt lat="44.68514682398101" lon="9.308830496848008"><ele>460.0</ele><time>2026-05-03T08:31:07.995Z</time></trkpt><trkpt lat="44.685005642964065" lon="9.308854326778626"><ele>464.0</ele><time>2026-05-03T08:31:08.995Z</time></trkpt><trkpt lat="44.6848704598079" lon="9.30890567157869"><ele>468.0</ele><time>2026-05-03T08:31:09.995Z</time></trkpt><trkpt lat="44.68475638653295" lon="9.309007698636634"><ele>473.5</ele><time>2026-05-03T08:31:10.996Z</time></trkpt><trkpt lat="44.68465446852516" lon="9.309065794152989"><ele>479.0</ele><time>2026-05-03T08:31:11.996Z</time></trkpt><trkpt lat="44.68457092708153" lon="9.309109713306777"><ele>484.5</ele><time>2026-05-03T08:31:12.996Z</time></trkpt><trkpt lat="44.68445311228955" lon="9.309133659918345"><ele>490.0</ele><time>2026-05-03T08:31:13.997Z</time></trkpt><trkpt lat="44.684303234753095" lon="9.309104431187876"><ele>490.25</ele><time>2026-05-03T08:31:14.997Z</time></trkpt><trkpt lat="44.68416795137953" lon="9.309092859647443"><ele>490.5</ele><time>2026-05-03T08:31:15.997Z</time></trkpt><trkpt lat="44.684043670426945" lon="9.309059338539699"><ele>490.75</ele><time>2026-05-03T08:31:16.997Z</time></trkpt><trkpt lat="44.68395268653468" lon="9.30897906853108"><ele>491.0</ele><time>2026-05-03T08:31:17.998Z</time></trkpt><trkpt lat="44.68388069238424" lon="9.308863275469626"><ele>490.5</ele><time>2026-05-03T08:31:18.998Z</time></trkpt><trkpt lat="44.68380618127823" lon="9.308709530215603"><ele>490.0</ele><time>2026-05-03T08:31:19.998Z</time></trkpt><trkpt lat="44.68371820878968" lon="9.3085756406933"><ele>489.5</ele><time>2026-05-03T08:31:20.998Z</time></trkpt><trkpt lat="44.68360776396623" lon="9.308474924451597"><ele>489.0</ele><time>2026-05-03T08:31:21.998Z</time></trkpt><trkpt lat="44.68348689776204" lon="9.308401661754797"><ele>489.0</ele><time>2026-05-03T08:31:22.999Z</time></trkpt><trkpt lat="44.6833891745236" lon="9.30832217684197"><ele>489.0</ele><time>2026-05-03T08:31:23.999Z</time></trkpt><trkpt lat="44.683319658932874" lon="9.30822810455487"><ele>489.0</ele><time>2026-05-03T08:31:24.999Z</time></trkpt><trkpt lat="44.68329722395491" lon="9.308124769739445"><ele>489.0</ele><time>2026-05-03T08:31:25.999Z</time></trkpt><trkpt lat="44.68332108011418" lon="9.308012855281051"><ele>489.0</ele><time>2026-05-03T08:31:26.999Z</time></trkpt><trkpt lat="44.68341839558808" lon="9.307913687593377"><ele>486.66666666666663</ele><time>2026-05-03T08:31:27.999Z</time></trkpt><trkpt lat="44.68351284260868" lon="9.307757033619538"><ele>484.3333333333333</ele><time>2026-05-03T08:31:28.999Z</time></trkpt><trkpt lat="44.6836061592661" lon="9.30759046798582"><ele>482.0</ele><time>2026-05-03T08:31:29.999Z</time></trkpt><trkpt lat="44.683681743995955" lon="9.307390057107883"><ele>481.66666666666663</ele><time>2026-05-03T08:31:31Z</time></trkpt><trkpt lat="44.68373413763983" lon="9.307155434609209"><ele>481.33333333333337</ele><time>2026-05-03T08:31:32Z</time></trkpt><trkpt lat="44.68377809599821" lon="9.30693930713841"><ele>481.0</ele><time>2026-05-03T08:31:33Z</time></trkpt><trkpt lat="44.68380698648613" lon="9.30672664024632"><ele>481.0</ele><time>2026-05-03T08:31:34Z</time></trkpt><trkpt lat="44.68382897350284" lon="9.306545829342996"><ele>481.0</ele><time>2026-05-03T08:31:35Z</time></trkpt><trkpt lat="44.683812284669884" lon="9.306365934463509"><ele>481.0</ele><time>2026-05-03T08:31:36Z</time></trkpt><trkpt lat="44.68376968459062" lon="9.3061934590156"><ele>481.0</ele><time>2026-05-03T08:31:37Z</time></trkpt><trkpt lat="44.68373429435154" lon="9.306029997392992"><ele>477.5</ele><time>2026-05-03T08:31:38Z</time></trkpt><trkpt lat="44.68367936174217" lon="9.305917817817877"><ele>474.0</ele><time>2026-05-03T08:31:39Z</time></trkpt><trkpt lat="44.68357506857905" lon="9.305863409534254"><ele>470.5</ele><time>2026-05-03T08:31:40Z</time></trkpt><trkpt lat="44.68343973211646" lon="9.305833563032305"><ele>467.0</ele><time>2026-05-03T08:31:41Z</time></trkpt><trkpt lat="44.68329362600611" lon="9.305781057227014"><ele>471.40000000000003</ele><time>2026-05-03T08:31:42Z</time></trkpt><trkpt lat="44.68318678104529" lon="9.305691846281256"><ele>475.80000000000007</ele><time>2026-05-03T08:31:43Z</time></trkpt><trkpt lat="44.683122278267916" lon="9.305580660955526"><ele>480.2</ele><time>2026-05-03T08:31:44Z</time></trkpt><trkpt lat="44.68310039988509" lon="9.305446061088068"><ele>484.6</ele><time>2026-05-03T08:31:45Z</time></trkpt><trkpt lat="44.68310258848146" lon="9.305294119693384"><ele>489.0</ele><time>2026-05-03T08:31:46Z</time></trkpt><trkpt lat="44.683106196378176" lon="9.305142954415732"><ele>489.0</ele><time>2026-05-03T08:31:47Z</time></trkpt><trkpt lat="44.68307943475586" lon="9.304991351311962"><ele>489.0</ele><time>2026-05-03T08:31:48Z</time></trkpt><trkpt lat="44.683005798820176" lon="9.304828664854897"><ele>489.0</ele><time>2026-05-03T08:31:49.001Z</time></trkpt><trkpt lat="44.68292318965726" lon="9.304656437124576"><ele>489.0</ele><time>2026-05-03T08:31:50.001Z</time></trkpt><trkpt lat="44.68286411542476" lon="9.304465766599098"><ele>489.5</ele><time>2026-05-03T08:31:51.001Z</time></trkpt><trkpt lat="44.68279739204137" lon="9.304300944788993"><ele>490.0</ele><time>2026-05-03T08:31:52.001Z</time></trkpt><trkpt lat="44.682731097386075" lon="9.304144290839037"><ele>490.5</ele><time>2026-05-03T08:31:53.001Z</time></trkpt><trkpt lat="44.68265196062171" lon="9.304015228481745"><ele>491.0</ele><time>2026-05-03T08:31:54.001Z</time></trkpt><trkpt lat="44.6825530217789" lon="9.303935557720296"><ele>494.3333333333333</ele><time>2026-05-03T08:31:55.001Z</time></trkpt><trkpt lat="44.68242528916316" lon="9.303897001014125"><ele>497.66666666666663</ele><time>2026-05-03T08:31:56.001Z</time></trkpt><trkpt lat="44.68226553654251" lon="9.303932704022822"><ele>501.0</ele><time>2026-05-03T08:31:57.001Z</time></trkpt><trkpt lat="44.68210185058864" lon="9.30397582394653"><ele>502.66666666666663</ele><time>2026-05-03T08:31:58.001Z</time></trkpt><trkpt lat="44.68191966717606" lon="9.304020509705593"><ele>504.3333333333333</ele><time>2026-05-03T08:31:59.001Z</time></trkpt><trkpt lat="44.681728031578764" lon="9.304067461146587"><ele>506.0</ele><time>2026-05-03T08:32:00.001Z</time></trkpt><trkpt lat="44.68154228953855" lon="9.304109534697755"><ele>506.0</ele><time>2026-05-03T08:32:01.001Z</time></trkpt><trkpt lat="44.681376374623305" lon="9.304146430604783"><ele>506.0</ele><time>2026-05-03T08:32:02.001Z</time></trkpt><trkpt lat="44.6812305658343" lon="9.304169967542428"><ele>506.0</ele><time>2026-05-03T08:32:03.001Z</time></trkpt><trkpt lat="44.68109989716543" lon="9.30418007519584"><ele>506.0</ele><time>2026-05-03T08:32:04.001Z</time></trkpt><trkpt lat="44.680968717181486" lon="9.304116309831258"><ele>504.3333333333333</ele><time>2026-05-03T08:32:05.001Z</time></trkpt><trkpt lat="44.68085323608565" lon="9.304012502917402"><ele>502.66666666666663</ele><time>2026-05-03T08:32:06.001Z</time></trkpt><trkpt lat="44.680737252590696" lon="9.303873427000507"><ele>501.0</ele><time>2026-05-03T08:32:07.001Z</time></trkpt><trkpt lat="44.68059923115333" lon="9.303722153099914"><ele>501.0</ele><time>2026-05-03T08:32:08.001Z</time></trkpt><trkpt lat="44.68047020665842" lon="9.303569726241882"><ele>501.0</ele><time>2026-05-03T08:32:09.001Z</time></trkpt><trkpt lat="44.680346479876505" lon="9.30342447502041"><ele>501.0</ele><time>2026-05-03T08:32:10.001Z</time></trkpt><trkpt lat="44.68023421109702" lon="9.303314429770912"><ele>505.25</ele><time>2026-05-03T08:32:11.001Z</time></trkpt><trkpt lat="44.68011289103502" lon="9.30322449759192"><ele>509.5</ele><time>2026-05-03T08:32:12.001Z</time></trkpt><trkpt lat="44.67998699349523" lon="9.30322801446759"><ele>513.75</ele><time>2026-05-03T08:32:13.001Z</time></trkpt><trkpt lat="44.679851210210714" lon="9.303303270136212"><ele>518.0</ele><time>2026-05-03T08:32:14.001Z</time></trkpt><trkpt lat="44.679710660555756" lon="9.303390146578874"><ele>518.0</ele><time>2026-05-03T08:32:15.001Z</time></trkpt><trkpt lat="44.679567058759865" lon="9.303515715463321"><ele>518.0</ele><time>2026-05-03T08:32:16.001Z</time></trkpt><trkpt lat="44.679422192704294" lon="9.303623390084269"><ele>518.0</ele><time>2026-05-03T08:32:17.001Z</time></trkpt><trkpt lat="44.6792613506408" lon="9.303668305940121"><ele>514.6666666666666</ele><time>2026-05-03T08:32:18.001Z</time></trkpt><trkpt lat="44.67909472768742" lon="9.30368777286274"><ele>511.33333333333337</ele><time>2026-05-03T08:32:19.001Z</time></trkpt><trkpt lat="44.67893221619389" lon="9.303710989776855"><ele>508.0</ele><time>2026-05-03T08:32:20.001Z</time></trkpt><trkpt lat="44.678796571981664" lon="9.30376045213592"><ele>508.0</ele><time>2026-05-03T08:32:21.001Z</time></trkpt><trkpt lat="44.67867648228663" lon="9.303815068792224"><ele>507.99999999999994</ele><time>2026-05-03T08:32:22.001Z</time></trkpt><trkpt lat="44.678595586219636" lon="9.30386345334158"><ele>507.99999999999994</ele><time>2026-05-03T08:32:23.001Z</time></trkpt><trkpt lat="44.67853375588819" lon="9.303908635988611"><ele>508.0</ele><time>2026-05-03T08:32:24.001Z</time></trkpt><trkpt lat="44.67846787852739" lon="9.30394203380561"><ele>508.0</ele><time>2026-05-03T08:32:25.001Z</time></trkpt><trkpt lat="44.67825964002927" lon="9.304393515250537"><ele>510.4</ele><time>2026-05-03T08:32:26.001Z</time></trkpt><trkpt lat="44.678215944263094" lon="9.304579249861115"><ele>512.8</ele><time>2026-05-03T08:32:27.001Z</time></trkpt><trkpt lat="44.67816524547207" lon="9.304719757393208"><ele>515.2</ele><time>2026-05-03T08:32:28.001Z</time></trkpt><trkpt lat="44.678084113138944" lon="9.3047769008"><ele>517.6</ele><time>2026-05-03T08:32:29.001Z</time></trkpt><trkpt lat="44.677988141457845" lon="9.304744965510345"><ele>520.0</ele><time>2026-05-03T08:32:30.001Z</time></trkpt><trkpt lat="44.67785690663653" lon="9.304811977226866"><ele>522.75</ele><time>2026-05-03T08:32:31.001Z</time></trkpt><trkpt lat="44.67773796631209" lon="9.304882670881183"><ele>525.5</ele><time>2026-05-03T08:32:32.001Z</time></trkpt><trkpt lat="44.67765277403603" lon="9.30504630608684"><ele>528.25</ele><time>2026-05-03T08:32:33.001Z</time></trkpt><trkpt lat="44.67757265572621" lon="9.305163381629319"><ele>531.0</ele><time>2026-05-03T08:32:34.001Z</time></trkpt><trkpt lat="44.67744043491763" lon="9.305155221986071"><ele>531.0</ele><time>2026-05-03T08:32:35.001Z</time></trkpt><trkpt lat="44.67727366892709" lon="9.305178355134105"><ele>531.0</ele><time>2026-05-03T08:32:36.001Z</time></trkpt><trkpt lat="44.6770898705752" lon="9.30521178007145"><ele>531.0</ele><time>2026-05-03T08:32:37.001Z</time></trkpt><trkpt lat="44.676892947184925" lon="9.305267377313756"><ele>530.6666666666666</ele><time>2026-05-03T08:32:38.001Z</time></trkpt><trkpt lat="44.67668345430584" lon="9.305299797075122"><ele>530.3333333333333</ele><time>2026-05-03T08:32:39.001Z</time></trkpt><trkpt lat="44.67647220597746" lon="9.305326183893147"><ele>530.0</ele><time>2026-05-03T08:32:40.001Z</time></trkpt><trkpt lat="44.67628991293371" lon="9.305347045785297"><ele>530.0</ele><time>2026-05-03T08:32:41.001Z</time></trkpt><trkpt lat="44.67613290405228" lon="9.30537813269346"><ele>530.0</ele><time>2026-05-03T08:32:42.001Z</time></trkpt><trkpt lat="44.67598745000706" lon="9.30544692345833"><ele>530.0</ele><time>2026-05-03T08:32:43.001Z</time></trkpt><trkpt lat="44.67586119069841" lon="9.305570220411205"><ele>532.6666666666666</ele><time>2026-05-03T08:32:44.001Z</time></trkpt><trkpt lat="44.675758495985534" lon="9.305741591764278"><ele>535.3333333333334</ele><time>2026-05-03T08:32:45.001Z</time></trkpt><trkpt lat="44.67566953506491" lon="9.305942228125351"><ele>538.0</ele><time>2026-05-03T08:32:46.001Z</time></trkpt><trkpt lat="44.675600928273134" lon="9.306137619135145"><ele>538.0</ele><time>2026-05-03T08:32:47.001Z</time></trkpt><trkpt lat="44.675549540151735" lon="9.30631073273362"><ele>538.0</ele><time>2026-05-03T08:32:48.001Z</time></trkpt><trkpt lat="44.675573612054436" lon="9.306519735778032"><ele>538.0</ele><time>2026-05-03T08:32:49.001Z</time></trkpt><trkpt lat="44.675594525023165" lon="9.306707505375552"><ele>538.0</ele><time>2026-05-03T08:32:50.001Z</time></trkpt><trkpt lat="44.67561809573517" lon="9.306859889260371"><ele>535.8</ele><time>2026-05-03T08:32:51.001Z</time></trkpt><trkpt lat="44.67560693965523" lon="9.306968090403553"><ele>533.5999999999999</ele><time>2026-05-03T08:32:52.001Z</time></trkpt><trkpt lat="44.67554868374955" lon="9.30704786946665"><ele>531.4000000000001</ele><time>2026-05-03T08:32:53.001Z</time></trkpt><trkpt lat="44.67544054889058" lon="9.307047975238248"><ele>529.2</ele><time>2026-05-03T08:32:54.001Z</time></trkpt><trkpt lat="44.67532636506409" lon="9.307145306702845"><ele>527.0</ele><time>2026-05-03T08:32:55.001Z</time></trkpt><trkpt lat="44.67524318565864" lon="9.30726764184763"><ele>527.0</ele><time>2026-05-03T08:32:56.001Z</time></trkpt><trkpt lat="44.675205791028915" lon="9.307431178777763"><ele>527.0</ele><time>2026-05-03T08:32:57.001Z</time></trkpt><trkpt lat="44.675205186397335" lon="9.30763449605405"><ele>527.0</ele><time>2026-05-03T08:32:58.001Z</time></trkpt><trkpt lat="44.67524056690989" lon="9.307860252914312"><ele>527.0</ele><time>2026-05-03T08:32:59.001Z</time></trkpt><trkpt lat="44.67529986300313" lon="9.308085727933468"><ele>535.75</ele><time>2026-05-03T08:33:00.001Z</time></trkpt><trkpt lat="44.67535835590035" lon="9.308273765097002"><ele>544.5</ele><time>2026-05-03T08:33:01.001Z</time></trkpt><trkpt lat="44.67541204484951" lon="9.308428181620672"><ele>553.25</ele><time>2026-05-03T08:33:02.001Z</time></trkpt><trkpt lat="44.67545539203424" lon="9.308561117848063"><ele>562.0</ele><time>2026-05-03T08:33:03.001Z</time></trkpt><trkpt lat="44.67549040480492" lon="9.308680750691192"><ele>562.0</ele><time>2026-05-03T08:33:04.001Z</time></trkpt><trkpt lat="44.67550235523426" lon="9.308782562944213"><ele>562.0</ele><time>2026-05-03T08:33:05.001Z</time></trkpt><trkpt lat="44.67546332216857" lon="9.308885612698527"><ele>562.0</ele><time>2026-05-03T08:33:06.001Z</time></trkpt><trkpt lat="44.67535070405374" lon="9.308937870374264"><ele>562.0</ele><time>2026-05-03T08:33:07.001Z</time></trkpt><trkpt lat="44.67524170428902" lon="9.309026832924063"><ele>562.0</ele><time>2026-05-03T08:33:08.001Z</time></trkpt><trkpt lat="44.675117545712" lon="9.309123300430112"><ele>559.4</ele><time>2026-05-03T08:33:09.001Z</time></trkpt><trkpt lat="44.6750072278906" lon="9.309227634171092"><ele>556.8000000000001</ele><time>2026-05-03T08:33:10.001Z</time></trkpt><trkpt lat="44.67491929583615" lon="9.30929979155933"><ele>554.2</ele><time>2026-05-03T08:33:11Z</time></trkpt><trkpt lat="44.67483734468419" lon="9.309331923364148"><ele>551.6</ele><time>2026-05-03T08:33:12Z</time></trkpt><trkpt lat="44.674743148121166" lon="9.3092902978044"><ele>549.0</ele><time>2026-05-03T08:33:13Z</time></trkpt><trkpt lat="44.67468368200645" lon="9.309126448522298"><ele>549.0</ele><time>2026-05-03T08:33:14Z</time></trkpt><trkpt lat="44.67459262656601" lon="9.309002055408069"><ele>549.0</ele><time>2026-05-03T08:33:15Z</time></trkpt><trkpt lat="44.674486498361716" lon="9.308928904387916"><ele>549.0</ele><time>2026-05-03T08:33:16Z</time></trkpt><trkpt lat="44.67435612847307" lon="9.308925869663534"><ele>549.0</ele><time>2026-05-03T08:33:17Z</time></trkpt><trkpt lat="44.67423454048648" lon="9.308983478045839"><ele>551.0</ele><time>2026-05-03T08:33:18Z</time></trkpt><trkpt lat="44.674121064355305" lon="9.309036602444374"><ele>553.0</ele><time>2026-05-03T08:33:19Z</time></trkpt><trkpt lat="44.67399816764066" lon="9.308993151301861"><ele>555.0</ele><time>2026-05-03T08:33:20Z</time></trkpt><trkpt lat="44.67387740941367" lon="9.3089015418838"><ele>557.0</ele><time>2026-05-03T08:33:21Z</time></trkpt><trkpt lat="44.67376735162407" lon="9.308752146593925"><ele>550.5</ele><time>2026-05-03T08:33:22Z</time></trkpt><trkpt lat="44.673635282664016" lon="9.308632606432969"><ele>544.0</ele><time>2026-05-03T08:33:23Z</time></trkpt><trkpt lat="44.673529091427085" lon="9.308524858334835"><ele>537.5</ele><time>2026-05-03T08:33:24Z</time></trkpt><trkpt lat="44.67342340559309" lon="9.3084631759321"><ele>531.0</ele><time>2026-05-03T08:33:25Z</time></trkpt><trkpt lat="44.67331513300949" lon="9.308433775926295"><ele>531.0</ele><time>2026-05-03T08:33:26Z</time></trkpt><trkpt lat="44.67319938967134" lon="9.308464610663876"><ele>531.0</ele><time>2026-05-03T08:33:27Z</time></trkpt><trkpt lat="44.67309320680036" lon="9.308542846204753"><ele>531.0</ele><time>2026-05-03T08:33:28Z</time></trkpt><trkpt lat="44.67301321207824" lon="9.30868692483329"><ele>531.0</ele><time>2026-05-03T08:33:29Z</time></trkpt><trkpt lat="44.67295216800879" lon="9.308874243835804"><ele>533.5</ele><time>2026-05-03T08:33:30Z</time></trkpt><trkpt lat="44.67286460837284" lon="9.309017387284827"><ele>536.0</ele><time>2026-05-03T08:33:31Z</time></trkpt><trkpt lat="44.67278391181673" lon="9.309155621077847"><ele>538.5</ele><time>2026-05-03T08:33:32Z</time></trkpt><trkpt lat="44.67268837789966" lon="9.30925124153697"><ele>541.0</ele><time>2026-05-03T08:33:33Z</time></trkpt><trkpt lat="44.67257176982228" lon="9.309339228308481"><ele>541.0</ele><time>2026-05-03T08:33:34Z</time></trkpt><trkpt lat="44.672453549725965" lon="9.309445306358368"><ele>541.0</ele><time>2026-05-03T08:33:35Z</time></trkpt><trkpt lat="44.67233234327706" lon="9.309534308450617"><ele>541.0</ele><time>2026-05-03T08:33:36Z</time></trkpt><trkpt lat="44.67222006033142" lon="9.309622971577408"><ele>541.0</ele><time>2026-05-03T08:33:37Z</time></trkpt><trkpt lat="44.67210026890182" lon="9.309647193052767"><ele>541.0</ele><time>2026-05-03T08:33:38Z</time></trkpt><trkpt lat="44.671974094096484" lon="9.30963412558316"><ele>541.0</ele><time>2026-05-03T08:33:39Z</time></trkpt><trkpt lat="44.67182440889917" lon="9.30962996550487"><ele>541.0</ele><time>2026-05-03T08:33:40Z</time></trkpt><trkpt lat="44.6716788165335" lon="9.30965589741013"><ele>541.0</ele><time>2026-05-03T08:33:41Z</time></trkpt><trkpt lat="44.671537955614355" lon="9.30967086810037"><ele>538.0</ele><time>2026-05-03T08:33:42Z</time></trkpt><trkpt lat="44.67141878381644" lon="9.30963869770655"><ele>535.0</ele><time>2026-05-03T08:33:43Z</time></trkpt><trkpt lat="44.671329137497644" lon="9.309520054210127"><ele>532.0</ele><time>2026-05-03T08:33:44Z</time></trkpt><trkpt lat="44.671215304653394" lon="9.309440773210586"><ele>529.0</ele><time>2026-05-03T08:33:45Z</time></trkpt><trkpt lat="44.671111017211295" lon="9.309367587059636"><ele>529.75</ele><time>2026-05-03T08:33:46Z</time></trkpt><trkpt lat="44.671001123201414" lon="9.309354931891463"><ele>530.5</ele><time>2026-05-03T08:33:47Z</time></trkpt><trkpt lat="44.67090514551899" lon="9.309427787598068"><ele>531.25</ele><time>2026-05-03T08:33:48Z</time></trkpt><trkpt lat="44.67081333894709" lon="9.309536152529763"><ele>532.0</ele><time>2026-05-03T08:33:49Z</time></trkpt><trkpt lat="44.67070421469102" lon="9.309605200321892"><ele>532.0</ele><time>2026-05-03T08:33:50Z</time></trkpt><trkpt lat="44.67055618255024" lon="9.309597714108191"><ele>532.0</ele><time>2026-05-03T08:33:51Z</time></trkpt><trkpt lat="44.67040550010444" lon="9.309585393568163"><ele>532.0</ele><time>2026-05-03T08:33:52Z</time></trkpt><trkpt lat="44.67027813721349" lon="9.309570655519996"><ele>532.0</ele><time>2026-05-03T08:33:53Z</time></trkpt><trkpt lat="44.670182259120566" lon="9.309472409972765"><ele>530.25</ele><time>2026-05-03T08:33:54Z</time></trkpt><trkpt lat="44.6700767157499" lon="9.309428897641148"><ele>528.5</ele><time>2026-05-03T08:33:55Z</time></trkpt><trkpt lat="44.66997101644047" lon="9.309394138143594"><ele>526.75</ele><time>2026-05-03T08:33:56Z</time></trkpt><trkpt lat="44.669860348802096" lon="9.309415712756868"><ele>525.0</ele><time>2026-05-03T08:33:57Z</time></trkpt><trkpt lat="44.66976227102057" lon="9.309518709254737"><ele>525.0</ele><time>2026-05-03T08:33:58Z</time></trkpt><trkpt lat="44.66969035495471" lon="9.3096602861052"><ele>525.0</ele><time>2026-05-03T08:33:59Z</time></trkpt><trkpt lat="44.669648290568745" lon="9.309826710459033"><ele>525.0</ele><time>2026-05-03T08:34:00Z</time></trkpt><trkpt lat="44.66962819129227" lon="9.310010084603315"><ele>525.0</ele><time>2026-05-03T08:34:01Z</time></trkpt><trkpt lat="44.66964651218096" lon="9.310192042324994"><ele>530.8</ele><time>2026-05-03T08:34:02Z</time></trkpt><trkpt lat="44.66967695878951" lon="9.3103590120979"><ele>536.6</ele><time>2026-05-03T08:34:03Z</time></trkpt><trkpt lat="44.66970373996128" lon="9.310492996294718"><ele>542.4</ele><time>2026-05-03T08:34:04Z</time></trkpt><trkpt lat="44.66970686780799" lon="9.31061353072189"><ele>548.2</ele><time>2026-05-03T08:34:05Z</time></trkpt><trkpt lat="44.66969276657919" lon="9.310725921278454"><ele>554.0</ele><time>2026-05-03T08:34:06Z</time></trkpt><trkpt lat="44.66963218268496" lon="9.310787010252502"><ele>550.25</ele><time>2026-05-03T08:34:07Z</time></trkpt><trkpt lat="44.66954266858762" lon="9.310816119342986"><ele>546.5</ele><time>2026-05-03T08:34:08Z</time></trkpt><trkpt lat="44.66943029765543" lon="9.310822050749977"><ele>542.75</ele><time>2026-05-03T08:34:09Z</time></trkpt><trkpt lat="44.66930606277274" lon="9.310842309836934"><ele>539.0</ele><time>2026-05-03T08:34:10Z</time></trkpt><trkpt lat="44.669186753258295" lon="9.310866402882734"><ele>539.0</ele><time>2026-05-03T08:34:11Z</time></trkpt><trkpt lat="44.669082584738554" lon="9.310933475752854"><ele>539.0</ele><time>2026-05-03T08:34:12Z</time></trkpt><trkpt lat="44.669004968575834" lon="9.311042622967465"><ele>539.0</ele><time>2026-05-03T08:34:13Z</time></trkpt><trkpt lat="44.66896672509008" lon="9.311221405563488"><ele>539.0</ele><time>2026-05-03T08:34:14Z</time></trkpt><trkpt lat="44.66893798693875" lon="9.311400670692237"><ele>544.0</ele><time>2026-05-03T08:34:15Z</time></trkpt><trkpt lat="44.668899295957054" lon="9.31157679813018"><ele>549.0</ele><time>2026-05-03T08:34:16Z</time></trkpt><trkpt lat="44.66887427131156" lon="9.311731817230536"><ele>554.0</ele><time>2026-05-03T08:34:17Z</time></trkpt><trkpt lat="44.66884558398068" lon="9.311865349730999"><ele>559.0</ele><time>2026-05-03T08:34:18Z</time></trkpt><trkpt lat="44.6688011377725" lon="9.311966154021144"><ele>564.0</ele><time>2026-05-03T08:34:19Z</time></trkpt><trkpt lat="44.6687315492508" lon="9.312033552563808"><ele>564.0</ele><time>2026-05-03T08:34:20Z</time></trkpt><trkpt lat="44.66863093052721" lon="9.31206151444116"><ele>564.0</ele><time>2026-05-03T08:34:21Z</time></trkpt><trkpt lat="44.668489126965724" lon="9.312080294299358"><ele>564.0</ele><time>2026-05-03T08:34:22Z</time></trkpt><trkpt lat="44.66832751449105" lon="9.312075130623134"><ele>564.0</ele><time>2026-05-03T08:34:23Z</time></trkpt><trkpt lat="44.66820076301618" lon="9.312032860173701"><ele>559.0</ele><time>2026-05-03T08:34:24Z</time></trkpt><trkpt lat="44.66809830881449" lon="9.311922016338045"><ele>554.0</ele><time>2026-05-03T08:34:25Z</time></trkpt><trkpt lat="44.667996615711985" lon="9.31180508822254"><ele>549.0</ele><time>2026-05-03T08:34:26Z</time></trkpt><trkpt lat="44.66790425934282" lon="9.311728593999204"><ele>544.0</ele><time>2026-05-03T08:34:27Z</time></trkpt><trkpt lat="44.6678147748114" lon="9.311710364747029"><ele>540.5</ele><time>2026-05-03T08:34:28Z</time></trkpt><trkpt lat="44.66771995096778" lon="9.311759604676885"><ele>537.0</ele><time>2026-05-03T08:34:29Z</time></trkpt><trkpt lat="44.66763837996301" lon="9.311887562951359"><ele>533.5</ele><time>2026-05-03T08:34:30Z</time></trkpt><trkpt lat="44.6675754353223" lon="9.312070445539739"><ele>530.0</ele><time>2026-05-03T08:34:31Z</time></trkpt><trkpt lat="44.66748920703383" lon="9.312251128801783"><ele>537.0</ele><time>2026-05-03T08:34:32Z</time></trkpt><trkpt lat="44.66741059844755" lon="9.312425325192631"><ele>544.0</ele><time>2026-05-03T08:34:33Z</time></trkpt><trkpt lat="44.667342915060935" lon="9.312573564684351"><ele>551.0</ele><time>2026-05-03T08:34:34Z</time></trkpt><trkpt lat="44.66728999088456" lon="9.312715904815425"><ele>558.0</ele><time>2026-05-03T08:34:35Z</time></trkpt><trkpt lat="44.667190560611196" lon="9.312801513406475"><ele>558.0</ele><time>2026-05-03T08:34:36Z</time></trkpt><trkpt lat="44.66708596393178" lon="9.312842841062736"><ele>558.0</ele><time>2026-05-03T08:34:37Z</time></trkpt><trkpt lat="44.666951491438134" lon="9.31287506067764"><ele>558.0</ele><time>2026-05-03T08:34:38Z</time></trkpt><trkpt lat="44.66678400758482" lon="9.312927281363272"><ele>558.0</ele><time>2026-05-03T08:34:39Z</time></trkpt><trkpt lat="44.66664060011284" lon="9.312969810725917"><ele>560.6</ele><time>2026-05-03T08:34:40Z</time></trkpt><trkpt lat="44.666515235902125" lon="9.313002953894616"><ele>563.1999999999999</ele><time>2026-05-03T08:34:41Z</time></trkpt><trkpt lat="44.66640680264719" lon="9.313048460132794"><ele>565.8</ele><time>2026-05-03T08:34:42Z</time></trkpt><trkpt lat="44.66632081655804" lon="9.313078258663243"><ele>568.4</ele><time>2026-05-03T08:34:43Z</time></trkpt><trkpt lat="44.66624858821001" lon="9.313069466902041"><ele>571.0</ele><time>2026-05-03T08:34:44Z</time></trkpt><trkpt lat="44.66616356921136" lon="9.312977169272122"><ele>567.75</ele><time>2026-05-03T08:34:45Z</time></trkpt><trkpt lat="44.666140472817744" lon="9.31281949350181"><ele>564.5</ele><time>2026-05-03T08:34:46Z</time></trkpt><trkpt lat="44.66606596487929" lon="9.312702584783294"><ele>561.25</ele><time>2026-05-03T08:34:47Z</time></trkpt><trkpt lat="44.665972829534155" lon="9.3125643514076"><ele>558.0</ele><time>2026-05-03T08:34:48Z</time></trkpt><trkpt lat="44.665831949215594" lon="9.312487164219727"><ele>558.0</ele><time>2026-05-03T08:34:49Z</time></trkpt><trkpt lat="44.66568639996392" lon="9.312411774742104"><ele>558.0</ele><time>2026-05-03T08:34:50Z</time></trkpt><trkpt lat="44.665581920622685" lon="9.312293693204172"><ele>558.0</ele><time>2026-05-03T08:34:51Z</time></trkpt><trkpt lat="44.66552757387349" lon="9.312099608104724"><ele>558.0</ele><time>2026-05-03T08:34:52Z</time></trkpt><trkpt lat="44.665470562722646" lon="9.31189974138801"><ele>559.6666666666666</ele><time>2026-05-03T08:34:53Z</time></trkpt><trkpt lat="44.665385241490455" lon="9.311731428309926"><ele>561.3333333333333</ele><time>2026-05-03T08:34:54Z</time></trkpt><trkpt lat="44.66527564758128" lon="9.31156345591489"><ele>563.0</ele><time>2026-05-03T08:34:55Z</time></trkpt><trkpt lat="44.665160042992646" lon="9.311394024175382"><ele>557.6666666666666</ele><time>2026-05-03T08:34:56Z</time></trkpt><trkpt lat="44.66501073885293" lon="9.311268682157914"><ele>552.3333333333334</ele><time>2026-05-03T08:34:57Z</time></trkpt><trkpt lat="44.66485466775218" lon="9.311177820786874"><ele>547.0</ele><time>2026-05-03T08:34:58Z</time></trkpt><trkpt lat="44.664699493555254" lon="9.311145713795542"><ele>547.0</ele><time>2026-05-03T08:34:59Z</time></trkpt><trkpt lat="44.664560964288576" lon="9.311167936772572"><ele>547.0</ele><time>2026-05-03T08:35:00Z</time></trkpt><trkpt lat="44.66441743968445" lon="9.311224238021875"><ele>547.0</ele><time>2026-05-03T08:35:01Z</time></trkpt><trkpt lat="44.66427693904893" lon="9.311268207483371"><ele>547.0</ele><time>2026-05-03T08:35:02Z</time></trkpt><trkpt lat="44.66413860113115" lon="9.311289845185573"><ele>545.5</ele><time>2026-05-03T08:35:03Z</time></trkpt><trkpt lat="44.66401079540833" lon="9.311351892158566"><ele>544.0</ele><time>2026-05-03T08:35:04Z</time></trkpt><trkpt lat="44.66389943456668" lon="9.311469176158377"><ele>542.5</ele><time>2026-05-03T08:35:05Z</time></trkpt><trkpt lat="44.66380207169726" lon="9.311629303113305"><ele>541.0</ele><time>2026-05-03T08:35:06Z</time></trkpt><trkpt lat="44.6636763941521" lon="9.311768215760193"><ele>541.0</ele><time>2026-05-03T08:35:07Z</time></trkpt><trkpt lat="44.66351004878653" lon="9.311886924835418"><ele>541.0</ele><time>2026-05-03T08:35:08Z</time></trkpt><trkpt lat="44.66332379321989" lon="9.312001515950518"><ele>541.0</ele><time>2026-05-03T08:35:09Z</time></trkpt><trkpt lat="44.66315156990663" lon="9.312118301851557"><ele>540.6666666666667</ele><time>2026-05-03T08:35:10Z</time></trkpt><trkpt lat="44.66299002423754" lon="9.312243533226868"><ele>540.3333333333334</ele><time>2026-05-03T08:35:11Z</time></trkpt><trkpt lat="44.66284884268688" lon="9.31237215749473"><ele>540.0</ele><time>2026-05-03T08:35:12Z</time></trkpt><trkpt lat="44.66273300232626" lon="9.312487131920811"><ele>540.0</ele><time>2026-05-03T08:35:13Z</time></trkpt><trkpt lat="44.66264505017856" lon="9.312599262587879"><ele>540.0</ele><time>2026-05-03T08:35:14Z</time></trkpt><trkpt lat="44.6625776291252" lon="9.312719694952417"><ele>540.0</ele><time>2026-05-03T08:35:15Z</time></trkpt><trkpt lat="44.662532697200554" lon="9.312871425719198"><ele>540.0</ele><time>2026-05-03T08:35:16Z</time></trkpt><trkpt lat="44.66249925425467" lon="9.313027443393096"><ele>545.25</ele><time>2026-05-03T08:35:17Z</time></trkpt><trkpt lat="44.66242986453857" lon="9.313153518470287"><ele>550.5</ele><time>2026-05-03T08:35:18Z</time></trkpt><trkpt lat="44.66231145856557" lon="9.31327825963596"><ele>555.75</ele><time>2026-05-03T08:35:19Z</time></trkpt><trkpt lat="44.66217414979555" lon="9.313374746292183"><ele>561.0</ele><time>2026-05-03T08:35:20Z</time></trkpt><trkpt lat="44.66205353457509" lon="9.313428319037945"><ele>561.0</ele><time>2026-05-03T08:35:21Z</time></trkpt><trkpt lat="44.66193931794484" lon="9.313413609067412"><ele>561.0</ele><time>2026-05-03T08:35:22Z</time></trkpt><trkpt lat="44.66185843849051" lon="9.313344410629284"><ele>561.0</ele><time>2026-05-03T08:35:23Z</time></trkpt><trkpt lat="44.66179760728903" lon="9.313191044940792"><ele>561.0</ele><time>2026-05-03T08:35:24Z</time></trkpt><trkpt lat="44.661732206961815" lon="9.312992793402817"><ele>556.0</ele><time>2026-05-03T08:35:25Z</time></trkpt><trkpt lat="44.66165674889625" lon="9.31277507260894"><ele>551.0</ele><time>2026-05-03T08:35:26Z</time></trkpt><trkpt lat="44.66156821927799" lon="9.31252154280367"><ele>546.0</ele><time>2026-05-03T08:35:27Z</time></trkpt><trkpt lat="44.661480844169006" lon="9.312271723940908"><ele>543.0</ele><time>2026-05-03T08:35:28Z</time></trkpt><trkpt lat="44.661396030698185" lon="9.312032766410798"><ele>540.0</ele><time>2026-05-03T08:35:29Z</time></trkpt><trkpt lat="44.66130429034215" lon="9.311784688127071"><ele>537.0</ele><time>2026-05-03T08:35:30Z</time></trkpt><trkpt lat="44.66123463525222" lon="9.31153605165474"><ele>535.6666666666666</ele><time>2026-05-03T08:35:31Z</time></trkpt><trkpt lat="44.66118706680836" lon="9.311318615476331"><ele>534.3333333333333</ele><time>2026-05-03T08:35:32Z</time></trkpt><trkpt lat="44.66116522842812" lon="9.31109457430242"><ele>533.0</ele><time>2026-05-03T08:35:33Z</time></trkpt><trkpt lat="44.661147507894306" lon="9.310880762151095"><ele>533.0</ele><time>2026-05-03T08:35:34Z</time></trkpt><trkpt lat="44.66112948807679" lon="9.31067759526712"><ele>533.0</ele><time>2026-05-03T08:35:35Z</time></trkpt><trkpt lat="44.661095656842754" lon="9.310463222564078"><ele>533.0</ele><time>2026-05-03T08:35:36Z</time></trkpt><trkpt lat="44.66105656251291" lon="9.310282272313993"><ele>533.0</ele><time>2026-05-03T08:35:37Z</time></trkpt><trkpt lat="44.6610039598942" lon="9.310116172630755"><ele>533.1999999999999</ele><time>2026-05-03T08:35:38Z</time></trkpt><trkpt lat="44.66093583809513" lon="9.309989778452216"><ele>533.4</ele><time>2026-05-03T08:35:39Z</time></trkpt><trkpt lat="44.660837935324636" lon="9.309921501414324"><ele>533.5999999999999</ele><time>2026-05-03T08:35:40Z</time></trkpt><trkpt lat="44.66073477853283" lon="9.30990715139611"><ele>533.8</ele><time>2026-05-03T08:35:41Z</time></trkpt><trkpt lat="44.66063646072121" lon="9.310008297137143"><ele>534.0</ele><time>2026-05-03T08:35:42Z</time></trkpt><trkpt lat="44.660554693378444" lon="9.310157302047632"><ele>534.0</ele><time>2026-05-03T08:35:43Z</time></trkpt><trkpt lat="44.66050939818652" lon="9.310348915960681"><ele>534.0</ele><time>2026-05-03T08:35:44Z</time></trkpt><trkpt lat="44.6604675556876" lon="9.310518128500824"><ele>534.0</ele><time>2026-05-03T08:35:45Z</time></trkpt><trkpt lat="44.66039634410426" lon="9.310636571371376"><ele>534.0</ele><time>2026-05-03T08:35:46Z</time></trkpt><trkpt lat="44.66027599996515" lon="9.310691120027304"><ele>534.0</ele><time>2026-05-03T08:35:47Z</time></trkpt><trkpt lat="44.660132306059126" lon="9.310769824972132"><ele>534.0</ele><time>2026-05-03T08:35:48Z</time></trkpt><trkpt lat="44.65998740500995" lon="9.31091195163281"><ele>534.0</ele><time>2026-05-03T08:35:49Z</time></trkpt><trkpt lat="44.65983303729756" lon="9.311063858472355"><ele>534.0</ele><time>2026-05-03T08:35:50Z</time></trkpt><trkpt lat="44.6596894634414" lon="9.31122089494564"><ele>534.0</ele><time>2026-05-03T08:35:51Z</time></trkpt><trkpt lat="44.65955071330676" lon="9.311368625697972"><ele>534.0</ele><time>2026-05-03T08:35:52Z</time></trkpt><trkpt lat="44.65938015065892" lon="9.311503077905142"><ele>534.0</ele><time>2026-05-03T08:35:53Z</time></trkpt><trkpt lat="44.6591937435612" lon="9.311631004507655"><ele>534.0</ele><time>2026-05-03T08:35:54Z</time></trkpt><trkpt lat="44.659010532028866" lon="9.31173045484313"><ele>534.0</ele><time>2026-05-03T08:35:55Z</time></trkpt><trkpt lat="44.65882937403512" lon="9.311822975676419"><ele>534.0</ele><time>2026-05-03T08:35:56Z</time></trkpt><trkpt lat="44.658657980141285" lon="9.311923006690536"><ele>534.0</ele><time>2026-05-03T08:35:57Z</time></trkpt><trkpt lat="44.65848485350534" lon="9.312036163074456"><ele>534.0</ele><time>2026-05-03T08:35:58Z</time></trkpt><trkpt lat="44.65832167850444" lon="9.312141731749435"><ele>535.0</ele><time>2026-05-03T08:35:59Z</time></trkpt><trkpt lat="44.65816847040222" lon="9.31225415494295"><ele>536.0</ele><time>2026-05-03T08:36:00Z</time></trkpt><trkpt lat="44.65803133354001" lon="9.312364145608047"><ele>537.0</ele><time>2026-05-03T08:36:01Z</time></trkpt><trkpt lat="44.657905090197595" lon="9.312468929871033"><ele>534.0</ele><time>2026-05-03T08:36:02Z</time></trkpt><trkpt lat="44.657777796897435" lon="9.312555958733425"><ele>531.0</ele><time>2026-05-03T08:36:03Z</time></trkpt><trkpt lat="44.657633804684274" lon="9.312621397254096"><ele>528.0</ele><time>2026-05-03T08:36:04Z</time></trkpt><trkpt lat="44.65748477470033" lon="9.31266584153739"><ele>525.0</ele><time>2026-05-03T08:36:05Z</time></trkpt><trkpt lat="44.657346970747" lon="9.312738326369576"><ele>525.0</ele><time>2026-05-03T08:36:06Z</time></trkpt><trkpt lat="44.6572257834365" lon="9.312812862659873"><ele>525.0</ele><time>2026-05-03T08:36:07Z</time></trkpt><trkpt lat="44.65710652379664" lon="9.312874838921108"><ele>525.0</ele><time>2026-05-03T08:36:08Z</time></trkpt><trkpt lat="44.65699709634249" lon="9.312920100646776"><ele>525.0</ele><time>2026-05-03T08:36:09Z</time></trkpt><trkpt lat="44.656897799205666" lon="9.312920922657046"><ele>525.75</ele><time>2026-05-03T08:36:10Z</time></trkpt><trkpt lat="44.6568001003893" lon="9.312844583338158"><ele>526.5</ele><time>2026-05-03T08:36:11Z</time></trkpt><trkpt lat="44.656701155386045" lon="9.312707838862895"><ele>527.25</ele><time>2026-05-03T08:36:12Z</time></trkpt><trkpt lat="44.65659356871736" lon="9.31255551427837"><ele>528.0</ele><time>2026-05-03T08:36:13Z</time></trkpt><trkpt lat="44.656489799472816" lon="9.312419864073018"><ele>528.0</ele><time>2026-05-03T08:36:14Z</time></trkpt><trkpt lat="44.65639089152819" lon="9.312298661951568"><ele>528.0</ele><time>2026-05-03T08:36:15Z</time></trkpt><trkpt lat="44.65629944088718" lon="9.312204785675117"><ele>528.0</ele><time>2026-05-03T08:36:16Z</time></trkpt><trkpt lat="44.65619816855439" lon="9.312166797114457"><ele>528.0</ele><time>2026-05-03T08:36:17Z</time></trkpt><trkpt lat="44.656091406047224" lon="9.312208807551038"><ele>528.0</ele><time>2026-05-03T08:36:18Z</time></trkpt><trkpt lat="44.65597845971182" lon="9.312304493997479"><ele>528.0</ele><time>2026-05-03T08:36:19Z</time></trkpt><trkpt lat="44.655871997380885" lon="9.312406074385263"><ele>528.0</ele><time>2026-05-03T08:36:20Z</time></trkpt><trkpt lat="44.655773855282646" lon="9.312482049094555"><ele>528.0</ele><time>2026-05-03T08:36:21Z</time></trkpt><trkpt lat="44.655659037444174" lon="9.312503431558754"><ele>528.0</ele><time>2026-05-03T08:36:22Z</time></trkpt><trkpt lat="44.655538431503665" lon="9.312505276574962"><ele>528.0</ele><time>2026-05-03T08:36:23Z</time></trkpt><trkpt lat="44.65540104584284" lon="9.312495690143734"><ele>528.0</ele><time>2026-05-03T08:36:24Z</time></trkpt><trkpt lat="44.6552584266918" lon="9.312456919572847"><ele>528.0</ele><time>2026-05-03T08:36:25Z</time></trkpt><trkpt lat="44.65512602183625" lon="9.312370669470486"><ele>527.5</ele><time>2026-05-03T08:36:26Z</time></trkpt><trkpt lat="44.65499200214785" lon="9.312270486864932"><ele>527.0</ele><time>2026-05-03T08:36:27Z</time></trkpt><trkpt lat="44.65486473746445" lon="9.312194032951188"><ele>526.5</ele><time>2026-05-03T08:36:28Z</time></trkpt><trkpt lat="44.65474892906387" lon="9.312179376565405"><ele>526.0</ele><time>2026-05-03T08:36:29Z</time></trkpt><trkpt lat="44.65463331359652" lon="9.31228051505522"><ele>526.0</ele><time>2026-05-03T08:36:30Z</time></trkpt><trkpt lat="44.65452154896307" lon="9.312387768912727"><ele>526.0</ele><time>2026-05-03T08:36:31Z</time></trkpt><trkpt lat="44.65442466268959" lon="9.312542965219082"><ele>526.0</ele><time>2026-05-03T08:36:32Z</time></trkpt><trkpt lat="44.654341879289646" lon="9.312705561220927"><ele>526.0</ele><time>2026-05-03T08:36:33Z</time></trkpt><trkpt lat="44.65429140200406" lon="9.312880510297612"><ele>524.5</ele><time>2026-05-03T08:36:34Z</time></trkpt><trkpt lat="44.65420108299934" lon="9.313023251058029"><ele>523.0</ele><time>2026-05-03T08:36:35Z</time></trkpt><trkpt lat="44.654097232940025" lon="9.313136168277367"><ele>521.5</ele><time>2026-05-03T08:36:36Z</time></trkpt><trkpt lat="44.654004656878975" lon="9.31324593861893"><ele>520.0</ele><time>2026-05-03T08:36:37Z</time></trkpt><trkpt lat="44.653948440067886" lon="9.313356137643433"><ele>520.0</ele><time>2026-05-03T08:36:38Z</time></trkpt><trkpt lat="44.65393710779878" lon="9.313486705996475"><ele>520.0</ele><time>2026-05-03T08:36:39Z</time></trkpt><trkpt lat="44.65397846295048" lon="9.3136169311901"><ele>520.0</ele><time>2026-05-03T08:36:40Z</time></trkpt><trkpt lat="44.65405777911053" lon="9.313763167718852"><ele>520.0</ele><time>2026-05-03T08:36:41Z</time></trkpt><trkpt lat="44.65414324854125" lon="9.31388553476978"><ele>520.0</ele><time>2026-05-03T08:36:42Z</time></trkpt><trkpt lat="44.65421934505518" lon="9.313992690634846"><ele>518.8</ele><time>2026-05-03T08:36:43Z</time></trkpt><trkpt lat="44.654297873885966" lon="9.314086456014813"><ele>517.6</ele><time>2026-05-03T08:36:44Z</time></trkpt><trkpt lat="44.65435352088256" lon="9.31420849663235"><ele>516.4</ele><time>2026-05-03T08:36:45Z</time></trkpt><trkpt lat="44.65440726257799" lon="9.31432952068846"><ele>515.2</ele><time>2026-05-03T08:36:46Z</time></trkpt><trkpt lat="44.6544482751087" lon="9.31447828620699"><ele>514.0</ele><time>2026-05-03T08:36:47Z</time></trkpt><trkpt lat="44.65443470818927" lon="9.314650756427968"><ele>514.5</ele><time>2026-05-03T08:36:48Z</time></trkpt><trkpt lat="44.65438210803186" lon="9.314808063669886"><ele>515.0</ele><time>2026-05-03T08:36:49Z</time></trkpt><trkpt lat="44.654297250827625" lon="9.314897968214856"><ele>515.5</ele><time>2026-05-03T08:36:50Z</time></trkpt><trkpt lat="44.65417314844382" lon="9.314945085635873"><ele>516.0</ele><time>2026-05-03T08:36:51Z</time></trkpt><trkpt lat="44.65403468704371" lon="9.314975678085622"><ele>516.0</ele><time>2026-05-03T08:36:52Z</time></trkpt><trkpt lat="44.653904414311995" lon="9.31500854711416"><ele>516.0</ele><time>2026-05-03T08:36:53Z</time></trkpt><trkpt lat="44.65378500113982" lon="9.31504225858183"><ele>516.0</ele><time>2026-05-03T08:36:54Z</time></trkpt><trkpt lat="44.653664826843816" lon="9.315079759008235"><ele>516.0</ele><time>2026-05-03T08:36:55Z</time></trkpt><trkpt lat="44.653568170018374" lon="9.315135582825722"><ele>515.0</ele><time>2026-05-03T08:36:56Z</time></trkpt><trkpt lat="44.65349765714937" lon="9.315249446605925"><ele>514.0</ele><time>2026-05-03T08:36:57Z</time></trkpt><trkpt lat="44.653439926534936" lon="9.315408525624074"><ele>513.0</ele><time>2026-05-03T08:36:58Z</time></trkpt><trkpt lat="44.653396163454495" lon="9.315569059815356"><ele>512.0</ele><time>2026-05-03T08:36:59Z</time></trkpt><trkpt lat="44.6533293288273" lon="9.315707376179281"><ele>512.0</ele><time>2026-05-03T08:37:00Z</time></trkpt><trkpt lat="44.65321636453697" lon="9.315776737006175"><ele>512.0</ele><time>2026-05-03T08:37:01.001Z</time></trkpt><trkpt lat="44.65309805504452" lon="9.315810960168351"><ele>512.0</ele><time>2026-05-03T08:37:02.001Z</time></trkpt><trkpt lat="44.652982932060716" lon="9.315822449604166"><ele>512.0</ele><time>2026-05-03T08:37:03.001Z</time></trkpt><trkpt lat="44.652861962646604" lon="9.315850798014948"><ele>508.8</ele><time>2026-05-03T08:37:04.001Z</time></trkpt><trkpt lat="44.652758628643475" lon="9.315850447831433"><ele>505.6</ele><time>2026-05-03T08:37:05.001Z</time></trkpt><trkpt lat="44.6526489722025" lon="9.315894225472654"><ele>502.40000000000003</ele><time>2026-05-03T08:37:06.001Z</time></trkpt><trkpt lat="44.65255040763566" lon="9.315959174616875"><ele>499.20000000000005</ele><time>2026-05-03T08:37:07.001Z</time></trkpt><trkpt lat="44.652482367947115" lon="9.31609944396851"><ele>496.0</ele><time>2026-05-03T08:37:08.001Z</time></trkpt><trkpt lat="44.65242888804433" lon="9.31624300483766"><ele>496.0</ele><time>2026-05-03T08:37:09.001Z</time></trkpt><trkpt lat="44.65237887739573" lon="9.316379471153022"><ele>496.0</ele><time>2026-05-03T08:37:10.001Z</time></trkpt><trkpt lat="44.65227253756984" lon="9.316454013782261"><ele>496.0</ele><time>2026-05-03T08:37:11.001Z</time></trkpt><trkpt lat="44.6521563645813" lon="9.316493830356928"><ele>496.0</ele><time>2026-05-03T08:37:12.001Z</time></trkpt><trkpt lat="44.6520397983703" lon="9.31654193104864"><ele>494.4</ele><time>2026-05-03T08:37:13.001Z</time></trkpt><trkpt lat="44.65192973691624" lon="9.316600793406028"><ele>492.8</ele><time>2026-05-03T08:37:14.001Z</time></trkpt><trkpt lat="44.6518546012751" lon="9.316694148249047"><ele>491.19999999999993</ele><time>2026-05-03T08:37:15.001Z</time></trkpt><trkpt lat="44.65182194543136" lon="9.316833658989609"><ele>489.59999999999997</ele><time>2026-05-03T08:37:16Z</time></trkpt><trkpt lat="44.65176974170762" lon="9.316947332764586"><ele>488.0</ele><time>2026-05-03T08:37:17Z</time></trkpt><trkpt lat="44.65172545919657" lon="9.317058301823224"><ele>488.0</ele><time>2026-05-03T08:37:18Z</time></trkpt><trkpt lat="44.65164607622269" lon="9.317120460924984"><ele>487.99999999999994</ele><time>2026-05-03T08:37:19Z</time></trkpt><trkpt lat="44.65154867386847" lon="9.317152479936594"><ele>487.99999999999994</ele><time>2026-05-03T08:37:20Z</time></trkpt><trkpt lat="44.65146453317572" lon="9.31721438355941"><ele>488.0</ele><time>2026-05-03T08:37:21Z</time></trkpt><trkpt lat="44.651389279920366" lon="9.317314489315248"><ele>488.0</ele><time>2026-05-03T08:37:22Z</time></trkpt><trkpt lat="44.651357242190265" lon="9.31747209965234"><ele>490.25</ele><time>2026-05-03T08:37:23Z</time></trkpt><trkpt lat="44.651360707646525" lon="9.317640713419483"><ele>492.5</ele><time>2026-05-03T08:37:24Z</time></trkpt><trkpt lat="44.65135068007355" lon="9.317826153639558"><ele>494.75</ele><time>2026-05-03T08:37:25Z</time></trkpt><trkpt lat="44.65131016735104" lon="9.317979617922935"><ele>497.0</ele><time>2026-05-03T08:37:26Z</time></trkpt><trkpt lat="44.651275029297864" lon="9.318132708508605"><ele>500.75</ele><time>2026-05-03T08:37:27Z</time></trkpt><trkpt lat="44.65121912674816" lon="9.318285931227605"><ele>504.5</ele><time>2026-05-03T08:37:28Z</time></trkpt><trkpt lat="44.6512003302385" lon="9.318474789600598"><ele>508.25</ele><time>2026-05-03T08:37:29Z</time></trkpt><trkpt lat="44.65120521667776" lon="9.318639445847827"><ele>512.0</ele><time>2026-05-03T08:37:30Z</time></trkpt><trkpt lat="44.65121354153412" lon="9.318800752836188"><ele>512.0</ele><time>2026-05-03T08:37:31Z</time></trkpt><trkpt lat="44.65122248494779" lon="9.31896636650371"><ele>512.0</ele><time>2026-05-03T08:37:32Z</time></trkpt><trkpt lat="44.6512334992199" lon="9.31913908632095"><ele>512.0</ele><time>2026-05-03T08:37:33Z</time></trkpt><trkpt lat="44.65125554508798" lon="9.319306151735283"><ele>512.0</ele><time>2026-05-03T08:37:34Z</time></trkpt><trkpt lat="44.65126595763451" lon="9.319483125793065"><ele>512.0</ele><time>2026-05-03T08:37:35Z</time></trkpt><trkpt lat="44.65129460597928" lon="9.319644695250796"><ele>512.0</ele><time>2026-05-03T08:37:36Z</time></trkpt><trkpt lat="44.651332998517816" lon="9.319785496824755"><ele>512.0</ele><time>2026-05-03T08:37:37Z</time></trkpt><trkpt lat="44.65137111251325" lon="9.319917786254734"><ele>512.0</ele><time>2026-05-03T08:37:38Z</time></trkpt><trkpt lat="44.65137895597458" lon="9.32004524995718"><ele>512.0</ele><time>2026-05-03T08:37:39Z</time></trkpt><trkpt lat="44.65133342773158" lon="9.320168552303006"><ele>508.6</ele><time>2026-05-03T08:37:40Z</time></trkpt><trkpt lat="44.65125031879853" lon="9.32027551032192"><ele>505.20000000000005</ele><time>2026-05-03T08:37:41Z</time></trkpt><trkpt lat="44.651188970293624" lon="9.320375001803887"><ele>501.8</ele><time>2026-05-03T08:37:42Z</time></trkpt><trkpt lat="44.65116925145474" lon="9.320481410901394"><ele>498.4</ele><time>2026-05-03T08:37:43Z</time></trkpt><trkpt lat="44.65119965748929" lon="9.32058926176142"><ele>495.0</ele><time>2026-05-03T08:37:44Z</time></trkpt><trkpt lat="44.65128233975744" lon="9.320678283338953"><ele>491.6</ele><time>2026-05-03T08:37:45Z</time></trkpt><trkpt lat="44.65138759941978" lon="9.320738473072748"><ele>488.2</ele><time>2026-05-03T08:37:46Z</time></trkpt><trkpt lat="44.651472543190785" lon="9.320796035266552"><ele>484.79999999999995</ele><time>2026-05-03T08:37:47Z</time></trkpt><trkpt lat="44.651545838575394" lon="9.320878731813792"><ele>481.4</ele><time>2026-05-03T08:37:48Z</time></trkpt><trkpt lat="44.651598919174255" lon="9.320974706485806"><ele>478.0</ele><time>2026-05-03T08:37:49Z</time></trkpt><trkpt lat="44.651615393428244" lon="9.321090063746546"><ele>478.0</ele><time>2026-05-03T08:37:50Z</time></trkpt><trkpt lat="44.651582145745465" lon="9.321204764954038"><ele>477.99999999999994</ele><time>2026-05-03T08:37:51Z</time></trkpt><trkpt lat="44.65153291147195" lon="9.32132177608448"><ele>477.99999999999994</ele><time>2026-05-03T08:37:52Z</time></trkpt><trkpt lat="44.65149729437458" lon="9.321445348719175"><ele>478.0</ele><time>2026-05-03T08:37:53Z</time></trkpt><trkpt lat="44.65145509259013" lon="9.321557119969889"><ele>478.0</ele><time>2026-05-03T08:37:54Z</time></trkpt><trkpt lat="44.6514002722165" lon="9.321643547320642"><ele>478.00000000000006</ele><time>2026-05-03T08:37:55Z</time></trkpt><trkpt lat="44.651332768954234" lon="9.321702060817163"><ele>478.0</ele><time>2026-05-03T08:37:56Z</time></trkpt><trkpt lat="44.651270339099604" lon="9.321715113012207"><ele>478.0</ele><time>2026-05-03T08:37:57Z</time></trkpt><trkpt lat="44.65120707560743" lon="9.321668340386374"><ele>478.0</ele><time>2026-05-03T08:37:58Z</time></trkpt><trkpt lat="44.65114991644111" lon="9.321562206231098"><ele>478.00000000000006</ele><time>2026-05-03T08:37:59Z</time></trkpt><trkpt lat="44.65110366164267" lon="9.321446432012275"><ele>478.0</ele><time>2026-05-03T08:38:00Z</time></trkpt><trkpt lat="44.65103043696047" lon="9.321344261798323"><ele>475.75</ele><time>2026-05-03T08:38:01Z</time></trkpt><trkpt lat="44.65092989080722" lon="9.321269270775511"><ele>473.5</ele><time>2026-05-03T08:38:02Z</time></trkpt><trkpt lat="44.65081687863961" lon="9.32122858759235"><ele>471.25</ele><time>2026-05-03T08:38:03Z</time></trkpt><trkpt lat="44.650706034572465" lon="9.321178213227366"><ele>469.0</ele><time>2026-05-03T08:38:04Z</time></trkpt><trkpt lat="44.65058992464902" lon="9.32111861249122"><ele>469.0</ele><time>2026-05-03T08:38:05Z</time></trkpt><trkpt lat="44.65049126447444" lon="9.321048617863127"><ele>469.0</ele><time>2026-05-03T08:38:06Z</time></trkpt><trkpt lat="44.650403408015926" lon="9.320971809317365"><ele>469.0</ele><time>2026-05-03T08:38:07Z</time></trkpt><trkpt lat="44.65034396040673" lon="9.32086976409173"><ele>469.0</ele><time>2026-05-03T08:38:08Z</time></trkpt><trkpt lat="44.6503192775148" lon="9.320747128744234"><ele>469.0</ele><time>2026-05-03T08:38:09Z</time></trkpt><trkpt lat="44.6503049103128" lon="9.320617151345132"><ele>464.6</ele><time>2026-05-03T08:38:10Z</time></trkpt><trkpt lat="44.65027465824804" lon="9.320511648704278"><ele>460.2</ele><time>2026-05-03T08:38:11Z</time></trkpt><trkpt lat="44.65020890877447" lon="9.320435752167782"><ele>455.80000000000007</ele><time>2026-05-03T08:38:12Z</time></trkpt><trkpt lat="44.650110286384866" lon="9.32041464131943"><ele>451.40000000000003</ele><time>2026-05-03T08:38:13Z</time></trkpt><trkpt lat="44.65000366991416" lon="9.320449814983574"><ele>447.0</ele><time>2026-05-03T08:38:14Z</time></trkpt><trkpt lat="44.64989040496814" lon="9.320528377157977"><ele>448.25</ele><time>2026-05-03T08:38:15Z</time></trkpt><trkpt lat="44.64977434493327" lon="9.320604822540966"><ele>449.5</ele><time>2026-05-03T08:38:16Z</time></trkpt><trkpt lat="44.649658430103024" lon="9.320670842618417"><ele>450.75</ele><time>2026-05-03T08:38:17Z</time></trkpt><trkpt lat="44.64955297311508" lon="9.320736944431504"><ele>452.0</ele><time>2026-05-03T08:38:18Z</time></trkpt><trkpt lat="44.64945391349642" lon="9.32081101727041"><ele>452.0</ele><time>2026-05-03T08:38:19Z</time></trkpt><trkpt lat="44.64934903762238" lon="9.320895741645757"><ele>452.0</ele><time>2026-05-03T08:38:20Z</time></trkpt><trkpt lat="44.649264959799716" lon="9.321031004734103"><ele>452.0</ele><time>2026-05-03T08:38:21Z</time></trkpt><trkpt lat="44.64919089468942" lon="9.3211777996889"><ele>452.0</ele><time>2026-05-03T08:38:22Z</time></trkpt><trkpt lat="44.64911231468902" lon="9.321335764536634"><ele>454.75</ele><time>2026-05-03T08:38:23Z</time></trkpt><trkpt lat="44.6490304997843" lon="9.321496492081035"><ele>457.5</ele><time>2026-05-03T08:38:24Z</time></trkpt><trkpt lat="44.6489478837294" lon="9.321656619911723"><ele>460.25</ele><time>2026-05-03T08:38:25Z</time></trkpt><trkpt lat="44.64886459874899" lon="9.321817226189006"><ele>463.0</ele><time>2026-05-03T08:38:26Z</time></trkpt><trkpt lat="44.64878647850098" lon="9.321969322752068"><ele>463.0</ele><time>2026-05-03T08:38:27Z</time></trkpt><trkpt lat="44.648712648903484" lon="9.322127003179931"><ele>463.0</ele><time>2026-05-03T08:38:28Z</time></trkpt><trkpt lat="44.648646869604136" lon="9.32230005503265"><ele>463.0</ele><time>2026-05-03T08:38:29Z</time></trkpt><trkpt lat="44.648590385869404" lon="9.322479109750775"><ele>463.0</ele><time>2026-05-03T08:38:30Z</time></trkpt><trkpt lat="44.64853676460379" lon="9.322665003673942"><ele>457.0</ele><time>2026-05-03T08:38:31Z</time></trkpt><trkpt lat="44.64848035715497" lon="9.322853218337162"><ele>451.0</ele><time>2026-05-03T08:38:32Z</time></trkpt><trkpt lat="44.648423402184356" lon="9.323053856632356"><ele>445.0</ele><time>2026-05-03T08:38:33Z</time></trkpt><trkpt lat="44.6483689008612" lon="9.323252158121148"><ele>445.0</ele><time>2026-05-03T08:38:34Z</time></trkpt><trkpt lat="44.64830982484448" lon="9.323445103927439"><ele>445.0</ele><time>2026-05-03T08:38:35Z</time></trkpt><trkpt lat="44.64824731163432" lon="9.323651225706598"><ele>445.0</ele><time>2026-05-03T08:38:36Z</time></trkpt><trkpt lat="44.64817502325736" lon="9.32387680672191"><ele>448.0</ele><time>2026-05-03T08:38:37Z</time></trkpt><trkpt lat="44.64809953637366" lon="9.324117775399074"><ele>451.0</ele><time>2026-05-03T08:38:38Z</time></trkpt><trkpt lat="44.64802832207169" lon="9.324359206242889"><ele>454.0</ele><time>2026-05-03T08:38:39Z</time></trkpt><trkpt lat="44.64795910050733" lon="9.324604995331166"><ele>454.33333333333337</ele><time>2026-05-03T08:38:40Z</time></trkpt><trkpt lat="44.6478882898804" lon="9.324853443603054"><ele>454.66666666666663</ele><time>2026-05-03T08:38:41Z</time></trkpt><trkpt lat="44.64781684413777" lon="9.32510494025145"><ele>455.0</ele><time>2026-05-03T08:38:42Z</time></trkpt><trkpt lat="44.647749705665746" lon="9.325343618909747"><ele>453.66666666666663</ele><time>2026-05-03T08:38:43Z</time></trkpt><trkpt lat="44.64768568214074" lon="9.325557118858853"><ele>452.33333333333337</ele><time>2026-05-03T08:38:44Z</time></trkpt><trkpt lat="44.64762600728582" lon="9.325757833336358"><ele>451.0</ele><time>2026-05-03T08:38:45Z</time></trkpt><trkpt lat="44.647566889823175" lon="9.325948586540497"><ele>450.33333333333337</ele><time>2026-05-03T08:38:46Z</time></trkpt><trkpt lat="44.64748848209939" lon="9.326134127282767"><ele>449.66666666666663</ele><time>2026-05-03T08:38:47Z</time></trkpt><trkpt lat="44.647398166963754" lon="9.326309555336742"><ele>449.0</ele><time>2026-05-03T08:38:48Z</time></trkpt><trkpt lat="44.64730791484262" lon="9.32648881418045"><ele>449.0</ele><time>2026-05-03T08:38:49Z</time></trkpt><trkpt lat="44.64721092175547" lon="9.326657625870018"><ele>449.0</ele><time>2026-05-03T08:38:50Z</time></trkpt><trkpt lat="44.64711043330839" lon="9.326813116499466"><ele>449.0</ele><time>2026-05-03T08:38:51Z</time></trkpt><trkpt lat="44.64700252336528" lon="9.326956280091945"><ele>450.0</ele><time>2026-05-03T08:38:52Z</time></trkpt><trkpt lat="44.646883525225356" lon="9.32708877604112"><ele>451.0</ele><time>2026-05-03T08:38:53Z</time></trkpt><trkpt lat="44.64676473905915" lon="9.327219583686984"><ele>452.0</ele><time>2026-05-03T08:38:54Z</time></trkpt><trkpt lat="44.64663004631915" lon="9.327356150941071"><ele>452.0</ele><time>2026-05-03T08:38:55Z</time></trkpt><trkpt lat="44.64646440393928" lon="9.327487402552427"><ele>452.0</ele><time>2026-05-03T08:38:56Z</time></trkpt><trkpt lat="44.646276011278616" lon="9.327618058575956"><ele>452.0</ele><time>2026-05-03T08:38:57Z</time></trkpt><trkpt lat="44.646072441987315" lon="9.327782143788303"><ele>452.5</ele><time>2026-05-03T08:38:58Z</time></trkpt><trkpt lat="44.64585800878363" lon="9.327932716671002"><ele>453.0</ele><time>2026-05-03T08:38:59Z</time></trkpt><trkpt lat="44.64564879444929" lon="9.328069303456589"><ele>453.0</ele><time>2026-05-03T08:39:00Z</time></trkpt><trkpt lat="44.64547247810086" lon="9.328185024584304"><ele>453.0</ele><time>2026-05-03T08:39:01Z</time></trkpt><trkpt lat="44.645302315141045" lon="9.328287063908016"><ele>453.0</ele><time>2026-05-03T08:39:02Z</time></trkpt><trkpt lat="44.64512939643566" lon="9.328395535188257"><ele>457.66666666666663</ele><time>2026-05-03T08:39:03Z</time></trkpt><trkpt lat="44.64496055326256" lon="9.328485841495375"><ele>462.3333333333333</ele><time>2026-05-03T08:39:04Z</time></trkpt><trkpt lat="44.64478841872191" lon="9.328548248500322"><ele>467.0</ele><time>2026-05-03T08:39:05Z</time></trkpt><trkpt lat="44.64460012474793" lon="9.328593855636182"><ele>467.66666666666663</ele><time>2026-05-03T08:39:06Z</time></trkpt><trkpt lat="44.644391003275686" lon="9.328634272477583"><ele>468.33333333333337</ele><time>2026-05-03T08:39:07Z</time></trkpt><trkpt lat="44.64419110518552" lon="9.328674032399752"><ele>469.0</ele><time>2026-05-03T08:39:08Z</time></trkpt><trkpt lat="44.643973081306896" lon="9.32871710559812"><ele>469.0</ele><time>2026-05-03T08:39:09Z</time></trkpt><trkpt lat="44.643739717598606" lon="9.328801700550473"><ele>469.0</ele><time>2026-05-03T08:39:10Z</time></trkpt><trkpt lat="44.64350723788429" lon="9.328862237641987"><ele>465.6666666666667</ele><time>2026-05-03T08:39:11Z</time></trkpt><trkpt lat="44.643292433547046" lon="9.328913786870675"><ele>462.33333333333337</ele><time>2026-05-03T08:39:12Z</time></trkpt><trkpt lat="44.643080131216344" lon="9.328973535547421"><ele>459.0</ele><time>2026-05-03T08:39:13Z</time></trkpt><trkpt lat="44.64286756469521" lon="9.329039746619985"><ele>459.66666666666663</ele><time>2026-05-03T08:39:14Z</time></trkpt><trkpt lat="44.64264921827356" lon="9.329095563315061"><ele>460.3333333333333</ele><time>2026-05-03T08:39:15Z</time></trkpt><trkpt lat="44.642427922296" lon="9.32914984484456"><ele>461.0</ele><time>2026-05-03T08:39:16Z</time></trkpt><trkpt lat="44.64221316121121" lon="9.329200137632126"><ele>461.0</ele><time>2026-05-03T08:39:17Z</time></trkpt><trkpt lat="44.642002633651984" lon="9.329250002956442"><ele>461.0</ele><time>2026-05-03T08:39:18Z</time></trkpt><trkpt lat="44.64179324020256" lon="9.329303644649526"><ele>461.0</ele><time>2026-05-03T08:39:19Z</time></trkpt><trkpt lat="44.6415897764844" lon="9.329366505928242"><ele>462.0</ele><time>2026-05-03T08:39:20Z</time></trkpt><trkpt lat="44.64138727296243" lon="9.329420560413164"><ele>463.0</ele><time>2026-05-03T08:39:21Z</time></trkpt><trkpt lat="44.64119032885225" lon="9.329473071704637"><ele>464.0</ele><time>2026-05-03T08:39:22Z</time></trkpt><trkpt lat="44.640986108421316" lon="9.329530846533531"><ele>465.3333333333333</ele><time>2026-05-03T08:39:23Z</time></trkpt><trkpt lat="44.640783338021684" lon="9.329589800675208"><ele>466.66666666666663</ele><time>2026-05-03T08:39:24Z</time></trkpt><trkpt lat="44.64058058325934" lon="9.329644090081205"><ele>468.0</ele><time>2026-05-03T08:39:25Z</time></trkpt><trkpt lat="44.64037592714884" lon="9.329704338832164"><ele>465.0</ele><time>2026-05-03T08:39:26Z</time></trkpt><trkpt lat="44.64017515112164" lon="9.32976229512409"><ele>462.0</ele><time>2026-05-03T08:39:27Z</time></trkpt><trkpt lat="44.63997894400448" lon="9.329819237180452"><ele>459.0</ele><time>2026-05-03T08:39:28Z</time></trkpt><trkpt lat="44.639785688191026" lon="9.3298738791027"><ele>459.0</ele><time>2026-05-03T08:39:29Z</time></trkpt><trkpt lat="44.63959395496071" lon="9.329920489908115"><ele>459.0</ele><time>2026-05-03T08:39:30Z</time></trkpt><trkpt lat="44.639402676425455" lon="9.329969961124455"><ele>459.0</ele><time>2026-05-03T08:39:31Z</time></trkpt><trkpt lat="44.63921051612987" lon="9.330006065471759"><ele>459.66666666666663</ele><time>2026-05-03T08:39:32Z</time></trkpt><trkpt lat="44.63902226636039" lon="9.330023973463165"><ele>460.3333333333333</ele><time>2026-05-03T08:39:33Z</time></trkpt><trkpt lat="44.63883280631174" lon="9.330011059996437"><ele>461.0</ele><time>2026-05-03T08:39:34Z</time></trkpt><trkpt lat="44.63864526134633" lon="9.329958281505235"><ele>460.66666666666663</ele><time>2026-05-03T08:39:35Z</time></trkpt><trkpt lat="44.638463251620266" lon="9.329892626084135"><ele>460.33333333333337</ele><time>2026-05-03T08:39:36Z</time></trkpt><trkpt lat="44.6383033985023" lon="9.329781353636223"><ele>460.0</ele><time>2026-05-03T08:39:37Z</time></trkpt><trkpt lat="44.63812778509325" lon="9.329658120743419"><ele>460.0</ele><time>2026-05-03T08:39:38Z</time></trkpt><trkpt lat="44.637948595386575" lon="9.329543908877227"><ele>460.0</ele><time>2026-05-03T08:39:39Z</time></trkpt><trkpt lat="44.63777074400088" lon="9.32940217795334"><ele>460.0</ele><time>2026-05-03T08:39:40Z</time></trkpt><trkpt lat="44.637595800026794" lon="9.329278822871105"><ele>459.6666666666667</ele><time>2026-05-03T08:39:41Z</time></trkpt><trkpt lat="44.63741387036076" lon="9.329140355993982"><ele>459.33333333333337</ele><time>2026-05-03T08:39:42Z</time></trkpt><trkpt lat="44.63723755635696" lon="9.32900913231121"><ele>459.0</ele><time>2026-05-03T08:39:43Z</time></trkpt><trkpt lat="44.63705835448563" lon="9.328871206521102"><ele>460.33333333333337</ele><time>2026-05-03T08:39:44Z</time></trkpt><trkpt lat="44.636874827780225" lon="9.328745615838757"><ele>461.6666666666667</ele><time>2026-05-03T08:39:45Z</time></trkpt><trkpt lat="44.63668602509397" lon="9.328628031048364"><ele>463.0</ele><time>2026-05-03T08:39:46Z</time></trkpt><trkpt lat="44.6364910944448" lon="9.328537086879347"><ele>463.0</ele><time>2026-05-03T08:39:47Z</time></trkpt><trkpt lat="44.63629561659575" lon="9.328488350292849"><ele>463.0</ele><time>2026-05-03T08:39:48Z</time></trkpt><trkpt lat="44.636099597967004" lon="9.328472320970576"><ele>463.0</ele><time>2026-05-03T08:39:49Z</time></trkpt><trkpt lat="44.63591084275955" lon="9.328486772549576"><ele>464.33333333333337</ele><time>2026-05-03T08:39:50Z</time></trkpt><trkpt lat="44.6357154909328" lon="9.328512716998814"><ele>465.66666666666663</ele><time>2026-05-03T08:39:51Z</time></trkpt><trkpt lat="44.635527538948544" lon="9.328577315988545"><ele>467.0</ele><time>2026-05-03T08:39:52Z</time></trkpt><trkpt lat="44.63534735069127" lon="9.328669943148958"><ele>466.3333333333333</ele><time>2026-05-03T08:39:53Z</time></trkpt><trkpt lat="44.635176914313135" lon="9.328786870856936"><ele>465.66666666666663</ele><time>2026-05-03T08:39:54Z</time></trkpt><trkpt lat="44.63500719404733" lon="9.328898673896832"><ele>465.0</ele><time>2026-05-03T08:39:55Z</time></trkpt><trkpt lat="44.63484206568539" lon="9.329007991449332"><ele>466.33333333333337</ele><time>2026-05-03T08:39:56Z</time></trkpt><trkpt lat="44.634667938614726" lon="9.3291168481784"><ele>467.6666666666667</ele><time>2026-05-03T08:39:57Z</time></trkpt><trkpt lat="44.63448532867018" lon="9.32923408913525"><ele>469.0</ele><time>2026-05-03T08:39:58Z</time></trkpt><trkpt lat="44.63429762778705" lon="9.329364462808442"><ele>469.0</ele><time>2026-05-03T08:39:59Z</time></trkpt><trkpt lat="44.634110002142634" lon="9.329493784107077"><ele>469.0</ele><time>2026-05-03T08:40:00Z</time></trkpt><trkpt lat="44.633915522671046" lon="9.32962943360589"><ele>469.0</ele><time>2026-05-03T08:40:01Z</time></trkpt><trkpt lat="44.6337098489572" lon="9.329766310100633"><ele>470.5</ele><time>2026-05-03T08:40:02Z</time></trkpt><trkpt lat="44.633496138853346" lon="9.329904951545494"><ele>472.0</ele><time>2026-05-03T08:40:03Z</time></trkpt><trkpt lat="44.633294087843375" lon="9.330053891862931"><ele>472.0</ele><time>2026-05-03T08:40:04Z</time></trkpt><trkpt lat="44.633084933182644" lon="9.330197184253247"><ele>472.0</ele><time>2026-05-03T08:40:05Z</time></trkpt><trkpt lat="44.63287785136501" lon="9.330366916168055"><ele>474.0</ele><time>2026-05-03T08:40:06Z</time></trkpt><trkpt lat="44.63267841213802" lon="9.330537011739212"><ele>476.0</ele><time>2026-05-03T08:40:07Z</time></trkpt><trkpt lat="44.6324871097037" lon="9.330718867982142"><ele>476.0</ele><time>2026-05-03T08:40:08Z</time></trkpt><trkpt lat="44.632304268102835" lon="9.330911233954609"><ele>476.0</ele><time>2026-05-03T08:40:09Z</time></trkpt><trkpt lat="44.63212059485896" lon="9.3310956585841"><ele>477.3333333333333</ele><time>2026-05-03T08:40:10Z</time></trkpt><trkpt lat="44.63193959817412" lon="9.331272587086778"><ele>478.66666666666663</ele><time>2026-05-03T08:40:11Z</time></trkpt><trkpt lat="44.63176164132653" lon="9.331450900842013"><ele>480.0</ele><time>2026-05-03T08:40:12Z</time></trkpt><trkpt lat="44.63158493214809" lon="9.331630006222916"><ele>480.0</ele><time>2026-05-03T08:40:13Z</time></trkpt><trkpt lat="44.63142148829854" lon="9.331798379200485"><ele>480.0</ele><time>2026-05-03T08:40:14Z</time></trkpt><trkpt lat="44.631258614477545" lon="9.331955347704731"><ele>480.0</ele><time>2026-05-03T08:40:15Z</time></trkpt><trkpt lat="44.63108564638907" lon="9.332094873886458"><ele>481.66666666666663</ele><time>2026-05-03T08:40:16Z</time></trkpt><trkpt lat="44.63089953305108" lon="9.332216968833551"><ele>483.3333333333333</ele><time>2026-05-03T08:40:17Z</time></trkpt><trkpt lat="44.63071720048069" lon="9.332333472633845"><ele>485.0</ele><time>2026-05-03T08:40:18Z</time></trkpt><trkpt lat="44.630543623010155" lon="9.332457432710159"><ele>485.0</ele><time>2026-05-03T08:40:19Z</time></trkpt><trkpt lat="44.630368004014755" lon="9.332586009069578"><ele>485.0</ele><time>2026-05-03T08:40:20Z</time></trkpt><trkpt lat="44.630193828464755" lon="9.332709765772305"><ele>485.0</ele><time>2026-05-03T08:40:21Z</time></trkpt><trkpt lat="44.63001219133384" lon="9.332823402147593"><ele>480.66666666666663</ele><time>2026-05-03T08:40:22Z</time></trkpt><trkpt lat="44.629830797303526" lon="9.332915310086504"><ele>476.33333333333337</ele><time>2026-05-03T08:40:23Z</time></trkpt><trkpt lat="44.62964058227107" lon="9.332982538485282"><ele>472.0</ele><time>2026-05-03T08:40:24Z</time></trkpt><trkpt lat="44.6294453996655" lon="9.333031107417975"><ele>474.6666666666667</ele><time>2026-05-03T08:40:25Z</time></trkpt><trkpt lat="44.629244970413644" lon="9.333063764941848"><ele>477.33333333333337</ele><time>2026-05-03T08:40:26Z</time></trkpt><trkpt lat="44.62904361020506" lon="9.333071941987695"><ele>480.0</ele><time>2026-05-03T08:40:27Z</time></trkpt><trkpt lat="44.628840513209404" lon="9.333057589596494"><ele>477.66666666666663</ele><time>2026-05-03T08:40:28Z</time></trkpt><trkpt lat="44.6286293101689" lon="9.333035210560542"><ele>475.3333333333333</ele><time>2026-05-03T08:40:29Z</time></trkpt><trkpt lat="44.62842176580731" lon="9.333002115236425"><ele>473.0</ele><time>2026-05-03T08:40:30Z</time></trkpt><trkpt lat="44.62821035298164" lon="9.332980534221042"><ele>473.0</ele><time>2026-05-03T08:40:31Z</time></trkpt><trkpt lat="44.62800985737491" lon="9.332969996013887"><ele>473.0</ele><time>2026-05-03T08:40:32Z</time></trkpt><trkpt lat="44.62780475957236" lon="9.33296284173423"><ele>473.0</ele><time>2026-05-03T08:40:33Z</time></trkpt><trkpt lat="44.62758942798202" lon="9.332946778982913"><ele>473.0</ele><time>2026-05-03T08:40:34Z</time></trkpt><trkpt lat="44.627387479319424" lon="9.332934382025998"><ele>473.0</ele><time>2026-05-03T08:40:35Z</time></trkpt><trkpt lat="44.62717981456407" lon="9.332912460786119"><ele>473.0</ele><time>2026-05-03T08:40:36Z</time></trkpt><trkpt lat="44.626973662411395" lon="9.332880003737566"><ele>475.0</ele><time>2026-05-03T08:40:37Z</time></trkpt><trkpt lat="44.62676849477775" lon="9.33282498506073"><ele>477.0</ele><time>2026-05-03T08:40:38Z</time></trkpt><trkpt lat="44.626542906249206" lon="9.332765132662468"><ele>479.0</ele><time>2026-05-03T08:40:39Z</time></trkpt><trkpt lat="44.62630145743494" lon="9.33266360007139"><ele>476.5</ele><time>2026-05-03T08:40:40Z</time></trkpt><trkpt lat="44.62604455605931" lon="9.33252923680767"><ele>474.0</ele><time>2026-05-03T08:40:41Z</time></trkpt><trkpt lat="44.62581440465093" lon="9.332411470698101"><ele>474.0</ele><time>2026-05-03T08:40:42Z</time></trkpt><trkpt lat="44.62559478769507" lon="9.332286737015947"><ele>474.0</ele><time>2026-05-03T08:40:43Z</time></trkpt><trkpt lat="44.625376722387635" lon="9.332155094952947"><ele>477.0</ele><time>2026-05-03T08:40:44Z</time></trkpt><trkpt lat="44.62515379391855" lon="9.332027784983286"><ele>480.0</ele><time>2026-05-03T08:40:45Z</time></trkpt><trkpt lat="44.624934232609625" lon="9.331911045414174"><ele>480.0</ele><time>2026-05-03T08:40:46Z</time></trkpt><trkpt lat="44.624715617188485" lon="9.331798665415024"><ele>480.0</ele><time>2026-05-03T08:40:47Z</time></trkpt><trkpt lat="44.62451122304566" lon="9.331683935564174"><ele>481.0</ele><time>2026-05-03T08:40:48Z</time></trkpt><trkpt lat="44.6242962148552" lon="9.331560210846092"><ele>482.0</ele><time>2026-05-03T08:40:49Z</time></trkpt><trkpt lat="44.62407197095942" lon="9.331434228871785"><ele>480.5</ele><time>2026-05-03T08:40:50Z</time></trkpt><trkpt lat="44.623842233917216" lon="9.33129750910031"><ele>479.0</ele><time>2026-05-03T08:40:51Z</time></trkpt><trkpt lat="44.62360534000041" lon="9.331163203797894"><ele>478.5</ele><time>2026-05-03T08:40:52Z</time></trkpt><trkpt lat="44.62336354303931" lon="9.33103864787032"><ele>478.0</ele><time>2026-05-03T08:40:53Z</time></trkpt><trkpt lat="44.623116927925714" lon="9.330902644564524"><ele>478.0</ele><time>2026-05-03T08:40:54Z</time></trkpt><trkpt lat="44.62287605223862" lon="9.330744938916489"><ele>478.0</ele><time>2026-05-03T08:40:55Z</time></trkpt><trkpt lat="44.622653639761054" lon="9.33056401435737"><ele>480.5</ele><time>2026-05-03T08:40:56Z</time></trkpt><trkpt lat="44.622441485718205" lon="9.33036077523813"><ele>483.0</ele><time>2026-05-03T08:40:57Z</time></trkpt><trkpt lat="44.62224295019944" lon="9.330139269149916"><ele>483.0</ele><time>2026-05-03T08:40:58Z</time></trkpt><trkpt lat="44.62205767810292" lon="9.32990520465254"><ele>483.0</ele><time>2026-05-03T08:40:59Z</time></trkpt><trkpt lat="44.62188393862518" lon="9.329660483653548"><ele>484.5</ele><time>2026-05-03T08:41:00Z</time></trkpt><trkpt lat="44.621722127459236" lon="9.329398786741137"><ele>486.0</ele><time>2026-05-03T08:41:01Z</time></trkpt><trkpt lat="44.62157257640608" lon="9.32912587823169"><ele>488.0</ele><time>2026-05-03T08:41:02Z</time></trkpt><trkpt lat="44.621441000188874" lon="9.32883682506278"><ele>490.0</ele><time>2026-05-03T08:41:03Z</time></trkpt><trkpt lat="44.6213123316779" lon="9.328536696374908"><ele>490.0</ele><time>2026-05-03T08:41:04Z</time></trkpt><trkpt lat="44.62118748438829" lon="9.328238946151247"><ele>490.0</ele><time>2026-05-03T08:41:05Z</time></trkpt><trkpt lat="44.62107665309735" lon="9.327914646156602"><ele>486.5</ele><time>2026-05-03T08:41:06Z</time></trkpt><trkpt lat="44.62094598196096" lon="9.32763193757976"><ele>483.0</ele><time>2026-05-03T08:41:07Z</time></trkpt><trkpt lat="44.62084454934705" lon="9.327360706826093"><ele>483.5</ele><time>2026-05-03T08:41:08Z</time></trkpt><trkpt lat="44.620735019593745" lon="9.327083559815451"><ele>484.0</ele><time>2026-05-03T08:41:09Z</time></trkpt><trkpt lat="44.62061308175275" lon="9.326815358329256"><ele>484.0</ele><time>2026-05-03T08:41:10Z</time></trkpt><trkpt lat="44.620479358135604" lon="9.326553944612403"><ele>484.0</ele><time>2026-05-03T08:41:11Z</time></trkpt><trkpt lat="44.62032853037213" lon="9.32630824984132"><ele>486.0</ele><time>2026-05-03T08:41:12Z</time></trkpt><trkpt lat="44.62017107096025" lon="9.326076113943202"><ele>488.0</ele><time>2026-05-03T08:41:13Z</time></trkpt><trkpt lat="44.62000275278345" lon="9.325849810297738"><ele>488.0</ele><time>2026-05-03T08:41:14Z</time></trkpt><trkpt lat="44.619829954961126" lon="9.325622094771571"><ele>488.0</ele><time>2026-05-03T08:41:15Z</time></trkpt><trkpt lat="44.61966734993451" lon="9.32540456528228"><ele>488.0</ele><time>2026-05-03T08:41:16Z</time></trkpt><trkpt lat="44.619516203045016" lon="9.325204256792492"><ele>488.0</ele><time>2026-05-03T08:41:17Z</time></trkpt><trkpt lat="44.61937821462053" lon="9.32501951227203"><ele>488.0</ele><time>2026-05-03T08:41:18Z</time></trkpt><trkpt lat="44.61925008720625" lon="9.3248466589589"><ele>493.3333333333333</ele><time>2026-05-03T08:41:19Z</time></trkpt><trkpt lat="44.61912377451208" lon="9.324683818561647"><ele>498.66666666666663</ele><time>2026-05-03T08:41:20Z</time></trkpt><trkpt lat="44.618997184499754" lon="9.324515940749889"><ele>504.0</ele><time>2026-05-03T08:41:21Z</time></trkpt><trkpt lat="44.61886952039561" lon="9.324344904738348"><ele>504.0</ele><time>2026-05-03T08:41:22Z</time></trkpt><trkpt lat="44.61874365126034" lon="9.324165663613794"><ele>504.0</ele><time>2026-05-03T08:41:23Z</time></trkpt><trkpt lat="44.61861501950956" lon="9.323988401437603"><ele>504.0</ele><time>2026-05-03T08:41:24Z</time></trkpt><trkpt lat="44.61848279224724" lon="9.323806325626746"><ele>502.33333333333337</ele><time>2026-05-03T08:41:25Z</time></trkpt><trkpt lat="44.618348792203086" lon="9.323626682919965"><ele>500.6666666666667</ele><time>2026-05-03T08:41:26Z</time></trkpt><trkpt lat="44.618208635544796" lon="9.323439895049397"><ele>499.0</ele><time>2026-05-03T08:41:27Z</time></trkpt><trkpt lat="44.61806742769798" lon="9.323237415447078"><ele>500.33333333333337</ele><time>2026-05-03T08:41:28Z</time></trkpt><trkpt lat="44.61792650291601" lon="9.323036726864952"><ele>501.66666666666663</ele><time>2026-05-03T08:41:29Z</time></trkpt><trkpt lat="44.61777577545612" lon="9.322843261320067"><ele>503.0</ele><time>2026-05-03T08:41:30Z</time></trkpt><trkpt lat="44.61762300959667" lon="9.32264987184917"><ele>498.66666666666663</ele><time>2026-05-03T08:41:31Z</time></trkpt><trkpt lat="44.61747880822233" lon="9.322451556847797"><ele>494.33333333333337</ele><time>2026-05-03T08:41:32Z</time></trkpt><trkpt lat="44.61732998253293" lon="9.322265233398582"><ele>490.0</ele><time>2026-05-03T08:41:33Z</time></trkpt><trkpt lat="44.61718041696989" lon="9.322091923667998"><ele>490.0</ele><time>2026-05-03T08:41:34Z</time></trkpt><trkpt lat="44.61702086757465" lon="9.321951283859763"><ele>490.0</ele><time>2026-05-03T08:41:35Z</time></trkpt><trkpt lat="44.61684629426688" lon="9.321851197364596"><ele>490.0</ele><time>2026-05-03T08:41:36Z</time></trkpt><trkpt lat="44.61666535675198" lon="9.32178602428046"><ele>494.0</ele><time>2026-05-03T08:41:37Z</time></trkpt><trkpt lat="44.61647082746875" lon="9.321761910376535"><ele>498.0</ele><time>2026-05-03T08:41:38Z</time></trkpt><trkpt lat="44.61627358177189" lon="9.321760362117317"><ele>502.0</ele><time>2026-05-03T08:41:39Z</time></trkpt><trkpt lat="44.61607145141893" lon="9.321771288801983"><ele>504.33333333333337</ele><time>2026-05-03T08:41:40Z</time></trkpt><trkpt lat="44.615874992935865" lon="9.321781277671825"><ele>506.66666666666663</ele><time>2026-05-03T08:41:41Z</time></trkpt><trkpt lat="44.61568328697753" lon="9.321799462627846"><ele>509.0</ele><time>2026-05-03T08:41:42Z</time></trkpt><trkpt lat="44.615491958297504" lon="9.321812421914547"><ele>509.0</ele><time>2026-05-03T08:41:43Z</time></trkpt><trkpt lat="44.615320844841264" lon="9.321806022541438"><ele>509.0</ele><time>2026-05-03T08:41:44Z</time></trkpt><trkpt lat="44.61517144577365" lon="9.321761978719607"><ele>509.0</ele><time>2026-05-03T08:41:45Z</time></trkpt><trkpt lat="44.61502368443008" lon="9.321676391432506"><ele>509.66666666666663</ele><time>2026-05-03T08:41:46Z</time></trkpt><trkpt lat="44.614882331393844" lon="9.321543232242258"><ele>510.33333333333337</ele><time>2026-05-03T08:41:47Z</time></trkpt><trkpt lat="44.61477050785592" lon="9.321413137382214"><ele>511.0</ele><time>2026-05-03T08:41:48Z</time></trkpt><trkpt lat="44.61465639463186" lon="9.321302535505762"><ele>508.0</ele><time>2026-05-03T08:41:49Z</time></trkpt><trkpt lat="44.614541820971624" lon="9.321192893930135"><ele>505.0</ele><time>2026-05-03T08:41:50Z</time></trkpt><trkpt lat="44.614286215834646" lon="9.321356306227987"><ele>502.0</ele><time>2026-05-03T08:41:51Z</time></trkpt><trkpt lat="44.61408152924122" lon="9.321422193400641"><ele>507.0</ele><time>2026-05-03T08:41:52Z</time></trkpt><trkpt lat="44.61385989999092" lon="9.32148441006495"><ele>512.0</ele><time>2026-05-03T08:41:53Z</time></trkpt><trkpt lat="44.613659239457256" lon="9.321538755130893"><ele>517.0</ele><time>2026-05-03T08:41:54Z</time></trkpt><trkpt lat="44.61347574209854" lon="9.321586641220403"><ele>517.0</ele><time>2026-05-03T08:41:55Z</time></trkpt><trkpt lat="44.61333155191678" lon="9.321608134982535"><ele>517.0</ele><time>2026-05-03T08:41:56Z</time></trkpt><trkpt lat="44.613210544946284" lon="9.321632182647152"><ele>517.0</ele><time>2026-05-03T08:41:57Z</time></trkpt><trkpt lat="44.613114348692434" lon="9.321592169576311"><ele>517.0</ele><time>2026-05-03T08:41:58Z</time></trkpt><trkpt lat="44.613058512285555" lon="9.32150875013247"><ele>517.0</ele><time>2026-05-03T08:41:59Z</time></trkpt><trkpt lat="44.61302420486984" lon="9.321364928372335"><ele>513.25</ele><time>2026-05-03T08:42:00Z</time></trkpt><trkpt lat="44.613009202849774" lon="9.321179980906143"><ele>509.5</ele><time>2026-05-03T08:42:01Z</time></trkpt><trkpt lat="44.612982202567025" lon="9.32096832767783"><ele>505.75</ele><time>2026-05-03T08:42:02Z</time></trkpt><trkpt lat="44.61293747644596" lon="9.320780832083924"><ele>502.0</ele><time>2026-05-03T08:42:03Z</time></trkpt><trkpt lat="44.6128663412114" lon="9.320607224221623"><ele>503.0</ele><time>2026-05-03T08:42:04Z</time></trkpt><trkpt lat="44.6127320081577" lon="9.320441267725727"><ele>504.0</ele><time>2026-05-03T08:42:05Z</time></trkpt><trkpt lat="44.61257310676756" lon="9.320311668185962"><ele>505.0</ele><time>2026-05-03T08:42:06Z</time></trkpt><trkpt lat="44.612436034411125" lon="9.320230934623158"><ele>505.0</ele><time>2026-05-03T08:42:07Z</time></trkpt><trkpt lat="44.61233484168957" lon="9.320158573512467"><ele>505.0</ele><time>2026-05-03T08:42:08Z</time></trkpt><trkpt lat="44.61224180841963" lon="9.320106820862001"><ele>505.0</ele><time>2026-05-03T08:42:09Z</time></trkpt><trkpt lat="44.612121931041735" lon="9.320034364123895"><ele>505.0</ele><time>2026-05-03T08:42:10Z</time></trkpt><trkpt lat="44.61202359418543" lon="9.319936574907517"><ele>505.0</ele><time>2026-05-03T08:42:11Z</time></trkpt><trkpt lat="44.611936123973834" lon="9.319751039402382"><ele>505.0</ele><time>2026-05-03T08:42:12Z</time></trkpt><trkpt lat="44.611906780867535" lon="9.319563051326426"><ele>505.0</ele><time>2026-05-03T08:42:13Z</time></trkpt><trkpt lat="44.611903717565866" lon="9.319398888519709"><ele>505.0</ele><time>2026-05-03T08:42:14Z</time></trkpt><trkpt lat="44.611902863134" lon="9.319239420733766"><ele>505.0</ele><time>2026-05-03T08:42:15Z</time></trkpt><trkpt lat="44.61187872047952" lon="9.319089630893158"><ele>505.0</ele><time>2026-05-03T08:42:16Z</time></trkpt><trkpt lat="44.61181426866857" lon="9.318950250425155"><ele>505.0</ele><time>2026-05-03T08:42:17Z</time></trkpt><trkpt lat="44.611708453603136" lon="9.318823017745402"><ele>505.0</ele><time>2026-05-03T08:42:18Z</time></trkpt><trkpt lat="44.611580740975946" lon="9.318709187684842"><ele>504.75</ele><time>2026-05-03T08:42:19Z</time></trkpt><trkpt lat="44.611453909312296" lon="9.318589293358041"><ele>504.5</ele><time>2026-05-03T08:42:20Z</time></trkpt><trkpt lat="44.611336528925165" lon="9.318468680053515"><ele>504.25</ele><time>2026-05-03T08:42:21Z</time></trkpt><trkpt lat="44.611213261603055" lon="9.318372654985579"><ele>504.0</ele><time>2026-05-03T08:42:22Z</time></trkpt><trkpt lat="44.611093206375834" lon="9.318283399444406"><ele>504.0</ele><time>2026-05-03T08:42:23Z</time></trkpt><trkpt lat="44.61097043311869" lon="9.318200423944985"><ele>504.0</ele><time>2026-05-03T08:42:24Z</time></trkpt><trkpt lat="44.61088401208261" lon="9.31811663749892"><ele>504.0</ele><time>2026-05-03T08:42:25Z</time></trkpt><trkpt lat="44.6108171972021" lon="9.318030193447782"><ele>504.0</ele><time>2026-05-03T08:42:26Z</time></trkpt><trkpt lat="44.610794136888344" lon="9.317896011005983"><ele>504.0</ele><time>2026-05-03T08:42:27Z</time></trkpt><trkpt lat="44.61077956801358" lon="9.31774251039685"><ele>506.0</ele><time>2026-05-03T08:42:28Z</time></trkpt><trkpt lat="44.61079916300601" lon="9.317539756332046"><ele>508.0</ele><time>2026-05-03T08:42:29Z</time></trkpt><trkpt lat="44.61081162613414" lon="9.317317440043315"><ele>510.0</ele><time>2026-05-03T08:42:30Z</time></trkpt><trkpt lat="44.61079145005401" lon="9.317125573443436"><ele>512.0</ele><time>2026-05-03T08:42:31Z</time></trkpt><trkpt lat="44.610768613349265" lon="9.316947228429667"><ele>513.25</ele><time>2026-05-03T08:42:32Z</time></trkpt><trkpt lat="44.61076950740513" lon="9.316765569670595"><ele>514.5</ele><time>2026-05-03T08:42:33Z</time></trkpt><trkpt lat="44.61081211255102" lon="9.316582442829478"><ele>515.75</ele><time>2026-05-03T08:42:34Z</time></trkpt><trkpt lat="44.61086163173094" lon="9.316396860030173"><ele>517.0</ele><time>2026-05-03T08:42:35Z</time></trkpt><trkpt lat="44.61088382380989" lon="9.316177339174232"><ele>517.3333333333334</ele><time>2026-05-03T08:42:36Z</time></trkpt><trkpt lat="44.61086699567853" lon="9.315945099837196"><ele>517.6666666666666</ele><time>2026-05-03T08:42:37Z</time></trkpt><trkpt lat="44.61083274765947" lon="9.315714337991919"><ele>518.0</ele><time>2026-05-03T08:42:38Z</time></trkpt><trkpt lat="44.61077900273735" lon="9.315478689649526"><ele>518.3333333333333</ele><time>2026-05-03T08:42:39Z</time></trkpt><trkpt lat="44.61071492922585" lon="9.31523357901317"><ele>518.6666666666666</ele><time>2026-05-03T08:42:40Z</time></trkpt><trkpt lat="44.61065093999485" lon="9.31500908128414"><ele>519.0</ele><time>2026-05-03T08:42:41Z</time></trkpt><trkpt lat="44.61060026225878" lon="9.314797889305053"><ele>521.6666666666666</ele><time>2026-05-03T08:42:42Z</time></trkpt><trkpt lat="44.61056425423594" lon="9.314597132590931"><ele>524.3333333333333</ele><time>2026-05-03T08:42:43Z</time></trkpt><trkpt lat="44.610544881702864" lon="9.314377226243701"><ele>527.0</ele><time>2026-05-03T08:42:44Z</time></trkpt><trkpt lat="44.61053496858207" lon="9.314150372983924"><ele>527.0</ele><time>2026-05-03T08:42:45Z</time></trkpt><trkpt lat="44.6105329611421" lon="9.313939248877968"><ele>527.0</ele><time>2026-05-03T08:42:46Z</time></trkpt><trkpt lat="44.61053352432503" lon="9.313739180930158"><ele>527.0</ele><time>2026-05-03T08:42:47Z</time></trkpt><trkpt lat="44.61051659917569" lon="9.31355044923382"><ele>527.0</ele><time>2026-05-03T08:42:48Z</time></trkpt><trkpt lat="44.61049524337777" lon="9.313359568812247"><ele>527.0</ele><time>2026-05-03T08:42:49Z</time></trkpt><trkpt lat="44.610456943417574" lon="9.313170787922225"><ele>527.0</ele><time>2026-05-03T08:42:50Z</time></trkpt><trkpt lat="44.610412028452735" lon="9.312967005111416"><ele>527.0</ele><time>2026-05-03T08:42:51Z</time></trkpt><trkpt lat="44.610362504661325" lon="9.312758583583983"><ele>527.0</ele><time>2026-05-03T08:42:52Z</time></trkpt><trkpt lat="44.610303605074236" lon="9.312548127513844"><ele>523.0</ele><time>2026-05-03T08:42:53Z</time></trkpt><trkpt lat="44.61024294606314" lon="9.312356540258618"><ele>519.0</ele><time>2026-05-03T08:42:54Z</time></trkpt><trkpt lat="44.610184789792456" lon="9.312179910438363"><ele>515.0</ele><time>2026-05-03T08:42:55Z</time></trkpt><trkpt lat="44.610141070370325" lon="9.312012145393279"><ele>511.0</ele><time>2026-05-03T08:42:56Z</time></trkpt><trkpt lat="44.610123852894844" lon="9.311846634098295"><ele>511.0</ele><time>2026-05-03T08:42:57Z</time></trkpt><trkpt lat="44.61013411764656" lon="9.311670502679839"><ele>511.0</ele><time>2026-05-03T08:42:58Z</time></trkpt><trkpt lat="44.61017922774924" lon="9.311504523637016"><ele>511.0</ele><time>2026-05-03T08:42:59Z</time></trkpt><trkpt lat="44.61025174764359" lon="9.311351023578313"><ele>511.0</ele><time>2026-05-03T08:43:00Z</time></trkpt><trkpt lat="44.61035968148693" lon="9.31119926223282"><ele>517.6666666666667</ele><time>2026-05-03T08:43:01Z</time></trkpt><trkpt lat="44.61047253967975" lon="9.311031219343924"><ele>524.3333333333334</ele><time>2026-05-03T08:43:02Z</time></trkpt><trkpt lat="44.61058338224518" lon="9.310864191647207"><ele>531.0</ele><time>2026-05-03T08:43:03Z</time></trkpt><trkpt lat="44.61068606108876" lon="9.310701507074754"><ele>527.8</ele><time>2026-05-03T08:43:04Z</time></trkpt><trkpt lat="44.61078304647613" lon="9.310559512636125"><ele>524.6</ele><time>2026-05-03T08:43:05Z</time></trkpt><trkpt lat="44.61086040021592" lon="9.310437015910585"><ele>521.4</ele><time>2026-05-03T08:43:06Z</time></trkpt><trkpt lat="44.6109343589539" lon="9.310368731784951"><ele>518.2</ele><time>2026-05-03T08:43:07Z</time></trkpt><trkpt lat="44.61098990738971" lon="9.310308366658765"><ele>515.0</ele><time>2026-05-03T08:43:08Z</time></trkpt><trkpt lat="44.611040775788624" lon="9.310111009762958"><ele>515.0</ele><time>2026-05-03T08:43:10Z</time></trkpt><trkpt lat="44.61110280162754" lon="9.310016005933457"><ele>515.0</ele><time>2026-05-03T08:43:11Z</time></trkpt><trkpt lat="44.61120445982735" lon="9.309421918845718"><ele>518.2</ele><time>2026-05-03T08:43:12Z</time></trkpt><trkpt lat="44.61122941357076" lon="9.309247596236236"><ele>521.4</ele><time>2026-05-03T08:43:13Z</time></trkpt><trkpt lat="44.61126629166122" lon="9.309088698837572"><ele>524.6</ele><time>2026-05-03T08:43:14Z</time></trkpt><trkpt lat="44.611299083113465" lon="9.308948602219681"><ele>527.8</ele><time>2026-05-03T08:43:15Z</time></trkpt><trkpt lat="44.6113017161032" lon="9.308814996430325"><ele>531.0</ele><time>2026-05-03T08:43:16Z</time></trkpt><trkpt lat="44.61125738191528" lon="9.308670224318671"><ele>531.0</ele><time>2026-05-03T08:43:17Z</time></trkpt><trkpt lat="44.611169367306495" lon="9.308510048653522"><ele>531.0</ele><time>2026-05-03T08:43:18Z</time></trkpt><trkpt lat="44.611056251146174" lon="9.308357325803817"><ele>531.0</ele><time>2026-05-03T08:43:19Z</time></trkpt><trkpt lat="44.61094709907072" lon="9.308180388768086"><ele>529.0</ele><time>2026-05-03T08:43:20Z</time></trkpt><trkpt lat="44.610839867075" lon="9.308018774161463"><ele>527.0</ele><time>2026-05-03T08:43:21Z</time></trkpt><trkpt lat="44.61074096524094" lon="9.30787341268742"><ele>525.0</ele><time>2026-05-03T08:43:22Z</time></trkpt><trkpt lat="44.61065513285361" lon="9.307730657924502"><ele>523.0</ele><time>2026-05-03T08:43:23Z</time></trkpt><trkpt lat="44.610605563177" lon="9.307580780525251"><ele>523.0</ele><time>2026-05-03T08:43:24Z</time></trkpt><trkpt lat="44.61059940602418" lon="9.307427035630743"><ele>523.0</ele><time>2026-05-03T08:43:25Z</time></trkpt><trkpt lat="44.610615263782584" lon="9.307265750607563"><ele>523.0</ele><time>2026-05-03T08:43:26Z</time></trkpt><trkpt lat="44.6106134966073" lon="9.307108099557208"><ele>523.0</ele><time>2026-05-03T08:43:27Z</time></trkpt><trkpt lat="44.61056694518605" lon="9.30696126230734"><ele>526.0</ele><time>2026-05-03T08:43:28Z</time></trkpt><trkpt lat="44.610484785464145" lon="9.306823644745279"><ele>529.0</ele><time>2026-05-03T08:43:29Z</time></trkpt><trkpt lat="44.61036428644229" lon="9.306724755963415"><ele>532.0</ele><time>2026-05-03T08:43:30Z</time></trkpt><trkpt lat="44.61023247443236" lon="9.306654538610392"><ele>535.0</ele><time>2026-05-03T08:43:31Z</time></trkpt><trkpt lat="44.610083830132425" lon="9.306596865522728"><ele>535.0</ele><time>2026-05-03T08:43:32Z</time></trkpt><trkpt lat="44.60993787344326" lon="9.30658546615089"><ele>535.0</ele><time>2026-05-03T08:43:33Z</time></trkpt><trkpt lat="44.60978305066363" lon="9.3066384680041"><ele>535.0</ele><time>2026-05-03T08:43:34Z</time></trkpt><trkpt lat="44.60957482408432" lon="9.306719503016852"><ele>533.3333333333334</ele><time>2026-05-03T08:43:35Z</time></trkpt><trkpt lat="44.60939961573056" lon="9.306754937973643"><ele>531.6666666666666</ele><time>2026-05-03T08:43:36Z</time></trkpt><trkpt lat="44.60922410609531" lon="9.306831516729277"><ele>530.0</ele><time>2026-05-03T08:43:37Z</time></trkpt><trkpt lat="44.60906047365196" lon="9.306884344161114"><ele>530.0</ele><time>2026-05-03T08:43:38Z</time></trkpt><trkpt lat="44.60891095251607" lon="9.306944920931553"><ele>530.0</ele><time>2026-05-03T08:43:39Z</time></trkpt><trkpt lat="44.608775447336235" lon="9.306974353920818"><ele>530.0</ele><time>2026-05-03T08:43:40Z</time></trkpt><trkpt lat="44.60867179695167" lon="9.307032448930821"><ele>530.0</ele><time>2026-05-03T08:43:41Z</time></trkpt><trkpt lat="44.60856486734723" lon="9.307050206129436"><ele>529.5</ele><time>2026-05-03T08:43:42Z</time></trkpt><trkpt lat="44.60844266209903" lon="9.307027863719147"><ele>529.0</ele><time>2026-05-03T08:43:43Z</time></trkpt><trkpt lat="44.60832119817825" lon="9.306998295953726"><ele>528.5</ele><time>2026-05-03T08:43:44Z</time></trkpt><trkpt lat="44.60817232343405" lon="9.306983383734078"><ele>528.0</ele><time>2026-05-03T08:43:45Z</time></trkpt><trkpt lat="44.608002384827" lon="9.306964435033485"><ele>528.0</ele><time>2026-05-03T08:43:46Z</time></trkpt><trkpt lat="44.607842110192145" lon="9.306950307823236"><ele>528.0</ele><time>2026-05-03T08:43:47Z</time></trkpt><trkpt lat="44.60770370567042" lon="9.306957049647576"><ele>528.0</ele><time>2026-05-03T08:43:48Z</time></trkpt><trkpt lat="44.607571498426466" lon="9.306949716254445"><ele>528.0</ele><time>2026-05-03T08:43:49Z</time></trkpt><trkpt lat="44.6074393801891" lon="9.306910035263458"><ele>527.5</ele><time>2026-05-03T08:43:50Z</time></trkpt><trkpt lat="44.60732508422422" lon="9.306813422528407"><ele>527.0</ele><time>2026-05-03T08:43:51Z</time></trkpt><trkpt lat="44.60720737979007" lon="9.30667951146583"><ele>526.5</ele><time>2026-05-03T08:43:52Z</time></trkpt><trkpt lat="44.60707974883449" lon="9.306551648342777"><ele>526.0</ele><time>2026-05-03T08:43:53Z</time></trkpt><trkpt lat="44.60698906246335" lon="9.306412492165155"><ele>526.25</ele><time>2026-05-03T08:43:54Z</time></trkpt><trkpt lat="44.60690966129965" lon="9.306285933110816"><ele>526.5</ele><time>2026-05-03T08:43:55Z</time></trkpt><trkpt lat="44.60686925609215" lon="9.30609388769057"><ele>526.75</ele><time>2026-05-03T08:43:56Z</time></trkpt><trkpt lat="44.60682580691182" lon="9.305863864686645"><ele>527.0</ele><time>2026-05-03T08:43:57Z</time></trkpt><trkpt lat="44.6067667911919" lon="9.305592214223585"><ele>527.0</ele><time>2026-05-03T08:43:58Z</time></trkpt><trkpt lat="44.60673108727901" lon="9.305341185941403"><ele>527.0</ele><time>2026-05-03T08:43:59Z</time></trkpt><trkpt lat="44.60670096854225" lon="9.305111532744569"><ele>527.0</ele><time>2026-05-03T08:44:00Z</time></trkpt><trkpt lat="44.60669166998056" lon="9.304899046791462"><ele>525.0</ele><time>2026-05-03T08:44:01Z</time></trkpt><trkpt lat="44.60668614667256" lon="9.304714830751946"><ele>523.0</ele><time>2026-05-03T08:44:02Z</time></trkpt><trkpt lat="44.606702714716604" lon="9.304564320116443"><ele>521.0</ele><time>2026-05-03T08:44:03Z</time></trkpt><trkpt lat="44.60676430283446" lon="9.304407469326863"><ele>519.0</ele><time>2026-05-03T08:44:04Z</time></trkpt><trkpt lat="44.60686175397517" lon="9.304303696352344"><ele>519.0</ele><time>2026-05-03T08:44:05Z</time></trkpt><trkpt lat="44.606960641576315" lon="9.304290839142412"><ele>519.0</ele><time>2026-05-03T08:44:06Z</time></trkpt><trkpt lat="44.60708348277867" lon="9.304307781564003"><ele>519.0</ele><time>2026-05-03T08:44:07Z</time></trkpt><trkpt lat="44.607244527422395" lon="9.304293855750979"><ele>519.0</ele><time>2026-05-03T08:44:08Z</time></trkpt><trkpt lat="44.60740302266797" lon="9.304252098697454"><ele>523.6666666666666</ele><time>2026-05-03T08:44:09Z</time></trkpt><trkpt lat="44.60758265308128" lon="9.30412548977338"><ele>528.3333333333333</ele><time>2026-05-03T08:44:10Z</time></trkpt><trkpt lat="44.60774789122032" lon="9.303979136425813"><ele>533.0</ele><time>2026-05-03T08:44:11Z</time></trkpt><trkpt lat="44.60789717054288" lon="9.303832042240572"><ele>533.3333333333333</ele><time>2026-05-03T08:44:12Z</time></trkpt><trkpt lat="44.60802978205135" lon="9.303678488742781"><ele>533.6666666666666</ele><time>2026-05-03T08:44:13Z</time></trkpt><trkpt lat="44.60814904688414" lon="9.303522614285805"><ele>534.0</ele><time>2026-05-03T08:44:14Z</time></trkpt><trkpt lat="44.60824360069296" lon="9.303334178137634"><ele>534.0</ele><time>2026-05-03T08:44:15Z</time></trkpt><trkpt lat="44.6083262997386" lon="9.30314491799804"><ele>534.0</ele><time>2026-05-03T08:44:16Z</time></trkpt><trkpt lat="44.60838796247301" lon="9.30295481878595"><ele>534.0</ele><time>2026-05-03T08:44:17Z</time></trkpt><trkpt lat="44.6084582049937" lon="9.30277674376096"><ele>533.5</ele><time>2026-05-03T08:44:18Z</time></trkpt><trkpt lat="44.60851265973178" lon="9.302621865305245"><ele>533.0</ele><time>2026-05-03T08:44:19Z</time></trkpt><trkpt lat="44.60852097984747" lon="9.30244941311539"><ele>532.5</ele><time>2026-05-03T08:44:20Z</time></trkpt><trkpt lat="44.608496260748026" lon="9.302249894145488"><ele>532.0</ele><time>2026-05-03T08:44:21Z</time></trkpt><trkpt lat="44.608461705962505" lon="9.302032591698094"><ele>532.3333333333334</ele><time>2026-05-03T08:44:22Z</time></trkpt><trkpt lat="44.60842128420097" lon="9.301798786943138"><ele>532.6666666666666</ele><time>2026-05-03T08:44:23Z</time></trkpt><trkpt lat="44.60839549544039" lon="9.301542433458495"><ele>533.0</ele><time>2026-05-03T08:44:24Z</time></trkpt><trkpt lat="44.60836707324033" lon="9.301278298880192"><ele>533.0</ele><time>2026-05-03T08:44:25Z</time></trkpt><trkpt lat="44.60833768515984" lon="9.300998735519684"><ele>533.0</ele><time>2026-05-03T08:44:26Z</time></trkpt><trkpt lat="44.60834877816402" lon="9.300724040919945"><ele>533.0</ele><time>2026-05-03T08:44:27Z</time></trkpt><trkpt lat="44.60834800088606" lon="9.300444688631517"><ele>535.6666666666666</ele><time>2026-05-03T08:44:28Z</time></trkpt><trkpt lat="44.60833093518834" lon="9.30014448600529"><ele>538.3333333333334</ele><time>2026-05-03T08:44:29Z</time></trkpt><trkpt lat="44.60830102336704" lon="9.29982279593289"><ele>541.0</ele><time>2026-05-03T08:44:30Z</time></trkpt><trkpt lat="44.60826909171607" lon="9.299532491908726"><ele>543.0</ele><time>2026-05-03T08:44:31Z</time></trkpt><trkpt lat="44.60823391101657" lon="9.299242803708223"><ele>545.0</ele><time>2026-05-03T08:44:32Z</time></trkpt><trkpt lat="44.608195162154196" lon="9.298981706632937"><ele>547.0</ele><time>2026-05-03T08:44:33Z</time></trkpt><trkpt lat="44.608166256321304" lon="9.29874950391622"><ele>548.5</ele><time>2026-05-03T08:44:34Z</time></trkpt><trkpt lat="44.60813737700064" lon="9.298540041324017"><ele>550.0</ele><time>2026-05-03T08:44:35Z</time></trkpt><trkpt lat="44.60810650958984" lon="9.298372219676638"><ele>551.5</ele><time>2026-05-03T08:44:36Z</time></trkpt><trkpt lat="44.60806803567251" lon="9.298218072553839"><ele>553.0</ele><time>2026-05-03T08:44:37Z</time></trkpt><trkpt lat="44.60798099305522" lon="9.298104606667238"><ele>556.0</ele><time>2026-05-03T08:44:38Z</time></trkpt><trkpt lat="44.60785909267815" lon="9.298015158331458"><ele>559.0</ele><time>2026-05-03T08:44:39Z</time></trkpt><trkpt lat="44.60771856613193" lon="9.297940791517451"><ele>562.0</ele><time>2026-05-03T08:44:40Z</time></trkpt><trkpt lat="44.60758950930704" lon="9.297894251287653"><ele>565.0</ele><time>2026-05-03T08:44:41Z</time></trkpt><trkpt lat="44.607485387900496" lon="9.297801327159277"><ele>561.0</ele><time>2026-05-03T08:44:42Z</time></trkpt><trkpt lat="44.60737977966264" lon="9.297671021756791"><ele>557.0</ele><time>2026-05-03T08:44:43Z</time></trkpt><trkpt lat="44.60727297461708" lon="9.297461450858133"><ele>553.0</ele><time>2026-05-03T08:44:44Z</time></trkpt><trkpt lat="44.60714236581348" lon="9.297250536455223"><ele>553.0</ele><time>2026-05-03T08:44:45Z</time></trkpt><trkpt lat="44.60704270132975" lon="9.297054634673406"><ele>553.0</ele><time>2026-05-03T08:44:46Z</time></trkpt><trkpt lat="44.606956798008135" lon="9.296882508774035"><ele>553.0</ele><time>2026-05-03T08:44:47Z</time></trkpt><trkpt lat="44.60689647011806" lon="9.296703945122326"><ele>547.25</ele><time>2026-05-03T08:44:48Z</time></trkpt><trkpt lat="44.60687167134455" lon="9.296509991721248"><ele>541.5</ele><time>2026-05-03T08:44:49Z</time></trkpt><trkpt lat="44.6068435990714" lon="9.296303971457178"><ele>535.75</ele><time>2026-05-03T08:44:50Z</time></trkpt><trkpt lat="44.60682493742208" lon="9.296129150044724"><ele>530.0</ele><time>2026-05-03T08:44:51Z</time></trkpt><trkpt lat="44.60675617822564" lon="9.295952147571533"><ele>530.0</ele><time>2026-05-03T08:44:52Z</time></trkpt><trkpt lat="44.60665168860604" lon="9.295793044966379"><ele>530.0</ele><time>2026-05-03T08:44:53Z</time></trkpt><trkpt lat="44.60656056800508" lon="9.295622285953925"><ele>530.0</ele><time>2026-05-03T08:44:54Z</time></trkpt><trkpt lat="44.606483906681085" lon="9.295443431960694"><ele>529.6666666666666</ele><time>2026-05-03T08:44:55Z</time></trkpt><trkpt lat="44.606399024329754" lon="9.295257976214145"><ele>529.3333333333334</ele><time>2026-05-03T08:44:56Z</time></trkpt><trkpt lat="44.60630796717303" lon="9.295077546707736"><ele>529.0</ele><time>2026-05-03T08:44:57Z</time></trkpt><trkpt lat="44.60622180569711" lon="9.294900957493791"><ele>527.75</ele><time>2026-05-03T08:44:58Z</time></trkpt><trkpt lat="44.606141334888456" lon="9.294727473969338"><ele>526.5</ele><time>2026-05-03T08:44:59Z</time></trkpt><trkpt lat="44.60605930939597" lon="9.294568541815432"><ele>525.25</ele><time>2026-05-03T08:45:00Z</time></trkpt><trkpt lat="44.60598704769358" lon="9.294403539054926"><ele>524.0</ele><time>2026-05-03T08:45:01Z</time></trkpt><trkpt lat="44.60591140025993" lon="9.294255679188096"><ele>524.0</ele><time>2026-05-03T08:45:02Z</time></trkpt><trkpt lat="44.605839172746556" lon="9.294113856983177"><ele>524.0</ele><time>2026-05-03T08:45:03Z</time></trkpt><trkpt lat="44.60577524539993" lon="9.293975728571072"><ele>524.0</ele><time>2026-05-03T08:45:04Z</time></trkpt><trkpt lat="44.605711127940225" lon="9.293832133137371"><ele>524.0</ele><time>2026-05-03T08:45:05Z</time></trkpt><trkpt lat="44.6056466756335" lon="9.293697863006015"><ele>524.0</ele><time>2026-05-03T08:45:06Z</time></trkpt><trkpt lat="44.60558202359571" lon="9.293571659690707"><ele>524.0</ele><time>2026-05-03T08:45:07Z</time></trkpt><trkpt lat="44.60552389886455" lon="9.293454301049492"><ele>524.0</ele><time>2026-05-03T08:45:08Z</time></trkpt><trkpt lat="44.60547035709504" lon="9.293344202669378"><ele>524.0</ele><time>2026-05-03T08:45:09Z</time></trkpt><trkpt lat="44.60542762940052" lon="9.293242835598912"><ele>524.0</ele><time>2026-05-03T08:45:10Z</time></trkpt><trkpt lat="44.60538775259915" lon="9.293147186428907"><ele>524.2</ele><time>2026-05-03T08:45:11Z</time></trkpt><trkpt lat="44.60535123644424" lon="9.293066335084815"><ele>524.4</ele><time>2026-05-03T08:45:12Z</time></trkpt><trkpt lat="44.6052900433908" lon="9.292950496677522"><ele>524.6</ele><time>2026-05-03T08:45:14Z</time></trkpt><trkpt lat="44.60523903111305" lon="9.29284504886187"><ele>524.8</ele><time>2026-05-03T08:45:16Z</time></trkpt><trkpt lat="44.60516975536569" lon="9.292699143714925"><ele>525.0</ele><time>2026-05-03T08:45:17.999Z</time></trkpt><trkpt lat="44.60512617563041" lon="9.292617034893075"><ele>525.0</ele><time>2026-05-03T08:45:18.999Z</time></trkpt><trkpt lat="44.60508576003573" lon="9.292527099571592"><ele>525.0</ele><time>2026-05-03T08:45:19.999Z</time></trkpt><trkpt lat="44.605035849919425" lon="9.292436054923954"><ele>525.0</ele><time>2026-05-03T08:45:20.999Z</time></trkpt><trkpt lat="44.60498734566522" lon="9.292343609817712"><ele>525.0</ele><time>2026-05-03T08:45:21.999Z</time></trkpt><trkpt lat="44.60493424787671" lon="9.29224449216737"><ele>525.0</ele><time>2026-05-03T08:45:22.999Z</time></trkpt><trkpt lat="44.604882314822945" lon="9.29213975921713"><ele>525.0</ele><time>2026-05-03T08:45:23.999Z</time></trkpt><trkpt lat="44.604833589528106" lon="9.292039768222354"><ele>525.5</ele><time>2026-05-03T08:45:25Z</time></trkpt><trkpt lat="44.60479108156713" lon="9.291954368555116"><ele>526.0</ele><time>2026-05-03T08:45:26Z</time></trkpt><trkpt lat="44.60474069056087" lon="9.291888148174683"><ele>526.5</ele><time>2026-05-03T08:45:27Z</time></trkpt><trkpt lat="44.604653590271155" lon="9.291796790140383"><ele>527.0</ele><time>2026-05-03T08:45:29Z</time></trkpt><trkpt lat="44.604569366884796" lon="9.29173759128905"><ele>527.5</ele><time>2026-05-03T08:45:31Z</time></trkpt><trkpt lat="44.60450735305347" lon="9.29170232191092"><ele>528.0</ele><time>2026-05-03T08:45:33Z</time></trkpt><trkpt lat="44.60453360764447" lon="9.291832513921287"><ele>528.0</ele><time>2026-05-03T08:45:37Z</time></trkpt><trkpt lat="44.60466666723775" lon="9.291896008134463"><ele>528.0</ele><time>2026-05-03T08:45:39Z</time></trkpt><trkpt lat="44.60472885206007" lon="9.291948263652406"><ele>528.0</ele><time>2026-05-03T08:45:40Z</time></trkpt><trkpt lat="44.60478118750437" lon="9.292016119367755"><ele>528.0</ele><time>2026-05-03T08:45:41Z</time></trkpt><trkpt lat="44.60483371199862" lon="9.292096698182837"><ele>528.0</ele><time>2026-05-03T08:45:42Z</time></trkpt><trkpt lat="44.60489124623018" lon="9.29221777770664"><ele>527.5714285714286</ele><time>2026-05-03T08:45:44Z</time></trkpt><trkpt lat="44.604923410584775" lon="9.292325531779927"><ele>527.1428571428571</ele><time>2026-05-03T08:45:46Z</time></trkpt><trkpt lat="44.604962434467495" lon="9.292406493184407"><ele>526.7142857142858</ele><time>2026-05-03T08:45:48Z</time></trkpt><trkpt lat="44.60501360063727" lon="9.292472024512294"><ele>526.2857142857142</ele><time>2026-05-03T08:45:51Z</time></trkpt><trkpt lat="44.60500626257553" lon="9.29256855749576"><ele>525.8571428571429</ele><time>2026-05-03T08:48:00Z</time></trkpt><trkpt lat="44.60503792944402" lon="9.292650952257528"><ele>525.4285714285714</ele><time>2026-05-03T08:48:18Z</time></trkpt><trkpt lat="44.6049657835828" lon="9.292678992382406"><ele>525.0</ele><time>2026-05-03T08:48:34Z</time></trkpt><trkpt lat="44.60490013877257" lon="9.292689903529993"><ele>525.0</ele><time>2026-05-03T08:48:36Z</time></trkpt><trkpt lat="44.60482145030109" lon="9.292708695235962"><ele>525.0</ele><time>2026-05-03T08:48:39Z</time></trkpt><trkpt lat="44.6047280098079" lon="9.292733932482072"><ele>525.0</ele><time>2026-05-03T08:48:42Z</time></trkpt><trkpt lat="44.604658664751454" lon="9.292753054014273"><ele>525.0</ele><time>2026-05-03T08:48:44.144Z</time></trkpt><trkpt lat="44.60456587759529" lon="9.292778208480252"><ele>525.0</ele><time>2026-05-03T08:48:47.256Z</time></trkpt><trkpt lat="44.604741792455435" lon="9.292740558497073"><ele>525.0</ele><time>2026-05-03T08:48:50.141Z</time></trkpt><trkpt lat="44.60498813649849" lon="9.292660848215547"><ele>525.0</ele><time>2026-05-03T08:49:40.087Z</time></trkpt><trkpt lat="44.60505592796099" lon="9.292662445863819"><ele>525.0</ele><time>2026-05-03T08:55:24.999Z</time></trkpt></trkseg></trk></gpx>